<?xml version="1.0" encoding="UTF-8" standalone="no" ?>
<gpx xmlns="http://www.topografix.com/GPX/1/1" xmlns:xsi="http://www.w3.org/2001/XMLSchema-instance" xsi:schemaLocation="http://www.topografix.com/GPX/1/1 http://www.topografix.com/GPX/1/1/gpx.xsd" version="1.1" creator="VisuGPX - https://www.visugpx.com">
  <metadata>
    <name>Jour 12 - Le Chemin Sauvage</name>
  </metadata>
  <trk>
    <name><![CDATA[2026-05-13 16:49:34]]></name>
    <trkseg>
      <trkpt lat="44.93999" lon="1.92863">
        <ele>161.16</ele>
        <time>2026-05-13T05:02:56Z</time>
      </trkpt>
      <trkpt lat="44.93999" lon="1.92862">
        <ele>161.16</ele>
        <time>2026-05-13T05:02:57Z</time>
      </trkpt>
      <trkpt lat="44.94" lon="1.92861">
        <ele>161.64</ele>
        <time>2026-05-13T05:03:06Z</time>
      </trkpt>
      <trkpt lat="44.93998" lon="1.92862">
        <ele>160.68</ele>
        <time>2026-05-13T05:03:25Z</time>
      </trkpt>
      <trkpt lat="44.93996" lon="1.92867">
        <ele>164.04</ele>
        <time>2026-05-13T05:03:47Z</time>
      </trkpt>
      <trkpt lat="44.93997" lon="1.92867">
        <ele>161.64</ele>
        <time>2026-05-13T05:03:48Z</time>
      </trkpt>
      <trkpt lat="44.93998" lon="1.92869">
        <ele>160.68</ele>
        <time>2026-05-13T05:03:50Z</time>
      </trkpt>
      <trkpt lat="44.93998" lon="1.92867">
        <ele>160.68</ele>
        <time>2026-05-13T05:03:57Z</time>
      </trkpt>
      <trkpt lat="44.93996" lon="1.92865">
        <ele>160.68</ele>
        <time>2026-05-13T05:03:59Z</time>
      </trkpt>
      <trkpt lat="44.93992" lon="1.92864">
        <ele>160.68</ele>
        <time>2026-05-13T05:04:03Z</time>
      </trkpt>
      <trkpt lat="44.93988" lon="1.92865">
        <ele>164.04</ele>
        <time>2026-05-13T05:04:15Z</time>
      </trkpt>
      <trkpt lat="44.93986" lon="1.92863">
        <ele>164.04</ele>
        <time>2026-05-13T05:04:17Z</time>
      </trkpt>
      <trkpt lat="44.93983" lon="1.92861">
        <ele>164.04</ele>
        <time>2026-05-13T05:04:20Z</time>
      </trkpt>
      <trkpt lat="44.93982" lon="1.92861">
        <ele>164.04</ele>
        <time>2026-05-13T05:04:22Z</time>
      </trkpt>
      <trkpt lat="44.93978" lon="1.92866">
        <ele>164.04</ele>
        <time>2026-05-13T05:04:27Z</time>
      </trkpt>
      <trkpt lat="44.93974" lon="1.92871">
        <ele>164.04</ele>
        <time>2026-05-13T05:04:33Z</time>
      </trkpt>
      <trkpt lat="44.93969" lon="1.9287">
        <ele>164.04</ele>
        <time>2026-05-13T05:04:38Z</time>
      </trkpt>
      <trkpt lat="44.93952" lon="1.92858">
        <ele>163.56</ele>
        <time>2026-05-13T05:04:53Z</time>
      </trkpt>
      <trkpt lat="44.93946" lon="1.92852">
        <ele>163.56</ele>
        <time>2026-05-13T05:05:08Z</time>
      </trkpt>
      <trkpt lat="44.93949" lon="1.92852">
        <ele>162.6</ele>
        <time>2026-05-13T05:05:24Z</time>
      </trkpt>
      <trkpt lat="44.93949" lon="1.92852">
        <ele>164.04</ele>
        <time>2026-05-13T05:05:25Z</time>
      </trkpt>
      <trkpt lat="44.93949" lon="1.92853">
        <ele>164.04</ele>
        <time>2026-05-13T05:05:45Z</time>
      </trkpt>
      <trkpt lat="44.93946" lon="1.92851">
        <ele>164.04</ele>
        <time>2026-05-13T05:06:05Z</time>
      </trkpt>
      <trkpt lat="44.93946" lon="1.92851">
        <ele>164.04</ele>
        <time>2026-05-13T05:06:22Z</time>
      </trkpt>
      <trkpt lat="44.93942" lon="1.9285">
        <ele>164.04</ele>
        <time>2026-05-13T05:06:38Z</time>
      </trkpt>
      <trkpt lat="44.93937" lon="1.92845">
        <ele>164.04</ele>
        <time>2026-05-13T05:06:45Z</time>
      </trkpt>
      <trkpt lat="44.93935" lon="1.92842">
        <ele>164.04</ele>
        <time>2026-05-13T05:06:47Z</time>
      </trkpt>
      <trkpt lat="44.93921" lon="1.92828">
        <ele>164.04</ele>
        <time>2026-05-13T05:07:00Z</time>
      </trkpt>
      <trkpt lat="44.93907" lon="1.92809">
        <ele>164.04</ele>
        <time>2026-05-13T05:07:14Z</time>
      </trkpt>
      <trkpt lat="44.93905" lon="1.92804">
        <ele>164.04</ele>
        <time>2026-05-13T05:07:18Z</time>
      </trkpt>
      <trkpt lat="44.939" lon="1.92791">
        <ele>164.04</ele>
        <time>2026-05-13T05:07:25Z</time>
      </trkpt>
      <trkpt lat="44.93901" lon="1.92776">
        <ele>164.04</ele>
        <time>2026-05-13T05:07:35Z</time>
      </trkpt>
      <trkpt lat="44.93899" lon="1.92762">
        <ele>164.04</ele>
        <time>2026-05-13T05:07:45Z</time>
      </trkpt>
      <trkpt lat="44.93897" lon="1.92754">
        <ele>164.04</ele>
        <time>2026-05-13T05:07:50Z</time>
      </trkpt>
      <trkpt lat="44.93898" lon="1.92743">
        <ele>164.04</ele>
        <time>2026-05-13T05:07:58Z</time>
      </trkpt>
      <trkpt lat="44.93895" lon="1.92738">
        <ele>164.52</ele>
        <time>2026-05-13T05:08:16Z</time>
      </trkpt>
      <trkpt lat="44.93893" lon="1.92723">
        <ele>164.52</ele>
        <time>2026-05-13T05:08:30Z</time>
      </trkpt>
      <trkpt lat="44.93895" lon="1.92706">
        <ele>164.52</ele>
        <time>2026-05-13T05:08:41Z</time>
      </trkpt>
      <trkpt lat="44.93895" lon="1.92696">
        <ele>164.52</ele>
        <time>2026-05-13T05:08:46Z</time>
      </trkpt>
      <trkpt lat="44.93889" lon="1.92658">
        <ele>165.48</ele>
        <time>2026-05-13T05:09:03Z</time>
      </trkpt>
      <trkpt lat="44.93891" lon="1.92623">
        <ele>165.48</ele>
        <time>2026-05-13T05:09:20Z</time>
      </trkpt>
      <trkpt lat="44.93885" lon="1.92592">
        <ele>165.48</ele>
        <time>2026-05-13T05:09:37Z</time>
      </trkpt>
      <trkpt lat="44.9387" lon="1.92556">
        <ele>165.48</ele>
        <time>2026-05-13T05:09:58Z</time>
      </trkpt>
      <trkpt lat="44.93854" lon="1.9252">
        <ele>164.04</ele>
        <time>2026-05-13T05:10:19Z</time>
      </trkpt>
      <trkpt lat="44.93844" lon="1.92491">
        <ele>164.04</ele>
        <time>2026-05-13T05:10:35Z</time>
      </trkpt>
      <trkpt lat="44.9384" lon="1.92464">
        <ele>165.48</ele>
        <time>2026-05-13T05:10:52Z</time>
      </trkpt>
      <trkpt lat="44.93832" lon="1.9243">
        <ele>165.96</ele>
        <time>2026-05-13T05:11:09Z</time>
      </trkpt>
      <trkpt lat="44.93825" lon="1.92402">
        <ele>166.45</ele>
        <time>2026-05-13T05:11:24Z</time>
      </trkpt>
      <trkpt lat="44.93818" lon="1.92382">
        <ele>166.93</ele>
        <time>2026-05-13T05:11:36Z</time>
      </trkpt>
      <trkpt lat="44.93813" lon="1.92354">
        <ele>167.41</ele>
        <time>2026-05-13T05:11:51Z</time>
      </trkpt>
      <trkpt lat="44.93812" lon="1.92328">
        <ele>168.37</ele>
        <time>2026-05-13T05:12:06Z</time>
      </trkpt>
      <trkpt lat="44.93807" lon="1.92292">
        <ele>168.37</ele>
        <time>2026-05-13T05:12:24Z</time>
      </trkpt>
      <trkpt lat="44.93807" lon="1.92283">
        <ele>168.37</ele>
        <time>2026-05-13T05:12:28Z</time>
      </trkpt>
      <trkpt lat="44.93811" lon="1.92248">
        <ele>168.37</ele>
        <time>2026-05-13T05:12:46Z</time>
      </trkpt>
      <trkpt lat="44.93815" lon="1.92218">
        <ele>168.85</ele>
        <time>2026-05-13T05:13:02Z</time>
      </trkpt>
      <trkpt lat="44.93818" lon="1.92207">
        <ele>168.85</ele>
        <time>2026-05-13T05:13:08Z</time>
      </trkpt>
      <trkpt lat="44.93818" lon="1.92174">
        <ele>169.33</ele>
        <time>2026-05-13T05:13:25Z</time>
      </trkpt>
      <trkpt lat="44.93819" lon="1.92144">
        <ele>169.33</ele>
        <time>2026-05-13T05:13:41Z</time>
      </trkpt>
      <trkpt lat="44.93817" lon="1.92118">
        <ele>169.81</ele>
        <time>2026-05-13T05:13:56Z</time>
      </trkpt>
      <trkpt lat="44.93818" lon="1.92089">
        <ele>169.81</ele>
        <time>2026-05-13T05:14:10Z</time>
      </trkpt>
      <trkpt lat="44.93826" lon="1.92054">
        <ele>169.81</ele>
        <time>2026-05-13T05:14:28Z</time>
      </trkpt>
      <trkpt lat="44.93833" lon="1.92028">
        <ele>170.77</ele>
        <time>2026-05-13T05:14:44Z</time>
      </trkpt>
      <trkpt lat="44.93839" lon="1.92004">
        <ele>171.25</ele>
        <time>2026-05-13T05:14:57Z</time>
      </trkpt>
      <trkpt lat="44.9384" lon="1.92001">
        <ele>171.73</ele>
        <time>2026-05-13T05:14:59Z</time>
      </trkpt>
      <trkpt lat="44.93843" lon="1.91977">
        <ele>171.73</ele>
        <time>2026-05-13T05:15:13Z</time>
      </trkpt>
      <trkpt lat="44.93845" lon="1.91971">
        <ele>171.73</ele>
        <time>2026-05-13T05:15:16Z</time>
      </trkpt>
      <trkpt lat="44.93856" lon="1.91945">
        <ele>172.21</ele>
        <time>2026-05-13T05:15:32Z</time>
      </trkpt>
      <trkpt lat="44.93867" lon="1.91925">
        <ele>174.62</ele>
        <time>2026-05-13T05:15:48Z</time>
      </trkpt>
      <trkpt lat="44.93875" lon="1.91906">
        <ele>176.54</ele>
        <time>2026-05-13T05:16:02Z</time>
      </trkpt>
      <trkpt lat="44.93881" lon="1.91883">
        <ele>178.46</ele>
        <time>2026-05-13T05:16:18Z</time>
      </trkpt>
      <trkpt lat="44.93882" lon="1.91858">
        <ele>180.38</ele>
        <time>2026-05-13T05:16:34Z</time>
      </trkpt>
      <trkpt lat="44.93882" lon="1.91831">
        <ele>181.83</ele>
        <time>2026-05-13T05:16:51Z</time>
      </trkpt>
      <trkpt lat="44.9389" lon="1.91804">
        <ele>182.79</ele>
        <time>2026-05-13T05:17:07Z</time>
      </trkpt>
      <trkpt lat="44.93892" lon="1.91795">
        <ele>182.79</ele>
        <time>2026-05-13T05:17:13Z</time>
      </trkpt>
      <trkpt lat="44.939" lon="1.91767">
        <ele>182.79</ele>
        <time>2026-05-13T05:17:28Z</time>
      </trkpt>
      <trkpt lat="44.93906" lon="1.91741">
        <ele>182.79</ele>
        <time>2026-05-13T05:17:42Z</time>
      </trkpt>
      <trkpt lat="44.93917" lon="1.91722">
        <ele>182.79</ele>
        <time>2026-05-13T05:17:59Z</time>
      </trkpt>
      <trkpt lat="44.93934" lon="1.91715">
        <ele>183.27</ele>
        <time>2026-05-13T05:18:12Z</time>
      </trkpt>
      <trkpt lat="44.93952" lon="1.91699">
        <ele>183.75</ele>
        <time>2026-05-13T05:18:29Z</time>
      </trkpt>
      <trkpt lat="44.9397" lon="1.91685">
        <ele>186.15</ele>
        <time>2026-05-13T05:18:47Z</time>
      </trkpt>
      <trkpt lat="44.93985" lon="1.91667">
        <ele>188.08</ele>
        <time>2026-05-13T05:19:04Z</time>
      </trkpt>
      <trkpt lat="44.93987" lon="1.91665">
        <ele>188.56</ele>
        <time>2026-05-13T05:19:05Z</time>
      </trkpt>
      <trkpt lat="44.94005" lon="1.91642">
        <ele>190</ele>
        <time>2026-05-13T05:19:24Z</time>
      </trkpt>
      <trkpt lat="44.94012" lon="1.91628">
        <ele>191.44</ele>
        <time>2026-05-13T05:19:41Z</time>
      </trkpt>
      <trkpt lat="44.9401" lon="1.91614">
        <ele>190.96</ele>
        <time>2026-05-13T05:19:57Z</time>
      </trkpt>
      <trkpt lat="44.94013" lon="1.91599">
        <ele>193.36</ele>
        <time>2026-05-13T05:20:13Z</time>
      </trkpt>
      <trkpt lat="44.94013" lon="1.91592">
        <ele>193.84</ele>
        <time>2026-05-13T05:20:32Z</time>
      </trkpt>
      <trkpt lat="44.9402" lon="1.91585">
        <ele>193.84</ele>
        <time>2026-05-13T05:21:01Z</time>
      </trkpt>
      <trkpt lat="44.94024" lon="1.91577">
        <ele>194.8</ele>
        <time>2026-05-13T05:21:06Z</time>
      </trkpt>
      <trkpt lat="44.94021" lon="1.91562">
        <ele>196.25</ele>
        <time>2026-05-13T05:21:20Z</time>
      </trkpt>
      <trkpt lat="44.94022" lon="1.91558">
        <ele>196.73</ele>
        <time>2026-05-13T05:21:22Z</time>
      </trkpt>
      <trkpt lat="44.94025" lon="1.91553">
        <ele>197.21</ele>
        <time>2026-05-13T05:21:26Z</time>
      </trkpt>
      <trkpt lat="44.94025" lon="1.91536">
        <ele>198.17</ele>
        <time>2026-05-13T05:21:38Z</time>
      </trkpt>
      <trkpt lat="44.9403" lon="1.91514">
        <ele>199.13</ele>
        <time>2026-05-13T05:21:53Z</time>
      </trkpt>
      <trkpt lat="44.94031" lon="1.91513">
        <ele>199.13</ele>
        <time>2026-05-13T05:21:54Z</time>
      </trkpt>
      <trkpt lat="44.94038" lon="1.91498">
        <ele>198.17</ele>
        <time>2026-05-13T05:22:07Z</time>
      </trkpt>
      <trkpt lat="44.94044" lon="1.91486">
        <ele>196.25</ele>
        <time>2026-05-13T05:22:20Z</time>
      </trkpt>
      <trkpt lat="44.94049" lon="1.9148">
        <ele>195.28</ele>
        <time>2026-05-13T05:22:26Z</time>
      </trkpt>
      <trkpt lat="44.94054" lon="1.91471">
        <ele>193.84</ele>
        <time>2026-05-13T05:22:34Z</time>
      </trkpt>
      <trkpt lat="44.94055" lon="1.91452">
        <ele>193.36</ele>
        <time>2026-05-13T05:22:48Z</time>
      </trkpt>
      <trkpt lat="44.94052" lon="1.91449">
        <ele>194.8</ele>
        <time>2026-05-13T05:22:53Z</time>
      </trkpt>
      <trkpt lat="44.9405" lon="1.9144">
        <ele>195.77</ele>
        <time>2026-05-13T05:23:08Z</time>
      </trkpt>
      <trkpt lat="44.94038" lon="1.91427">
        <ele>197.69</ele>
        <time>2026-05-13T05:23:22Z</time>
      </trkpt>
      <trkpt lat="44.94035" lon="1.9141">
        <ele>199.61</ele>
        <time>2026-05-13T05:23:36Z</time>
      </trkpt>
      <trkpt lat="44.94024" lon="1.91409">
        <ele>200.09</ele>
        <time>2026-05-13T05:23:50Z</time>
      </trkpt>
      <trkpt lat="44.94029" lon="1.91408">
        <ele>201.05</ele>
        <time>2026-05-13T05:24:06Z</time>
      </trkpt>
      <trkpt lat="44.94028" lon="1.91388">
        <ele>202.49</ele>
        <time>2026-05-13T05:24:21Z</time>
      </trkpt>
      <trkpt lat="44.94027" lon="1.91386">
        <ele>202.49</ele>
        <time>2026-05-13T05:24:23Z</time>
      </trkpt>
      <trkpt lat="44.94018" lon="1.91369">
        <ele>203.46</ele>
        <time>2026-05-13T05:24:37Z</time>
      </trkpt>
      <trkpt lat="44.94012" lon="1.91348">
        <ele>204.42</ele>
        <time>2026-05-13T05:24:50Z</time>
      </trkpt>
      <trkpt lat="44.94001" lon="1.91332">
        <ele>206.34</ele>
        <time>2026-05-13T05:25:08Z</time>
      </trkpt>
      <trkpt lat="44.94001" lon="1.91318">
        <ele>207.78</ele>
        <time>2026-05-13T05:25:22Z</time>
      </trkpt>
      <trkpt lat="44.93993" lon="1.913">
        <ele>210.67</ele>
        <time>2026-05-13T05:25:38Z</time>
      </trkpt>
      <trkpt lat="44.9399" lon="1.91303">
        <ele>214.03</ele>
        <time>2026-05-13T05:25:58Z</time>
      </trkpt>
      <trkpt lat="44.9398" lon="1.91319">
        <ele>215.47</ele>
        <time>2026-05-13T05:26:15Z</time>
      </trkpt>
      <trkpt lat="44.93989" lon="1.91345">
        <ele>216.91</ele>
        <time>2026-05-13T05:26:34Z</time>
      </trkpt>
      <trkpt lat="44.93992" lon="1.91367">
        <ele>219.32</ele>
        <time>2026-05-13T05:26:53Z</time>
      </trkpt>
      <trkpt lat="44.93981" lon="1.91381">
        <ele>215.47</ele>
        <time>2026-05-13T05:27:07Z</time>
      </trkpt>
      <trkpt lat="44.93981" lon="1.91382">
        <ele>221.24</ele>
        <time>2026-05-13T05:27:08Z</time>
      </trkpt>
      <trkpt lat="44.93982" lon="1.91381">
        <ele>220.76</ele>
        <time>2026-05-13T05:27:10Z</time>
      </trkpt>
      <trkpt lat="44.93979" lon="1.91393">
        <ele>220.76</ele>
        <time>2026-05-13T05:27:27Z</time>
      </trkpt>
      <trkpt lat="44.93969" lon="1.91407">
        <ele>223.64</ele>
        <time>2026-05-13T05:27:45Z</time>
      </trkpt>
      <trkpt lat="44.93964" lon="1.91422">
        <ele>225.57</ele>
        <time>2026-05-13T05:28:06Z</time>
      </trkpt>
      <trkpt lat="44.93973" lon="1.91429">
        <ele>226.05</ele>
        <time>2026-05-13T05:28:33Z</time>
      </trkpt>
      <trkpt lat="44.9396" lon="1.91431">
        <ele>226.53</ele>
        <time>2026-05-13T05:29:04Z</time>
      </trkpt>
      <trkpt lat="44.93949" lon="1.91432">
        <ele>226.53</ele>
        <time>2026-05-13T05:29:31Z</time>
      </trkpt>
      <trkpt lat="44.93952" lon="1.91427">
        <ele>227.01</ele>
        <time>2026-05-13T05:29:58Z</time>
      </trkpt>
      <trkpt lat="44.93956" lon="1.91433">
        <ele>228.45</ele>
        <time>2026-05-13T05:30:25Z</time>
      </trkpt>
      <trkpt lat="44.93955" lon="1.91456">
        <ele>231.81</ele>
        <time>2026-05-13T05:30:43Z</time>
      </trkpt>
      <trkpt lat="44.93946" lon="1.91473">
        <ele>234.22</ele>
        <time>2026-05-13T05:31:02Z</time>
      </trkpt>
      <trkpt lat="44.93941" lon="1.91494">
        <ele>237.58</ele>
        <time>2026-05-13T05:31:19Z</time>
      </trkpt>
      <trkpt lat="44.93933" lon="1.9151">
        <ele>239.99</ele>
        <time>2026-05-13T05:31:34Z</time>
      </trkpt>
      <trkpt lat="44.93932" lon="1.91533">
        <ele>242.39</ele>
        <time>2026-05-13T05:31:51Z</time>
      </trkpt>
      <trkpt lat="44.93922" lon="1.91547">
        <ele>244.79</ele>
        <time>2026-05-13T05:32:11Z</time>
      </trkpt>
      <trkpt lat="44.93907" lon="1.91557">
        <ele>248.16</ele>
        <time>2026-05-13T05:32:29Z</time>
      </trkpt>
      <trkpt lat="44.93896" lon="1.91558">
        <ele>250.56</ele>
        <time>2026-05-13T05:32:47Z</time>
      </trkpt>
      <trkpt lat="44.93885" lon="1.91559">
        <ele>253.93</ele>
        <time>2026-05-13T05:33:03Z</time>
      </trkpt>
      <trkpt lat="44.93871" lon="1.91552">
        <ele>256.81</ele>
        <time>2026-05-13T05:33:23Z</time>
      </trkpt>
      <trkpt lat="44.93855" lon="1.91552">
        <ele>259.21</ele>
        <time>2026-05-13T05:33:43Z</time>
      </trkpt>
      <trkpt lat="44.93842" lon="1.91552">
        <ele>262.1</ele>
        <time>2026-05-13T05:34:00Z</time>
      </trkpt>
      <trkpt lat="44.93827" lon="1.91553">
        <ele>264.98</ele>
        <time>2026-05-13T05:34:16Z</time>
      </trkpt>
      <trkpt lat="44.93806" lon="1.91554">
        <ele>268.35</ele>
        <time>2026-05-13T05:34:38Z</time>
      </trkpt>
      <trkpt lat="44.93792" lon="1.91561">
        <ele>271.23</ele>
        <time>2026-05-13T05:34:56Z</time>
      </trkpt>
      <trkpt lat="44.93774" lon="1.91568">
        <ele>273.63</ele>
        <time>2026-05-13T05:35:15Z</time>
      </trkpt>
      <trkpt lat="44.93761" lon="1.91581">
        <ele>277</ele>
        <time>2026-05-13T05:35:35Z</time>
      </trkpt>
      <trkpt lat="44.9375" lon="1.91595">
        <ele>279.4</ele>
        <time>2026-05-13T05:35:53Z</time>
      </trkpt>
      <trkpt lat="44.93736" lon="1.91607">
        <ele>281.32</ele>
        <time>2026-05-13T05:36:10Z</time>
      </trkpt>
      <trkpt lat="44.9373" lon="1.91627">
        <ele>284.21</ele>
        <time>2026-05-13T05:36:28Z</time>
      </trkpt>
      <trkpt lat="44.93731" lon="1.9165">
        <ele>287.09</ele>
        <time>2026-05-13T05:36:48Z</time>
      </trkpt>
      <trkpt lat="44.93732" lon="1.91658">
        <ele>287.57</ele>
        <time>2026-05-13T05:37:11Z</time>
      </trkpt>
      <trkpt lat="44.93738" lon="1.91676">
        <ele>290.46</ele>
        <time>2026-05-13T05:37:29Z</time>
      </trkpt>
      <trkpt lat="44.9373" lon="1.91671">
        <ele>293.82</ele>
        <time>2026-05-13T05:37:45Z</time>
      </trkpt>
      <trkpt lat="44.93723" lon="1.91655">
        <ele>295.26</ele>
        <time>2026-05-13T05:38:03Z</time>
      </trkpt>
      <trkpt lat="44.93711" lon="1.91645">
        <ele>296.7</ele>
        <time>2026-05-13T05:38:19Z</time>
      </trkpt>
      <trkpt lat="44.93703" lon="1.91639">
        <ele>298.15</ele>
        <time>2026-05-13T05:38:35Z</time>
      </trkpt>
      <trkpt lat="44.93703" lon="1.91627">
        <ele>298.15</ele>
        <time>2026-05-13T05:38:50Z</time>
      </trkpt>
      <trkpt lat="44.93702" lon="1.91624">
        <ele>298.15</ele>
        <time>2026-05-13T05:38:53Z</time>
      </trkpt>
      <trkpt lat="44.93703" lon="1.91598">
        <ele>298.15</ele>
        <time>2026-05-13T05:39:10Z</time>
      </trkpt>
      <trkpt lat="44.93698" lon="1.91581">
        <ele>298.63</ele>
        <time>2026-05-13T05:39:24Z</time>
      </trkpt>
      <trkpt lat="44.93694" lon="1.91556">
        <ele>298.63</ele>
        <time>2026-05-13T05:39:41Z</time>
      </trkpt>
      <trkpt lat="44.93692" lon="1.91534">
        <ele>299.11</ele>
        <time>2026-05-13T05:39:55Z</time>
      </trkpt>
      <trkpt lat="44.93683" lon="1.91508">
        <ele>300.55</ele>
        <time>2026-05-13T05:40:13Z</time>
      </trkpt>
      <trkpt lat="44.93679" lon="1.91489">
        <ele>302.47</ele>
        <time>2026-05-13T05:40:29Z</time>
      </trkpt>
      <trkpt lat="44.93675" lon="1.91462">
        <ele>304.88</ele>
        <time>2026-05-13T05:40:49Z</time>
      </trkpt>
      <trkpt lat="44.93676" lon="1.91436">
        <ele>307.28</ele>
        <time>2026-05-13T05:41:08Z</time>
      </trkpt>
      <trkpt lat="44.93678" lon="1.91413">
        <ele>309.2</ele>
        <time>2026-05-13T05:41:25Z</time>
      </trkpt>
      <trkpt lat="44.93679" lon="1.9139">
        <ele>312.57</ele>
        <time>2026-05-13T05:41:43Z</time>
      </trkpt>
      <trkpt lat="44.93679" lon="1.91367">
        <ele>314.97</ele>
        <time>2026-05-13T05:42:02Z</time>
      </trkpt>
      <trkpt lat="44.93674" lon="1.91348">
        <ele>314.49</ele>
        <time>2026-05-13T05:42:17Z</time>
      </trkpt>
      <trkpt lat="44.93674" lon="1.91342">
        <ele>315.93</ele>
        <time>2026-05-13T05:42:21Z</time>
      </trkpt>
      <trkpt lat="44.93675" lon="1.91308">
        <ele>316.41</ele>
        <time>2026-05-13T05:42:41Z</time>
      </trkpt>
      <trkpt lat="44.93682" lon="1.9128">
        <ele>317.85</ele>
        <time>2026-05-13T05:43:01Z</time>
      </trkpt>
      <trkpt lat="44.93692" lon="1.91249">
        <ele>318.81</ele>
        <time>2026-05-13T05:43:18Z</time>
      </trkpt>
      <trkpt lat="44.93699" lon="1.91221">
        <ele>320.26</ele>
        <time>2026-05-13T05:43:35Z</time>
      </trkpt>
      <trkpt lat="44.93696" lon="1.912">
        <ele>323.14</ele>
        <time>2026-05-13T05:43:55Z</time>
      </trkpt>
      <trkpt lat="44.93692" lon="1.91178">
        <ele>326.02</ele>
        <time>2026-05-13T05:44:14Z</time>
      </trkpt>
      <trkpt lat="44.93679" lon="1.91164">
        <ele>327.95</ele>
        <time>2026-05-13T05:44:35Z</time>
      </trkpt>
      <trkpt lat="44.93664" lon="1.91141">
        <ele>330.83</ele>
        <time>2026-05-13T05:44:56Z</time>
      </trkpt>
      <trkpt lat="44.93648" lon="1.91128">
        <ele>333.71</ele>
        <time>2026-05-13T05:45:19Z</time>
      </trkpt>
      <trkpt lat="44.93634" lon="1.91122">
        <ele>336.6</ele>
        <time>2026-05-13T05:45:37Z</time>
      </trkpt>
      <trkpt lat="44.93623" lon="1.91114">
        <ele>338.52</ele>
        <time>2026-05-13T05:45:52Z</time>
      </trkpt>
      <trkpt lat="44.93608" lon="1.91104">
        <ele>340.44</ele>
        <time>2026-05-13T05:46:14Z</time>
      </trkpt>
      <trkpt lat="44.93588" lon="1.91091">
        <ele>342.37</ele>
        <time>2026-05-13T05:46:37Z</time>
      </trkpt>
      <trkpt lat="44.93571" lon="1.91076">
        <ele>344.77</ele>
        <time>2026-05-13T05:46:58Z</time>
      </trkpt>
      <trkpt lat="44.93557" lon="1.91062">
        <ele>345.73</ele>
        <time>2026-05-13T05:47:16Z</time>
      </trkpt>
      <trkpt lat="44.93549" lon="1.91052">
        <ele>345.73</ele>
        <time>2026-05-13T05:47:37Z</time>
      </trkpt>
      <trkpt lat="44.93539" lon="1.91032">
        <ele>348.62</ele>
        <time>2026-05-13T05:47:58Z</time>
      </trkpt>
      <trkpt lat="44.93527" lon="1.91007">
        <ele>350.06</ele>
        <time>2026-05-13T05:48:15Z</time>
      </trkpt>
      <trkpt lat="44.9352" lon="1.90984">
        <ele>350.54</ele>
        <time>2026-05-13T05:48:30Z</time>
      </trkpt>
      <trkpt lat="44.93522" lon="1.90971">
        <ele>351.5</ele>
        <time>2026-05-13T05:48:46Z</time>
      </trkpt>
      <trkpt lat="44.9352" lon="1.90973">
        <ele>351.98</ele>
        <time>2026-05-13T05:49:03Z</time>
      </trkpt>
      <trkpt lat="44.93523" lon="1.9098">
        <ele>352.94</ele>
        <time>2026-05-13T05:49:16Z</time>
      </trkpt>
      <trkpt lat="44.9352" lon="1.90975">
        <ele>352.46</ele>
        <time>2026-05-13T05:49:38Z</time>
      </trkpt>
      <trkpt lat="44.93519" lon="1.9097">
        <ele>352.46</ele>
        <time>2026-05-13T05:49:48Z</time>
      </trkpt>
      <trkpt lat="44.93515" lon="1.90963">
        <ele>351.98</ele>
        <time>2026-05-13T05:49:53Z</time>
      </trkpt>
      <trkpt lat="44.93516" lon="1.90947">
        <ele>351.98</ele>
        <time>2026-05-13T05:50:03Z</time>
      </trkpt>
      <trkpt lat="44.93513" lon="1.90936">
        <ele>351.5</ele>
        <time>2026-05-13T05:50:20Z</time>
      </trkpt>
      <trkpt lat="44.93518" lon="1.90948">
        <ele>351.02</ele>
        <time>2026-05-13T05:50:35Z</time>
      </trkpt>
      <trkpt lat="44.93517" lon="1.90966">
        <ele>351.02</ele>
        <time>2026-05-13T05:50:46Z</time>
      </trkpt>
      <trkpt lat="44.93517" lon="1.90974">
        <ele>351.02</ele>
        <time>2026-05-13T05:50:50Z</time>
      </trkpt>
      <trkpt lat="44.93517" lon="1.90979">
        <ele>351.02</ele>
        <time>2026-05-13T05:50:52Z</time>
      </trkpt>
      <trkpt lat="44.93519" lon="1.90993">
        <ele>351.02</ele>
        <time>2026-05-13T05:50:59Z</time>
      </trkpt>
      <trkpt lat="44.93525" lon="1.91013">
        <ele>350.06</ele>
        <time>2026-05-13T05:51:13Z</time>
      </trkpt>
      <trkpt lat="44.93526" lon="1.91016">
        <ele>351.02</ele>
        <time>2026-05-13T05:51:18Z</time>
      </trkpt>
      <trkpt lat="44.93527" lon="1.91017">
        <ele>349.1</ele>
        <time>2026-05-13T05:51:21Z</time>
      </trkpt>
      <trkpt lat="44.93528" lon="1.91018">
        <ele>350.54</ele>
        <time>2026-05-13T05:51:23Z</time>
      </trkpt>
      <trkpt lat="44.9353" lon="1.91026">
        <ele>349.1</ele>
        <time>2026-05-13T05:51:29Z</time>
      </trkpt>
      <trkpt lat="44.93535" lon="1.91042">
        <ele>347.17</ele>
        <time>2026-05-13T05:51:41Z</time>
      </trkpt>
      <trkpt lat="44.9354" lon="1.91054">
        <ele>346.21</ele>
        <time>2026-05-13T05:51:50Z</time>
      </trkpt>
      <trkpt lat="44.93548" lon="1.91063">
        <ele>345.73</ele>
        <time>2026-05-13T05:51:58Z</time>
      </trkpt>
      <trkpt lat="44.93568" lon="1.91081">
        <ele>343.81</ele>
        <time>2026-05-13T05:52:17Z</time>
      </trkpt>
      <trkpt lat="44.93583" lon="1.91092">
        <ele>341.89</ele>
        <time>2026-05-13T05:52:31Z</time>
      </trkpt>
      <trkpt lat="44.936" lon="1.91106">
        <ele>339.48</ele>
        <time>2026-05-13T05:52:45Z</time>
      </trkpt>
      <trkpt lat="44.93617" lon="1.91115">
        <ele>336.6</ele>
        <time>2026-05-13T05:53:01Z</time>
      </trkpt>
      <trkpt lat="44.93635" lon="1.91125">
        <ele>334.2</ele>
        <time>2026-05-13T05:53:15Z</time>
      </trkpt>
      <trkpt lat="44.93649" lon="1.91135">
        <ele>330.83</ele>
        <time>2026-05-13T05:53:30Z</time>
      </trkpt>
      <trkpt lat="44.93671" lon="1.91152">
        <ele>328.43</ele>
        <time>2026-05-13T05:53:43Z</time>
      </trkpt>
      <trkpt lat="44.93686" lon="1.91165">
        <ele>326.99</ele>
        <time>2026-05-13T05:53:58Z</time>
      </trkpt>
      <trkpt lat="44.93689" lon="1.91178">
        <ele>324.1</ele>
        <time>2026-05-13T05:54:09Z</time>
      </trkpt>
      <trkpt lat="44.93694" lon="1.91208">
        <ele>321.7</ele>
        <time>2026-05-13T05:54:25Z</time>
      </trkpt>
      <trkpt lat="44.93696" lon="1.91233">
        <ele>320.26</ele>
        <time>2026-05-13T05:54:42Z</time>
      </trkpt>
      <trkpt lat="44.9369" lon="1.91258">
        <ele>318.81</ele>
        <time>2026-05-13T05:54:58Z</time>
      </trkpt>
      <trkpt lat="44.93684" lon="1.91281">
        <ele>317.37</ele>
        <time>2026-05-13T05:55:12Z</time>
      </trkpt>
      <trkpt lat="44.93682" lon="1.91304">
        <ele>316.89</ele>
        <time>2026-05-13T05:55:28Z</time>
      </trkpt>
      <trkpt lat="44.93678" lon="1.91331">
        <ele>315.93</ele>
        <time>2026-05-13T05:55:43Z</time>
      </trkpt>
      <trkpt lat="44.93675" lon="1.91357">
        <ele>314.97</ele>
        <time>2026-05-13T05:55:57Z</time>
      </trkpt>
      <trkpt lat="44.93674" lon="1.91375">
        <ele>313.53</ele>
        <time>2026-05-13T05:56:11Z</time>
      </trkpt>
      <trkpt lat="44.93672" lon="1.9137">
        <ele>312.09</ele>
        <time>2026-05-13T05:56:35Z</time>
      </trkpt>
      <trkpt lat="44.93666" lon="1.91353">
        <ele>309.68</ele>
        <time>2026-05-13T05:56:49Z</time>
      </trkpt>
      <trkpt lat="44.93662" lon="1.91338">
        <ele>306.8</ele>
        <time>2026-05-13T05:57:10Z</time>
      </trkpt>
      <trkpt lat="44.93661" lon="1.91337">
        <ele>307.28</ele>
        <time>2026-05-13T05:57:14Z</time>
      </trkpt>
      <trkpt lat="44.9366" lon="1.91333">
        <ele>305.84</ele>
        <time>2026-05-13T05:57:18Z</time>
      </trkpt>
      <trkpt lat="44.93653" lon="1.91333">
        <ele>304.88</ele>
        <time>2026-05-13T05:57:39Z</time>
      </trkpt>
      <trkpt lat="44.93652" lon="1.91334">
        <ele>306.32</ele>
        <time>2026-05-13T05:57:41Z</time>
      </trkpt>
      <trkpt lat="44.93658" lon="1.91356">
        <ele>309.68</ele>
        <time>2026-05-13T05:58:03Z</time>
      </trkpt>
      <trkpt lat="44.93665" lon="1.91371">
        <ele>311.12</ele>
        <time>2026-05-13T05:58:20Z</time>
      </trkpt>
      <trkpt lat="44.93674" lon="1.91367">
        <ele>314.49</ele>
        <time>2026-05-13T05:58:40Z</time>
      </trkpt>
      <trkpt lat="44.93671" lon="1.91339">
        <ele>315.45</ele>
        <time>2026-05-13T05:59:03Z</time>
      </trkpt>
      <trkpt lat="44.93677" lon="1.91335">
        <ele>314.49</ele>
        <time>2026-05-13T05:59:19Z</time>
      </trkpt>
      <trkpt lat="44.93678" lon="1.91323">
        <ele>314.97</ele>
        <time>2026-05-13T05:59:32Z</time>
      </trkpt>
      <trkpt lat="44.93677" lon="1.91305">
        <ele>316.41</ele>
        <time>2026-05-13T05:59:52Z</time>
      </trkpt>
      <trkpt lat="44.93672" lon="1.91308">
        <ele>316.41</ele>
        <time>2026-05-13T06:00:21Z</time>
      </trkpt>
      <trkpt lat="44.93676" lon="1.91309">
        <ele>316.89</ele>
        <time>2026-05-13T06:01:02Z</time>
      </trkpt>
      <trkpt lat="44.93685" lon="1.91288">
        <ele>316.89</ele>
        <time>2026-05-13T06:01:18Z</time>
      </trkpt>
      <trkpt lat="44.93687" lon="1.91274">
        <ele>317.85</ele>
        <time>2026-05-13T06:01:27Z</time>
      </trkpt>
      <trkpt lat="44.93695" lon="1.91243">
        <ele>319.78</ele>
        <time>2026-05-13T06:01:44Z</time>
      </trkpt>
      <trkpt lat="44.93701" lon="1.91216">
        <ele>321.22</ele>
        <time>2026-05-13T06:02:02Z</time>
      </trkpt>
      <trkpt lat="44.93697" lon="1.91189">
        <ele>324.1</ele>
        <time>2026-05-13T06:02:22Z</time>
      </trkpt>
      <trkpt lat="44.93687" lon="1.91168">
        <ele>327.47</ele>
        <time>2026-05-13T06:02:38Z</time>
      </trkpt>
      <trkpt lat="44.9368" lon="1.91164">
        <ele>327.95</ele>
        <time>2026-05-13T06:03:07Z</time>
      </trkpt>
      <trkpt lat="44.93671" lon="1.91151">
        <ele>329.87</ele>
        <time>2026-05-13T06:03:30Z</time>
      </trkpt>
      <trkpt lat="44.93661" lon="1.91138">
        <ele>332.75</ele>
        <time>2026-05-13T06:03:49Z</time>
      </trkpt>
      <trkpt lat="44.93642" lon="1.91126">
        <ele>336.12</ele>
        <time>2026-05-13T06:04:08Z</time>
      </trkpt>
      <trkpt lat="44.93624" lon="1.91118">
        <ele>338.52</ele>
        <time>2026-05-13T06:04:26Z</time>
      </trkpt>
      <trkpt lat="44.93611" lon="1.91111">
        <ele>340.44</ele>
        <time>2026-05-13T06:04:41Z</time>
      </trkpt>
      <trkpt lat="44.93595" lon="1.911">
        <ele>343.81</ele>
        <time>2026-05-13T06:05:02Z</time>
      </trkpt>
      <trkpt lat="44.93578" lon="1.91088">
        <ele>345.25</ele>
        <time>2026-05-13T06:05:19Z</time>
      </trkpt>
      <trkpt lat="44.93563" lon="1.91072">
        <ele>346.69</ele>
        <time>2026-05-13T06:05:36Z</time>
      </trkpt>
      <trkpt lat="44.9355" lon="1.91057">
        <ele>347.17</ele>
        <time>2026-05-13T06:05:49Z</time>
      </trkpt>
      <trkpt lat="44.93541" lon="1.91041">
        <ele>349.1</ele>
        <time>2026-05-13T06:06:03Z</time>
      </trkpt>
      <trkpt lat="44.93536" lon="1.91028">
        <ele>350.54</ele>
        <time>2026-05-13T06:06:13Z</time>
      </trkpt>
      <trkpt lat="44.93528" lon="1.91">
        <ele>351.98</ele>
        <time>2026-05-13T06:06:31Z</time>
      </trkpt>
      <trkpt lat="44.93525" lon="1.90985">
        <ele>352.46</ele>
        <time>2026-05-13T06:06:40Z</time>
      </trkpt>
      <trkpt lat="44.9352" lon="1.90962">
        <ele>353.42</ele>
        <time>2026-05-13T06:06:56Z</time>
      </trkpt>
      <trkpt lat="44.93519" lon="1.90952">
        <ele>353.42</ele>
        <time>2026-05-13T06:07:02Z</time>
      </trkpt>
      <trkpt lat="44.93515" lon="1.90925">
        <ele>352.46</ele>
        <time>2026-05-13T06:07:17Z</time>
      </trkpt>
      <trkpt lat="44.93512" lon="1.90911">
        <ele>351.5</ele>
        <time>2026-05-13T06:07:28Z</time>
      </trkpt>
      <trkpt lat="44.93507" lon="1.90893">
        <ele>351.02</ele>
        <time>2026-05-13T06:07:36Z</time>
      </trkpt>
      <trkpt lat="44.93504" lon="1.90882">
        <ele>349.58</ele>
        <time>2026-05-13T06:07:43Z</time>
      </trkpt>
      <trkpt lat="44.935" lon="1.90859">
        <ele>348.62</ele>
        <time>2026-05-13T06:07:56Z</time>
      </trkpt>
      <trkpt lat="44.935" lon="1.90848">
        <ele>347.17</ele>
        <time>2026-05-13T06:08:03Z</time>
      </trkpt>
      <trkpt lat="44.93499" lon="1.90834">
        <ele>346.69</ele>
        <time>2026-05-13T06:08:10Z</time>
      </trkpt>
      <trkpt lat="44.93497" lon="1.90806">
        <ele>345.25</ele>
        <time>2026-05-13T06:08:24Z</time>
      </trkpt>
      <trkpt lat="44.93497" lon="1.90802">
        <ele>345.25</ele>
        <time>2026-05-13T06:08:25Z</time>
      </trkpt>
      <trkpt lat="44.93496" lon="1.90799">
        <ele>345.25</ele>
        <time>2026-05-13T06:08:26Z</time>
      </trkpt>
      <trkpt lat="44.93496" lon="1.90783">
        <ele>343.81</ele>
        <time>2026-05-13T06:08:36Z</time>
      </trkpt>
      <trkpt lat="44.93495" lon="1.90767">
        <ele>341.89</ele>
        <time>2026-05-13T06:08:47Z</time>
      </trkpt>
      <trkpt lat="44.93494" lon="1.90756">
        <ele>340.92</ele>
        <time>2026-05-13T06:08:55Z</time>
      </trkpt>
      <trkpt lat="44.93493" lon="1.90754">
        <ele>340.92</ele>
        <time>2026-05-13T06:08:56Z</time>
      </trkpt>
      <trkpt lat="44.93492" lon="1.90751">
        <ele>340.92</ele>
        <time>2026-05-13T06:08:57Z</time>
      </trkpt>
      <trkpt lat="44.93491" lon="1.90748">
        <ele>340.92</ele>
        <time>2026-05-13T06:08:58Z</time>
      </trkpt>
      <trkpt lat="44.93488" lon="1.90737">
        <ele>339.96</ele>
        <time>2026-05-13T06:09:04Z</time>
      </trkpt>
      <trkpt lat="44.93481" lon="1.90713">
        <ele>338.04</ele>
        <time>2026-05-13T06:09:17Z</time>
      </trkpt>
      <trkpt lat="44.93477" lon="1.90714">
        <ele>337.56</ele>
        <time>2026-05-13T06:09:30Z</time>
      </trkpt>
      <trkpt lat="44.93478" lon="1.9074">
        <ele>336.6</ele>
        <time>2026-05-13T06:09:47Z</time>
      </trkpt>
      <trkpt lat="44.93479" lon="1.90754">
        <ele>335.16</ele>
        <time>2026-05-13T06:10:02Z</time>
      </trkpt>
      <trkpt lat="44.93476" lon="1.9077">
        <ele>335.16</ele>
        <time>2026-05-13T06:10:25Z</time>
      </trkpt>
      <trkpt lat="44.93474" lon="1.90782">
        <ele>335.16</ele>
        <time>2026-05-13T06:10:33Z</time>
      </trkpt>
      <trkpt lat="44.93473" lon="1.90794">
        <ele>334.68</ele>
        <time>2026-05-13T06:10:39Z</time>
      </trkpt>
      <trkpt lat="44.93471" lon="1.908">
        <ele>334.2</ele>
        <time>2026-05-13T06:10:43Z</time>
      </trkpt>
      <trkpt lat="44.93464" lon="1.90824">
        <ele>331.79</ele>
        <time>2026-05-13T06:10:56Z</time>
      </trkpt>
      <trkpt lat="44.9346" lon="1.90835">
        <ele>331.31</ele>
        <time>2026-05-13T06:11:03Z</time>
      </trkpt>
      <trkpt lat="44.93453" lon="1.90871">
        <ele>329.39</ele>
        <time>2026-05-13T06:11:22Z</time>
      </trkpt>
      <trkpt lat="44.93453" lon="1.90898">
        <ele>328.43</ele>
        <time>2026-05-13T06:11:37Z</time>
      </trkpt>
      <trkpt lat="44.93455" lon="1.90907">
        <ele>326.5</ele>
        <time>2026-05-13T06:11:49Z</time>
      </trkpt>
      <trkpt lat="44.93454" lon="1.90937">
        <ele>324.58</ele>
        <time>2026-05-13T06:12:06Z</time>
      </trkpt>
      <trkpt lat="44.93453" lon="1.90954">
        <ele>322.18</ele>
        <time>2026-05-13T06:12:20Z</time>
      </trkpt>
      <trkpt lat="44.93453" lon="1.90952">
        <ele>323.14</ele>
        <time>2026-05-13T06:12:23Z</time>
      </trkpt>
      <trkpt lat="44.93454" lon="1.90963">
        <ele>322.18</ele>
        <time>2026-05-13T06:12:31Z</time>
      </trkpt>
      <trkpt lat="44.93452" lon="1.90988">
        <ele>318.33</ele>
        <time>2026-05-13T06:12:46Z</time>
      </trkpt>
      <trkpt lat="44.93454" lon="1.91013">
        <ele>314.97</ele>
        <time>2026-05-13T06:13:00Z</time>
      </trkpt>
      <trkpt lat="44.93456" lon="1.91038">
        <ele>311.6</ele>
        <time>2026-05-13T06:13:14Z</time>
      </trkpt>
      <trkpt lat="44.93461" lon="1.91062">
        <ele>309.2</ele>
        <time>2026-05-13T06:13:32Z</time>
      </trkpt>
      <trkpt lat="44.93463" lon="1.91067">
        <ele>308.72</ele>
        <time>2026-05-13T06:13:36Z</time>
      </trkpt>
      <trkpt lat="44.93465" lon="1.91071">
        <ele>308.24</ele>
        <time>2026-05-13T06:13:40Z</time>
      </trkpt>
      <trkpt lat="44.93468" lon="1.91084">
        <ele>307.28</ele>
        <time>2026-05-13T06:13:46Z</time>
      </trkpt>
      <trkpt lat="44.93476" lon="1.91105">
        <ele>304.88</ele>
        <time>2026-05-13T06:14:00Z</time>
      </trkpt>
      <trkpt lat="44.93481" lon="1.91125">
        <ele>301.99</ele>
        <time>2026-05-13T06:14:13Z</time>
      </trkpt>
      <trkpt lat="44.93493" lon="1.91149">
        <ele>298.63</ele>
        <time>2026-05-13T06:14:30Z</time>
      </trkpt>
      <trkpt lat="44.93494" lon="1.91152">
        <ele>298.63</ele>
        <time>2026-05-13T06:14:32Z</time>
      </trkpt>
      <trkpt lat="44.93503" lon="1.91168">
        <ele>295.26</ele>
        <time>2026-05-13T06:14:45Z</time>
      </trkpt>
      <trkpt lat="44.93515" lon="1.91188">
        <ele>292.38</ele>
        <time>2026-05-13T06:15:01Z</time>
      </trkpt>
      <trkpt lat="44.93525" lon="1.91205">
        <ele>289.97</ele>
        <time>2026-05-13T06:15:20Z</time>
      </trkpt>
      <trkpt lat="44.93527" lon="1.91206">
        <ele>288.53</ele>
        <time>2026-05-13T06:15:24Z</time>
      </trkpt>
      <trkpt lat="44.9353" lon="1.91205">
        <ele>290.94</ele>
        <time>2026-05-13T06:15:31Z</time>
      </trkpt>
      <trkpt lat="44.93536" lon="1.91215">
        <ele>287.57</ele>
        <time>2026-05-13T06:15:42Z</time>
      </trkpt>
      <trkpt lat="44.93527" lon="1.91209">
        <ele>284.69</ele>
        <time>2026-05-13T06:15:56Z</time>
      </trkpt>
      <trkpt lat="44.93523" lon="1.91206">
        <ele>283.73</ele>
        <time>2026-05-13T06:16:00Z</time>
      </trkpt>
      <trkpt lat="44.93502" lon="1.91195">
        <ele>279.88</ele>
        <time>2026-05-13T06:16:18Z</time>
      </trkpt>
      <trkpt lat="44.93475" lon="1.91182">
        <ele>276.52</ele>
        <time>2026-05-13T06:16:39Z</time>
      </trkpt>
      <trkpt lat="44.93458" lon="1.91176">
        <ele>273.15</ele>
        <time>2026-05-13T06:16:54Z</time>
      </trkpt>
      <trkpt lat="44.93445" lon="1.91168">
        <ele>271.23</ele>
        <time>2026-05-13T06:17:06Z</time>
      </trkpt>
      <trkpt lat="44.9343" lon="1.91149">
        <ele>268.35</ele>
        <time>2026-05-13T06:17:23Z</time>
      </trkpt>
      <trkpt lat="44.93414" lon="1.91126">
        <ele>265.46</ele>
        <time>2026-05-13T06:17:41Z</time>
      </trkpt>
      <trkpt lat="44.93401" lon="1.91109">
        <ele>262.1</ele>
        <time>2026-05-13T06:17:56Z</time>
      </trkpt>
      <trkpt lat="44.93386" lon="1.91083">
        <ele>259.21</ele>
        <time>2026-05-13T06:18:17Z</time>
      </trkpt>
      <trkpt lat="44.93379" lon="1.91076">
        <ele>258.25</ele>
        <time>2026-05-13T06:18:23Z</time>
      </trkpt>
      <trkpt lat="44.93375" lon="1.91069">
        <ele>257.77</ele>
        <time>2026-05-13T06:18:27Z</time>
      </trkpt>
      <trkpt lat="44.9336" lon="1.91048">
        <ele>254.89</ele>
        <time>2026-05-13T06:18:47Z</time>
      </trkpt>
      <trkpt lat="44.93363" lon="1.91077">
        <ele>252</ele>
        <time>2026-05-13T06:19:03Z</time>
      </trkpt>
      <trkpt lat="44.9337" lon="1.9111">
        <ele>249.12</ele>
        <time>2026-05-13T06:19:21Z</time>
      </trkpt>
      <trkpt lat="44.93376" lon="1.91138">
        <ele>245.75</ele>
        <time>2026-05-13T06:19:38Z</time>
      </trkpt>
      <trkpt lat="44.93381" lon="1.91162">
        <ele>242.39</ele>
        <time>2026-05-13T06:19:53Z</time>
      </trkpt>
      <trkpt lat="44.93387" lon="1.9118">
        <ele>239.51</ele>
        <time>2026-05-13T06:20:06Z</time>
      </trkpt>
      <trkpt lat="44.93393" lon="1.91198">
        <ele>237.58</ele>
        <time>2026-05-13T06:20:17Z</time>
      </trkpt>
      <trkpt lat="44.93407" lon="1.91222">
        <ele>234.22</ele>
        <time>2026-05-13T06:20:35Z</time>
      </trkpt>
      <trkpt lat="44.93423" lon="1.91238">
        <ele>232.3</ele>
        <time>2026-05-13T06:20:52Z</time>
      </trkpt>
      <trkpt lat="44.93438" lon="1.91254">
        <ele>228.93</ele>
        <time>2026-05-13T06:21:08Z</time>
      </trkpt>
      <trkpt lat="44.93446" lon="1.91274">
        <ele>225.57</ele>
        <time>2026-05-13T06:21:21Z</time>
      </trkpt>
      <trkpt lat="44.93452" lon="1.91294">
        <ele>224.12</ele>
        <time>2026-05-13T06:21:32Z</time>
      </trkpt>
      <trkpt lat="44.93462" lon="1.91315">
        <ele>220.28</ele>
        <time>2026-05-13T06:21:48Z</time>
      </trkpt>
      <trkpt lat="44.93461" lon="1.91328">
        <ele>217.4</ele>
        <time>2026-05-13T06:22:01Z</time>
      </trkpt>
      <trkpt lat="44.9345" lon="1.91339">
        <ele>215.95</ele>
        <time>2026-05-13T06:22:16Z</time>
      </trkpt>
      <trkpt lat="44.93448" lon="1.91333">
        <ele>215.47</ele>
        <time>2026-05-13T06:22:22Z</time>
      </trkpt>
      <trkpt lat="44.93438" lon="1.91299">
        <ele>214.03</ele>
        <time>2026-05-13T06:22:40Z</time>
      </trkpt>
      <trkpt lat="44.93436" lon="1.91297">
        <ele>214.03</ele>
        <time>2026-05-13T06:22:42Z</time>
      </trkpt>
      <trkpt lat="44.93428" lon="1.91281">
        <ele>214.03</ele>
        <time>2026-05-13T06:22:53Z</time>
      </trkpt>
      <trkpt lat="44.93421" lon="1.91267">
        <ele>214.03</ele>
        <time>2026-05-13T06:23:03Z</time>
      </trkpt>
      <trkpt lat="44.93406" lon="1.91253">
        <ele>214.03</ele>
        <time>2026-05-13T06:23:16Z</time>
      </trkpt>
      <trkpt lat="44.93393" lon="1.9124">
        <ele>214.03</ele>
        <time>2026-05-13T06:23:28Z</time>
      </trkpt>
      <trkpt lat="44.93386" lon="1.91235">
        <ele>214.03</ele>
        <time>2026-05-13T06:23:33Z</time>
      </trkpt>
      <trkpt lat="44.93373" lon="1.91221">
        <ele>214.03</ele>
        <time>2026-05-13T06:23:46Z</time>
      </trkpt>
      <trkpt lat="44.9336" lon="1.91205">
        <ele>212.59</ele>
        <time>2026-05-13T06:24:01Z</time>
      </trkpt>
      <trkpt lat="44.93358" lon="1.91203">
        <ele>212.59</ele>
        <time>2026-05-13T06:24:03Z</time>
      </trkpt>
      <trkpt lat="44.93344" lon="1.91184">
        <ele>212.11</ele>
        <time>2026-05-13T06:24:15Z</time>
      </trkpt>
      <trkpt lat="44.93328" lon="1.91164">
        <ele>212.11</ele>
        <time>2026-05-13T06:24:31Z</time>
      </trkpt>
      <trkpt lat="44.93323" lon="1.91155">
        <ele>213.55</ele>
        <time>2026-05-13T06:24:37Z</time>
      </trkpt>
      <trkpt lat="44.93312" lon="1.91131">
        <ele>213.55</ele>
        <time>2026-05-13T06:24:51Z</time>
      </trkpt>
      <trkpt lat="44.93304" lon="1.91117">
        <ele>213.55</ele>
        <time>2026-05-13T06:25:01Z</time>
      </trkpt>
      <trkpt lat="44.93303" lon="1.91114">
        <ele>214.03</ele>
        <time>2026-05-13T06:25:03Z</time>
      </trkpt>
      <trkpt lat="44.93302" lon="1.9111">
        <ele>213.55</ele>
        <time>2026-05-13T06:25:05Z</time>
      </trkpt>
      <trkpt lat="44.93297" lon="1.9109">
        <ele>213.55</ele>
        <time>2026-05-13T06:25:18Z</time>
      </trkpt>
      <trkpt lat="44.93295" lon="1.91086">
        <ele>212.59</ele>
        <time>2026-05-13T06:25:20Z</time>
      </trkpt>
      <trkpt lat="44.93285" lon="1.91061">
        <ele>212.11</ele>
        <time>2026-05-13T06:25:33Z</time>
      </trkpt>
      <trkpt lat="44.93274" lon="1.91039">
        <ele>210.67</ele>
        <time>2026-05-13T06:25:46Z</time>
      </trkpt>
      <trkpt lat="44.93268" lon="1.91028">
        <ele>209.7</ele>
        <time>2026-05-13T06:25:55Z</time>
      </trkpt>
      <trkpt lat="44.93266" lon="1.91019">
        <ele>209.7</ele>
        <time>2026-05-13T06:26:01Z</time>
      </trkpt>
      <trkpt lat="44.9326" lon="1.90993">
        <ele>209.7</ele>
        <time>2026-05-13T06:26:15Z</time>
      </trkpt>
      <trkpt lat="44.93257" lon="1.90981">
        <ele>210.19</ele>
        <time>2026-05-13T06:26:24Z</time>
      </trkpt>
      <trkpt lat="44.93256" lon="1.90975">
        <ele>210.19</ele>
        <time>2026-05-13T06:26:26Z</time>
      </trkpt>
      <trkpt lat="44.93251" lon="1.90946">
        <ele>209.22</ele>
        <time>2026-05-13T06:26:40Z</time>
      </trkpt>
      <trkpt lat="44.93255" lon="1.90922">
        <ele>209.22</ele>
        <time>2026-05-13T06:26:54Z</time>
      </trkpt>
      <trkpt lat="44.93257" lon="1.90898">
        <ele>211.15</ele>
        <time>2026-05-13T06:27:08Z</time>
      </trkpt>
      <trkpt lat="44.93259" lon="1.90881">
        <ele>212.11</ele>
        <time>2026-05-13T06:27:18Z</time>
      </trkpt>
      <trkpt lat="44.93259" lon="1.90879">
        <ele>212.11</ele>
        <time>2026-05-13T06:27:19Z</time>
      </trkpt>
      <trkpt lat="44.93254" lon="1.90857">
        <ele>210.67</ele>
        <time>2026-05-13T06:27:30Z</time>
      </trkpt>
      <trkpt lat="44.93254" lon="1.90855">
        <ele>210.67</ele>
        <time>2026-05-13T06:27:31Z</time>
      </trkpt>
      <trkpt lat="44.93251" lon="1.90841">
        <ele>210.67</ele>
        <time>2026-05-13T06:27:43Z</time>
      </trkpt>
      <trkpt lat="44.93247" lon="1.90832">
        <ele>210.19</ele>
        <time>2026-05-13T06:27:53Z</time>
      </trkpt>
      <trkpt lat="44.93246" lon="1.9083">
        <ele>209.7</ele>
        <time>2026-05-13T06:27:54Z</time>
      </trkpt>
      <trkpt lat="44.93245" lon="1.90828">
        <ele>209.7</ele>
        <time>2026-05-13T06:27:55Z</time>
      </trkpt>
      <trkpt lat="44.93238" lon="1.90809">
        <ele>207.3</ele>
        <time>2026-05-13T06:28:09Z</time>
      </trkpt>
      <trkpt lat="44.93232" lon="1.90801">
        <ele>206.82</ele>
        <time>2026-05-13T06:28:14Z</time>
      </trkpt>
      <trkpt lat="44.93222" lon="1.90786">
        <ele>205.38</ele>
        <time>2026-05-13T06:28:27Z</time>
      </trkpt>
      <trkpt lat="44.93211" lon="1.90776">
        <ele>204.42</ele>
        <time>2026-05-13T06:28:37Z</time>
      </trkpt>
      <trkpt lat="44.93209" lon="1.90775">
        <ele>204.42</ele>
        <time>2026-05-13T06:28:38Z</time>
      </trkpt>
      <trkpt lat="44.93208" lon="1.90772">
        <ele>203.94</ele>
        <time>2026-05-13T06:28:40Z</time>
      </trkpt>
      <trkpt lat="44.93199" lon="1.90758">
        <ele>203.46</ele>
        <time>2026-05-13T06:28:50Z</time>
      </trkpt>
      <trkpt lat="44.93189" lon="1.90732">
        <ele>202.98</ele>
        <time>2026-05-13T06:29:07Z</time>
      </trkpt>
      <trkpt lat="44.93182" lon="1.90715">
        <ele>202.49</ele>
        <time>2026-05-13T06:29:17Z</time>
      </trkpt>
      <trkpt lat="44.93178" lon="1.90699">
        <ele>202.01</ele>
        <time>2026-05-13T06:29:26Z</time>
      </trkpt>
      <trkpt lat="44.93175" lon="1.90692">
        <ele>201.53</ele>
        <time>2026-05-13T06:29:29Z</time>
      </trkpt>
      <trkpt lat="44.93174" lon="1.9069">
        <ele>201.53</ele>
        <time>2026-05-13T06:29:30Z</time>
      </trkpt>
      <trkpt lat="44.93168" lon="1.90667">
        <ele>201.53</ele>
        <time>2026-05-13T06:29:44Z</time>
      </trkpt>
      <trkpt lat="44.93165" lon="1.90657">
        <ele>202.01</ele>
        <time>2026-05-13T06:29:48Z</time>
      </trkpt>
      <trkpt lat="44.93164" lon="1.90655">
        <ele>202.01</ele>
        <time>2026-05-13T06:29:49Z</time>
      </trkpt>
      <trkpt lat="44.9315" lon="1.90636">
        <ele>202.01</ele>
        <time>2026-05-13T06:30:02Z</time>
      </trkpt>
      <trkpt lat="44.93145" lon="1.90624">
        <ele>202.01</ele>
        <time>2026-05-13T06:30:09Z</time>
      </trkpt>
      <trkpt lat="44.93143" lon="1.90627">
        <ele>202.01</ele>
        <time>2026-05-13T06:30:10Z</time>
      </trkpt>
      <trkpt lat="44.93142" lon="1.90627">
        <ele>202.01</ele>
        <time>2026-05-13T06:30:11Z</time>
      </trkpt>
      <trkpt lat="44.93128" lon="1.90616">
        <ele>202.98</ele>
        <time>2026-05-13T06:30:24Z</time>
      </trkpt>
      <trkpt lat="44.93123" lon="1.9061">
        <ele>202.98</ele>
        <time>2026-05-13T06:30:29Z</time>
      </trkpt>
      <trkpt lat="44.93117" lon="1.90602">
        <ele>202.49</ele>
        <time>2026-05-13T06:30:34Z</time>
      </trkpt>
      <trkpt lat="44.93115" lon="1.90599">
        <ele>202.49</ele>
        <time>2026-05-13T06:30:36Z</time>
      </trkpt>
      <trkpt lat="44.93113" lon="1.90598">
        <ele>202.49</ele>
        <time>2026-05-13T06:30:37Z</time>
      </trkpt>
      <trkpt lat="44.93098" lon="1.90579">
        <ele>201.05</ele>
        <time>2026-05-13T06:30:52Z</time>
      </trkpt>
      <trkpt lat="44.93088" lon="1.90562">
        <ele>200.57</ele>
        <time>2026-05-13T06:31:06Z</time>
      </trkpt>
      <trkpt lat="44.93085" lon="1.90561">
        <ele>200.57</ele>
        <time>2026-05-13T06:31:08Z</time>
      </trkpt>
      <trkpt lat="44.93066" lon="1.90544">
        <ele>200.57</ele>
        <time>2026-05-13T06:31:24Z</time>
      </trkpt>
      <trkpt lat="44.93052" lon="1.90528">
        <ele>199.61</ele>
        <time>2026-05-13T06:31:39Z</time>
      </trkpt>
      <trkpt lat="44.93048" lon="1.90521">
        <ele>199.13</ele>
        <time>2026-05-13T06:31:44Z</time>
      </trkpt>
      <trkpt lat="44.93046" lon="1.9052">
        <ele>199.13</ele>
        <time>2026-05-13T06:31:45Z</time>
      </trkpt>
      <trkpt lat="44.93035" lon="1.90497">
        <ele>197.69</ele>
        <time>2026-05-13T06:32:00Z</time>
      </trkpt>
      <trkpt lat="44.93031" lon="1.90495">
        <ele>197.21</ele>
        <time>2026-05-13T06:32:03Z</time>
      </trkpt>
      <trkpt lat="44.9303" lon="1.90499">
        <ele>197.21</ele>
        <time>2026-05-13T06:32:04Z</time>
      </trkpt>
      <trkpt lat="44.93031" lon="1.90506">
        <ele>196.73</ele>
        <time>2026-05-13T06:32:10Z</time>
      </trkpt>
      <trkpt lat="44.93032" lon="1.90515">
        <ele>197.21</ele>
        <time>2026-05-13T06:32:15Z</time>
      </trkpt>
      <trkpt lat="44.93037" lon="1.90535">
        <ele>197.21</ele>
        <time>2026-05-13T06:32:26Z</time>
      </trkpt>
      <trkpt lat="44.93038" lon="1.90538">
        <ele>197.21</ele>
        <time>2026-05-13T06:32:27Z</time>
      </trkpt>
      <trkpt lat="44.9305" lon="1.90575">
        <ele>196.25</ele>
        <time>2026-05-13T06:32:45Z</time>
      </trkpt>
      <trkpt lat="44.93051" lon="1.90611">
        <ele>195.77</ele>
        <time>2026-05-13T06:33:05Z</time>
      </trkpt>
      <trkpt lat="44.93049" lon="1.90631">
        <ele>197.21</ele>
        <time>2026-05-13T06:33:16Z</time>
      </trkpt>
      <trkpt lat="44.93038" lon="1.90637">
        <ele>200.09</ele>
        <time>2026-05-13T06:33:34Z</time>
      </trkpt>
      <trkpt lat="44.93019" lon="1.90606">
        <ele>202.98</ele>
        <time>2026-05-13T06:33:56Z</time>
      </trkpt>
      <trkpt lat="44.93003" lon="1.906">
        <ele>206.34</ele>
        <time>2026-05-13T06:34:15Z</time>
      </trkpt>
      <trkpt lat="44.92978" lon="1.90601">
        <ele>209.7</ele>
        <time>2026-05-13T06:34:36Z</time>
      </trkpt>
      <trkpt lat="44.92955" lon="1.90612">
        <ele>212.11</ele>
        <time>2026-05-13T06:34:57Z</time>
      </trkpt>
      <trkpt lat="44.92944" lon="1.90615">
        <ele>214.03</ele>
        <time>2026-05-13T06:35:06Z</time>
      </trkpt>
      <trkpt lat="44.92943" lon="1.90616">
        <ele>214.03</ele>
        <time>2026-05-13T06:35:07Z</time>
      </trkpt>
      <trkpt lat="44.92927" lon="1.90631">
        <ele>216.43</ele>
        <time>2026-05-13T06:35:24Z</time>
      </trkpt>
      <trkpt lat="44.92926" lon="1.90636">
        <ele>217.4</ele>
        <time>2026-05-13T06:35:28Z</time>
      </trkpt>
      <trkpt lat="44.92926" lon="1.90638">
        <ele>217.4</ele>
        <time>2026-05-13T06:35:29Z</time>
      </trkpt>
      <trkpt lat="44.92925" lon="1.9064">
        <ele>217.88</ele>
        <time>2026-05-13T06:35:30Z</time>
      </trkpt>
      <trkpt lat="44.92925" lon="1.90642">
        <ele>217.88</ele>
        <time>2026-05-13T06:35:31Z</time>
      </trkpt>
      <trkpt lat="44.92925" lon="1.90644">
        <ele>217.88</ele>
        <time>2026-05-13T06:35:32Z</time>
      </trkpt>
      <trkpt lat="44.92924" lon="1.90645">
        <ele>218.36</ele>
        <time>2026-05-13T06:35:33Z</time>
      </trkpt>
      <trkpt lat="44.92913" lon="1.90664">
        <ele>220.76</ele>
        <time>2026-05-13T06:35:50Z</time>
      </trkpt>
      <trkpt lat="44.929" lon="1.90685">
        <ele>223.16</ele>
        <time>2026-05-13T06:36:08Z</time>
      </trkpt>
      <trkpt lat="44.92889" lon="1.90703">
        <ele>225.09</ele>
        <time>2026-05-13T06:36:24Z</time>
      </trkpt>
      <trkpt lat="44.92886" lon="1.90715">
        <ele>225.57</ele>
        <time>2026-05-13T06:36:42Z</time>
      </trkpt>
      <trkpt lat="44.92879" lon="1.9072">
        <ele>225.57</ele>
        <time>2026-05-13T06:36:50Z</time>
      </trkpt>
      <trkpt lat="44.92878" lon="1.90722">
        <ele>226.53</ele>
        <time>2026-05-13T06:36:51Z</time>
      </trkpt>
      <trkpt lat="44.92875" lon="1.90723">
        <ele>227.01</ele>
        <time>2026-05-13T06:37:04Z</time>
      </trkpt>
      <trkpt lat="44.92874" lon="1.90723">
        <ele>225.57</ele>
        <time>2026-05-13T06:37:08Z</time>
      </trkpt>
      <trkpt lat="44.92875" lon="1.90723">
        <ele>226.53</ele>
        <time>2026-05-13T06:37:09Z</time>
      </trkpt>
      <trkpt lat="44.92876" lon="1.90726">
        <ele>229.41</ele>
        <time>2026-05-13T06:37:25Z</time>
      </trkpt>
      <trkpt lat="44.92876" lon="1.90727">
        <ele>225.09</ele>
        <time>2026-05-13T06:37:28Z</time>
      </trkpt>
      <trkpt lat="44.92875" lon="1.90727">
        <ele>225.09</ele>
        <time>2026-05-13T06:37:29Z</time>
      </trkpt>
      <trkpt lat="44.92875" lon="1.90727">
        <ele>227.01</ele>
        <time>2026-05-13T06:37:30Z</time>
      </trkpt>
      <trkpt lat="44.92873" lon="1.90727">
        <ele>226.05</ele>
        <time>2026-05-13T06:37:44Z</time>
      </trkpt>
      <trkpt lat="44.92876" lon="1.90728">
        <ele>227.49</ele>
        <time>2026-05-13T06:37:52Z</time>
      </trkpt>
      <trkpt lat="44.92874" lon="1.90726">
        <ele>226.53</ele>
        <time>2026-05-13T06:37:55Z</time>
      </trkpt>
      <trkpt lat="44.92876" lon="1.90732">
        <ele>226.53</ele>
        <time>2026-05-13T06:38:15Z</time>
      </trkpt>
      <trkpt lat="44.92876" lon="1.90733">
        <ele>227.49</ele>
        <time>2026-05-13T06:38:20Z</time>
      </trkpt>
      <trkpt lat="44.92873" lon="1.9073">
        <ele>227.49</ele>
        <time>2026-05-13T06:38:39Z</time>
      </trkpt>
      <trkpt lat="44.92868" lon="1.90729">
        <ele>227.49</ele>
        <time>2026-05-13T06:38:58Z</time>
      </trkpt>
      <trkpt lat="44.92873" lon="1.9073">
        <ele>225.57</ele>
        <time>2026-05-13T06:39:28Z</time>
      </trkpt>
      <trkpt lat="44.92875" lon="1.90731">
        <ele>227.01</ele>
        <time>2026-05-13T06:39:37Z</time>
      </trkpt>
      <trkpt lat="44.92875" lon="1.90727">
        <ele>225.09</ele>
        <time>2026-05-13T06:40:01Z</time>
      </trkpt>
      <trkpt lat="44.92875" lon="1.90723">
        <ele>225.57</ele>
        <time>2026-05-13T06:40:27Z</time>
      </trkpt>
      <trkpt lat="44.92872" lon="1.90717">
        <ele>227.01</ele>
        <time>2026-05-13T06:40:40Z</time>
      </trkpt>
      <trkpt lat="44.92873" lon="1.90725">
        <ele>225.57</ele>
        <time>2026-05-13T06:40:59Z</time>
      </trkpt>
      <trkpt lat="44.92872" lon="1.90733">
        <ele>227.01</ele>
        <time>2026-05-13T06:41:21Z</time>
      </trkpt>
      <trkpt lat="44.92869" lon="1.90742">
        <ele>227.49</ele>
        <time>2026-05-13T06:41:32Z</time>
      </trkpt>
      <trkpt lat="44.92866" lon="1.90747">
        <ele>227.49</ele>
        <time>2026-05-13T06:41:37Z</time>
      </trkpt>
      <trkpt lat="44.92858" lon="1.90752">
        <ele>228.45</ele>
        <time>2026-05-13T06:41:55Z</time>
      </trkpt>
      <trkpt lat="44.92857" lon="1.90761">
        <ele>228.93</ele>
        <time>2026-05-13T06:42:13Z</time>
      </trkpt>
      <trkpt lat="44.92848" lon="1.90782">
        <ele>230.37</ele>
        <time>2026-05-13T06:42:31Z</time>
      </trkpt>
      <trkpt lat="44.92843" lon="1.90796">
        <ele>231.33</ele>
        <time>2026-05-13T06:42:44Z</time>
      </trkpt>
      <trkpt lat="44.92839" lon="1.90799">
        <ele>232.3</ele>
        <time>2026-05-13T06:42:59Z</time>
      </trkpt>
      <trkpt lat="44.92835" lon="1.90807">
        <ele>232.78</ele>
        <time>2026-05-13T06:43:11Z</time>
      </trkpt>
      <trkpt lat="44.92832" lon="1.90811">
        <ele>233.26</ele>
        <time>2026-05-13T06:43:15Z</time>
      </trkpt>
      <trkpt lat="44.92831" lon="1.90812">
        <ele>233.26</ele>
        <time>2026-05-13T06:43:16Z</time>
      </trkpt>
      <trkpt lat="44.92826" lon="1.90819">
        <ele>234.7</ele>
        <time>2026-05-13T06:43:23Z</time>
      </trkpt>
      <trkpt lat="44.92814" lon="1.90839">
        <ele>237.58</ele>
        <time>2026-05-13T06:43:41Z</time>
      </trkpt>
      <trkpt lat="44.92802" lon="1.9086">
        <ele>239.51</ele>
        <time>2026-05-13T06:43:59Z</time>
      </trkpt>
      <trkpt lat="44.92797" lon="1.90878">
        <ele>239.51</ele>
        <time>2026-05-13T06:44:12Z</time>
      </trkpt>
      <trkpt lat="44.92788" lon="1.90886">
        <ele>237.1</ele>
        <time>2026-05-13T06:44:25Z</time>
      </trkpt>
      <trkpt lat="44.92784" lon="1.90879">
        <ele>235.66</ele>
        <time>2026-05-13T06:44:44Z</time>
      </trkpt>
      <trkpt lat="44.92781" lon="1.90884">
        <ele>235.18</ele>
        <time>2026-05-13T06:45:20Z</time>
      </trkpt>
      <trkpt lat="44.92759" lon="1.90902">
        <ele>232.3</ele>
        <time>2026-05-13T06:45:39Z</time>
      </trkpt>
      <trkpt lat="44.92763" lon="1.90902">
        <ele>228.93</ele>
        <time>2026-05-13T06:45:51Z</time>
      </trkpt>
      <trkpt lat="44.9277" lon="1.90895">
        <ele>228.45</ele>
        <time>2026-05-13T06:45:58Z</time>
      </trkpt>
      <trkpt lat="44.92771" lon="1.90894">
        <ele>227.97</ele>
        <time>2026-05-13T06:45:59Z</time>
      </trkpt>
      <trkpt lat="44.92778" lon="1.90882">
        <ele>227.01</ele>
        <time>2026-05-13T06:46:08Z</time>
      </trkpt>
      <trkpt lat="44.92783" lon="1.90865">
        <ele>223.16</ele>
        <time>2026-05-13T06:46:20Z</time>
      </trkpt>
      <trkpt lat="44.92779" lon="1.90845">
        <ele>221.24</ele>
        <time>2026-05-13T06:46:33Z</time>
      </trkpt>
      <trkpt lat="44.92786" lon="1.90826">
        <ele>217.88</ele>
        <time>2026-05-13T06:46:46Z</time>
      </trkpt>
      <trkpt lat="44.92796" lon="1.90807">
        <ele>214.99</ele>
        <time>2026-05-13T06:47:02Z</time>
      </trkpt>
      <trkpt lat="44.92806" lon="1.90788">
        <ele>211.63</ele>
        <time>2026-05-13T06:47:16Z</time>
      </trkpt>
      <trkpt lat="44.92808" lon="1.9077">
        <ele>208.26</ele>
        <time>2026-05-13T06:47:27Z</time>
      </trkpt>
      <trkpt lat="44.92809" lon="1.90748">
        <ele>205.86</ele>
        <time>2026-05-13T06:47:41Z</time>
      </trkpt>
      <trkpt lat="44.9281" lon="1.90746">
        <ele>207.3</ele>
        <time>2026-05-13T06:47:43Z</time>
      </trkpt>
      <trkpt lat="44.92812" lon="1.90744">
        <ele>205.86</ele>
        <time>2026-05-13T06:47:45Z</time>
      </trkpt>
      <trkpt lat="44.92816" lon="1.90739">
        <ele>204.9</ele>
        <time>2026-05-13T06:47:51Z</time>
      </trkpt>
      <trkpt lat="44.92818" lon="1.90731">
        <ele>204.9</ele>
        <time>2026-05-13T06:48:04Z</time>
      </trkpt>
      <trkpt lat="44.92804" lon="1.90729">
        <ele>208.26</ele>
        <time>2026-05-13T06:48:19Z</time>
      </trkpt>
      <trkpt lat="44.92791" lon="1.90729">
        <ele>211.63</ele>
        <time>2026-05-13T06:48:38Z</time>
      </trkpt>
      <trkpt lat="44.92781" lon="1.90743">
        <ele>214.03</ele>
        <time>2026-05-13T06:48:59Z</time>
      </trkpt>
      <trkpt lat="44.92771" lon="1.90761">
        <ele>216.91</ele>
        <time>2026-05-13T06:49:20Z</time>
      </trkpt>
      <trkpt lat="44.92763" lon="1.90768">
        <ele>220.28</ele>
        <time>2026-05-13T06:49:37Z</time>
      </trkpt>
      <trkpt lat="44.92751" lon="1.90783">
        <ele>223.16</ele>
        <time>2026-05-13T06:49:54Z</time>
      </trkpt>
      <trkpt lat="44.92743" lon="1.9081">
        <ele>225.57</ele>
        <time>2026-05-13T06:50:17Z</time>
      </trkpt>
      <trkpt lat="44.92731" lon="1.90843">
        <ele>226.53</ele>
        <time>2026-05-13T06:50:39Z</time>
      </trkpt>
      <trkpt lat="44.92727" lon="1.90857">
        <ele>228.45</ele>
        <time>2026-05-13T06:50:54Z</time>
      </trkpt>
      <trkpt lat="44.92723" lon="1.90864">
        <ele>228.93</ele>
        <time>2026-05-13T06:51:08Z</time>
      </trkpt>
      <trkpt lat="44.92711" lon="1.90869">
        <ele>229.89</ele>
        <time>2026-05-13T06:51:24Z</time>
      </trkpt>
      <trkpt lat="44.92697" lon="1.90881">
        <ele>232.3</ele>
        <time>2026-05-13T06:51:45Z</time>
      </trkpt>
      <trkpt lat="44.92683" lon="1.90881">
        <ele>232.3</ele>
        <time>2026-05-13T06:51:57Z</time>
      </trkpt>
      <trkpt lat="44.92677" lon="1.90896">
        <ele>230.85</ele>
        <time>2026-05-13T06:52:06Z</time>
      </trkpt>
      <trkpt lat="44.92666" lon="1.90906">
        <ele>230.37</ele>
        <time>2026-05-13T06:52:24Z</time>
      </trkpt>
      <trkpt lat="44.92664" lon="1.90906">
        <ele>231.33</ele>
        <time>2026-05-13T06:52:27Z</time>
      </trkpt>
      <trkpt lat="44.92662" lon="1.9091">
        <ele>231.33</ele>
        <time>2026-05-13T06:52:30Z</time>
      </trkpt>
      <trkpt lat="44.92656" lon="1.90919">
        <ele>233.74</ele>
        <time>2026-05-13T06:52:44Z</time>
      </trkpt>
      <trkpt lat="44.9265" lon="1.90922">
        <ele>236.62</ele>
        <time>2026-05-13T06:52:57Z</time>
      </trkpt>
      <trkpt lat="44.92642" lon="1.90925">
        <ele>239.02</ele>
        <time>2026-05-13T06:53:09Z</time>
      </trkpt>
      <trkpt lat="44.92637" lon="1.90936">
        <ele>240.95</ele>
        <time>2026-05-13T06:53:23Z</time>
      </trkpt>
      <trkpt lat="44.92637" lon="1.90942">
        <ele>242.87</ele>
        <time>2026-05-13T06:53:35Z</time>
      </trkpt>
      <trkpt lat="44.92633" lon="1.90944">
        <ele>243.83</ele>
        <time>2026-05-13T06:53:44Z</time>
      </trkpt>
      <trkpt lat="44.92628" lon="1.90947">
        <ele>246.23</ele>
        <time>2026-05-13T06:53:56Z</time>
      </trkpt>
      <trkpt lat="44.92625" lon="1.90947">
        <ele>247.68</ele>
        <time>2026-05-13T06:54:02Z</time>
      </trkpt>
      <trkpt lat="44.92621" lon="1.90945">
        <ele>248.16</ele>
        <time>2026-05-13T06:54:08Z</time>
      </trkpt>
      <trkpt lat="44.92612" lon="1.90954">
        <ele>250.08</ele>
        <time>2026-05-13T06:54:22Z</time>
      </trkpt>
      <trkpt lat="44.92608" lon="1.90957">
        <ele>250.56</ele>
        <time>2026-05-13T06:54:26Z</time>
      </trkpt>
      <trkpt lat="44.92604" lon="1.9096">
        <ele>251.04</ele>
        <time>2026-05-13T06:54:32Z</time>
      </trkpt>
      <trkpt lat="44.92591" lon="1.90969">
        <ele>252.48</ele>
        <time>2026-05-13T06:54:46Z</time>
      </trkpt>
      <trkpt lat="44.92589" lon="1.9097">
        <ele>252.48</ele>
        <time>2026-05-13T06:54:48Z</time>
      </trkpt>
      <trkpt lat="44.92577" lon="1.90977">
        <ele>253.93</ele>
        <time>2026-05-13T06:55:01Z</time>
      </trkpt>
      <trkpt lat="44.92563" lon="1.90985">
        <ele>254.89</ele>
        <time>2026-05-13T06:55:16Z</time>
      </trkpt>
      <trkpt lat="44.92554" lon="1.90989">
        <ele>257.29</ele>
        <time>2026-05-13T06:55:27Z</time>
      </trkpt>
      <trkpt lat="44.9255" lon="1.9099">
        <ele>256.81</ele>
        <time>2026-05-13T06:55:31Z</time>
      </trkpt>
      <trkpt lat="44.92545" lon="1.90991">
        <ele>255.85</ele>
        <time>2026-05-13T06:55:36Z</time>
      </trkpt>
      <trkpt lat="44.92542" lon="1.90991">
        <ele>255.37</ele>
        <time>2026-05-13T06:55:39Z</time>
      </trkpt>
      <trkpt lat="44.92528" lon="1.9099">
        <ele>256.81</ele>
        <time>2026-05-13T06:55:54Z</time>
      </trkpt>
      <trkpt lat="44.92519" lon="1.9099">
        <ele>258.73</ele>
        <time>2026-05-13T06:56:05Z</time>
      </trkpt>
      <trkpt lat="44.92506" lon="1.90995">
        <ele>261.62</ele>
        <time>2026-05-13T06:56:20Z</time>
      </trkpt>
      <trkpt lat="44.92495" lon="1.90998">
        <ele>263.54</ele>
        <time>2026-05-13T06:56:33Z</time>
      </trkpt>
      <trkpt lat="44.92479" lon="1.91006">
        <ele>264.02</ele>
        <time>2026-05-13T06:56:48Z</time>
      </trkpt>
      <trkpt lat="44.92462" lon="1.91013">
        <ele>264.5</ele>
        <time>2026-05-13T06:57:03Z</time>
      </trkpt>
      <trkpt lat="44.92454" lon="1.91015">
        <ele>264.5</ele>
        <time>2026-05-13T06:57:11Z</time>
      </trkpt>
      <trkpt lat="44.92453" lon="1.91015">
        <ele>264.5</ele>
        <time>2026-05-13T06:57:12Z</time>
      </trkpt>
      <trkpt lat="44.9244" lon="1.91016">
        <ele>263.06</ele>
        <time>2026-05-13T06:57:23Z</time>
      </trkpt>
      <trkpt lat="44.92428" lon="1.91024">
        <ele>264.02</ele>
        <time>2026-05-13T06:57:37Z</time>
      </trkpt>
      <trkpt lat="44.92414" lon="1.9103">
        <ele>267.86</ele>
        <time>2026-05-13T06:57:54Z</time>
      </trkpt>
      <trkpt lat="44.92403" lon="1.91036">
        <ele>268.35</ele>
        <time>2026-05-13T06:58:05Z</time>
      </trkpt>
      <trkpt lat="44.92387" lon="1.91039">
        <ele>267.38</ele>
        <time>2026-05-13T06:58:20Z</time>
      </trkpt>
      <trkpt lat="44.92377" lon="1.91044">
        <ele>267.38</ele>
        <time>2026-05-13T06:58:28Z</time>
      </trkpt>
      <trkpt lat="44.92373" lon="1.91046">
        <ele>268.83</ele>
        <time>2026-05-13T06:58:33Z</time>
      </trkpt>
      <trkpt lat="44.92363" lon="1.91048">
        <ele>270.27</ele>
        <time>2026-05-13T06:58:45Z</time>
      </trkpt>
      <trkpt lat="44.92355" lon="1.91051">
        <ele>271.23</ele>
        <time>2026-05-13T06:58:59Z</time>
      </trkpt>
      <trkpt lat="44.92343" lon="1.9106">
        <ele>273.15</ele>
        <time>2026-05-13T06:59:12Z</time>
      </trkpt>
      <trkpt lat="44.92329" lon="1.91071">
        <ele>274.59</ele>
        <time>2026-05-13T06:59:25Z</time>
      </trkpt>
      <trkpt lat="44.92319" lon="1.91083">
        <ele>275.56</ele>
        <time>2026-05-13T06:59:38Z</time>
      </trkpt>
      <trkpt lat="44.9231" lon="1.91087">
        <ele>276.52</ele>
        <time>2026-05-13T06:59:47Z</time>
      </trkpt>
      <trkpt lat="44.92299" lon="1.91092">
        <ele>277.96</ele>
        <time>2026-05-13T07:00:01Z</time>
      </trkpt>
      <trkpt lat="44.92292" lon="1.911">
        <ele>278.92</ele>
        <time>2026-05-13T07:00:11Z</time>
      </trkpt>
      <trkpt lat="44.9228" lon="1.91107">
        <ele>280.84</ele>
        <time>2026-05-13T07:00:23Z</time>
      </trkpt>
      <trkpt lat="44.9228" lon="1.91109">
        <ele>280.84</ele>
        <time>2026-05-13T07:00:24Z</time>
      </trkpt>
      <trkpt lat="44.9227" lon="1.91118">
        <ele>281.8</ele>
        <time>2026-05-13T07:00:36Z</time>
      </trkpt>
      <trkpt lat="44.92269" lon="1.9112">
        <ele>282.28</ele>
        <time>2026-05-13T07:00:39Z</time>
      </trkpt>
      <trkpt lat="44.92268" lon="1.91122">
        <ele>282.28</ele>
        <time>2026-05-13T07:00:40Z</time>
      </trkpt>
      <trkpt lat="44.92265" lon="1.91128">
        <ele>282.28</ele>
        <time>2026-05-13T07:00:44Z</time>
      </trkpt>
      <trkpt lat="44.92254" lon="1.9114">
        <ele>283.73</ele>
        <time>2026-05-13T07:00:56Z</time>
      </trkpt>
      <trkpt lat="44.92247" lon="1.91148">
        <ele>284.69</ele>
        <time>2026-05-13T07:01:04Z</time>
      </trkpt>
      <trkpt lat="44.92235" lon="1.91155">
        <ele>286.13</ele>
        <time>2026-05-13T07:01:18Z</time>
      </trkpt>
      <trkpt lat="44.92226" lon="1.91158">
        <ele>287.09</ele>
        <time>2026-05-13T07:01:29Z</time>
      </trkpt>
      <trkpt lat="44.92219" lon="1.9116">
        <ele>287.57</ele>
        <time>2026-05-13T07:01:34Z</time>
      </trkpt>
      <trkpt lat="44.92203" lon="1.91166">
        <ele>288.53</ele>
        <time>2026-05-13T07:01:50Z</time>
      </trkpt>
      <trkpt lat="44.92198" lon="1.9117">
        <ele>289.01</ele>
        <time>2026-05-13T07:01:55Z</time>
      </trkpt>
      <trkpt lat="44.92185" lon="1.9117">
        <ele>291.42</ele>
        <time>2026-05-13T07:02:11Z</time>
      </trkpt>
      <trkpt lat="44.92172" lon="1.91177">
        <ele>292.38</ele>
        <time>2026-05-13T07:02:26Z</time>
      </trkpt>
      <trkpt lat="44.92162" lon="1.91192">
        <ele>294.78</ele>
        <time>2026-05-13T07:02:43Z</time>
      </trkpt>
      <trkpt lat="44.92158" lon="1.91198">
        <ele>295.74</ele>
        <time>2026-05-13T07:02:51Z</time>
      </trkpt>
      <trkpt lat="44.92144" lon="1.91215">
        <ele>297.18</ele>
        <time>2026-05-13T07:03:06Z</time>
      </trkpt>
      <trkpt lat="44.92142" lon="1.91217">
        <ele>299.11</ele>
        <time>2026-05-13T07:03:21Z</time>
      </trkpt>
      <trkpt lat="44.92147" lon="1.91214">
        <ele>301.03</ele>
        <time>2026-05-13T07:03:36Z</time>
      </trkpt>
      <trkpt lat="44.92138" lon="1.91218">
        <ele>299.11</ele>
        <time>2026-05-13T07:03:47Z</time>
      </trkpt>
      <trkpt lat="44.92135" lon="1.91222">
        <ele>299.11</ele>
        <time>2026-05-13T07:03:52Z</time>
      </trkpt>
      <trkpt lat="44.9213" lon="1.91234">
        <ele>299.59</ele>
        <time>2026-05-13T07:04:08Z</time>
      </trkpt>
      <trkpt lat="44.92126" lon="1.91242">
        <ele>300.55</ele>
        <time>2026-05-13T07:04:20Z</time>
      </trkpt>
      <trkpt lat="44.92122" lon="1.91242">
        <ele>301.03</ele>
        <time>2026-05-13T07:04:37Z</time>
      </trkpt>
      <trkpt lat="44.92113" lon="1.91243">
        <ele>304.39</ele>
        <time>2026-05-13T07:04:53Z</time>
      </trkpt>
      <trkpt lat="44.92105" lon="1.91245">
        <ele>306.32</ele>
        <time>2026-05-13T07:05:07Z</time>
      </trkpt>
      <trkpt lat="44.92105" lon="1.91239">
        <ele>308.24</ele>
        <time>2026-05-13T07:05:26Z</time>
      </trkpt>
      <trkpt lat="44.9211" lon="1.91227">
        <ele>309.68</ele>
        <time>2026-05-13T07:05:41Z</time>
      </trkpt>
      <trkpt lat="44.92104" lon="1.91233">
        <ele>310.16</ele>
        <time>2026-05-13T07:05:49Z</time>
      </trkpt>
      <trkpt lat="44.92098" lon="1.91251">
        <ele>311.12</ele>
        <time>2026-05-13T07:06:06Z</time>
      </trkpt>
      <trkpt lat="44.92095" lon="1.91269">
        <ele>310.64</ele>
        <time>2026-05-13T07:06:20Z</time>
      </trkpt>
      <trkpt lat="44.92087" lon="1.91283">
        <ele>310.64</ele>
        <time>2026-05-13T07:06:32Z</time>
      </trkpt>
      <trkpt lat="44.92073" lon="1.91302">
        <ele>311.6</ele>
        <time>2026-05-13T07:06:49Z</time>
      </trkpt>
      <trkpt lat="44.92065" lon="1.91303">
        <ele>314.49</ele>
        <time>2026-05-13T07:07:04Z</time>
      </trkpt>
      <trkpt lat="44.92047" lon="1.91316">
        <ele>316.89</ele>
        <time>2026-05-13T07:07:20Z</time>
      </trkpt>
      <trkpt lat="44.92046" lon="1.91318">
        <ele>317.37</ele>
        <time>2026-05-13T07:07:23Z</time>
      </trkpt>
      <trkpt lat="44.92035" lon="1.91331">
        <ele>318.81</ele>
        <time>2026-05-13T07:07:37Z</time>
      </trkpt>
      <trkpt lat="44.92029" lon="1.91345">
        <ele>320.26</ele>
        <time>2026-05-13T07:07:48Z</time>
      </trkpt>
      <trkpt lat="44.92029" lon="1.91346">
        <ele>320.26</ele>
        <time>2026-05-13T07:07:49Z</time>
      </trkpt>
      <trkpt lat="44.9202" lon="1.91357">
        <ele>322.66</ele>
        <time>2026-05-13T07:08:03Z</time>
      </trkpt>
      <trkpt lat="44.92019" lon="1.91357">
        <ele>323.62</ele>
        <time>2026-05-13T07:08:06Z</time>
      </trkpt>
      <trkpt lat="44.92015" lon="1.91366">
        <ele>324.1</ele>
        <time>2026-05-13T07:08:12Z</time>
      </trkpt>
      <trkpt lat="44.92011" lon="1.91379">
        <ele>325.06</ele>
        <time>2026-05-13T07:08:19Z</time>
      </trkpt>
      <trkpt lat="44.92005" lon="1.91403">
        <ele>327.47</ele>
        <time>2026-05-13T07:08:33Z</time>
      </trkpt>
      <trkpt lat="44.92001" lon="1.91422">
        <ele>329.87</ele>
        <time>2026-05-13T07:08:46Z</time>
      </trkpt>
      <trkpt lat="44.92001" lon="1.91441">
        <ele>331.31</ele>
        <time>2026-05-13T07:08:58Z</time>
      </trkpt>
      <trkpt lat="44.92014" lon="1.91447">
        <ele>332.75</ele>
        <time>2026-05-13T07:09:12Z</time>
      </trkpt>
      <trkpt lat="44.92034" lon="1.91439">
        <ele>335.64</ele>
        <time>2026-05-13T07:09:37Z</time>
      </trkpt>
      <trkpt lat="44.92055" lon="1.91435">
        <ele>337.56</ele>
        <time>2026-05-13T07:09:56Z</time>
      </trkpt>
      <trkpt lat="44.92074" lon="1.91427">
        <ele>340.44</ele>
        <time>2026-05-13T07:10:17Z</time>
      </trkpt>
      <trkpt lat="44.92096" lon="1.91427">
        <ele>342.85</ele>
        <time>2026-05-13T07:10:36Z</time>
      </trkpt>
      <trkpt lat="44.92116" lon="1.9143">
        <ele>345.25</ele>
        <time>2026-05-13T07:10:55Z</time>
      </trkpt>
      <trkpt lat="44.92129" lon="1.91433">
        <ele>347.65</ele>
        <time>2026-05-13T07:11:10Z</time>
      </trkpt>
      <trkpt lat="44.92146" lon="1.91434">
        <ele>350.06</ele>
        <time>2026-05-13T07:11:26Z</time>
      </trkpt>
      <trkpt lat="44.92159" lon="1.91436">
        <ele>351.5</ele>
        <time>2026-05-13T07:11:41Z</time>
      </trkpt>
      <trkpt lat="44.92174" lon="1.91443">
        <ele>353.42</ele>
        <time>2026-05-13T07:11:57Z</time>
      </trkpt>
      <trkpt lat="44.92188" lon="1.91446">
        <ele>355.83</ele>
        <time>2026-05-13T07:12:13Z</time>
      </trkpt>
      <trkpt lat="44.92196" lon="1.91442">
        <ele>355.83</ele>
        <time>2026-05-13T07:12:45Z</time>
      </trkpt>
      <trkpt lat="44.92198" lon="1.91446">
        <ele>357.27</ele>
        <time>2026-05-13T07:13:02Z</time>
      </trkpt>
      <trkpt lat="44.92201" lon="1.91448">
        <ele>357.75</ele>
        <time>2026-05-13T07:13:08Z</time>
      </trkpt>
      <trkpt lat="44.92204" lon="1.9145">
        <ele>358.71</ele>
        <time>2026-05-13T07:13:13Z</time>
      </trkpt>
      <trkpt lat="44.92214" lon="1.91458">
        <ele>360.63</ele>
        <time>2026-05-13T07:13:26Z</time>
      </trkpt>
      <trkpt lat="44.92226" lon="1.91466">
        <ele>362.55</ele>
        <time>2026-05-13T07:13:38Z</time>
      </trkpt>
      <trkpt lat="44.92237" lon="1.91477">
        <ele>365.44</ele>
        <time>2026-05-13T07:13:51Z</time>
      </trkpt>
      <trkpt lat="44.92245" lon="1.91492">
        <ele>366.4</ele>
        <time>2026-05-13T07:14:03Z</time>
      </trkpt>
      <trkpt lat="44.92247" lon="1.91494">
        <ele>366.88</ele>
        <time>2026-05-13T07:14:06Z</time>
      </trkpt>
      <trkpt lat="44.92254" lon="1.91508">
        <ele>367.84</ele>
        <time>2026-05-13T07:14:18Z</time>
      </trkpt>
      <trkpt lat="44.9226" lon="1.91522">
        <ele>369.28</ele>
        <time>2026-05-13T07:14:29Z</time>
      </trkpt>
      <trkpt lat="44.9226" lon="1.91522">
        <ele>369.28</ele>
        <time>2026-05-13T07:14:30Z</time>
      </trkpt>
      <trkpt lat="44.92255" lon="1.91543">
        <ele>370.24</ele>
        <time>2026-05-13T07:14:43Z</time>
      </trkpt>
      <trkpt lat="44.92254" lon="1.91544">
        <ele>370.73</ele>
        <time>2026-05-13T07:14:44Z</time>
      </trkpt>
      <trkpt lat="44.92243" lon="1.91554">
        <ele>372.17</ele>
        <time>2026-05-13T07:14:56Z</time>
      </trkpt>
      <trkpt lat="44.92242" lon="1.91555">
        <ele>372.17</ele>
        <time>2026-05-13T07:14:58Z</time>
      </trkpt>
      <trkpt lat="44.92229" lon="1.91562">
        <ele>374.09</ele>
        <time>2026-05-13T07:15:12Z</time>
      </trkpt>
      <trkpt lat="44.92216" lon="1.91567">
        <ele>375.53</ele>
        <time>2026-05-13T07:15:24Z</time>
      </trkpt>
      <trkpt lat="44.92202" lon="1.91579">
        <ele>376.49</ele>
        <time>2026-05-13T07:15:38Z</time>
      </trkpt>
      <trkpt lat="44.92191" lon="1.91595">
        <ele>377.45</ele>
        <time>2026-05-13T07:15:50Z</time>
      </trkpt>
      <trkpt lat="44.92178" lon="1.91614">
        <ele>378.42</ele>
        <time>2026-05-13T07:16:04Z</time>
      </trkpt>
      <trkpt lat="44.92167" lon="1.9163">
        <ele>379.86</ele>
        <time>2026-05-13T07:16:17Z</time>
      </trkpt>
      <trkpt lat="44.92157" lon="1.91644">
        <ele>380.34</ele>
        <time>2026-05-13T07:16:29Z</time>
      </trkpt>
      <trkpt lat="44.92149" lon="1.91654">
        <ele>381.3</ele>
        <time>2026-05-13T07:16:41Z</time>
      </trkpt>
      <trkpt lat="44.92138" lon="1.9167">
        <ele>381.78</ele>
        <time>2026-05-13T07:16:54Z</time>
      </trkpt>
      <trkpt lat="44.92128" lon="1.91686">
        <ele>382.74</ele>
        <time>2026-05-13T07:17:07Z</time>
      </trkpt>
      <trkpt lat="44.92115" lon="1.91707">
        <ele>384.18</ele>
        <time>2026-05-13T07:17:22Z</time>
      </trkpt>
      <trkpt lat="44.92105" lon="1.91724">
        <ele>384.66</ele>
        <time>2026-05-13T07:17:35Z</time>
      </trkpt>
      <trkpt lat="44.92094" lon="1.91747">
        <ele>385.15</ele>
        <time>2026-05-13T07:17:50Z</time>
      </trkpt>
      <trkpt lat="44.92082" lon="1.9177">
        <ele>386.59</ele>
        <time>2026-05-13T07:18:06Z</time>
      </trkpt>
      <trkpt lat="44.92072" lon="1.9179">
        <ele>387.55</ele>
        <time>2026-05-13T07:18:20Z</time>
      </trkpt>
      <trkpt lat="44.92058" lon="1.91811">
        <ele>388.03</ele>
        <time>2026-05-13T07:18:35Z</time>
      </trkpt>
      <trkpt lat="44.92045" lon="1.9183">
        <ele>388.03</ele>
        <time>2026-05-13T07:18:50Z</time>
      </trkpt>
      <trkpt lat="44.9203" lon="1.91849">
        <ele>389.47</ele>
        <time>2026-05-13T07:19:07Z</time>
      </trkpt>
      <trkpt lat="44.92022" lon="1.91861">
        <ele>389.47</ele>
        <time>2026-05-13T07:19:18Z</time>
      </trkpt>
      <trkpt lat="44.92008" lon="1.91881">
        <ele>389.47</ele>
        <time>2026-05-13T07:19:36Z</time>
      </trkpt>
      <trkpt lat="44.91991" lon="1.91902">
        <ele>389.95</ele>
        <time>2026-05-13T07:19:54Z</time>
      </trkpt>
      <trkpt lat="44.91978" lon="1.9192">
        <ele>390.91</ele>
        <time>2026-05-13T07:20:08Z</time>
      </trkpt>
      <trkpt lat="44.91962" lon="1.91944">
        <ele>391.87</ele>
        <time>2026-05-13T07:20:24Z</time>
      </trkpt>
      <trkpt lat="44.9196" lon="1.91947">
        <ele>391.87</ele>
        <time>2026-05-13T07:20:27Z</time>
      </trkpt>
      <trkpt lat="44.91952" lon="1.91984">
        <ele>393.32</ele>
        <time>2026-05-13T07:20:48Z</time>
      </trkpt>
      <trkpt lat="44.91957" lon="1.92017">
        <ele>394.28</ele>
        <time>2026-05-13T07:21:07Z</time>
      </trkpt>
      <trkpt lat="44.91953" lon="1.92028">
        <ele>394.28</ele>
        <time>2026-05-13T07:21:14Z</time>
      </trkpt>
      <trkpt lat="44.91939" lon="1.9204">
        <ele>396.68</ele>
        <time>2026-05-13T07:21:31Z</time>
      </trkpt>
      <trkpt lat="44.91919" lon="1.9205">
        <ele>397.64</ele>
        <time>2026-05-13T07:21:48Z</time>
      </trkpt>
      <trkpt lat="44.91917" lon="1.92051">
        <ele>397.64</ele>
        <time>2026-05-13T07:21:50Z</time>
      </trkpt>
      <trkpt lat="44.9191" lon="1.9206">
        <ele>398.12</ele>
        <time>2026-05-13T07:22:04Z</time>
      </trkpt>
      <trkpt lat="44.91902" lon="1.92054">
        <ele>398.12</ele>
        <time>2026-05-13T07:22:32Z</time>
      </trkpt>
      <trkpt lat="44.91901" lon="1.92054">
        <ele>398.6</ele>
        <time>2026-05-13T07:22:33Z</time>
      </trkpt>
      <trkpt lat="44.91897" lon="1.92054">
        <ele>398.6</ele>
        <time>2026-05-13T07:22:36Z</time>
      </trkpt>
      <trkpt lat="44.91891" lon="1.92054">
        <ele>399.57</ele>
        <time>2026-05-13T07:22:42Z</time>
      </trkpt>
      <trkpt lat="44.91882" lon="1.9206">
        <ele>400.05</ele>
        <time>2026-05-13T07:22:51Z</time>
      </trkpt>
      <trkpt lat="44.91877" lon="1.92061">
        <ele>401.01</ele>
        <time>2026-05-13T07:22:55Z</time>
      </trkpt>
      <trkpt lat="44.91871" lon="1.92067">
        <ele>401.97</ele>
        <time>2026-05-13T07:23:02Z</time>
      </trkpt>
      <trkpt lat="44.91861" lon="1.9208">
        <ele>404.37</ele>
        <time>2026-05-13T07:23:16Z</time>
      </trkpt>
      <trkpt lat="44.91854" lon="1.92093">
        <ele>406.77</ele>
        <time>2026-05-13T07:23:29Z</time>
      </trkpt>
      <trkpt lat="44.91845" lon="1.92112">
        <ele>408.22</ele>
        <time>2026-05-13T07:23:42Z</time>
      </trkpt>
      <trkpt lat="44.91842" lon="1.92122">
        <ele>408.7</ele>
        <time>2026-05-13T07:23:47Z</time>
      </trkpt>
      <trkpt lat="44.91839" lon="1.92127">
        <ele>409.18</ele>
        <time>2026-05-13T07:23:51Z</time>
      </trkpt>
      <trkpt lat="44.91831" lon="1.92151">
        <ele>410.14</ele>
        <time>2026-05-13T07:24:06Z</time>
      </trkpt>
      <trkpt lat="44.91821" lon="1.92172">
        <ele>411.58</ele>
        <time>2026-05-13T07:24:21Z</time>
      </trkpt>
      <trkpt lat="44.91819" lon="1.92175">
        <ele>412.06</ele>
        <time>2026-05-13T07:24:28Z</time>
      </trkpt>
      <trkpt lat="44.91806" lon="1.92197">
        <ele>413.02</ele>
        <time>2026-05-13T07:24:44Z</time>
      </trkpt>
      <trkpt lat="44.91804" lon="1.922">
        <ele>413.02</ele>
        <time>2026-05-13T07:24:47Z</time>
      </trkpt>
      <trkpt lat="44.91792" lon="1.92207">
        <ele>413.98</ele>
        <time>2026-05-13T07:24:59Z</time>
      </trkpt>
      <trkpt lat="44.91783" lon="1.92214">
        <ele>414.95</ele>
        <time>2026-05-13T07:25:10Z</time>
      </trkpt>
      <trkpt lat="44.91763" lon="1.92222">
        <ele>416.39</ele>
        <time>2026-05-13T07:25:26Z</time>
      </trkpt>
      <trkpt lat="44.91749" lon="1.92227">
        <ele>418.31</ele>
        <time>2026-05-13T07:25:39Z</time>
      </trkpt>
      <trkpt lat="44.91742" lon="1.92229">
        <ele>418.79</ele>
        <time>2026-05-13T07:25:45Z</time>
      </trkpt>
      <trkpt lat="44.91728" lon="1.92234">
        <ele>420.71</ele>
        <time>2026-05-13T07:25:58Z</time>
      </trkpt>
      <trkpt lat="44.91719" lon="1.92237">
        <ele>421.19</ele>
        <time>2026-05-13T07:26:06Z</time>
      </trkpt>
      <trkpt lat="44.91707" lon="1.9224">
        <ele>423.6</ele>
        <time>2026-05-13T07:26:20Z</time>
      </trkpt>
      <trkpt lat="44.91696" lon="1.92247">
        <ele>425.52</ele>
        <time>2026-05-13T07:26:32Z</time>
      </trkpt>
      <trkpt lat="44.91686" lon="1.92256">
        <ele>427.44</ele>
        <time>2026-05-13T07:26:44Z</time>
      </trkpt>
      <trkpt lat="44.91679" lon="1.92262">
        <ele>428.4</ele>
        <time>2026-05-13T07:26:53Z</time>
      </trkpt>
      <trkpt lat="44.91665" lon="1.92272">
        <ele>430.81</ele>
        <time>2026-05-13T07:27:06Z</time>
      </trkpt>
      <trkpt lat="44.91656" lon="1.92281">
        <ele>431.29</ele>
        <time>2026-05-13T07:27:16Z</time>
      </trkpt>
      <trkpt lat="44.9165" lon="1.92286">
        <ele>432.25</ele>
        <time>2026-05-13T07:27:23Z</time>
      </trkpt>
      <trkpt lat="44.91645" lon="1.92284">
        <ele>433.69</ele>
        <time>2026-05-13T07:27:32Z</time>
      </trkpt>
      <trkpt lat="44.91642" lon="1.9226">
        <ele>434.17</ele>
        <time>2026-05-13T07:27:46Z</time>
      </trkpt>
      <trkpt lat="44.91641" lon="1.92236">
        <ele>432.73</ele>
        <time>2026-05-13T07:28:00Z</time>
      </trkpt>
      <trkpt lat="44.91637" lon="1.92212">
        <ele>431.77</ele>
        <time>2026-05-13T07:28:13Z</time>
      </trkpt>
      <trkpt lat="44.91624" lon="1.9219">
        <ele>430.81</ele>
        <time>2026-05-13T07:28:28Z</time>
      </trkpt>
      <trkpt lat="44.9162" lon="1.92183">
        <ele>430.33</ele>
        <time>2026-05-13T07:28:32Z</time>
      </trkpt>
      <trkpt lat="44.91611" lon="1.92171">
        <ele>428.89</ele>
        <time>2026-05-13T07:28:44Z</time>
      </trkpt>
      <trkpt lat="44.91602" lon="1.92163">
        <ele>426</ele>
        <time>2026-05-13T07:29:00Z</time>
      </trkpt>
      <trkpt lat="44.91602" lon="1.92163">
        <ele>429.37</ele>
        <time>2026-05-13T07:29:02Z</time>
      </trkpt>
      <trkpt lat="44.91603" lon="1.92162">
        <ele>427.44</ele>
        <time>2026-05-13T07:29:15Z</time>
      </trkpt>
      <trkpt lat="44.91604" lon="1.92162">
        <ele>427.44</ele>
        <time>2026-05-13T07:29:22Z</time>
      </trkpt>
      <trkpt lat="44.91602" lon="1.92161">
        <ele>427.44</ele>
        <time>2026-05-13T07:29:25Z</time>
      </trkpt>
      <trkpt lat="44.91598" lon="1.92157">
        <ele>427.44</ele>
        <time>2026-05-13T07:29:28Z</time>
      </trkpt>
      <trkpt lat="44.91591" lon="1.92152">
        <ele>426.48</ele>
        <time>2026-05-13T07:29:36Z</time>
      </trkpt>
      <trkpt lat="44.91579" lon="1.92146">
        <ele>424.56</ele>
        <time>2026-05-13T07:29:49Z</time>
      </trkpt>
      <trkpt lat="44.91577" lon="1.92147">
        <ele>423.6</ele>
        <time>2026-05-13T07:29:50Z</time>
      </trkpt>
      <trkpt lat="44.91571" lon="1.92148">
        <ele>422.64</ele>
        <time>2026-05-13T07:29:56Z</time>
      </trkpt>
      <trkpt lat="44.9157" lon="1.92147">
        <ele>422.16</ele>
        <time>2026-05-13T07:29:57Z</time>
      </trkpt>
      <trkpt lat="44.91567" lon="1.92146">
        <ele>421.68</ele>
        <time>2026-05-13T07:30:00Z</time>
      </trkpt>
      <trkpt lat="44.91563" lon="1.92144">
        <ele>420.23</ele>
        <time>2026-05-13T07:30:05Z</time>
      </trkpt>
      <trkpt lat="44.91559" lon="1.92138">
        <ele>419.75</ele>
        <time>2026-05-13T07:30:09Z</time>
      </trkpt>
      <trkpt lat="44.91562" lon="1.92124">
        <ele>416.87</ele>
        <time>2026-05-13T07:30:25Z</time>
      </trkpt>
      <trkpt lat="44.91566" lon="1.92122">
        <ele>415.91</ele>
        <time>2026-05-13T07:30:43Z</time>
      </trkpt>
      <trkpt lat="44.91567" lon="1.92121">
        <ele>415.91</ele>
        <time>2026-05-13T07:30:44Z</time>
      </trkpt>
      <trkpt lat="44.91556" lon="1.9211">
        <ele>412.54</ele>
        <time>2026-05-13T07:30:56Z</time>
      </trkpt>
      <trkpt lat="44.91545" lon="1.92093">
        <ele>409.66</ele>
        <time>2026-05-13T07:31:10Z</time>
      </trkpt>
      <trkpt lat="44.91544" lon="1.9209">
        <ele>409.66</ele>
        <time>2026-05-13T07:31:11Z</time>
      </trkpt>
      <trkpt lat="44.91536" lon="1.9207">
        <ele>407.74</ele>
        <time>2026-05-13T07:31:28Z</time>
      </trkpt>
      <trkpt lat="44.91528" lon="1.92057">
        <ele>406.77</ele>
        <time>2026-05-13T07:31:37Z</time>
      </trkpt>
      <trkpt lat="44.91527" lon="1.92055">
        <ele>406.77</ele>
        <time>2026-05-13T07:31:38Z</time>
      </trkpt>
      <trkpt lat="44.91516" lon="1.92036">
        <ele>407.74</ele>
        <time>2026-05-13T07:31:49Z</time>
      </trkpt>
      <trkpt lat="44.91512" lon="1.92034">
        <ele>408.7</ele>
        <time>2026-05-13T07:31:52Z</time>
      </trkpt>
      <trkpt lat="44.91511" lon="1.92033">
        <ele>408.7</ele>
        <time>2026-05-13T07:31:53Z</time>
      </trkpt>
      <trkpt lat="44.9151" lon="1.92033">
        <ele>408.7</ele>
        <time>2026-05-13T07:31:54Z</time>
      </trkpt>
      <trkpt lat="44.91494" lon="1.9204">
        <ele>409.66</ele>
        <time>2026-05-13T07:32:07Z</time>
      </trkpt>
      <trkpt lat="44.91476" lon="1.92059">
        <ele>411.1</ele>
        <time>2026-05-13T07:32:24Z</time>
      </trkpt>
      <trkpt lat="44.91455" lon="1.92067">
        <ele>411.58</ele>
        <time>2026-05-13T07:32:40Z</time>
      </trkpt>
      <trkpt lat="44.91449" lon="1.92066">
        <ele>412.06</ele>
        <time>2026-05-13T07:32:46Z</time>
      </trkpt>
      <trkpt lat="44.91448" lon="1.92065">
        <ele>412.06</ele>
        <time>2026-05-13T07:32:47Z</time>
      </trkpt>
      <trkpt lat="44.91446" lon="1.92064">
        <ele>412.06</ele>
        <time>2026-05-13T07:32:48Z</time>
      </trkpt>
      <trkpt lat="44.91436" lon="1.92043">
        <ele>412.54</ele>
        <time>2026-05-13T07:33:01Z</time>
      </trkpt>
      <trkpt lat="44.91429" lon="1.92028">
        <ele>412.54</ele>
        <time>2026-05-13T07:33:11Z</time>
      </trkpt>
      <trkpt lat="44.91429" lon="1.9203">
        <ele>412.54</ele>
        <time>2026-05-13T07:33:27Z</time>
      </trkpt>
      <trkpt lat="44.91429" lon="1.92026">
        <ele>413.02</ele>
        <time>2026-05-13T07:33:35Z</time>
      </trkpt>
      <trkpt lat="44.91428" lon="1.92023">
        <ele>413.02</ele>
        <time>2026-05-13T07:33:36Z</time>
      </trkpt>
      <trkpt lat="44.91428" lon="1.92021">
        <ele>413.02</ele>
        <time>2026-05-13T07:33:37Z</time>
      </trkpt>
      <trkpt lat="44.91427" lon="1.92019">
        <ele>413.02</ele>
        <time>2026-05-13T07:33:38Z</time>
      </trkpt>
      <trkpt lat="44.91426" lon="1.92016">
        <ele>413.02</ele>
        <time>2026-05-13T07:33:39Z</time>
      </trkpt>
      <trkpt lat="44.91425" lon="1.92014">
        <ele>413.02</ele>
        <time>2026-05-13T07:33:40Z</time>
      </trkpt>
      <trkpt lat="44.91419" lon="1.91991">
        <ele>413.02</ele>
        <time>2026-05-13T07:33:53Z</time>
      </trkpt>
      <trkpt lat="44.91407" lon="1.91971">
        <ele>413.02</ele>
        <time>2026-05-13T07:34:07Z</time>
      </trkpt>
      <trkpt lat="44.91391" lon="1.91955">
        <ele>413.02</ele>
        <time>2026-05-13T07:34:21Z</time>
      </trkpt>
      <trkpt lat="44.9139" lon="1.91954">
        <ele>413.02</ele>
        <time>2026-05-13T07:34:22Z</time>
      </trkpt>
      <trkpt lat="44.91389" lon="1.91952">
        <ele>413.02</ele>
        <time>2026-05-13T07:34:23Z</time>
      </trkpt>
      <trkpt lat="44.91388" lon="1.91951">
        <ele>413.02</ele>
        <time>2026-05-13T07:34:24Z</time>
      </trkpt>
      <trkpt lat="44.91386" lon="1.9195">
        <ele>413.02</ele>
        <time>2026-05-13T07:34:25Z</time>
      </trkpt>
      <trkpt lat="44.91372" lon="1.91933">
        <ele>413.02</ele>
        <time>2026-05-13T07:34:38Z</time>
      </trkpt>
      <trkpt lat="44.91365" lon="1.91922">
        <ele>411.58</ele>
        <time>2026-05-13T07:34:45Z</time>
      </trkpt>
      <trkpt lat="44.91363" lon="1.91919">
        <ele>411.58</ele>
        <time>2026-05-13T07:34:48Z</time>
      </trkpt>
      <trkpt lat="44.91352" lon="1.91894">
        <ele>410.14</ele>
        <time>2026-05-13T07:35:04Z</time>
      </trkpt>
      <trkpt lat="44.91351" lon="1.91892">
        <ele>410.14</ele>
        <time>2026-05-13T07:35:05Z</time>
      </trkpt>
      <trkpt lat="44.9135" lon="1.9189">
        <ele>410.14</ele>
        <time>2026-05-13T07:35:06Z</time>
      </trkpt>
      <trkpt lat="44.91349" lon="1.91889">
        <ele>410.14</ele>
        <time>2026-05-13T07:35:07Z</time>
      </trkpt>
      <trkpt lat="44.91348" lon="1.91887">
        <ele>410.14</ele>
        <time>2026-05-13T07:35:08Z</time>
      </trkpt>
      <trkpt lat="44.91347" lon="1.91886">
        <ele>409.66</ele>
        <time>2026-05-13T07:35:09Z</time>
      </trkpt>
      <trkpt lat="44.91346" lon="1.91884">
        <ele>410.14</ele>
        <time>2026-05-13T07:35:10Z</time>
      </trkpt>
      <trkpt lat="44.91337" lon="1.91855">
        <ele>409.18</ele>
        <time>2026-05-13T07:35:26Z</time>
      </trkpt>
      <trkpt lat="44.91324" lon="1.91823">
        <ele>406.29</ele>
        <time>2026-05-13T07:35:43Z</time>
      </trkpt>
      <trkpt lat="44.91313" lon="1.91798">
        <ele>404.85</ele>
        <time>2026-05-13T07:35:58Z</time>
      </trkpt>
      <trkpt lat="44.91301" lon="1.91779">
        <ele>403.41</ele>
        <time>2026-05-13T07:36:11Z</time>
      </trkpt>
      <trkpt lat="44.91289" lon="1.91754">
        <ele>401.01</ele>
        <time>2026-05-13T07:36:26Z</time>
      </trkpt>
      <trkpt lat="44.91287" lon="1.91726">
        <ele>398.6</ele>
        <time>2026-05-13T07:36:40Z</time>
      </trkpt>
      <trkpt lat="44.91291" lon="1.91696">
        <ele>396.68</ele>
        <time>2026-05-13T07:36:55Z</time>
      </trkpt>
      <trkpt lat="44.91291" lon="1.91694">
        <ele>396.68</ele>
        <time>2026-05-13T07:36:56Z</time>
      </trkpt>
      <trkpt lat="44.91291" lon="1.91692">
        <ele>396.68</ele>
        <time>2026-05-13T07:36:57Z</time>
      </trkpt>
      <trkpt lat="44.91299" lon="1.91669">
        <ele>395.72</ele>
        <time>2026-05-13T07:37:11Z</time>
      </trkpt>
      <trkpt lat="44.91301" lon="1.91666">
        <ele>394.28</ele>
        <time>2026-05-13T07:37:13Z</time>
      </trkpt>
      <trkpt lat="44.91301" lon="1.91664">
        <ele>394.28</ele>
        <time>2026-05-13T07:37:14Z</time>
      </trkpt>
      <trkpt lat="44.91309" lon="1.91639">
        <ele>391.87</ele>
        <time>2026-05-13T07:37:28Z</time>
      </trkpt>
      <trkpt lat="44.91316" lon="1.9161">
        <ele>389.47</ele>
        <time>2026-05-13T07:37:43Z</time>
      </trkpt>
      <trkpt lat="44.91324" lon="1.91588">
        <ele>387.55</ele>
        <time>2026-05-13T07:37:56Z</time>
      </trkpt>
      <trkpt lat="44.91334" lon="1.91564">
        <ele>384.18</ele>
        <time>2026-05-13T07:38:14Z</time>
      </trkpt>
      <trkpt lat="44.91345" lon="1.91529">
        <ele>380.82</ele>
        <time>2026-05-13T07:38:32Z</time>
      </trkpt>
      <trkpt lat="44.91352" lon="1.91495">
        <ele>377.94</ele>
        <time>2026-05-13T07:38:50Z</time>
      </trkpt>
      <trkpt lat="44.91356" lon="1.91482">
        <ele>376.97</ele>
        <time>2026-05-13T07:38:58Z</time>
      </trkpt>
      <trkpt lat="44.91357" lon="1.9148">
        <ele>376.97</ele>
        <time>2026-05-13T07:38:59Z</time>
      </trkpt>
      <trkpt lat="44.91358" lon="1.91477">
        <ele>376.97</ele>
        <time>2026-05-13T07:39:00Z</time>
      </trkpt>
      <trkpt lat="44.91373" lon="1.91451">
        <ele>373.61</ele>
        <time>2026-05-13T07:39:17Z</time>
      </trkpt>
      <trkpt lat="44.91387" lon="1.91435">
        <ele>370.73</ele>
        <time>2026-05-13T07:39:32Z</time>
      </trkpt>
      <trkpt lat="44.91394" lon="1.91412">
        <ele>367.84</ele>
        <time>2026-05-13T07:39:47Z</time>
      </trkpt>
      <trkpt lat="44.91385" lon="1.9139">
        <ele>365.92</ele>
        <time>2026-05-13T07:40:00Z</time>
      </trkpt>
      <trkpt lat="44.91367" lon="1.91365">
        <ele>362.55</ele>
        <time>2026-05-13T07:40:18Z</time>
      </trkpt>
      <trkpt lat="44.91349" lon="1.91359">
        <ele>359.19</ele>
        <time>2026-05-13T07:40:32Z</time>
      </trkpt>
      <trkpt lat="44.91327" lon="1.91344">
        <ele>356.79</ele>
        <time>2026-05-13T07:40:48Z</time>
      </trkpt>
      <trkpt lat="44.91304" lon="1.91325">
        <ele>353.9</ele>
        <time>2026-05-13T07:41:09Z</time>
      </trkpt>
      <trkpt lat="44.91279" lon="1.91304">
        <ele>351.98</ele>
        <time>2026-05-13T07:41:29Z</time>
      </trkpt>
      <trkpt lat="44.91252" lon="1.91292">
        <ele>350.54</ele>
        <time>2026-05-13T07:41:48Z</time>
      </trkpt>
      <trkpt lat="44.91232" lon="1.91276">
        <ele>350.06</ele>
        <time>2026-05-13T07:42:05Z</time>
      </trkpt>
      <trkpt lat="44.91218" lon="1.9125">
        <ele>349.58</ele>
        <time>2026-05-13T07:42:23Z</time>
      </trkpt>
      <trkpt lat="44.91218" lon="1.91212">
        <ele>349.58</ele>
        <time>2026-05-13T07:42:41Z</time>
      </trkpt>
      <trkpt lat="44.91218" lon="1.91204">
        <ele>351.02</ele>
        <time>2026-05-13T07:42:47Z</time>
      </trkpt>
      <trkpt lat="44.91222" lon="1.91176">
        <ele>352.94</ele>
        <time>2026-05-13T07:43:04Z</time>
      </trkpt>
      <trkpt lat="44.91222" lon="1.91175">
        <ele>352.94</ele>
        <time>2026-05-13T07:43:05Z</time>
      </trkpt>
      <trkpt lat="44.91222" lon="1.91145">
        <ele>354.86</ele>
        <time>2026-05-13T07:43:22Z</time>
      </trkpt>
      <trkpt lat="44.91229" lon="1.9114">
        <ele>355.34</ele>
        <time>2026-05-13T07:43:35Z</time>
      </trkpt>
      <trkpt lat="44.91229" lon="1.9114">
        <ele>355.34</ele>
        <time>2026-05-13T07:43:57Z</time>
      </trkpt>
      <trkpt lat="44.91228" lon="1.91138">
        <ele>355.34</ele>
        <time>2026-05-13T07:43:58Z</time>
      </trkpt>
      <trkpt lat="44.91228" lon="1.91136">
        <ele>355.34</ele>
        <time>2026-05-13T07:43:59Z</time>
      </trkpt>
      <trkpt lat="44.91228" lon="1.91134">
        <ele>355.83</ele>
        <time>2026-05-13T07:44:00Z</time>
      </trkpt>
      <trkpt lat="44.91228" lon="1.91132">
        <ele>355.83</ele>
        <time>2026-05-13T07:44:01Z</time>
      </trkpt>
      <trkpt lat="44.91228" lon="1.9113">
        <ele>355.83</ele>
        <time>2026-05-13T07:44:02Z</time>
      </trkpt>
      <trkpt lat="44.91236" lon="1.91103">
        <ele>358.23</ele>
        <time>2026-05-13T07:44:18Z</time>
      </trkpt>
      <trkpt lat="44.91234" lon="1.91073">
        <ele>361.11</ele>
        <time>2026-05-13T07:44:35Z</time>
      </trkpt>
      <trkpt lat="44.91226" lon="1.9105">
        <ele>362.07</ele>
        <time>2026-05-13T07:44:50Z</time>
      </trkpt>
      <trkpt lat="44.91223" lon="1.91046">
        <ele>362.55</ele>
        <time>2026-05-13T07:44:54Z</time>
      </trkpt>
      <trkpt lat="44.91221" lon="1.91045">
        <ele>362.55</ele>
        <time>2026-05-13T07:44:55Z</time>
      </trkpt>
      <trkpt lat="44.9122" lon="1.91044">
        <ele>363.04</ele>
        <time>2026-05-13T07:44:56Z</time>
      </trkpt>
      <trkpt lat="44.91219" lon="1.91043">
        <ele>363.04</ele>
        <time>2026-05-13T07:44:57Z</time>
      </trkpt>
      <trkpt lat="44.91217" lon="1.91041">
        <ele>363.04</ele>
        <time>2026-05-13T07:44:58Z</time>
      </trkpt>
      <trkpt lat="44.91216" lon="1.9104">
        <ele>363.04</ele>
        <time>2026-05-13T07:44:59Z</time>
      </trkpt>
      <trkpt lat="44.91214" lon="1.91038">
        <ele>363.04</ele>
        <time>2026-05-13T07:45:00Z</time>
      </trkpt>
      <trkpt lat="44.91213" lon="1.91037">
        <ele>363.04</ele>
        <time>2026-05-13T07:45:01Z</time>
      </trkpt>
      <trkpt lat="44.91212" lon="1.91036">
        <ele>363.04</ele>
        <time>2026-05-13T07:45:02Z</time>
      </trkpt>
      <trkpt lat="44.91191" lon="1.91021">
        <ele>363.52</ele>
        <time>2026-05-13T07:45:18Z</time>
      </trkpt>
      <trkpt lat="44.91171" lon="1.91011">
        <ele>363.04</ele>
        <time>2026-05-13T07:45:33Z</time>
      </trkpt>
      <trkpt lat="44.91173" lon="1.9101">
        <ele>363.04</ele>
        <time>2026-05-13T07:45:46Z</time>
      </trkpt>
      <trkpt lat="44.91171" lon="1.91012">
        <ele>363.04</ele>
        <time>2026-05-13T07:45:59Z</time>
      </trkpt>
      <trkpt lat="44.91169" lon="1.91012">
        <ele>363.04</ele>
        <time>2026-05-13T07:46:00Z</time>
      </trkpt>
      <trkpt lat="44.91168" lon="1.91011">
        <ele>363.04</ele>
        <time>2026-05-13T07:46:01Z</time>
      </trkpt>
      <trkpt lat="44.91166" lon="1.9101">
        <ele>363.04</ele>
        <time>2026-05-13T07:46:02Z</time>
      </trkpt>
      <trkpt lat="44.91151" lon="1.90997">
        <ele>363.04</ele>
        <time>2026-05-13T07:46:15Z</time>
      </trkpt>
      <trkpt lat="44.91149" lon="1.90995">
        <ele>362.07</ele>
        <time>2026-05-13T07:46:17Z</time>
      </trkpt>
      <trkpt lat="44.91128" lon="1.9098">
        <ele>361.59</ele>
        <time>2026-05-13T07:46:33Z</time>
      </trkpt>
      <trkpt lat="44.91108" lon="1.90969">
        <ele>361.59</ele>
        <time>2026-05-13T07:46:50Z</time>
      </trkpt>
      <trkpt lat="44.91092" lon="1.90955">
        <ele>361.11</ele>
        <time>2026-05-13T07:47:04Z</time>
      </trkpt>
      <trkpt lat="44.91086" lon="1.90951">
        <ele>361.11</ele>
        <time>2026-05-13T07:47:10Z</time>
      </trkpt>
      <trkpt lat="44.91088" lon="1.90953">
        <ele>360.63</ele>
        <time>2026-05-13T07:47:22Z</time>
      </trkpt>
      <trkpt lat="44.91095" lon="1.90957">
        <ele>360.15</ele>
        <time>2026-05-13T07:47:51Z</time>
      </trkpt>
      <trkpt lat="44.91101" lon="1.90935">
        <ele>356.79</ele>
        <time>2026-05-13T07:48:03Z</time>
      </trkpt>
      <trkpt lat="44.91109" lon="1.90914">
        <ele>352.94</ele>
        <time>2026-05-13T07:48:17Z</time>
      </trkpt>
      <trkpt lat="44.91116" lon="1.90912">
        <ele>353.42</ele>
        <time>2026-05-13T07:48:27Z</time>
      </trkpt>
      <trkpt lat="44.91118" lon="1.90911">
        <ele>352.94</ele>
        <time>2026-05-13T07:48:29Z</time>
      </trkpt>
      <trkpt lat="44.91119" lon="1.9091">
        <ele>352.46</ele>
        <time>2026-05-13T07:48:30Z</time>
      </trkpt>
      <trkpt lat="44.9112" lon="1.9091">
        <ele>351.98</ele>
        <time>2026-05-13T07:48:31Z</time>
      </trkpt>
      <trkpt lat="44.91129" lon="1.90903">
        <ele>351.02</ele>
        <time>2026-05-13T07:48:39Z</time>
      </trkpt>
      <trkpt lat="44.9113" lon="1.90901">
        <ele>351.02</ele>
        <time>2026-05-13T07:48:40Z</time>
      </trkpt>
      <trkpt lat="44.91136" lon="1.90878">
        <ele>348.62</ele>
        <time>2026-05-13T07:48:54Z</time>
      </trkpt>
      <trkpt lat="44.91136" lon="1.90877">
        <ele>348.62</ele>
        <time>2026-05-13T07:48:55Z</time>
      </trkpt>
      <trkpt lat="44.91136" lon="1.90875">
        <ele>348.62</ele>
        <time>2026-05-13T07:48:56Z</time>
      </trkpt>
      <trkpt lat="44.9114" lon="1.90855">
        <ele>347.17</ele>
        <time>2026-05-13T07:49:07Z</time>
      </trkpt>
      <trkpt lat="44.9114" lon="1.90853">
        <ele>347.17</ele>
        <time>2026-05-13T07:49:08Z</time>
      </trkpt>
      <trkpt lat="44.9114" lon="1.90851">
        <ele>346.69</ele>
        <time>2026-05-13T07:49:09Z</time>
      </trkpt>
      <trkpt lat="44.91134" lon="1.9083">
        <ele>344.29</ele>
        <time>2026-05-13T07:49:21Z</time>
      </trkpt>
      <trkpt lat="44.9113" lon="1.9082">
        <ele>343.81</ele>
        <time>2026-05-13T07:49:27Z</time>
      </trkpt>
      <trkpt lat="44.91124" lon="1.90799">
        <ele>342.85</ele>
        <time>2026-05-13T07:49:38Z</time>
      </trkpt>
      <trkpt lat="44.91124" lon="1.90797">
        <ele>341.89</ele>
        <time>2026-05-13T07:49:39Z</time>
      </trkpt>
      <trkpt lat="44.91124" lon="1.90795">
        <ele>341.41</ele>
        <time>2026-05-13T07:49:40Z</time>
      </trkpt>
      <trkpt lat="44.91124" lon="1.90793">
        <ele>341.41</ele>
        <time>2026-05-13T07:49:41Z</time>
      </trkpt>
      <trkpt lat="44.91123" lon="1.90792">
        <ele>340.92</ele>
        <time>2026-05-13T07:49:42Z</time>
      </trkpt>
      <trkpt lat="44.91121" lon="1.90786">
        <ele>340.44</ele>
        <time>2026-05-13T07:49:46Z</time>
      </trkpt>
      <trkpt lat="44.91121" lon="1.90784">
        <ele>340.44</ele>
        <time>2026-05-13T07:49:47Z</time>
      </trkpt>
      <trkpt lat="44.9112" lon="1.90781">
        <ele>339.96</ele>
        <time>2026-05-13T07:49:48Z</time>
      </trkpt>
      <trkpt lat="44.91112" lon="1.9076">
        <ele>337.56</ele>
        <time>2026-05-13T07:50:01Z</time>
      </trkpt>
      <trkpt lat="44.91105" lon="1.90738">
        <ele>334.2</ele>
        <time>2026-05-13T07:50:15Z</time>
      </trkpt>
      <trkpt lat="44.91105" lon="1.90731">
        <ele>333.23</ele>
        <time>2026-05-13T07:50:19Z</time>
      </trkpt>
      <trkpt lat="44.91112" lon="1.90716">
        <ele>331.31</ele>
        <time>2026-05-13T07:50:31Z</time>
      </trkpt>
      <trkpt lat="44.91113" lon="1.90716">
        <ele>330.83</ele>
        <time>2026-05-13T07:50:32Z</time>
      </trkpt>
      <trkpt lat="44.91125" lon="1.90701">
        <ele>328.91</ele>
        <time>2026-05-13T07:50:45Z</time>
      </trkpt>
      <trkpt lat="44.91139" lon="1.90688">
        <ele>326.5</ele>
        <time>2026-05-13T07:50:59Z</time>
      </trkpt>
      <trkpt lat="44.91145" lon="1.90686">
        <ele>325.06</ele>
        <time>2026-05-13T07:51:15Z</time>
      </trkpt>
      <trkpt lat="44.91151" lon="1.90677">
        <ele>324.58</ele>
        <time>2026-05-13T07:51:31Z</time>
      </trkpt>
      <trkpt lat="44.91158" lon="1.9067">
        <ele>323.14</ele>
        <time>2026-05-13T07:51:37Z</time>
      </trkpt>
      <trkpt lat="44.91159" lon="1.90669">
        <ele>322.66</ele>
        <time>2026-05-13T07:51:38Z</time>
      </trkpt>
      <trkpt lat="44.91172" lon="1.90648">
        <ele>320.74</ele>
        <time>2026-05-13T07:51:53Z</time>
      </trkpt>
      <trkpt lat="44.91174" lon="1.90641">
        <ele>320.26</ele>
        <time>2026-05-13T07:51:59Z</time>
      </trkpt>
      <trkpt lat="44.91175" lon="1.90639">
        <ele>319.78</ele>
        <time>2026-05-13T07:52:00Z</time>
      </trkpt>
      <trkpt lat="44.91191" lon="1.90608">
        <ele>317.37</ele>
        <time>2026-05-13T07:52:19Z</time>
      </trkpt>
      <trkpt lat="44.91195" lon="1.90608">
        <ele>315.93</ele>
        <time>2026-05-13T07:52:38Z</time>
      </trkpt>
      <trkpt lat="44.91195" lon="1.90608">
        <ele>317.37</ele>
        <time>2026-05-13T07:52:41Z</time>
      </trkpt>
      <trkpt lat="44.91196" lon="1.90608">
        <ele>315.93</ele>
        <time>2026-05-13T07:52:46Z</time>
      </trkpt>
      <trkpt lat="44.91205" lon="1.90607">
        <ele>312.57</ele>
        <time>2026-05-13T07:52:57Z</time>
      </trkpt>
      <trkpt lat="44.91217" lon="1.90604">
        <ele>309.2</ele>
        <time>2026-05-13T07:53:09Z</time>
      </trkpt>
      <trkpt lat="44.91215" lon="1.90609">
        <ele>307.28</ele>
        <time>2026-05-13T07:53:26Z</time>
      </trkpt>
      <trkpt lat="44.91212" lon="1.90637">
        <ele>304.39</ele>
        <time>2026-05-13T07:53:45Z</time>
      </trkpt>
      <trkpt lat="44.91228" lon="1.90624">
        <ele>301.03</ele>
        <time>2026-05-13T07:53:59Z</time>
      </trkpt>
      <trkpt lat="44.91242" lon="1.90599">
        <ele>298.15</ele>
        <time>2026-05-13T07:54:15Z</time>
      </trkpt>
      <trkpt lat="44.91251" lon="1.9058">
        <ele>294.3</ele>
        <time>2026-05-13T07:54:30Z</time>
      </trkpt>
      <trkpt lat="44.91262" lon="1.90554">
        <ele>290.94</ele>
        <time>2026-05-13T07:54:49Z</time>
      </trkpt>
      <trkpt lat="44.91264" lon="1.90524">
        <ele>288.05</ele>
        <time>2026-05-13T07:55:05Z</time>
      </trkpt>
      <trkpt lat="44.91273" lon="1.90501">
        <ele>285.17</ele>
        <time>2026-05-13T07:55:21Z</time>
      </trkpt>
      <trkpt lat="44.91277" lon="1.90476">
        <ele>281.8</ele>
        <time>2026-05-13T07:55:37Z</time>
      </trkpt>
      <trkpt lat="44.91271" lon="1.90443">
        <ele>279.88</ele>
        <time>2026-05-13T07:55:56Z</time>
      </trkpt>
      <trkpt lat="44.91252" lon="1.90421">
        <ele>277</ele>
        <time>2026-05-13T07:56:14Z</time>
      </trkpt>
      <trkpt lat="44.91237" lon="1.90406">
        <ele>274.11</ele>
        <time>2026-05-13T07:56:30Z</time>
      </trkpt>
      <trkpt lat="44.91224" lon="1.90386">
        <ele>271.71</ele>
        <time>2026-05-13T07:56:46Z</time>
      </trkpt>
      <trkpt lat="44.91204" lon="1.90368">
        <ele>269.31</ele>
        <time>2026-05-13T07:57:03Z</time>
      </trkpt>
      <trkpt lat="44.91209" lon="1.90347">
        <ele>267.38</ele>
        <time>2026-05-13T07:57:20Z</time>
      </trkpt>
      <trkpt lat="44.91214" lon="1.90325">
        <ele>264.02</ele>
        <time>2026-05-13T07:57:34Z</time>
      </trkpt>
      <trkpt lat="44.91214" lon="1.90323">
        <ele>263.54</ele>
        <time>2026-05-13T07:57:35Z</time>
      </trkpt>
      <trkpt lat="44.91219" lon="1.903">
        <ele>260.17</ele>
        <time>2026-05-13T07:57:49Z</time>
      </trkpt>
      <trkpt lat="44.91212" lon="1.90277">
        <ele>258.25</ele>
        <time>2026-05-13T07:58:03Z</time>
      </trkpt>
      <trkpt lat="44.91203" lon="1.90257">
        <ele>254.89</ele>
        <time>2026-05-13T07:58:16Z</time>
      </trkpt>
      <trkpt lat="44.91198" lon="1.90245">
        <ele>252.96</ele>
        <time>2026-05-13T07:58:24Z</time>
      </trkpt>
      <trkpt lat="44.91187" lon="1.90225">
        <ele>250.08</ele>
        <time>2026-05-13T07:58:40Z</time>
      </trkpt>
      <trkpt lat="44.91187" lon="1.90224">
        <ele>249.12</ele>
        <time>2026-05-13T07:58:41Z</time>
      </trkpt>
      <trkpt lat="44.91169" lon="1.90213">
        <ele>248.16</ele>
        <time>2026-05-13T07:58:58Z</time>
      </trkpt>
      <trkpt lat="44.91154" lon="1.90204">
        <ele>245.27</ele>
        <time>2026-05-13T07:59:14Z</time>
      </trkpt>
      <trkpt lat="44.91146" lon="1.90198">
        <ele>243.35</ele>
        <time>2026-05-13T07:59:23Z</time>
      </trkpt>
      <trkpt lat="44.91125" lon="1.90192">
        <ele>240.95</ele>
        <time>2026-05-13T07:59:38Z</time>
      </trkpt>
      <trkpt lat="44.91108" lon="1.90193">
        <ele>238.54</ele>
        <time>2026-05-13T07:59:53Z</time>
      </trkpt>
      <trkpt lat="44.91106" lon="1.90175">
        <ele>237.58</ele>
        <time>2026-05-13T08:00:17Z</time>
      </trkpt>
      <trkpt lat="44.91101" lon="1.90185">
        <ele>237.58</ele>
        <time>2026-05-13T08:00:39Z</time>
      </trkpt>
      <trkpt lat="44.91107" lon="1.90183">
        <ele>236.14</ele>
        <time>2026-05-13T08:01:02Z</time>
      </trkpt>
      <trkpt lat="44.91117" lon="1.90171">
        <ele>232.78</ele>
        <time>2026-05-13T08:01:14Z</time>
      </trkpt>
      <trkpt lat="44.91123" lon="1.9016">
        <ele>229.89</ele>
        <time>2026-05-13T08:01:26Z</time>
      </trkpt>
      <trkpt lat="44.91123" lon="1.90159">
        <ele>229.89</ele>
        <time>2026-05-13T08:01:28Z</time>
      </trkpt>
      <trkpt lat="44.91134" lon="1.9015">
        <ele>227.97</ele>
        <time>2026-05-13T08:01:39Z</time>
      </trkpt>
      <trkpt lat="44.91147" lon="1.9014">
        <ele>224.61</ele>
        <time>2026-05-13T08:01:52Z</time>
      </trkpt>
      <trkpt lat="44.91146" lon="1.90135">
        <ele>223.16</ele>
        <time>2026-05-13T08:01:57Z</time>
      </trkpt>
      <trkpt lat="44.91145" lon="1.90134">
        <ele>223.16</ele>
        <time>2026-05-13T08:01:58Z</time>
      </trkpt>
      <trkpt lat="44.91135" lon="1.9013">
        <ele>219.8</ele>
        <time>2026-05-13T08:02:11Z</time>
      </trkpt>
      <trkpt lat="44.91124" lon="1.90125">
        <ele>217.4</ele>
        <time>2026-05-13T08:02:21Z</time>
      </trkpt>
      <trkpt lat="44.91121" lon="1.90122">
        <ele>216.91</ele>
        <time>2026-05-13T08:02:24Z</time>
      </trkpt>
      <trkpt lat="44.91106" lon="1.90118">
        <ele>214.03</ele>
        <time>2026-05-13T08:02:39Z</time>
      </trkpt>
      <trkpt lat="44.91088" lon="1.90122">
        <ele>211.63</ele>
        <time>2026-05-13T08:02:55Z</time>
      </trkpt>
      <trkpt lat="44.91075" lon="1.90125">
        <ele>208.26</ele>
        <time>2026-05-13T08:03:11Z</time>
      </trkpt>
      <trkpt lat="44.91055" lon="1.90123">
        <ele>204.9</ele>
        <time>2026-05-13T08:03:26Z</time>
      </trkpt>
      <trkpt lat="44.9104" lon="1.90123">
        <ele>202.01</ele>
        <time>2026-05-13T08:03:39Z</time>
      </trkpt>
      <trkpt lat="44.91027" lon="1.90126">
        <ele>198.65</ele>
        <time>2026-05-13T08:03:55Z</time>
      </trkpt>
      <trkpt lat="44.91012" lon="1.90133">
        <ele>195.77</ele>
        <time>2026-05-13T08:04:10Z</time>
      </trkpt>
      <trkpt lat="44.91009" lon="1.90127">
        <ele>193.84</ele>
        <time>2026-05-13T08:04:18Z</time>
      </trkpt>
      <trkpt lat="44.9101" lon="1.90115">
        <ele>190.96</ele>
        <time>2026-05-13T08:04:28Z</time>
      </trkpt>
      <trkpt lat="44.91013" lon="1.90096">
        <ele>188.56</ele>
        <time>2026-05-13T08:04:42Z</time>
      </trkpt>
      <trkpt lat="44.91031" lon="1.90064">
        <ele>185.67</ele>
        <time>2026-05-13T08:05:00Z</time>
      </trkpt>
      <trkpt lat="44.91046" lon="1.90037">
        <ele>182.79</ele>
        <time>2026-05-13T08:05:21Z</time>
      </trkpt>
      <trkpt lat="44.91054" lon="1.90034">
        <ele>179.9</ele>
        <time>2026-05-13T08:05:35Z</time>
      </trkpt>
      <trkpt lat="44.91054" lon="1.90034">
        <ele>182.31</ele>
        <time>2026-05-13T08:05:37Z</time>
      </trkpt>
      <trkpt lat="44.91059" lon="1.90031">
        <ele>180.87</ele>
        <time>2026-05-13T08:05:39Z</time>
      </trkpt>
      <trkpt lat="44.91066" lon="1.9003">
        <ele>179.42</ele>
        <time>2026-05-13T08:05:52Z</time>
      </trkpt>
      <trkpt lat="44.91071" lon="1.90028">
        <ele>178.94</ele>
        <time>2026-05-13T08:05:56Z</time>
      </trkpt>
      <trkpt lat="44.91074" lon="1.90015">
        <ele>177.02</ele>
        <time>2026-05-13T08:06:09Z</time>
      </trkpt>
      <trkpt lat="44.91077" lon="1.90004">
        <ele>176.54</ele>
        <time>2026-05-13T08:06:17Z</time>
      </trkpt>
      <trkpt lat="44.91093" lon="1.89985">
        <ele>178.94</ele>
        <time>2026-05-13T08:06:37Z</time>
      </trkpt>
      <trkpt lat="44.91095" lon="1.89983">
        <ele>179.42</ele>
        <time>2026-05-13T08:06:39Z</time>
      </trkpt>
      <trkpt lat="44.91114" lon="1.89964">
        <ele>179.42</ele>
        <time>2026-05-13T08:06:57Z</time>
      </trkpt>
      <trkpt lat="44.91126" lon="1.89956">
        <ele>179.42</ele>
        <time>2026-05-13T08:07:08Z</time>
      </trkpt>
      <trkpt lat="44.91132" lon="1.8995">
        <ele>179.42</ele>
        <time>2026-05-13T08:07:12Z</time>
      </trkpt>
      <trkpt lat="44.91137" lon="1.89913">
        <ele>179.42</ele>
        <time>2026-05-13T08:07:28Z</time>
      </trkpt>
      <trkpt lat="44.91143" lon="1.8988">
        <ele>179.42</ele>
        <time>2026-05-13T08:07:46Z</time>
      </trkpt>
      <trkpt lat="44.91149" lon="1.89855">
        <ele>179.42</ele>
        <time>2026-05-13T08:08:02Z</time>
      </trkpt>
      <trkpt lat="44.91148" lon="1.89844">
        <ele>179.42</ele>
        <time>2026-05-13T08:08:08Z</time>
      </trkpt>
      <trkpt lat="44.9115" lon="1.89816">
        <ele>179.9</ele>
        <time>2026-05-13T08:08:25Z</time>
      </trkpt>
      <trkpt lat="44.91151" lon="1.89789">
        <ele>180.38</ele>
        <time>2026-05-13T08:08:42Z</time>
      </trkpt>
      <trkpt lat="44.91151" lon="1.89787">
        <ele>180.38</ele>
        <time>2026-05-13T08:08:43Z</time>
      </trkpt>
      <trkpt lat="44.91154" lon="1.89754">
        <ele>180.87</ele>
        <time>2026-05-13T08:08:59Z</time>
      </trkpt>
      <trkpt lat="44.91152" lon="1.89734">
        <ele>182.31</ele>
        <time>2026-05-13T08:09:11Z</time>
      </trkpt>
      <trkpt lat="44.91154" lon="1.89722">
        <ele>182.31</ele>
        <time>2026-05-13T08:09:20Z</time>
      </trkpt>
      <trkpt lat="44.91158" lon="1.89699">
        <ele>182.31</ele>
        <time>2026-05-13T08:09:30Z</time>
      </trkpt>
      <trkpt lat="44.91166" lon="1.89662">
        <ele>182.31</ele>
        <time>2026-05-13T08:09:47Z</time>
      </trkpt>
      <trkpt lat="44.91167" lon="1.89633">
        <ele>181.35</ele>
        <time>2026-05-13T08:10:04Z</time>
      </trkpt>
      <trkpt lat="44.91165" lon="1.89605">
        <ele>180.87</ele>
        <time>2026-05-13T08:10:21Z</time>
      </trkpt>
      <trkpt lat="44.91167" lon="1.89558">
        <ele>180.38</ele>
        <time>2026-05-13T08:10:42Z</time>
      </trkpt>
      <trkpt lat="44.91167" lon="1.8952">
        <ele>179.9</ele>
        <time>2026-05-13T08:11:03Z</time>
      </trkpt>
      <trkpt lat="44.91167" lon="1.89474">
        <ele>179.42</ele>
        <time>2026-05-13T08:11:25Z</time>
      </trkpt>
      <trkpt lat="44.91169" lon="1.89437">
        <ele>178.46</ele>
        <time>2026-05-13T08:11:43Z</time>
      </trkpt>
      <trkpt lat="44.91169" lon="1.89403">
        <ele>178.46</ele>
        <time>2026-05-13T08:12:01Z</time>
      </trkpt>
      <trkpt lat="44.91176" lon="1.89367">
        <ele>177.98</ele>
        <time>2026-05-13T08:12:22Z</time>
      </trkpt>
      <trkpt lat="44.91181" lon="1.89345">
        <ele>177.98</ele>
        <time>2026-05-13T08:12:37Z</time>
      </trkpt>
      <trkpt lat="44.91191" lon="1.89305">
        <ele>177.5</ele>
        <time>2026-05-13T08:12:57Z</time>
      </trkpt>
      <trkpt lat="44.91207" lon="1.89274">
        <ele>175.1</ele>
        <time>2026-05-13T08:13:16Z</time>
      </trkpt>
      <trkpt lat="44.91207" lon="1.89273">
        <ele>180.87</ele>
        <time>2026-05-13T08:13:17Z</time>
      </trkpt>
      <trkpt lat="44.91208" lon="1.89272">
        <ele>178.46</ele>
        <time>2026-05-13T08:13:18Z</time>
      </trkpt>
      <trkpt lat="44.91208" lon="1.8927">
        <ele>177.02</ele>
        <time>2026-05-13T08:13:20Z</time>
      </trkpt>
      <trkpt lat="44.91212" lon="1.89257">
        <ele>177.02</ele>
        <time>2026-05-13T08:13:27Z</time>
      </trkpt>
      <trkpt lat="44.91214" lon="1.89224">
        <ele>176.54</ele>
        <time>2026-05-13T08:13:42Z</time>
      </trkpt>
      <trkpt lat="44.91218" lon="1.89208">
        <ele>177.02</ele>
        <time>2026-05-13T08:13:51Z</time>
      </trkpt>
      <trkpt lat="44.91218" lon="1.89171">
        <ele>176.54</ele>
        <time>2026-05-13T08:14:13Z</time>
      </trkpt>
      <trkpt lat="44.9121" lon="1.89132">
        <ele>176.06</ele>
        <time>2026-05-13T08:14:36Z</time>
      </trkpt>
      <trkpt lat="44.91193" lon="1.89094">
        <ele>175.58</ele>
        <time>2026-05-13T08:14:55Z</time>
      </trkpt>
      <trkpt lat="44.91183" lon="1.89049">
        <ele>175.1</ele>
        <time>2026-05-13T08:15:18Z</time>
      </trkpt>
      <trkpt lat="44.91167" lon="1.89013">
        <ele>174.62</ele>
        <time>2026-05-13T08:15:41Z</time>
      </trkpt>
      <trkpt lat="44.91165" lon="1.88978">
        <ele>174.14</ele>
        <time>2026-05-13T08:16:00Z</time>
      </trkpt>
      <trkpt lat="44.91165" lon="1.88976">
        <ele>174.14</ele>
        <time>2026-05-13T08:16:01Z</time>
      </trkpt>
      <trkpt lat="44.91166" lon="1.88969">
        <ele>174.14</ele>
        <time>2026-05-13T08:16:05Z</time>
      </trkpt>
      <trkpt lat="44.91168" lon="1.88936">
        <ele>174.14</ele>
        <time>2026-05-13T08:16:25Z</time>
      </trkpt>
      <trkpt lat="44.91154" lon="1.88898">
        <ele>174.14</ele>
        <time>2026-05-13T08:16:43Z</time>
      </trkpt>
      <trkpt lat="44.91155" lon="1.88846">
        <ele>173.66</ele>
        <time>2026-05-13T08:17:07Z</time>
      </trkpt>
      <trkpt lat="44.91149" lon="1.88809">
        <ele>173.66</ele>
        <time>2026-05-13T08:17:27Z</time>
      </trkpt>
      <trkpt lat="44.91133" lon="1.88769">
        <ele>172.69</ele>
        <time>2026-05-13T08:17:48Z</time>
      </trkpt>
      <trkpt lat="44.91122" lon="1.88731">
        <ele>172.21</ele>
        <time>2026-05-13T08:18:08Z</time>
      </trkpt>
      <trkpt lat="44.91108" lon="1.88695">
        <ele>172.21</ele>
        <time>2026-05-13T08:18:29Z</time>
      </trkpt>
      <trkpt lat="44.91097" lon="1.88658">
        <ele>171.73</ele>
        <time>2026-05-13T08:18:50Z</time>
      </trkpt>
      <trkpt lat="44.91078" lon="1.88618">
        <ele>171.25</ele>
        <time>2026-05-13T08:19:12Z</time>
      </trkpt>
      <trkpt lat="44.91059" lon="1.88575">
        <ele>171.25</ele>
        <time>2026-05-13T08:19:33Z</time>
      </trkpt>
      <trkpt lat="44.91045" lon="1.8855">
        <ele>170.29</ele>
        <time>2026-05-13T08:19:50Z</time>
      </trkpt>
      <trkpt lat="44.91028" lon="1.88522">
        <ele>169.81</ele>
        <time>2026-05-13T08:20:09Z</time>
      </trkpt>
      <trkpt lat="44.91014" lon="1.88489">
        <ele>169.81</ele>
        <time>2026-05-13T08:20:29Z</time>
      </trkpt>
      <trkpt lat="44.90997" lon="1.88454">
        <ele>169.33</ele>
        <time>2026-05-13T08:20:49Z</time>
      </trkpt>
      <trkpt lat="44.90989" lon="1.8845">
        <ele>167.89</ele>
        <time>2026-05-13T08:21:03Z</time>
      </trkpt>
      <trkpt lat="44.90992" lon="1.88455">
        <ele>168.37</ele>
        <time>2026-05-13T08:21:33Z</time>
      </trkpt>
      <trkpt lat="44.90984" lon="1.8845">
        <ele>166.45</ele>
        <time>2026-05-13T08:21:52Z</time>
      </trkpt>
      <trkpt lat="44.90986" lon="1.88448">
        <ele>168.37</ele>
        <time>2026-05-13T08:21:59Z</time>
      </trkpt>
      <trkpt lat="44.90989" lon="1.88438">
        <ele>168.85</ele>
        <time>2026-05-13T08:22:08Z</time>
      </trkpt>
      <trkpt lat="44.90987" lon="1.88432">
        <ele>168.85</ele>
        <time>2026-05-13T08:22:12Z</time>
      </trkpt>
      <trkpt lat="44.90976" lon="1.88406">
        <ele>169.33</ele>
        <time>2026-05-13T08:22:30Z</time>
      </trkpt>
      <trkpt lat="44.90965" lon="1.88382">
        <ele>169.33</ele>
        <time>2026-05-13T08:22:46Z</time>
      </trkpt>
      <trkpt lat="44.9095" lon="1.88346">
        <ele>169.33</ele>
        <time>2026-05-13T08:23:07Z</time>
      </trkpt>
      <trkpt lat="44.90939" lon="1.88317">
        <ele>167.89</ele>
        <time>2026-05-13T08:23:25Z</time>
      </trkpt>
      <trkpt lat="44.90927" lon="1.88291">
        <ele>167.41</ele>
        <time>2026-05-13T08:23:43Z</time>
      </trkpt>
      <trkpt lat="44.90922" lon="1.88277">
        <ele>167.41</ele>
        <time>2026-05-13T08:24:04Z</time>
      </trkpt>
      <trkpt lat="44.90913" lon="1.88247">
        <ele>166.93</ele>
        <time>2026-05-13T08:24:23Z</time>
      </trkpt>
      <trkpt lat="44.90906" lon="1.88231">
        <ele>166.45</ele>
        <time>2026-05-13T08:24:35Z</time>
      </trkpt>
      <trkpt lat="44.90921" lon="1.88224">
        <ele>165</ele>
        <time>2026-05-13T08:24:51Z</time>
      </trkpt>
      <trkpt lat="44.9093" lon="1.88215">
        <ele>163.56</ele>
        <time>2026-05-13T08:25:03Z</time>
      </trkpt>
      <trkpt lat="44.90939" lon="1.88213">
        <ele>162.12</ele>
        <time>2026-05-13T08:25:21Z</time>
      </trkpt>
      <trkpt lat="44.90943" lon="1.88211">
        <ele>162.6</ele>
        <time>2026-05-13T08:25:41Z</time>
      </trkpt>
      <trkpt lat="44.90942" lon="1.88208">
        <ele>162.6</ele>
        <time>2026-05-13T08:25:46Z</time>
      </trkpt>
      <trkpt lat="44.90944" lon="1.88202">
        <ele>162.6</ele>
        <time>2026-05-13T08:25:51Z</time>
      </trkpt>
      <trkpt lat="44.90947" lon="1.88199">
        <ele>161.16</ele>
        <time>2026-05-13T08:25:54Z</time>
      </trkpt>
      <trkpt lat="44.90948" lon="1.88196">
        <ele>160.68</ele>
        <time>2026-05-13T08:25:57Z</time>
      </trkpt>
      <trkpt lat="44.90955" lon="1.88167">
        <ele>159.72</ele>
        <time>2026-05-13T08:26:13Z</time>
      </trkpt>
      <trkpt lat="44.90959" lon="1.88163">
        <ele>159.24</ele>
        <time>2026-05-13T08:26:17Z</time>
      </trkpt>
      <trkpt lat="44.90975" lon="1.88167">
        <ele>158.75</ele>
        <time>2026-05-13T08:26:32Z</time>
      </trkpt>
      <trkpt lat="44.90977" lon="1.8817">
        <ele>158.27</ele>
        <time>2026-05-13T08:26:41Z</time>
      </trkpt>
      <trkpt lat="44.90977" lon="1.88155">
        <ele>158.27</ele>
        <time>2026-05-13T08:26:50Z</time>
      </trkpt>
      <trkpt lat="44.9099" lon="1.88148">
        <ele>158.27</ele>
        <time>2026-05-13T08:27:11Z</time>
      </trkpt>
      <trkpt lat="44.91002" lon="1.88139">
        <ele>158.27</ele>
        <time>2026-05-13T08:27:32Z</time>
      </trkpt>
      <trkpt lat="44.91019" lon="1.88123">
        <ele>158.27</ele>
        <time>2026-05-13T08:27:49Z</time>
      </trkpt>
      <trkpt lat="44.91029" lon="1.88113">
        <ele>158.27</ele>
        <time>2026-05-13T08:27:59Z</time>
      </trkpt>
      <trkpt lat="44.91041" lon="1.88091">
        <ele>158.27</ele>
        <time>2026-05-13T08:28:12Z</time>
      </trkpt>
      <trkpt lat="44.91049" lon="1.88065">
        <ele>157.79</ele>
        <time>2026-05-13T08:28:25Z</time>
      </trkpt>
      <trkpt lat="44.91048" lon="1.8805">
        <ele>157.79</ele>
        <time>2026-05-13T08:28:34Z</time>
      </trkpt>
      <trkpt lat="44.9104" lon="1.88017">
        <ele>157.31</ele>
        <time>2026-05-13T08:28:50Z</time>
      </trkpt>
      <trkpt lat="44.91033" lon="1.8799">
        <ele>157.31</ele>
        <time>2026-05-13T08:29:05Z</time>
      </trkpt>
      <trkpt lat="44.91033" lon="1.87986">
        <ele>157.31</ele>
        <time>2026-05-13T08:29:08Z</time>
      </trkpt>
      <trkpt lat="44.91032" lon="1.87984">
        <ele>157.31</ele>
        <time>2026-05-13T08:29:09Z</time>
      </trkpt>
      <trkpt lat="44.91032" lon="1.87982">
        <ele>157.31</ele>
        <time>2026-05-13T08:29:10Z</time>
      </trkpt>
      <trkpt lat="44.91032" lon="1.8798">
        <ele>157.31</ele>
        <time>2026-05-13T08:29:11Z</time>
      </trkpt>
      <trkpt lat="44.91032" lon="1.87978">
        <ele>157.31</ele>
        <time>2026-05-13T08:29:12Z</time>
      </trkpt>
      <trkpt lat="44.91032" lon="1.87976">
        <ele>157.31</ele>
        <time>2026-05-13T08:29:13Z</time>
      </trkpt>
      <trkpt lat="44.91032" lon="1.87974">
        <ele>157.31</ele>
        <time>2026-05-13T08:29:14Z</time>
      </trkpt>
      <trkpt lat="44.91032" lon="1.87972">
        <ele>157.31</ele>
        <time>2026-05-13T08:29:15Z</time>
      </trkpt>
      <trkpt lat="44.91038" lon="1.87949">
        <ele>157.31</ele>
        <time>2026-05-13T08:29:30Z</time>
      </trkpt>
      <trkpt lat="44.91053" lon="1.87925">
        <ele>157.31</ele>
        <time>2026-05-13T08:29:45Z</time>
      </trkpt>
      <trkpt lat="44.91065" lon="1.87896">
        <ele>156.83</ele>
        <time>2026-05-13T08:30:01Z</time>
      </trkpt>
      <trkpt lat="44.91069" lon="1.87865">
        <ele>156.83</ele>
        <time>2026-05-13T08:30:17Z</time>
      </trkpt>
      <trkpt lat="44.91067" lon="1.8784">
        <ele>156.83</ele>
        <time>2026-05-13T08:30:32Z</time>
      </trkpt>
      <trkpt lat="44.91069" lon="1.87816">
        <ele>156.83</ele>
        <time>2026-05-13T08:30:46Z</time>
      </trkpt>
      <trkpt lat="44.91066" lon="1.87782">
        <ele>156.83</ele>
        <time>2026-05-13T08:31:02Z</time>
      </trkpt>
      <trkpt lat="44.91067" lon="1.87754">
        <ele>156.35</ele>
        <time>2026-05-13T08:31:17Z</time>
      </trkpt>
      <trkpt lat="44.91064" lon="1.87729">
        <ele>156.35</ele>
        <time>2026-05-13T08:31:31Z</time>
      </trkpt>
      <trkpt lat="44.9106" lon="1.877">
        <ele>155.87</ele>
        <time>2026-05-13T08:31:46Z</time>
      </trkpt>
      <trkpt lat="44.91064" lon="1.87673">
        <ele>155.87</ele>
        <time>2026-05-13T08:32:00Z</time>
      </trkpt>
      <trkpt lat="44.91073" lon="1.87641">
        <ele>155.87</ele>
        <time>2026-05-13T08:32:16Z</time>
      </trkpt>
      <trkpt lat="44.91075" lon="1.87636">
        <ele>155.87</ele>
        <time>2026-05-13T08:32:21Z</time>
      </trkpt>
      <trkpt lat="44.91076" lon="1.87634">
        <ele>156.35</ele>
        <time>2026-05-13T08:32:22Z</time>
      </trkpt>
      <trkpt lat="44.91076" lon="1.87632">
        <ele>156.35</ele>
        <time>2026-05-13T08:32:23Z</time>
      </trkpt>
      <trkpt lat="44.91077" lon="1.87607">
        <ele>155.87</ele>
        <time>2026-05-13T08:32:37Z</time>
      </trkpt>
      <trkpt lat="44.91076" lon="1.87581">
        <ele>156.35</ele>
        <time>2026-05-13T08:32:50Z</time>
      </trkpt>
      <trkpt lat="44.91074" lon="1.87547">
        <ele>155.87</ele>
        <time>2026-05-13T08:33:05Z</time>
      </trkpt>
      <trkpt lat="44.91076" lon="1.87522">
        <ele>156.35</ele>
        <time>2026-05-13T08:33:18Z</time>
      </trkpt>
      <trkpt lat="44.91076" lon="1.87493">
        <ele>156.35</ele>
        <time>2026-05-13T08:33:31Z</time>
      </trkpt>
      <trkpt lat="44.91076" lon="1.8749">
        <ele>157.31</ele>
        <time>2026-05-13T08:33:33Z</time>
      </trkpt>
      <trkpt lat="44.91076" lon="1.87488">
        <ele>157.31</ele>
        <time>2026-05-13T08:33:34Z</time>
      </trkpt>
      <trkpt lat="44.91078" lon="1.87467">
        <ele>157.31</ele>
        <time>2026-05-13T08:33:46Z</time>
      </trkpt>
      <trkpt lat="44.9108" lon="1.87466">
        <ele>157.31</ele>
        <time>2026-05-13T08:33:47Z</time>
      </trkpt>
      <trkpt lat="44.91088" lon="1.8745">
        <ele>156.83</ele>
        <time>2026-05-13T08:33:58Z</time>
      </trkpt>
      <trkpt lat="44.91086" lon="1.8741">
        <ele>156.35</ele>
        <time>2026-05-13T08:34:18Z</time>
      </trkpt>
      <trkpt lat="44.91084" lon="1.87377">
        <ele>155.87</ele>
        <time>2026-05-13T08:34:33Z</time>
      </trkpt>
      <trkpt lat="44.91077" lon="1.87352">
        <ele>155.39</ele>
        <time>2026-05-13T08:34:47Z</time>
      </trkpt>
      <trkpt lat="44.91073" lon="1.8733">
        <ele>155.39</ele>
        <time>2026-05-13T08:35:01Z</time>
      </trkpt>
      <trkpt lat="44.91068" lon="1.87316">
        <ele>155.39</ele>
        <time>2026-05-13T08:35:16Z</time>
      </trkpt>
      <trkpt lat="44.91061" lon="1.8729">
        <ele>155.39</ele>
        <time>2026-05-13T08:35:33Z</time>
      </trkpt>
      <trkpt lat="44.91045" lon="1.87257">
        <ele>155.39</ele>
        <time>2026-05-13T08:35:51Z</time>
      </trkpt>
      <trkpt lat="44.91035" lon="1.87228">
        <ele>155.39</ele>
        <time>2026-05-13T08:36:08Z</time>
      </trkpt>
      <trkpt lat="44.91026" lon="1.87195">
        <ele>155.39</ele>
        <time>2026-05-13T08:36:24Z</time>
      </trkpt>
      <trkpt lat="44.91023" lon="1.87183">
        <ele>154.91</ele>
        <time>2026-05-13T08:36:35Z</time>
      </trkpt>
      <trkpt lat="44.91022" lon="1.8718">
        <ele>154.91</ele>
        <time>2026-05-13T08:36:37Z</time>
      </trkpt>
      <trkpt lat="44.91023" lon="1.87153">
        <ele>154.91</ele>
        <time>2026-05-13T08:36:54Z</time>
      </trkpt>
      <trkpt lat="44.91025" lon="1.87114">
        <ele>154.43</ele>
        <time>2026-05-13T08:37:13Z</time>
      </trkpt>
      <trkpt lat="44.91026" lon="1.87084">
        <ele>154.43</ele>
        <time>2026-05-13T08:37:30Z</time>
      </trkpt>
      <trkpt lat="44.91025" lon="1.87051">
        <ele>154.43</ele>
        <time>2026-05-13T08:37:47Z</time>
      </trkpt>
      <trkpt lat="44.91027" lon="1.87018">
        <ele>154.43</ele>
        <time>2026-05-13T08:38:02Z</time>
      </trkpt>
      <trkpt lat="44.91031" lon="1.86989">
        <ele>154.43</ele>
        <time>2026-05-13T08:38:18Z</time>
      </trkpt>
      <trkpt lat="44.91034" lon="1.86961">
        <ele>154.43</ele>
        <time>2026-05-13T08:38:34Z</time>
      </trkpt>
      <trkpt lat="44.91038" lon="1.86927">
        <ele>154.43</ele>
        <time>2026-05-13T08:38:52Z</time>
      </trkpt>
      <trkpt lat="44.91034" lon="1.86915">
        <ele>154.43</ele>
        <time>2026-05-13T08:38:59Z</time>
      </trkpt>
      <trkpt lat="44.91032" lon="1.86912">
        <ele>154.43</ele>
        <time>2026-05-13T08:39:00Z</time>
      </trkpt>
      <trkpt lat="44.9103" lon="1.8691">
        <ele>154.43</ele>
        <time>2026-05-13T08:39:01Z</time>
      </trkpt>
      <trkpt lat="44.91017" lon="1.86881">
        <ele>154.43</ele>
        <time>2026-05-13T08:39:14Z</time>
      </trkpt>
      <trkpt lat="44.91018" lon="1.86879">
        <ele>154.43</ele>
        <time>2026-05-13T08:39:15Z</time>
      </trkpt>
      <trkpt lat="44.91018" lon="1.86857">
        <ele>154.43</ele>
        <time>2026-05-13T08:39:30Z</time>
      </trkpt>
      <trkpt lat="44.91019" lon="1.86849">
        <ele>154.43</ele>
        <time>2026-05-13T08:39:35Z</time>
      </trkpt>
      <trkpt lat="44.91019" lon="1.86847">
        <ele>154.43</ele>
        <time>2026-05-13T08:39:36Z</time>
      </trkpt>
      <trkpt lat="44.9102" lon="1.86845">
        <ele>154.43</ele>
        <time>2026-05-13T08:39:37Z</time>
      </trkpt>
      <trkpt lat="44.91023" lon="1.86807">
        <ele>154.43</ele>
        <time>2026-05-13T08:39:56Z</time>
      </trkpt>
      <trkpt lat="44.91023" lon="1.86783">
        <ele>153.95</ele>
        <time>2026-05-13T08:40:08Z</time>
      </trkpt>
      <trkpt lat="44.91025" lon="1.86767">
        <ele>153.95</ele>
        <time>2026-05-13T08:40:18Z</time>
      </trkpt>
      <trkpt lat="44.91025" lon="1.86765">
        <ele>153.95</ele>
        <time>2026-05-13T08:40:19Z</time>
      </trkpt>
      <trkpt lat="44.91026" lon="1.86762">
        <ele>153.95</ele>
        <time>2026-05-13T08:40:20Z</time>
      </trkpt>
      <trkpt lat="44.91026" lon="1.8676">
        <ele>153.95</ele>
        <time>2026-05-13T08:40:21Z</time>
      </trkpt>
      <trkpt lat="44.91026" lon="1.86757">
        <ele>153.95</ele>
        <time>2026-05-13T08:40:22Z</time>
      </trkpt>
      <trkpt lat="44.91019" lon="1.86737">
        <ele>152.51</ele>
        <time>2026-05-13T08:40:37Z</time>
      </trkpt>
      <trkpt lat="44.91018" lon="1.86734">
        <ele>153.95</ele>
        <time>2026-05-13T08:40:39Z</time>
      </trkpt>
      <trkpt lat="44.91017" lon="1.86722">
        <ele>154.43</ele>
        <time>2026-05-13T08:40:57Z</time>
      </trkpt>
      <trkpt lat="44.91023" lon="1.86718">
        <ele>153.47</ele>
        <time>2026-05-13T08:41:20Z</time>
      </trkpt>
      <trkpt lat="44.9102" lon="1.86699">
        <ele>153.47</ele>
        <time>2026-05-13T08:41:38Z</time>
      </trkpt>
      <trkpt lat="44.91018" lon="1.86704">
        <ele>153.47</ele>
        <time>2026-05-13T08:41:55Z</time>
      </trkpt>
      <trkpt lat="44.91002" lon="1.86679">
        <ele>153.47</ele>
        <time>2026-05-13T08:42:13Z</time>
      </trkpt>
      <trkpt lat="44.90999" lon="1.86675">
        <ele>153.47</ele>
        <time>2026-05-13T08:42:16Z</time>
      </trkpt>
      <trkpt lat="44.90997" lon="1.86674">
        <ele>153.47</ele>
        <time>2026-05-13T08:42:17Z</time>
      </trkpt>
      <trkpt lat="44.90987" lon="1.86647">
        <ele>153.47</ele>
        <time>2026-05-13T08:42:32Z</time>
      </trkpt>
      <trkpt lat="44.90987" lon="1.86644">
        <ele>153.95</ele>
        <time>2026-05-13T08:42:33Z</time>
      </trkpt>
      <trkpt lat="44.90987" lon="1.86642">
        <ele>153.47</ele>
        <time>2026-05-13T08:42:34Z</time>
      </trkpt>
      <trkpt lat="44.90978" lon="1.86613">
        <ele>152.99</ele>
        <time>2026-05-13T08:42:51Z</time>
      </trkpt>
      <trkpt lat="44.90965" lon="1.86593">
        <ele>152.99</ele>
        <time>2026-05-13T08:43:06Z</time>
      </trkpt>
      <trkpt lat="44.90952" lon="1.86565">
        <ele>152.99</ele>
        <time>2026-05-13T08:43:22Z</time>
      </trkpt>
      <trkpt lat="44.9095" lon="1.86557">
        <ele>152.99</ele>
        <time>2026-05-13T08:43:28Z</time>
      </trkpt>
      <trkpt lat="44.90949" lon="1.86555">
        <ele>152.99</ele>
        <time>2026-05-13T08:43:29Z</time>
      </trkpt>
      <trkpt lat="44.90936" lon="1.86532">
        <ele>152.51</ele>
        <time>2026-05-13T08:43:43Z</time>
      </trkpt>
      <trkpt lat="44.90924" lon="1.86505">
        <ele>152.51</ele>
        <time>2026-05-13T08:43:59Z</time>
      </trkpt>
      <trkpt lat="44.90915" lon="1.86478">
        <ele>152.51</ele>
        <time>2026-05-13T08:44:18Z</time>
      </trkpt>
      <trkpt lat="44.90912" lon="1.86448">
        <ele>152.51</ele>
        <time>2026-05-13T08:44:37Z</time>
      </trkpt>
      <trkpt lat="44.90903" lon="1.86418">
        <ele>152.03</ele>
        <time>2026-05-13T08:44:57Z</time>
      </trkpt>
      <trkpt lat="44.90895" lon="1.8639">
        <ele>152.03</ele>
        <time>2026-05-13T08:45:11Z</time>
      </trkpt>
      <trkpt lat="44.90894" lon="1.86387">
        <ele>152.03</ele>
        <time>2026-05-13T08:45:12Z</time>
      </trkpt>
      <trkpt lat="44.90881" lon="1.86358">
        <ele>152.03</ele>
        <time>2026-05-13T08:45:30Z</time>
      </trkpt>
      <trkpt lat="44.9088" lon="1.86356">
        <ele>152.03</ele>
        <time>2026-05-13T08:45:31Z</time>
      </trkpt>
      <trkpt lat="44.90878" lon="1.86315">
        <ele>151.54</ele>
        <time>2026-05-13T08:45:50Z</time>
      </trkpt>
      <trkpt lat="44.90871" lon="1.86291">
        <ele>151.06</ele>
        <time>2026-05-13T08:46:05Z</time>
      </trkpt>
      <trkpt lat="44.90866" lon="1.86262">
        <ele>150.58</ele>
        <time>2026-05-13T08:46:23Z</time>
      </trkpt>
      <trkpt lat="44.90861" lon="1.86234">
        <ele>150.58</ele>
        <time>2026-05-13T08:46:38Z</time>
      </trkpt>
      <trkpt lat="44.90861" lon="1.86211">
        <ele>150.1</ele>
        <time>2026-05-13T08:46:54Z</time>
      </trkpt>
      <trkpt lat="44.9086" lon="1.86184">
        <ele>149.62</ele>
        <time>2026-05-13T08:47:13Z</time>
      </trkpt>
      <trkpt lat="44.90854" lon="1.86153">
        <ele>149.14</ele>
        <time>2026-05-13T08:47:38Z</time>
      </trkpt>
      <trkpt lat="44.90857" lon="1.86136">
        <ele>149.14</ele>
        <time>2026-05-13T08:47:50Z</time>
      </trkpt>
      <trkpt lat="44.90858" lon="1.86134">
        <ele>149.14</ele>
        <time>2026-05-13T08:47:51Z</time>
      </trkpt>
      <trkpt lat="44.90863" lon="1.86106">
        <ele>148.66</ele>
        <time>2026-05-13T08:48:06Z</time>
      </trkpt>
      <trkpt lat="44.90864" lon="1.86077">
        <ele>148.66</ele>
        <time>2026-05-13T08:48:21Z</time>
      </trkpt>
      <trkpt lat="44.90863" lon="1.86075">
        <ele>148.66</ele>
        <time>2026-05-13T08:48:22Z</time>
      </trkpt>
      <trkpt lat="44.90865" lon="1.86045">
        <ele>148.18</ele>
        <time>2026-05-13T08:48:40Z</time>
      </trkpt>
      <trkpt lat="44.90869" lon="1.86021">
        <ele>148.18</ele>
        <time>2026-05-13T08:48:52Z</time>
      </trkpt>
      <trkpt lat="44.90868" lon="1.86019">
        <ele>148.18</ele>
        <time>2026-05-13T08:48:53Z</time>
      </trkpt>
      <trkpt lat="44.90865" lon="1.8599">
        <ele>148.18</ele>
        <time>2026-05-13T08:49:08Z</time>
      </trkpt>
      <trkpt lat="44.90867" lon="1.85961">
        <ele>146.74</ele>
        <time>2026-05-13T08:49:24Z</time>
      </trkpt>
      <trkpt lat="44.90867" lon="1.85957">
        <ele>146.74</ele>
        <time>2026-05-13T08:49:27Z</time>
      </trkpt>
      <trkpt lat="44.90867" lon="1.85955">
        <ele>146.74</ele>
        <time>2026-05-13T08:49:28Z</time>
      </trkpt>
      <trkpt lat="44.90867" lon="1.85953">
        <ele>146.74</ele>
        <time>2026-05-13T08:49:29Z</time>
      </trkpt>
      <trkpt lat="44.90868" lon="1.85926">
        <ele>146.74</ele>
        <time>2026-05-13T08:49:46Z</time>
      </trkpt>
      <trkpt lat="44.90873" lon="1.85897">
        <ele>146.74</ele>
        <time>2026-05-13T08:50:02Z</time>
      </trkpt>
      <trkpt lat="44.90882" lon="1.85865">
        <ele>146.26</ele>
        <time>2026-05-13T08:50:17Z</time>
      </trkpt>
      <trkpt lat="44.90882" lon="1.85863">
        <ele>146.26</ele>
        <time>2026-05-13T08:50:18Z</time>
      </trkpt>
      <trkpt lat="44.90883" lon="1.85842">
        <ele>146.26</ele>
        <time>2026-05-13T08:50:30Z</time>
      </trkpt>
      <trkpt lat="44.90883" lon="1.85839">
        <ele>146.26</ele>
        <time>2026-05-13T08:50:31Z</time>
      </trkpt>
      <trkpt lat="44.90884" lon="1.85816">
        <ele>146.26</ele>
        <time>2026-05-13T08:50:43Z</time>
      </trkpt>
      <trkpt lat="44.90888" lon="1.85788">
        <ele>146.26</ele>
        <time>2026-05-13T08:50:57Z</time>
      </trkpt>
      <trkpt lat="44.90887" lon="1.85774">
        <ele>145.78</ele>
        <time>2026-05-13T08:51:05Z</time>
      </trkpt>
      <trkpt lat="44.90886" lon="1.85772">
        <ele>145.78</ele>
        <time>2026-05-13T08:51:06Z</time>
      </trkpt>
      <trkpt lat="44.90881" lon="1.8574">
        <ele>145.78</ele>
        <time>2026-05-13T08:51:23Z</time>
      </trkpt>
      <trkpt lat="44.9088" lon="1.85731">
        <ele>145.3</ele>
        <time>2026-05-13T08:51:45Z</time>
      </trkpt>
      <trkpt lat="44.90874" lon="1.8571">
        <ele>145.3</ele>
        <time>2026-05-13T08:51:59Z</time>
      </trkpt>
      <trkpt lat="44.90869" lon="1.85689">
        <ele>145.3</ele>
        <time>2026-05-13T08:52:11Z</time>
      </trkpt>
      <trkpt lat="44.90866" lon="1.85664">
        <ele>145.3</ele>
        <time>2026-05-13T08:52:24Z</time>
      </trkpt>
      <trkpt lat="44.90861" lon="1.8564">
        <ele>144.82</ele>
        <time>2026-05-13T08:52:38Z</time>
      </trkpt>
      <trkpt lat="44.90859" lon="1.8561">
        <ele>144.82</ele>
        <time>2026-05-13T08:52:53Z</time>
      </trkpt>
      <trkpt lat="44.90857" lon="1.85602">
        <ele>144.82</ele>
        <time>2026-05-13T08:52:58Z</time>
      </trkpt>
      <trkpt lat="44.90856" lon="1.85598">
        <ele>144.82</ele>
        <time>2026-05-13T08:53:00Z</time>
      </trkpt>
      <trkpt lat="44.90854" lon="1.8559">
        <ele>144.82</ele>
        <time>2026-05-13T08:53:04Z</time>
      </trkpt>
      <trkpt lat="44.90845" lon="1.85564">
        <ele>144.82</ele>
        <time>2026-05-13T08:53:19Z</time>
      </trkpt>
      <trkpt lat="44.90838" lon="1.85544">
        <ele>144.82</ele>
        <time>2026-05-13T08:53:33Z</time>
      </trkpt>
      <trkpt lat="44.90832" lon="1.85515">
        <ele>144.34</ele>
        <time>2026-05-13T08:53:49Z</time>
      </trkpt>
      <trkpt lat="44.90826" lon="1.85487">
        <ele>143.85</ele>
        <time>2026-05-13T08:54:04Z</time>
      </trkpt>
      <trkpt lat="44.90824" lon="1.85482">
        <ele>143.85</ele>
        <time>2026-05-13T08:54:07Z</time>
      </trkpt>
      <trkpt lat="44.90815" lon="1.85457">
        <ele>143.85</ele>
        <time>2026-05-13T08:54:20Z</time>
      </trkpt>
      <trkpt lat="44.90809" lon="1.85431">
        <ele>143.85</ele>
        <time>2026-05-13T08:54:36Z</time>
      </trkpt>
      <trkpt lat="44.90807" lon="1.85424">
        <ele>143.85</ele>
        <time>2026-05-13T08:54:41Z</time>
      </trkpt>
      <trkpt lat="44.90806" lon="1.85423">
        <ele>143.85</ele>
        <time>2026-05-13T08:54:42Z</time>
      </trkpt>
      <trkpt lat="44.908" lon="1.85397">
        <ele>143.37</ele>
        <time>2026-05-13T08:54:59Z</time>
      </trkpt>
      <trkpt lat="44.908" lon="1.85395">
        <ele>143.37</ele>
        <time>2026-05-13T08:55:00Z</time>
      </trkpt>
      <trkpt lat="44.90803" lon="1.85361">
        <ele>142.41</ele>
        <time>2026-05-13T08:55:17Z</time>
      </trkpt>
      <trkpt lat="44.90805" lon="1.85338">
        <ele>142.89</ele>
        <time>2026-05-13T08:55:31Z</time>
      </trkpt>
      <trkpt lat="44.90811" lon="1.85317">
        <ele>142.89</ele>
        <time>2026-05-13T08:55:48Z</time>
      </trkpt>
      <trkpt lat="44.90828" lon="1.85305">
        <ele>142.41</ele>
        <time>2026-05-13T08:56:05Z</time>
      </trkpt>
      <trkpt lat="44.90831" lon="1.85304">
        <ele>142.41</ele>
        <time>2026-05-13T08:56:08Z</time>
      </trkpt>
      <trkpt lat="44.90833" lon="1.85303">
        <ele>142.41</ele>
        <time>2026-05-13T08:56:09Z</time>
      </trkpt>
      <trkpt lat="44.90835" lon="1.85303">
        <ele>142.41</ele>
        <time>2026-05-13T08:56:10Z</time>
      </trkpt>
      <trkpt lat="44.90846" lon="1.85299">
        <ele>142.41</ele>
        <time>2026-05-13T08:56:19Z</time>
      </trkpt>
      <trkpt lat="44.90848" lon="1.85298">
        <ele>142.41</ele>
        <time>2026-05-13T08:56:20Z</time>
      </trkpt>
      <trkpt lat="44.90871" lon="1.85289">
        <ele>142.41</ele>
        <time>2026-05-13T08:56:36Z</time>
      </trkpt>
      <trkpt lat="44.9089" lon="1.85272">
        <ele>142.41</ele>
        <time>2026-05-13T08:56:54Z</time>
      </trkpt>
      <trkpt lat="44.90901" lon="1.85265">
        <ele>142.41</ele>
        <time>2026-05-13T08:57:00Z</time>
      </trkpt>
      <trkpt lat="44.90913" lon="1.85244">
        <ele>142.41</ele>
        <time>2026-05-13T08:57:16Z</time>
      </trkpt>
      <trkpt lat="44.9092" lon="1.85251">
        <ele>143.37</ele>
        <time>2026-05-13T08:57:31Z</time>
      </trkpt>
      <trkpt lat="44.90936" lon="1.85265">
        <ele>142.89</ele>
        <time>2026-05-13T08:57:47Z</time>
      </trkpt>
      <trkpt lat="44.90946" lon="1.85278">
        <ele>144.34</ele>
        <time>2026-05-13T08:57:56Z</time>
      </trkpt>
      <trkpt lat="44.90954" lon="1.853">
        <ele>144.34</ele>
        <time>2026-05-13T08:58:11Z</time>
      </trkpt>
      <trkpt lat="44.90957" lon="1.85305">
        <ele>144.34</ele>
        <time>2026-05-13T08:58:14Z</time>
      </trkpt>
      <trkpt lat="44.90972" lon="1.85325">
        <ele>144.34</ele>
        <time>2026-05-13T08:58:28Z</time>
      </trkpt>
      <trkpt lat="44.90976" lon="1.85331">
        <ele>144.34</ele>
        <time>2026-05-13T08:58:34Z</time>
      </trkpt>
      <trkpt lat="44.90977" lon="1.85333">
        <ele>144.34</ele>
        <time>2026-05-13T08:58:35Z</time>
      </trkpt>
      <trkpt lat="44.90989" lon="1.85347">
        <ele>144.34</ele>
        <time>2026-05-13T08:58:47Z</time>
      </trkpt>
      <trkpt lat="44.91001" lon="1.85363">
        <ele>144.34</ele>
        <time>2026-05-13T08:59:00Z</time>
      </trkpt>
      <trkpt lat="44.91002" lon="1.85365">
        <ele>144.34</ele>
        <time>2026-05-13T08:59:01Z</time>
      </trkpt>
      <trkpt lat="44.91003" lon="1.85366">
        <ele>144.34</ele>
        <time>2026-05-13T08:59:02Z</time>
      </trkpt>
      <trkpt lat="44.91005" lon="1.85368">
        <ele>144.34</ele>
        <time>2026-05-13T08:59:03Z</time>
      </trkpt>
      <trkpt lat="44.91006" lon="1.85369">
        <ele>144.34</ele>
        <time>2026-05-13T08:59:04Z</time>
      </trkpt>
      <trkpt lat="44.91008" lon="1.8537">
        <ele>144.34</ele>
        <time>2026-05-13T08:59:05Z</time>
      </trkpt>
      <trkpt lat="44.9101" lon="1.85371">
        <ele>144.34</ele>
        <time>2026-05-13T08:59:06Z</time>
      </trkpt>
      <trkpt lat="44.91011" lon="1.85372">
        <ele>144.34</ele>
        <time>2026-05-13T08:59:07Z</time>
      </trkpt>
      <trkpt lat="44.91027" lon="1.85386">
        <ele>144.34</ele>
        <time>2026-05-13T08:59:20Z</time>
      </trkpt>
      <trkpt lat="44.9103" lon="1.85388">
        <ele>144.34</ele>
        <time>2026-05-13T08:59:22Z</time>
      </trkpt>
      <trkpt lat="44.91044" lon="1.85402">
        <ele>144.82</ele>
        <time>2026-05-13T08:59:36Z</time>
      </trkpt>
      <trkpt lat="44.91055" lon="1.85417">
        <ele>146.26</ele>
        <time>2026-05-13T08:59:50Z</time>
      </trkpt>
      <trkpt lat="44.91068" lon="1.85427">
        <ele>147.22</ele>
        <time>2026-05-13T09:00:02Z</time>
      </trkpt>
      <trkpt lat="44.91068" lon="1.85428">
        <ele>147.22</ele>
        <time>2026-05-13T09:00:03Z</time>
      </trkpt>
      <trkpt lat="44.9107" lon="1.8543">
        <ele>147.22</ele>
        <time>2026-05-13T09:00:04Z</time>
      </trkpt>
      <trkpt lat="44.91071" lon="1.85431">
        <ele>147.22</ele>
        <time>2026-05-13T09:00:05Z</time>
      </trkpt>
      <trkpt lat="44.91073" lon="1.85432">
        <ele>147.22</ele>
        <time>2026-05-13T09:00:06Z</time>
      </trkpt>
      <trkpt lat="44.9108" lon="1.85437">
        <ele>147.7</ele>
        <time>2026-05-13T09:00:13Z</time>
      </trkpt>
      <trkpt lat="44.91081" lon="1.85439">
        <ele>148.18</ele>
        <time>2026-05-13T09:00:14Z</time>
      </trkpt>
      <trkpt lat="44.91082" lon="1.8544">
        <ele>148.18</ele>
        <time>2026-05-13T09:00:15Z</time>
      </trkpt>
      <trkpt lat="44.91094" lon="1.85448">
        <ele>148.66</ele>
        <time>2026-05-13T09:00:26Z</time>
      </trkpt>
      <trkpt lat="44.91106" lon="1.85458">
        <ele>149.14</ele>
        <time>2026-05-13T09:00:37Z</time>
      </trkpt>
      <trkpt lat="44.91119" lon="1.85466">
        <ele>149.14</ele>
        <time>2026-05-13T09:00:48Z</time>
      </trkpt>
      <trkpt lat="44.91131" lon="1.85478">
        <ele>149.14</ele>
        <time>2026-05-13T09:00:59Z</time>
      </trkpt>
      <trkpt lat="44.91145" lon="1.85487">
        <ele>149.14</ele>
        <time>2026-05-13T09:01:10Z</time>
      </trkpt>
      <trkpt lat="44.91155" lon="1.85499">
        <ele>150.1</ele>
        <time>2026-05-13T09:01:22Z</time>
      </trkpt>
      <trkpt lat="44.91156" lon="1.85499">
        <ele>150.1</ele>
        <time>2026-05-13T09:01:23Z</time>
      </trkpt>
      <trkpt lat="44.9116" lon="1.85508">
        <ele>150.1</ele>
        <time>2026-05-13T09:01:40Z</time>
      </trkpt>
      <trkpt lat="44.91164" lon="1.85501">
        <ele>151.54</ele>
        <time>2026-05-13T09:01:58Z</time>
      </trkpt>
      <trkpt lat="44.91172" lon="1.85489">
        <ele>153.47</ele>
        <time>2026-05-13T09:02:11Z</time>
      </trkpt>
      <trkpt lat="44.91177" lon="1.85486">
        <ele>156.35</ele>
        <time>2026-05-13T09:02:24Z</time>
      </trkpt>
      <trkpt lat="44.91184" lon="1.8547">
        <ele>157.31</ele>
        <time>2026-05-13T09:02:41Z</time>
      </trkpt>
      <trkpt lat="44.91201" lon="1.85437">
        <ele>157.79</ele>
        <time>2026-05-13T09:02:58Z</time>
      </trkpt>
      <trkpt lat="44.91204" lon="1.85427">
        <ele>156.83</ele>
        <time>2026-05-13T09:03:04Z</time>
      </trkpt>
      <trkpt lat="44.9121" lon="1.8539">
        <ele>155.39</ele>
        <time>2026-05-13T09:03:19Z</time>
      </trkpt>
      <trkpt lat="44.91217" lon="1.85356">
        <ele>153.95</ele>
        <time>2026-05-13T09:03:35Z</time>
      </trkpt>
      <trkpt lat="44.91221" lon="1.85324">
        <ele>152.51</ele>
        <time>2026-05-13T09:03:51Z</time>
      </trkpt>
      <trkpt lat="44.91226" lon="1.85292">
        <ele>152.03</ele>
        <time>2026-05-13T09:04:07Z</time>
      </trkpt>
      <trkpt lat="44.91223" lon="1.8526">
        <ele>152.03</ele>
        <time>2026-05-13T09:04:24Z</time>
      </trkpt>
      <trkpt lat="44.91223" lon="1.85261">
        <ele>151.54</ele>
        <time>2026-05-13T09:04:47Z</time>
      </trkpt>
      <trkpt lat="44.9122" lon="1.85244">
        <ele>151.54</ele>
        <time>2026-05-13T09:05:02Z</time>
      </trkpt>
      <trkpt lat="44.9122" lon="1.85241">
        <ele>151.54</ele>
        <time>2026-05-13T09:05:13Z</time>
      </trkpt>
      <trkpt lat="44.91218" lon="1.85238">
        <ele>151.54</ele>
        <time>2026-05-13T09:05:28Z</time>
      </trkpt>
      <trkpt lat="44.91217" lon="1.85236">
        <ele>151.54</ele>
        <time>2026-05-13T09:05:29Z</time>
      </trkpt>
      <trkpt lat="44.91217" lon="1.85234">
        <ele>151.54</ele>
        <time>2026-05-13T09:05:30Z</time>
      </trkpt>
      <trkpt lat="44.91208" lon="1.8521">
        <ele>151.54</ele>
        <time>2026-05-13T09:05:46Z</time>
      </trkpt>
      <trkpt lat="44.91209" lon="1.85207">
        <ele>151.54</ele>
        <time>2026-05-13T09:05:52Z</time>
      </trkpt>
      <trkpt lat="44.91209" lon="1.85205">
        <ele>151.54</ele>
        <time>2026-05-13T09:05:53Z</time>
      </trkpt>
      <trkpt lat="44.91208" lon="1.85203">
        <ele>151.54</ele>
        <time>2026-05-13T09:05:54Z</time>
      </trkpt>
      <trkpt lat="44.91207" lon="1.85201">
        <ele>151.54</ele>
        <time>2026-05-13T09:05:55Z</time>
      </trkpt>
      <trkpt lat="44.91206" lon="1.85199">
        <ele>151.54</ele>
        <time>2026-05-13T09:05:56Z</time>
      </trkpt>
      <trkpt lat="44.91202" lon="1.85183">
        <ele>151.54</ele>
        <time>2026-05-13T09:06:07Z</time>
      </trkpt>
      <trkpt lat="44.91203" lon="1.85183">
        <ele>151.54</ele>
        <time>2026-05-13T09:06:08Z</time>
      </trkpt>
      <trkpt lat="44.91205" lon="1.85181">
        <ele>151.54</ele>
        <time>2026-05-13T09:06:10Z</time>
      </trkpt>
      <trkpt lat="44.91218" lon="1.8517">
        <ele>151.54</ele>
        <time>2026-05-13T09:06:22Z</time>
      </trkpt>
      <trkpt lat="44.91219" lon="1.85171">
        <ele>151.54</ele>
        <time>2026-05-13T09:06:23Z</time>
      </trkpt>
      <trkpt lat="44.91237" lon="1.85163">
        <ele>151.54</ele>
        <time>2026-05-13T09:06:38Z</time>
      </trkpt>
      <trkpt lat="44.91249" lon="1.85153">
        <ele>151.54</ele>
        <time>2026-05-13T09:06:49Z</time>
      </trkpt>
      <trkpt lat="44.91251" lon="1.85152">
        <ele>151.54</ele>
        <time>2026-05-13T09:06:50Z</time>
      </trkpt>
      <trkpt lat="44.91252" lon="1.85151">
        <ele>152.99</ele>
        <time>2026-05-13T09:06:51Z</time>
      </trkpt>
      <trkpt lat="44.91253" lon="1.85149">
        <ele>152.99</ele>
        <time>2026-05-13T09:06:52Z</time>
      </trkpt>
      <trkpt lat="44.91255" lon="1.85147">
        <ele>152.99</ele>
        <time>2026-05-13T09:06:53Z</time>
      </trkpt>
      <trkpt lat="44.91256" lon="1.85146">
        <ele>152.99</ele>
        <time>2026-05-13T09:06:54Z</time>
      </trkpt>
      <trkpt lat="44.91257" lon="1.85144">
        <ele>152.99</ele>
        <time>2026-05-13T09:06:55Z</time>
      </trkpt>
      <trkpt lat="44.91261" lon="1.85142">
        <ele>152.99</ele>
        <time>2026-05-13T09:07:00Z</time>
      </trkpt>
      <trkpt lat="44.91262" lon="1.8514">
        <ele>152.99</ele>
        <time>2026-05-13T09:07:01Z</time>
      </trkpt>
      <trkpt lat="44.91263" lon="1.85139">
        <ele>152.99</ele>
        <time>2026-05-13T09:07:02Z</time>
      </trkpt>
      <trkpt lat="44.91276" lon="1.85127">
        <ele>154.43</ele>
        <time>2026-05-13T09:07:14Z</time>
      </trkpt>
      <trkpt lat="44.91292" lon="1.85111">
        <ele>154.43</ele>
        <time>2026-05-13T09:07:28Z</time>
      </trkpt>
      <trkpt lat="44.91293" lon="1.8511">
        <ele>154.43</ele>
        <time>2026-05-13T09:07:29Z</time>
      </trkpt>
      <trkpt lat="44.91311" lon="1.85091">
        <ele>154.91</ele>
        <time>2026-05-13T09:07:45Z</time>
      </trkpt>
      <trkpt lat="44.91313" lon="1.8509">
        <ele>154.91</ele>
        <time>2026-05-13T09:07:46Z</time>
      </trkpt>
      <trkpt lat="44.91332" lon="1.85078">
        <ele>154.91</ele>
        <time>2026-05-13T09:08:01Z</time>
      </trkpt>
      <trkpt lat="44.91353" lon="1.85064">
        <ele>155.39</ele>
        <time>2026-05-13T09:08:16Z</time>
      </trkpt>
      <trkpt lat="44.91368" lon="1.85054">
        <ele>155.39</ele>
        <time>2026-05-13T09:08:29Z</time>
      </trkpt>
      <trkpt lat="44.91387" lon="1.85041">
        <ele>155.87</ele>
        <time>2026-05-13T09:08:44Z</time>
      </trkpt>
      <trkpt lat="44.91402" lon="1.85024">
        <ele>155.87</ele>
        <time>2026-05-13T09:08:59Z</time>
      </trkpt>
      <trkpt lat="44.91418" lon="1.85007">
        <ele>156.35</ele>
        <time>2026-05-13T09:09:14Z</time>
      </trkpt>
      <trkpt lat="44.91433" lon="1.84989">
        <ele>156.35</ele>
        <time>2026-05-13T09:09:29Z</time>
      </trkpt>
      <trkpt lat="44.91447" lon="1.84976">
        <ele>157.31</ele>
        <time>2026-05-13T09:09:42Z</time>
      </trkpt>
      <trkpt lat="44.91454" lon="1.84969">
        <ele>157.31</ele>
        <time>2026-05-13T09:09:47Z</time>
      </trkpt>
      <trkpt lat="44.91466" lon="1.84954">
        <ele>158.27</ele>
        <time>2026-05-13T09:10:00Z</time>
      </trkpt>
      <trkpt lat="44.91483" lon="1.84938">
        <ele>158.75</ele>
        <time>2026-05-13T09:10:16Z</time>
      </trkpt>
      <trkpt lat="44.91498" lon="1.84923">
        <ele>159.72</ele>
        <time>2026-05-13T09:10:32Z</time>
      </trkpt>
      <trkpt lat="44.91502" lon="1.84915">
        <ele>159.72</ele>
        <time>2026-05-13T09:10:45Z</time>
      </trkpt>
      <trkpt lat="44.91512" lon="1.84901">
        <ele>159.72</ele>
        <time>2026-05-13T09:11:06Z</time>
      </trkpt>
      <trkpt lat="44.91525" lon="1.84881">
        <ele>160.68</ele>
        <time>2026-05-13T09:11:20Z</time>
      </trkpt>
      <trkpt lat="44.91536" lon="1.84862">
        <ele>161.16</ele>
        <time>2026-05-13T09:11:33Z</time>
      </trkpt>
      <trkpt lat="44.91549" lon="1.84845">
        <ele>161.64</ele>
        <time>2026-05-13T09:11:46Z</time>
      </trkpt>
      <trkpt lat="44.91563" lon="1.84828">
        <ele>162.12</ele>
        <time>2026-05-13T09:12:00Z</time>
      </trkpt>
      <trkpt lat="44.91575" lon="1.84815">
        <ele>163.56</ele>
        <time>2026-05-13T09:12:13Z</time>
      </trkpt>
      <trkpt lat="44.91576" lon="1.84812">
        <ele>163.56</ele>
        <time>2026-05-13T09:12:15Z</time>
      </trkpt>
      <trkpt lat="44.91577" lon="1.84811">
        <ele>163.56</ele>
        <time>2026-05-13T09:12:16Z</time>
      </trkpt>
      <trkpt lat="44.91578" lon="1.84809">
        <ele>163.56</ele>
        <time>2026-05-13T09:12:17Z</time>
      </trkpt>
      <trkpt lat="44.91579" lon="1.84807">
        <ele>163.56</ele>
        <time>2026-05-13T09:12:18Z</time>
      </trkpt>
      <trkpt lat="44.9158" lon="1.84805">
        <ele>163.56</ele>
        <time>2026-05-13T09:12:19Z</time>
      </trkpt>
      <trkpt lat="44.91589" lon="1.84782">
        <ele>164.04</ele>
        <time>2026-05-13T09:12:33Z</time>
      </trkpt>
      <trkpt lat="44.91593" lon="1.84774">
        <ele>164.04</ele>
        <time>2026-05-13T09:12:39Z</time>
      </trkpt>
      <trkpt lat="44.91598" lon="1.84765">
        <ele>164.04</ele>
        <time>2026-05-13T09:12:45Z</time>
      </trkpt>
      <trkpt lat="44.91602" lon="1.84765">
        <ele>164.04</ele>
        <time>2026-05-13T09:12:49Z</time>
      </trkpt>
      <trkpt lat="44.91622" lon="1.84777">
        <ele>159.72</ele>
        <time>2026-05-13T09:13:07Z</time>
      </trkpt>
      <trkpt lat="44.91622" lon="1.84769">
        <ele>157.79</ele>
        <time>2026-05-13T09:13:12Z</time>
      </trkpt>
      <trkpt lat="44.91608" lon="1.84749">
        <ele>154.91</ele>
        <time>2026-05-13T09:13:27Z</time>
      </trkpt>
      <trkpt lat="44.91595" lon="1.84727">
        <ele>152.51</ele>
        <time>2026-05-13T09:13:43Z</time>
      </trkpt>
      <trkpt lat="44.91582" lon="1.84708">
        <ele>150.58</ele>
        <time>2026-05-13T09:13:58Z</time>
      </trkpt>
      <trkpt lat="44.91575" lon="1.84695">
        <ele>148.66</ele>
        <time>2026-05-13T09:14:07Z</time>
      </trkpt>
      <trkpt lat="44.91573" lon="1.84692">
        <ele>148.66</ele>
        <time>2026-05-13T09:14:09Z</time>
      </trkpt>
      <trkpt lat="44.91555" lon="1.84669">
        <ele>146.26</ele>
        <time>2026-05-13T09:14:26Z</time>
      </trkpt>
      <trkpt lat="44.91544" lon="1.84652">
        <ele>143.37</ele>
        <time>2026-05-13T09:14:41Z</time>
      </trkpt>
      <trkpt lat="44.91542" lon="1.84639">
        <ele>142.41</ele>
        <time>2026-05-13T09:14:48Z</time>
      </trkpt>
      <trkpt lat="44.91551" lon="1.84611">
        <ele>140.49</ele>
        <time>2026-05-13T09:15:03Z</time>
      </trkpt>
      <trkpt lat="44.91556" lon="1.84588">
        <ele>140.49</ele>
        <time>2026-05-13T09:15:16Z</time>
      </trkpt>
      <trkpt lat="44.9156" lon="1.84566">
        <ele>140.97</ele>
        <time>2026-05-13T09:15:29Z</time>
      </trkpt>
      <trkpt lat="44.91563" lon="1.84539">
        <ele>140.49</ele>
        <time>2026-05-13T09:15:43Z</time>
      </trkpt>
      <trkpt lat="44.91562" lon="1.84507">
        <ele>140.49</ele>
        <time>2026-05-13T09:16:00Z</time>
      </trkpt>
      <trkpt lat="44.91561" lon="1.84496">
        <ele>140.49</ele>
        <time>2026-05-13T09:16:07Z</time>
      </trkpt>
      <trkpt lat="44.91562" lon="1.84473">
        <ele>140.49</ele>
        <time>2026-05-13T09:16:20Z</time>
      </trkpt>
      <trkpt lat="44.91563" lon="1.84472">
        <ele>140.49</ele>
        <time>2026-05-13T09:16:21Z</time>
      </trkpt>
      <trkpt lat="44.91564" lon="1.84471">
        <ele>140.49</ele>
        <time>2026-05-13T09:16:22Z</time>
      </trkpt>
      <trkpt lat="44.91565" lon="1.84469">
        <ele>140.49</ele>
        <time>2026-05-13T09:16:23Z</time>
      </trkpt>
      <trkpt lat="44.91567" lon="1.84468">
        <ele>140.49</ele>
        <time>2026-05-13T09:16:24Z</time>
      </trkpt>
      <trkpt lat="44.91568" lon="1.84467">
        <ele>140.49</ele>
        <time>2026-05-13T09:16:25Z</time>
      </trkpt>
      <trkpt lat="44.9157" lon="1.84465">
        <ele>140.49</ele>
        <time>2026-05-13T09:16:26Z</time>
      </trkpt>
      <trkpt lat="44.91571" lon="1.84464">
        <ele>140.49</ele>
        <time>2026-05-13T09:16:27Z</time>
      </trkpt>
      <trkpt lat="44.91587" lon="1.84452">
        <ele>140.49</ele>
        <time>2026-05-13T09:16:41Z</time>
      </trkpt>
      <trkpt lat="44.91603" lon="1.84439">
        <ele>140.49</ele>
        <time>2026-05-13T09:16:55Z</time>
      </trkpt>
      <trkpt lat="44.91611" lon="1.84435">
        <ele>140.49</ele>
        <time>2026-05-13T09:17:02Z</time>
      </trkpt>
      <trkpt lat="44.91612" lon="1.84433">
        <ele>140.49</ele>
        <time>2026-05-13T09:17:03Z</time>
      </trkpt>
      <trkpt lat="44.91613" lon="1.84432">
        <ele>140.49</ele>
        <time>2026-05-13T09:17:04Z</time>
      </trkpt>
      <trkpt lat="44.91615" lon="1.84431">
        <ele>140.49</ele>
        <time>2026-05-13T09:17:05Z</time>
      </trkpt>
      <trkpt lat="44.91616" lon="1.8443">
        <ele>140.49</ele>
        <time>2026-05-13T09:17:06Z</time>
      </trkpt>
      <trkpt lat="44.91617" lon="1.84429">
        <ele>140.49</ele>
        <time>2026-05-13T09:17:07Z</time>
      </trkpt>
      <trkpt lat="44.91619" lon="1.84428">
        <ele>140.49</ele>
        <time>2026-05-13T09:17:08Z</time>
      </trkpt>
      <trkpt lat="44.91638" lon="1.84415">
        <ele>140.01</ele>
        <time>2026-05-13T09:17:23Z</time>
      </trkpt>
      <trkpt lat="44.91639" lon="1.84414">
        <ele>140.01</ele>
        <time>2026-05-13T09:17:24Z</time>
      </trkpt>
      <trkpt lat="44.91641" lon="1.84413">
        <ele>140.01</ele>
        <time>2026-05-13T09:17:25Z</time>
      </trkpt>
      <trkpt lat="44.91643" lon="1.84412">
        <ele>139.53</ele>
        <time>2026-05-13T09:17:26Z</time>
      </trkpt>
      <trkpt lat="44.91644" lon="1.84411">
        <ele>139.53</ele>
        <time>2026-05-13T09:17:27Z</time>
      </trkpt>
      <trkpt lat="44.91649" lon="1.84407">
        <ele>139.53</ele>
        <time>2026-05-13T09:17:33Z</time>
      </trkpt>
      <trkpt lat="44.91667" lon="1.84393">
        <ele>139.05</ele>
        <time>2026-05-13T09:17:48Z</time>
      </trkpt>
      <trkpt lat="44.91685" lon="1.84379">
        <ele>139.05</ele>
        <time>2026-05-13T09:18:03Z</time>
      </trkpt>
      <trkpt lat="44.91702" lon="1.84365">
        <ele>138.57</ele>
        <time>2026-05-13T09:18:17Z</time>
      </trkpt>
      <trkpt lat="44.91719" lon="1.84348">
        <ele>138.57</ele>
        <time>2026-05-13T09:18:33Z</time>
      </trkpt>
      <trkpt lat="44.91728" lon="1.84323">
        <ele>138.09</ele>
        <time>2026-05-13T09:18:48Z</time>
      </trkpt>
      <trkpt lat="44.91714" lon="1.84295">
        <ele>138.09</ele>
        <time>2026-05-13T09:19:05Z</time>
      </trkpt>
      <trkpt lat="44.91697" lon="1.84262">
        <ele>139.05</ele>
        <time>2026-05-13T09:19:25Z</time>
      </trkpt>
      <trkpt lat="44.91683" lon="1.84234">
        <ele>139.05</ele>
        <time>2026-05-13T09:19:43Z</time>
      </trkpt>
      <trkpt lat="44.91667" lon="1.84203">
        <ele>139.05</ele>
        <time>2026-05-13T09:20:03Z</time>
      </trkpt>
      <trkpt lat="44.91651" lon="1.84179">
        <ele>139.53</ele>
        <time>2026-05-13T09:20:20Z</time>
      </trkpt>
      <trkpt lat="44.91638" lon="1.84152">
        <ele>139.53</ele>
        <time>2026-05-13T09:20:37Z</time>
      </trkpt>
      <trkpt lat="44.91628" lon="1.84128">
        <ele>140.49</ele>
        <time>2026-05-13T09:20:52Z</time>
      </trkpt>
      <trkpt lat="44.91622" lon="1.8412">
        <ele>140.49</ele>
        <time>2026-05-13T09:20:59Z</time>
      </trkpt>
      <trkpt lat="44.91606" lon="1.84085">
        <ele>140.49</ele>
        <time>2026-05-13T09:21:20Z</time>
      </trkpt>
      <trkpt lat="44.91599" lon="1.84059">
        <ele>140.49</ele>
        <time>2026-05-13T09:21:36Z</time>
      </trkpt>
      <trkpt lat="44.91599" lon="1.84049">
        <ele>140.49</ele>
        <time>2026-05-13T09:21:42Z</time>
      </trkpt>
      <trkpt lat="44.91599" lon="1.84046">
        <ele>140.49</ele>
        <time>2026-05-13T09:21:43Z</time>
      </trkpt>
      <trkpt lat="44.91598" lon="1.84043">
        <ele>140.49</ele>
        <time>2026-05-13T09:21:44Z</time>
      </trkpt>
      <trkpt lat="44.91597" lon="1.84042">
        <ele>140.49</ele>
        <time>2026-05-13T09:21:45Z</time>
      </trkpt>
      <trkpt lat="44.91596" lon="1.8404">
        <ele>140.49</ele>
        <time>2026-05-13T09:21:46Z</time>
      </trkpt>
      <trkpt lat="44.91594" lon="1.84039">
        <ele>140.49</ele>
        <time>2026-05-13T09:21:47Z</time>
      </trkpt>
      <trkpt lat="44.91593" lon="1.84037">
        <ele>140.49</ele>
        <time>2026-05-13T09:21:48Z</time>
      </trkpt>
      <trkpt lat="44.91592" lon="1.84035">
        <ele>140.49</ele>
        <time>2026-05-13T09:21:49Z</time>
      </trkpt>
      <trkpt lat="44.91591" lon="1.84034">
        <ele>140.49</ele>
        <time>2026-05-13T09:21:50Z</time>
      </trkpt>
      <trkpt lat="44.91591" lon="1.84032">
        <ele>140.49</ele>
        <time>2026-05-13T09:21:51Z</time>
      </trkpt>
      <trkpt lat="44.9159" lon="1.84031">
        <ele>140.49</ele>
        <time>2026-05-13T09:21:52Z</time>
      </trkpt>
      <trkpt lat="44.91582" lon="1.84003">
        <ele>140.01</ele>
        <time>2026-05-13T09:22:08Z</time>
      </trkpt>
      <trkpt lat="44.91582" lon="1.84001">
        <ele>140.01</ele>
        <time>2026-05-13T09:22:09Z</time>
      </trkpt>
      <trkpt lat="44.91574" lon="1.8397">
        <ele>140.01</ele>
        <time>2026-05-13T09:22:25Z</time>
      </trkpt>
      <trkpt lat="44.91565" lon="1.83946">
        <ele>140.01</ele>
        <time>2026-05-13T09:22:39Z</time>
      </trkpt>
      <trkpt lat="44.91564" lon="1.83943">
        <ele>140.01</ele>
        <time>2026-05-13T09:22:42Z</time>
      </trkpt>
      <trkpt lat="44.91564" lon="1.83942">
        <ele>140.01</ele>
        <time>2026-05-13T09:22:43Z</time>
      </trkpt>
      <trkpt lat="44.91558" lon="1.83938">
        <ele>140.01</ele>
        <time>2026-05-13T09:22:55Z</time>
      </trkpt>
      <trkpt lat="44.91557" lon="1.83939">
        <ele>140.01</ele>
        <time>2026-05-13T09:23:14Z</time>
      </trkpt>
      <trkpt lat="44.91553" lon="1.83935">
        <ele>140.01</ele>
        <time>2026-05-13T09:23:39Z</time>
      </trkpt>
      <trkpt lat="44.91553" lon="1.83933">
        <ele>140.01</ele>
        <time>2026-05-13T09:23:40Z</time>
      </trkpt>
      <trkpt lat="44.91549" lon="1.83919">
        <ele>139.53</ele>
        <time>2026-05-13T09:23:48Z</time>
      </trkpt>
      <trkpt lat="44.9155" lon="1.83908">
        <ele>139.53</ele>
        <time>2026-05-13T09:23:58Z</time>
      </trkpt>
      <trkpt lat="44.9155" lon="1.83906">
        <ele>139.05</ele>
        <time>2026-05-13T09:23:59Z</time>
      </trkpt>
      <trkpt lat="44.91551" lon="1.83897">
        <ele>139.05</ele>
        <time>2026-05-13T09:24:09Z</time>
      </trkpt>
      <trkpt lat="44.91552" lon="1.83895">
        <ele>139.05</ele>
        <time>2026-05-13T09:24:10Z</time>
      </trkpt>
      <trkpt lat="44.91546" lon="1.83892">
        <ele>139.05</ele>
        <time>2026-05-13T09:24:17Z</time>
      </trkpt>
      <trkpt lat="44.91541" lon="1.83886">
        <ele>139.05</ele>
        <time>2026-05-13T09:24:26Z</time>
      </trkpt>
      <trkpt lat="44.9154" lon="1.83884">
        <ele>139.05</ele>
        <time>2026-05-13T09:24:27Z</time>
      </trkpt>
      <trkpt lat="44.91539" lon="1.83883">
        <ele>139.05</ele>
        <time>2026-05-13T09:24:28Z</time>
      </trkpt>
      <trkpt lat="44.91531" lon="1.83859">
        <ele>139.05</ele>
        <time>2026-05-13T09:24:43Z</time>
      </trkpt>
      <trkpt lat="44.91521" lon="1.83827">
        <ele>139.05</ele>
        <time>2026-05-13T09:24:58Z</time>
      </trkpt>
      <trkpt lat="44.91513" lon="1.83807">
        <ele>139.05</ele>
        <time>2026-05-13T09:25:10Z</time>
      </trkpt>
      <trkpt lat="44.91512" lon="1.83804">
        <ele>139.05</ele>
        <time>2026-05-13T09:25:12Z</time>
      </trkpt>
      <trkpt lat="44.91511" lon="1.83802">
        <ele>139.05</ele>
        <time>2026-05-13T09:25:13Z</time>
      </trkpt>
      <trkpt lat="44.91504" lon="1.83789">
        <ele>139.05</ele>
        <time>2026-05-13T09:25:28Z</time>
      </trkpt>
      <trkpt lat="44.91506" lon="1.83787">
        <ele>139.05</ele>
        <time>2026-05-13T09:25:42Z</time>
      </trkpt>
      <trkpt lat="44.91511" lon="1.83797">
        <ele>139.05</ele>
        <time>2026-05-13T09:26:22Z</time>
      </trkpt>
      <trkpt lat="44.91511" lon="1.83812">
        <ele>139.05</ele>
        <time>2026-05-13T09:26:34Z</time>
      </trkpt>
      <trkpt lat="44.9151" lon="1.83816">
        <ele>139.05</ele>
        <time>2026-05-13T09:26:39Z</time>
      </trkpt>
      <trkpt lat="44.91523" lon="1.83825">
        <ele>140.01</ele>
        <time>2026-05-13T09:26:52Z</time>
      </trkpt>
      <trkpt lat="44.91527" lon="1.83851">
        <ele>139.05</ele>
        <time>2026-05-13T09:27:05Z</time>
      </trkpt>
      <trkpt lat="44.91537" lon="1.83871">
        <ele>139.05</ele>
        <time>2026-05-13T09:27:15Z</time>
      </trkpt>
      <trkpt lat="44.91545" lon="1.83887">
        <ele>139.05</ele>
        <time>2026-05-13T09:27:27Z</time>
      </trkpt>
      <trkpt lat="44.91546" lon="1.83886">
        <ele>139.05</ele>
        <time>2026-05-13T09:27:28Z</time>
      </trkpt>
      <trkpt lat="44.9155" lon="1.83882">
        <ele>139.05</ele>
        <time>2026-05-13T09:27:32Z</time>
      </trkpt>
      <trkpt lat="44.91557" lon="1.8387">
        <ele>139.05</ele>
        <time>2026-05-13T09:27:47Z</time>
      </trkpt>
      <trkpt lat="44.91556" lon="1.83868">
        <ele>139.05</ele>
        <time>2026-05-13T09:27:50Z</time>
      </trkpt>
      <trkpt lat="44.91552" lon="1.83861">
        <ele>138.57</ele>
        <time>2026-05-13T09:27:56Z</time>
      </trkpt>
      <trkpt lat="44.91549" lon="1.83847">
        <ele>139.05</ele>
        <time>2026-05-13T09:28:11Z</time>
      </trkpt>
      <trkpt lat="44.91547" lon="1.83838">
        <ele>139.05</ele>
        <time>2026-05-13T09:28:31Z</time>
      </trkpt>
      <trkpt lat="44.91548" lon="1.83837">
        <ele>139.05</ele>
        <time>2026-05-13T09:28:32Z</time>
      </trkpt>
      <trkpt lat="44.91553" lon="1.83842">
        <ele>139.05</ele>
        <time>2026-05-13T09:28:39Z</time>
      </trkpt>
      <trkpt lat="44.91559" lon="1.83833">
        <ele>138.57</ele>
        <time>2026-05-13T09:28:51Z</time>
      </trkpt>
      <trkpt lat="44.91558" lon="1.83834">
        <ele>138.57</ele>
        <time>2026-05-13T09:29:18Z</time>
      </trkpt>
      <trkpt lat="44.91567" lon="1.83824">
        <ele>138.57</ele>
        <time>2026-05-13T09:29:28Z</time>
      </trkpt>
      <trkpt lat="44.91574" lon="1.83819">
        <ele>138.57</ele>
        <time>2026-05-13T09:29:35Z</time>
      </trkpt>
      <trkpt lat="44.9159" lon="1.83845">
        <ele>138.57</ele>
        <time>2026-05-13T09:29:49Z</time>
      </trkpt>
      <trkpt lat="44.91583" lon="1.83851">
        <ele>140.01</ele>
        <time>2026-05-13T09:29:57Z</time>
      </trkpt>
      <trkpt lat="44.91565" lon="1.83868">
        <ele>140.01</ele>
        <time>2026-05-13T09:30:12Z</time>
      </trkpt>
      <trkpt lat="44.91548" lon="1.83879">
        <ele>140.01</ele>
        <time>2026-05-13T09:30:26Z</time>
      </trkpt>
      <trkpt lat="44.91544" lon="1.83883">
        <ele>140.01</ele>
        <time>2026-05-13T09:30:30Z</time>
      </trkpt>
      <trkpt lat="44.91535" lon="1.83893">
        <ele>140.49</ele>
        <time>2026-05-13T09:30:42Z</time>
      </trkpt>
      <trkpt lat="44.91534" lon="1.83897">
        <ele>135.68</ele>
        <time>2026-05-13T09:30:54Z</time>
      </trkpt>
      <trkpt lat="44.91534" lon="1.83897">
        <ele>143.37</ele>
        <time>2026-05-13T09:30:55Z</time>
      </trkpt>
      <trkpt lat="44.91533" lon="1.83897">
        <ele>140.01</ele>
        <time>2026-05-13T09:30:57Z</time>
      </trkpt>
      <trkpt lat="44.91533" lon="1.83898">
        <ele>140.01</ele>
        <time>2026-05-13T09:30:58Z</time>
      </trkpt>
      <trkpt lat="44.91531" lon="1.83899">
        <ele>140.01</ele>
        <time>2026-05-13T09:31:11Z</time>
      </trkpt>
      <trkpt lat="44.91536" lon="1.83897">
        <ele>139.53</ele>
        <time>2026-05-13T09:31:23Z</time>
      </trkpt>
      <trkpt lat="44.91534" lon="1.83903">
        <ele>139.53</ele>
        <time>2026-05-13T09:31:37Z</time>
      </trkpt>
      <trkpt lat="44.91533" lon="1.83885">
        <ele>140.01</ele>
        <time>2026-05-13T09:33:52Z</time>
      </trkpt>
      <trkpt lat="44.91534" lon="1.83894">
        <ele>139.05</ele>
        <time>2026-05-13T09:34:08Z</time>
      </trkpt>
      <trkpt lat="44.91533" lon="1.83899">
        <ele>139.05</ele>
        <time>2026-05-13T09:34:35Z</time>
      </trkpt>
      <trkpt lat="44.91533" lon="1.83903">
        <ele>140.97</ele>
        <time>2026-05-13T09:34:48Z</time>
      </trkpt>
      <trkpt lat="44.91533" lon="1.839">
        <ele>139.53</ele>
        <time>2026-05-13T09:35:20Z</time>
      </trkpt>
      <trkpt lat="44.91533" lon="1.83898">
        <ele>139.53</ele>
        <time>2026-05-13T09:35:52Z</time>
      </trkpt>
      <trkpt lat="44.91531" lon="1.83907">
        <ele>140.97</ele>
        <time>2026-05-13T09:36:20Z</time>
      </trkpt>
      <trkpt lat="44.91529" lon="1.83915">
        <ele>140.97</ele>
        <time>2026-05-13T09:36:46Z</time>
      </trkpt>
      <trkpt lat="44.9153" lon="1.83913">
        <ele>140.97</ele>
        <time>2026-05-13T09:37:21Z</time>
      </trkpt>
      <trkpt lat="44.91529" lon="1.83906">
        <ele>140.97</ele>
        <time>2026-05-13T09:37:36Z</time>
      </trkpt>
      <trkpt lat="44.91529" lon="1.83906">
        <ele>139.53</ele>
        <time>2026-05-13T09:37:41Z</time>
      </trkpt>
      <trkpt lat="44.91526" lon="1.83922">
        <ele>139.53</ele>
        <time>2026-05-13T09:38:07Z</time>
      </trkpt>
      <trkpt lat="44.91524" lon="1.83931">
        <ele>139.05</ele>
        <time>2026-05-13T09:38:47Z</time>
      </trkpt>
      <trkpt lat="44.91523" lon="1.83925">
        <ele>139.05</ele>
        <time>2026-05-13T09:39:12Z</time>
      </trkpt>
      <trkpt lat="44.91523" lon="1.83925">
        <ele>139.05</ele>
        <time>2026-05-13T09:39:40Z</time>
      </trkpt>
      <trkpt lat="44.91528" lon="1.83913">
        <ele>139.05</ele>
        <time>2026-05-13T09:40:06Z</time>
      </trkpt>
      <trkpt lat="44.91528" lon="1.83912">
        <ele>139.05</ele>
        <time>2026-05-13T09:40:29Z</time>
      </trkpt>
      <trkpt lat="44.91528" lon="1.83909">
        <ele>139.05</ele>
        <time>2026-05-13T09:40:43Z</time>
      </trkpt>
      <trkpt lat="44.91531" lon="1.83904">
        <ele>139.05</ele>
        <time>2026-05-13T09:41:08Z</time>
      </trkpt>
      <trkpt lat="44.91529" lon="1.83903">
        <ele>138.57</ele>
        <time>2026-05-13T09:41:30Z</time>
      </trkpt>
      <trkpt lat="44.91526" lon="1.83905">
        <ele>138.57</ele>
        <time>2026-05-13T09:41:33Z</time>
      </trkpt>
      <trkpt lat="44.9152" lon="1.839">
        <ele>138.57</ele>
        <time>2026-05-13T09:41:41Z</time>
      </trkpt>
      <trkpt lat="44.91515" lon="1.83903">
        <ele>138.57</ele>
        <time>2026-05-13T09:41:52Z</time>
      </trkpt>
      <trkpt lat="44.91499" lon="1.83919">
        <ele>138.57</ele>
        <time>2026-05-13T09:42:04Z</time>
      </trkpt>
      <trkpt lat="44.91498" lon="1.83919">
        <ele>138.57</ele>
        <time>2026-05-13T09:42:05Z</time>
      </trkpt>
      <trkpt lat="44.91497" lon="1.83918">
        <ele>138.57</ele>
        <time>2026-05-13T09:42:06Z</time>
      </trkpt>
      <trkpt lat="44.91485" lon="1.83929">
        <ele>138.57</ele>
        <time>2026-05-13T09:42:20Z</time>
      </trkpt>
      <trkpt lat="44.91479" lon="1.83932">
        <ele>138.57</ele>
        <time>2026-05-13T09:42:26Z</time>
      </trkpt>
      <trkpt lat="44.91476" lon="1.83936">
        <ele>138.57</ele>
        <time>2026-05-13T09:42:30Z</time>
      </trkpt>
      <trkpt lat="44.91475" lon="1.83944">
        <ele>138.57</ele>
        <time>2026-05-13T09:42:35Z</time>
      </trkpt>
      <trkpt lat="44.91474" lon="1.83945">
        <ele>138.57</ele>
        <time>2026-05-13T09:42:36Z</time>
      </trkpt>
      <trkpt lat="44.91463" lon="1.83959">
        <ele>140.01</ele>
        <time>2026-05-13T09:42:49Z</time>
      </trkpt>
      <trkpt lat="44.91456" lon="1.83971">
        <ele>140.01</ele>
        <time>2026-05-13T09:42:55Z</time>
      </trkpt>
      <trkpt lat="44.91446" lon="1.83981">
        <ele>140.49</ele>
        <time>2026-05-13T09:43:07Z</time>
      </trkpt>
      <trkpt lat="44.91442" lon="1.83988">
        <ele>140.49</ele>
        <time>2026-05-13T09:43:10Z</time>
      </trkpt>
      <trkpt lat="44.91432" lon="1.84006">
        <ele>140.49</ele>
        <time>2026-05-13T09:43:19Z</time>
      </trkpt>
      <trkpt lat="44.91433" lon="1.84008">
        <ele>140.49</ele>
        <time>2026-05-13T09:43:20Z</time>
      </trkpt>
      <trkpt lat="44.91434" lon="1.84009">
        <ele>140.49</ele>
        <time>2026-05-13T09:43:21Z</time>
      </trkpt>
      <trkpt lat="44.91439" lon="1.84006">
        <ele>140.49</ele>
        <time>2026-05-13T09:43:36Z</time>
      </trkpt>
      <trkpt lat="44.91445" lon="1.84004">
        <ele>140.49</ele>
        <time>2026-05-13T09:43:59Z</time>
      </trkpt>
      <trkpt lat="44.91446" lon="1.84002">
        <ele>140.49</ele>
        <time>2026-05-13T09:44:16Z</time>
      </trkpt>
      <trkpt lat="44.91453" lon="1.84007">
        <ele>140.97</ele>
        <time>2026-05-13T09:44:47Z</time>
      </trkpt>
      <trkpt lat="44.91451" lon="1.84002">
        <ele>140.97</ele>
        <time>2026-05-13T09:45:07Z</time>
      </trkpt>
      <trkpt lat="44.91449" lon="1.84005">
        <ele>140.01</ele>
        <time>2026-05-13T09:45:35Z</time>
      </trkpt>
      <trkpt lat="44.91444" lon="1.84007">
        <ele>140.01</ele>
        <time>2026-05-13T09:46:08Z</time>
      </trkpt>
      <trkpt lat="44.91439" lon="1.84001">
        <ele>140.01</ele>
        <time>2026-05-13T09:46:42Z</time>
      </trkpt>
      <trkpt lat="44.91439" lon="1.84">
        <ele>140.01</ele>
        <time>2026-05-13T09:47:18Z</time>
      </trkpt>
      <trkpt lat="44.91445" lon="1.84002">
        <ele>140.01</ele>
        <time>2026-05-13T09:47:52Z</time>
      </trkpt>
      <trkpt lat="44.91442" lon="1.83997">
        <ele>140.01</ele>
        <time>2026-05-13T09:48:27Z</time>
      </trkpt>
      <trkpt lat="44.91446" lon="1.84">
        <ele>140.49</ele>
        <time>2026-05-13T09:48:57Z</time>
      </trkpt>
      <trkpt lat="44.91441" lon="1.84">
        <ele>140.49</ele>
        <time>2026-05-13T09:49:22Z</time>
      </trkpt>
      <trkpt lat="44.91436" lon="1.84001">
        <ele>140.49</ele>
        <time>2026-05-13T09:49:52Z</time>
      </trkpt>
      <trkpt lat="44.91436" lon="1.83992">
        <ele>140.01</ele>
        <time>2026-05-13T09:50:29Z</time>
      </trkpt>
      <trkpt lat="44.91434" lon="1.83986">
        <ele>140.01</ele>
        <time>2026-05-13T09:51:14Z</time>
      </trkpt>
      <trkpt lat="44.91432" lon="1.83985">
        <ele>139.53</ele>
        <time>2026-05-13T09:51:55Z</time>
      </trkpt>
      <trkpt lat="44.91434" lon="1.8399">
        <ele>139.05</ele>
        <time>2026-05-13T09:52:38Z</time>
      </trkpt>
      <trkpt lat="44.9144" lon="1.83997">
        <ele>139.05</ele>
        <time>2026-05-13T09:53:15Z</time>
      </trkpt>
      <trkpt lat="44.91441" lon="1.84003">
        <ele>138.57</ele>
        <time>2026-05-13T09:53:49Z</time>
      </trkpt>
      <trkpt lat="44.91441" lon="1.84001">
        <ele>138.57</ele>
        <time>2026-05-13T09:54:21Z</time>
      </trkpt>
      <trkpt lat="44.91444" lon="1.84009">
        <ele>138.57</ele>
        <time>2026-05-13T09:54:58Z</time>
      </trkpt>
      <trkpt lat="44.91452" lon="1.84018">
        <ele>138.57</ele>
        <time>2026-05-13T09:55:19Z</time>
      </trkpt>
      <trkpt lat="44.91457" lon="1.84013">
        <ele>139.05</ele>
        <time>2026-05-13T09:55:51Z</time>
      </trkpt>
      <trkpt lat="44.91455" lon="1.84023">
        <ele>139.05</ele>
        <time>2026-05-13T09:56:19Z</time>
      </trkpt>
      <trkpt lat="44.91456" lon="1.84021">
        <ele>139.05</ele>
        <time>2026-05-13T09:56:54Z</time>
      </trkpt>
      <trkpt lat="44.91449" lon="1.84003">
        <ele>138.09</ele>
        <time>2026-05-13T09:57:16Z</time>
      </trkpt>
      <trkpt lat="44.91447" lon="1.84005">
        <ele>139.05</ele>
        <time>2026-05-13T09:57:45Z</time>
      </trkpt>
      <trkpt lat="44.91445" lon="1.84004">
        <ele>139.05</ele>
        <time>2026-05-13T09:58:16Z</time>
      </trkpt>
      <trkpt lat="44.91441" lon="1.84001">
        <ele>138.57</ele>
        <time>2026-05-13T09:58:46Z</time>
      </trkpt>
      <trkpt lat="44.91435" lon="1.83999">
        <ele>138.57</ele>
        <time>2026-05-13T09:59:17Z</time>
      </trkpt>
      <trkpt lat="44.91438" lon="1.84002">
        <ele>138.57</ele>
        <time>2026-05-13T09:59:54Z</time>
      </trkpt>
      <trkpt lat="44.91437" lon="1.84004">
        <ele>138.57</ele>
        <time>2026-05-13T10:00:29Z</time>
      </trkpt>
      <trkpt lat="44.91441" lon="1.84009">
        <ele>138.09</ele>
        <time>2026-05-13T10:01:03Z</time>
      </trkpt>
      <trkpt lat="44.91444" lon="1.84011">
        <ele>138.09</ele>
        <time>2026-05-13T10:01:37Z</time>
      </trkpt>
      <trkpt lat="44.91443" lon="1.8401">
        <ele>138.09</ele>
        <time>2026-05-13T10:02:11Z</time>
      </trkpt>
      <trkpt lat="44.91434" lon="1.84018">
        <ele>138.09</ele>
        <time>2026-05-13T10:02:33Z</time>
      </trkpt>
      <trkpt lat="44.91437" lon="1.8401">
        <ele>138.09</ele>
        <time>2026-05-13T10:03:01Z</time>
      </trkpt>
      <trkpt lat="44.91435" lon="1.84006">
        <ele>138.57</ele>
        <time>2026-05-13T10:03:28Z</time>
      </trkpt>
      <trkpt lat="44.91432" lon="1.84006">
        <ele>138.57</ele>
        <time>2026-05-13T10:03:53Z</time>
      </trkpt>
      <trkpt lat="44.91438" lon="1.84003">
        <ele>138.57</ele>
        <time>2026-05-13T10:04:19Z</time>
      </trkpt>
      <trkpt lat="44.91441" lon="1.84004">
        <ele>138.57</ele>
        <time>2026-05-13T10:04:56Z</time>
      </trkpt>
      <trkpt lat="44.91439" lon="1.84009">
        <ele>137.61</ele>
        <time>2026-05-13T10:05:16Z</time>
      </trkpt>
      <trkpt lat="44.91446" lon="1.84011">
        <ele>137.61</ele>
        <time>2026-05-13T10:05:54Z</time>
      </trkpt>
      <trkpt lat="44.91443" lon="1.84007">
        <ele>137.61</ele>
        <time>2026-05-13T10:06:21Z</time>
      </trkpt>
      <trkpt lat="44.9144" lon="1.84008">
        <ele>137.13</ele>
        <time>2026-05-13T10:06:55Z</time>
      </trkpt>
      <trkpt lat="44.91436" lon="1.84008">
        <ele>138.09</ele>
        <time>2026-05-13T10:07:25Z</time>
      </trkpt>
      <trkpt lat="44.91441" lon="1.84005">
        <ele>138.09</ele>
        <time>2026-05-13T10:07:59Z</time>
      </trkpt>
      <trkpt lat="44.91447" lon="1.84006">
        <ele>138.09</ele>
        <time>2026-05-13T10:08:30Z</time>
      </trkpt>
      <trkpt lat="44.91439" lon="1.84004">
        <ele>138.09</ele>
        <time>2026-05-13T10:09:00Z</time>
      </trkpt>
      <trkpt lat="44.91445" lon="1.84005">
        <ele>138.09</ele>
        <time>2026-05-13T10:09:25Z</time>
      </trkpt>
      <trkpt lat="44.91445" lon="1.84012">
        <ele>138.09</ele>
        <time>2026-05-13T10:09:49Z</time>
      </trkpt>
      <trkpt lat="44.91444" lon="1.84013">
        <ele>138.09</ele>
        <time>2026-05-13T10:10:18Z</time>
      </trkpt>
      <trkpt lat="44.9144" lon="1.84012">
        <ele>137.61</ele>
        <time>2026-05-13T10:10:44Z</time>
      </trkpt>
      <trkpt lat="44.91441" lon="1.84008">
        <ele>137.61</ele>
        <time>2026-05-13T10:11:14Z</time>
      </trkpt>
      <trkpt lat="44.91441" lon="1.84012">
        <ele>137.61</ele>
        <time>2026-05-13T10:11:46Z</time>
      </trkpt>
      <trkpt lat="44.91442" lon="1.84013">
        <ele>137.61</ele>
        <time>2026-05-13T10:12:14Z</time>
      </trkpt>
      <trkpt lat="44.91431" lon="1.84002">
        <ele>137.13</ele>
        <time>2026-05-13T10:12:44Z</time>
      </trkpt>
      <trkpt lat="44.91445" lon="1.84005">
        <ele>136.64</ele>
        <time>2026-05-13T10:13:19Z</time>
      </trkpt>
      <trkpt lat="44.91441" lon="1.84006">
        <ele>136.64</ele>
        <time>2026-05-13T10:13:56Z</time>
      </trkpt>
      <trkpt lat="44.91444" lon="1.84002">
        <ele>136.64</ele>
        <time>2026-05-13T10:14:35Z</time>
      </trkpt>
      <trkpt lat="44.91441" lon="1.84002">
        <ele>136.64</ele>
        <time>2026-05-13T10:15:08Z</time>
      </trkpt>
      <trkpt lat="44.91436" lon="1.84006">
        <ele>136.64</ele>
        <time>2026-05-13T10:15:40Z</time>
      </trkpt>
      <trkpt lat="44.91443" lon="1.84003">
        <ele>136.16</ele>
        <time>2026-05-13T10:16:22Z</time>
      </trkpt>
      <trkpt lat="44.91447" lon="1.84002">
        <ele>136.16</ele>
        <time>2026-05-13T10:16:52Z</time>
      </trkpt>
      <trkpt lat="44.91446" lon="1.84003">
        <ele>137.13</ele>
        <time>2026-05-13T10:17:33Z</time>
      </trkpt>
      <trkpt lat="44.91446" lon="1.84003">
        <ele>136.16</ele>
        <time>2026-05-13T10:17:36Z</time>
      </trkpt>
      <trkpt lat="44.91445" lon="1.84007">
        <ele>136.16</ele>
        <time>2026-05-13T10:18:20Z</time>
      </trkpt>
      <trkpt lat="44.91441" lon="1.83993">
        <ele>136.64</ele>
        <time>2026-05-13T10:18:59Z</time>
      </trkpt>
      <trkpt lat="44.91437" lon="1.84003">
        <ele>138.09</ele>
        <time>2026-05-13T10:19:21Z</time>
      </trkpt>
      <trkpt lat="44.91445" lon="1.83992">
        <ele>138.09</ele>
        <time>2026-05-13T10:19:56Z</time>
      </trkpt>
      <trkpt lat="44.91444" lon="1.83996">
        <ele>138.09</ele>
        <time>2026-05-13T10:20:15Z</time>
      </trkpt>
      <trkpt lat="44.91445" lon="1.84002">
        <ele>138.57</ele>
        <time>2026-05-13T10:20:37Z</time>
      </trkpt>
      <trkpt lat="44.91449" lon="1.84004">
        <ele>138.57</ele>
        <time>2026-05-13T10:21:15Z</time>
      </trkpt>
      <trkpt lat="44.9145" lon="1.84">
        <ele>138.09</ele>
        <time>2026-05-13T10:21:33Z</time>
      </trkpt>
      <trkpt lat="44.91447" lon="1.83993">
        <ele>138.09</ele>
        <time>2026-05-13T10:22:02Z</time>
      </trkpt>
      <trkpt lat="44.91438" lon="1.83992">
        <ele>138.09</ele>
        <time>2026-05-13T10:22:13Z</time>
      </trkpt>
      <trkpt lat="44.91423" lon="1.84006">
        <ele>138.09</ele>
        <time>2026-05-13T10:22:27Z</time>
      </trkpt>
      <trkpt lat="44.91418" lon="1.84012">
        <ele>138.09</ele>
        <time>2026-05-13T10:22:31Z</time>
      </trkpt>
      <trkpt lat="44.91415" lon="1.84016">
        <ele>138.09</ele>
        <time>2026-05-13T10:22:33Z</time>
      </trkpt>
      <trkpt lat="44.91402" lon="1.84025">
        <ele>137.61</ele>
        <time>2026-05-13T10:22:44Z</time>
      </trkpt>
      <trkpt lat="44.914" lon="1.8402">
        <ele>137.61</ele>
        <time>2026-05-13T10:22:51Z</time>
      </trkpt>
      <trkpt lat="44.91397" lon="1.84016">
        <ele>137.61</ele>
        <time>2026-05-13T10:22:54Z</time>
      </trkpt>
      <trkpt lat="44.91396" lon="1.84014">
        <ele>138.09</ele>
        <time>2026-05-13T10:22:55Z</time>
      </trkpt>
      <trkpt lat="44.91395" lon="1.84012">
        <ele>138.09</ele>
        <time>2026-05-13T10:22:56Z</time>
      </trkpt>
      <trkpt lat="44.91394" lon="1.8401">
        <ele>138.09</ele>
        <time>2026-05-13T10:22:57Z</time>
      </trkpt>
      <trkpt lat="44.91393" lon="1.84008">
        <ele>138.09</ele>
        <time>2026-05-13T10:22:58Z</time>
      </trkpt>
      <trkpt lat="44.91392" lon="1.84007">
        <ele>138.09</ele>
        <time>2026-05-13T10:22:59Z</time>
      </trkpt>
      <trkpt lat="44.91392" lon="1.84005">
        <ele>138.09</ele>
        <time>2026-05-13T10:23:00Z</time>
      </trkpt>
      <trkpt lat="44.91383" lon="1.83985">
        <ele>138.09</ele>
        <time>2026-05-13T10:23:13Z</time>
      </trkpt>
      <trkpt lat="44.91373" lon="1.83964">
        <ele>138.09</ele>
        <time>2026-05-13T10:23:27Z</time>
      </trkpt>
      <trkpt lat="44.91366" lon="1.83947">
        <ele>138.09</ele>
        <time>2026-05-13T10:23:38Z</time>
      </trkpt>
      <trkpt lat="44.91361" lon="1.83945">
        <ele>138.09</ele>
        <time>2026-05-13T10:23:44Z</time>
      </trkpt>
      <trkpt lat="44.91338" lon="1.8396">
        <ele>137.61</ele>
        <time>2026-05-13T10:24:02Z</time>
      </trkpt>
      <trkpt lat="44.91322" lon="1.83975">
        <ele>137.13</ele>
        <time>2026-05-13T10:24:16Z</time>
      </trkpt>
      <trkpt lat="44.91303" lon="1.83993">
        <ele>136.64</ele>
        <time>2026-05-13T10:24:32Z</time>
      </trkpt>
      <trkpt lat="44.91295" lon="1.83993">
        <ele>136.64</ele>
        <time>2026-05-13T10:24:41Z</time>
      </trkpt>
      <trkpt lat="44.91295" lon="1.83991">
        <ele>136.64</ele>
        <time>2026-05-13T10:24:42Z</time>
      </trkpt>
      <trkpt lat="44.91293" lon="1.83988">
        <ele>136.64</ele>
        <time>2026-05-13T10:24:45Z</time>
      </trkpt>
      <trkpt lat="44.91291" lon="1.83986">
        <ele>136.64</ele>
        <time>2026-05-13T10:24:46Z</time>
      </trkpt>
      <trkpt lat="44.91272" lon="1.83977">
        <ele>136.64</ele>
        <time>2026-05-13T10:25:01Z</time>
      </trkpt>
      <trkpt lat="44.91262" lon="1.83975">
        <ele>136.64</ele>
        <time>2026-05-13T10:25:08Z</time>
      </trkpt>
      <trkpt lat="44.91261" lon="1.83975">
        <ele>136.64</ele>
        <time>2026-05-13T10:25:09Z</time>
      </trkpt>
      <trkpt lat="44.91246" lon="1.83969">
        <ele>136.64</ele>
        <time>2026-05-13T10:25:22Z</time>
      </trkpt>
      <trkpt lat="44.91226" lon="1.83964">
        <ele>136.16</ele>
        <time>2026-05-13T10:25:37Z</time>
      </trkpt>
      <trkpt lat="44.91217" lon="1.83963">
        <ele>135.68</ele>
        <time>2026-05-13T10:25:50Z</time>
      </trkpt>
      <trkpt lat="44.91197" lon="1.83958">
        <ele>135.68</ele>
        <time>2026-05-13T10:26:05Z</time>
      </trkpt>
      <trkpt lat="44.91177" lon="1.83954">
        <ele>135.68</ele>
        <time>2026-05-13T10:26:21Z</time>
      </trkpt>
      <trkpt lat="44.9115" lon="1.83953">
        <ele>135.68</ele>
        <time>2026-05-13T10:26:39Z</time>
      </trkpt>
      <trkpt lat="44.91127" lon="1.83956">
        <ele>135.68</ele>
        <time>2026-05-13T10:26:57Z</time>
      </trkpt>
      <trkpt lat="44.91109" lon="1.83957">
        <ele>135.68</ele>
        <time>2026-05-13T10:27:11Z</time>
      </trkpt>
      <trkpt lat="44.91108" lon="1.83957">
        <ele>135.68</ele>
        <time>2026-05-13T10:27:12Z</time>
      </trkpt>
      <trkpt lat="44.91106" lon="1.83958">
        <ele>135.68</ele>
        <time>2026-05-13T10:27:13Z</time>
      </trkpt>
      <trkpt lat="44.91085" lon="1.83962">
        <ele>135.68</ele>
        <time>2026-05-13T10:27:29Z</time>
      </trkpt>
      <trkpt lat="44.91083" lon="1.83963">
        <ele>135.68</ele>
        <time>2026-05-13T10:27:30Z</time>
      </trkpt>
      <trkpt lat="44.91082" lon="1.83964">
        <ele>135.2</ele>
        <time>2026-05-13T10:27:31Z</time>
      </trkpt>
      <trkpt lat="44.9108" lon="1.83965">
        <ele>135.2</ele>
        <time>2026-05-13T10:27:32Z</time>
      </trkpt>
      <trkpt lat="44.91079" lon="1.83967">
        <ele>135.2</ele>
        <time>2026-05-13T10:27:33Z</time>
      </trkpt>
      <trkpt lat="44.91078" lon="1.83969">
        <ele>135.2</ele>
        <time>2026-05-13T10:27:34Z</time>
      </trkpt>
      <trkpt lat="44.91062" lon="1.83988">
        <ele>135.2</ele>
        <time>2026-05-13T10:27:51Z</time>
      </trkpt>
      <trkpt lat="44.91055" lon="1.83987">
        <ele>134.72</ele>
        <time>2026-05-13T10:28:15Z</time>
      </trkpt>
      <trkpt lat="44.91056" lon="1.83987">
        <ele>134.72</ele>
        <time>2026-05-13T10:28:41Z</time>
      </trkpt>
      <trkpt lat="44.91049" lon="1.84001">
        <ele>134.72</ele>
        <time>2026-05-13T10:29:06Z</time>
      </trkpt>
      <trkpt lat="44.91028" lon="1.84023">
        <ele>136.16</ele>
        <time>2026-05-13T10:29:25Z</time>
      </trkpt>
      <trkpt lat="44.91001" lon="1.84043">
        <ele>135.68</ele>
        <time>2026-05-13T10:29:44Z</time>
      </trkpt>
      <trkpt lat="44.90984" lon="1.8405">
        <ele>135.68</ele>
        <time>2026-05-13T10:30:00Z</time>
      </trkpt>
      <trkpt lat="44.90968" lon="1.8404">
        <ele>137.13</ele>
        <time>2026-05-13T10:30:13Z</time>
      </trkpt>
      <trkpt lat="44.90966" lon="1.84037">
        <ele>137.13</ele>
        <time>2026-05-13T10:30:15Z</time>
      </trkpt>
      <trkpt lat="44.90953" lon="1.84025">
        <ele>137.61</ele>
        <time>2026-05-13T10:30:27Z</time>
      </trkpt>
      <trkpt lat="44.90952" lon="1.84022">
        <ele>137.61</ele>
        <time>2026-05-13T10:30:44Z</time>
      </trkpt>
      <trkpt lat="44.9095" lon="1.84016">
        <ele>137.61</ele>
        <time>2026-05-13T10:31:12Z</time>
      </trkpt>
      <trkpt lat="44.9094" lon="1.84007">
        <ele>137.61</ele>
        <time>2026-05-13T10:31:26Z</time>
      </trkpt>
      <trkpt lat="44.90925" lon="1.83992">
        <ele>137.61</ele>
        <time>2026-05-13T10:31:40Z</time>
      </trkpt>
      <trkpt lat="44.90902" lon="1.83963">
        <ele>138.09</ele>
        <time>2026-05-13T10:32:03Z</time>
      </trkpt>
      <trkpt lat="44.90881" lon="1.83932">
        <ele>138.09</ele>
        <time>2026-05-13T10:32:22Z</time>
      </trkpt>
      <trkpt lat="44.90861" lon="1.83914">
        <ele>138.09</ele>
        <time>2026-05-13T10:32:39Z</time>
      </trkpt>
      <trkpt lat="44.9086" lon="1.83916">
        <ele>138.09</ele>
        <time>2026-05-13T10:32:46Z</time>
      </trkpt>
      <trkpt lat="44.90859" lon="1.83916">
        <ele>138.09</ele>
        <time>2026-05-13T10:32:47Z</time>
      </trkpt>
      <trkpt lat="44.90858" lon="1.83917">
        <ele>138.09</ele>
        <time>2026-05-13T10:32:48Z</time>
      </trkpt>
      <trkpt lat="44.90857" lon="1.83917">
        <ele>138.09</ele>
        <time>2026-05-13T10:32:49Z</time>
      </trkpt>
      <trkpt lat="44.90856" lon="1.83917">
        <ele>138.09</ele>
        <time>2026-05-13T10:32:50Z</time>
      </trkpt>
      <trkpt lat="44.90838" lon="1.83926">
        <ele>138.09</ele>
        <time>2026-05-13T10:33:04Z</time>
      </trkpt>
      <trkpt lat="44.90813" lon="1.83945">
        <ele>138.09</ele>
        <time>2026-05-13T10:33:22Z</time>
      </trkpt>
      <trkpt lat="44.90794" lon="1.83965">
        <ele>138.57</ele>
        <time>2026-05-13T10:33:39Z</time>
      </trkpt>
      <trkpt lat="44.90777" lon="1.8398">
        <ele>138.57</ele>
        <time>2026-05-13T10:33:55Z</time>
      </trkpt>
      <trkpt lat="44.90753" lon="1.84001">
        <ele>138.57</ele>
        <time>2026-05-13T10:34:13Z</time>
      </trkpt>
      <trkpt lat="44.90734" lon="1.84013">
        <ele>139.05</ele>
        <time>2026-05-13T10:34:29Z</time>
      </trkpt>
      <trkpt lat="44.90712" lon="1.84027">
        <ele>139.05</ele>
        <time>2026-05-13T10:34:47Z</time>
      </trkpt>
      <trkpt lat="44.90687" lon="1.84044">
        <ele>139.05</ele>
        <time>2026-05-13T10:35:04Z</time>
      </trkpt>
      <trkpt lat="44.90657" lon="1.84057">
        <ele>139.05</ele>
        <time>2026-05-13T10:35:27Z</time>
      </trkpt>
      <trkpt lat="44.90635" lon="1.84063">
        <ele>139.05</ele>
        <time>2026-05-13T10:35:45Z</time>
      </trkpt>
      <trkpt lat="44.90611" lon="1.84073">
        <ele>139.53</ele>
        <time>2026-05-13T10:36:05Z</time>
      </trkpt>
      <trkpt lat="44.90603" lon="1.8409">
        <ele>140.01</ele>
        <time>2026-05-13T10:36:15Z</time>
      </trkpt>
      <trkpt lat="44.90584" lon="1.84106">
        <ele>140.49</ele>
        <time>2026-05-13T10:36:31Z</time>
      </trkpt>
      <trkpt lat="44.90571" lon="1.84113">
        <ele>140.97</ele>
        <time>2026-05-13T10:36:47Z</time>
      </trkpt>
      <trkpt lat="44.90574" lon="1.84113">
        <ele>141.45</ele>
        <time>2026-05-13T10:37:12Z</time>
      </trkpt>
      <trkpt lat="44.90556" lon="1.84109">
        <ele>141.93</ele>
        <time>2026-05-13T10:37:29Z</time>
      </trkpt>
      <trkpt lat="44.90551" lon="1.84107">
        <ele>141.93</ele>
        <time>2026-05-13T10:37:33Z</time>
      </trkpt>
      <trkpt lat="44.90545" lon="1.84106">
        <ele>142.41</ele>
        <time>2026-05-13T10:37:39Z</time>
      </trkpt>
      <trkpt lat="44.90544" lon="1.84105">
        <ele>142.41</ele>
        <time>2026-05-13T10:37:40Z</time>
      </trkpt>
      <trkpt lat="44.90524" lon="1.84096">
        <ele>145.3</ele>
        <time>2026-05-13T10:37:57Z</time>
      </trkpt>
      <trkpt lat="44.90507" lon="1.84088">
        <ele>147.7</ele>
        <time>2026-05-13T10:38:15Z</time>
      </trkpt>
      <trkpt lat="44.90492" lon="1.84089">
        <ele>149.14</ele>
        <time>2026-05-13T10:38:32Z</time>
      </trkpt>
      <trkpt lat="44.90475" lon="1.84088">
        <ele>151.54</ele>
        <time>2026-05-13T10:38:49Z</time>
      </trkpt>
      <trkpt lat="44.9046" lon="1.84088">
        <ele>154.91</ele>
        <time>2026-05-13T10:39:06Z</time>
      </trkpt>
      <trkpt lat="44.90442" lon="1.84096">
        <ele>157.31</ele>
        <time>2026-05-13T10:39:25Z</time>
      </trkpt>
      <trkpt lat="44.90425" lon="1.84112">
        <ele>159.24</ele>
        <time>2026-05-13T10:39:44Z</time>
      </trkpt>
      <trkpt lat="44.90409" lon="1.84122">
        <ele>162.12</ele>
        <time>2026-05-13T10:40:02Z</time>
      </trkpt>
      <trkpt lat="44.90405" lon="1.84122">
        <ele>163.08</ele>
        <time>2026-05-13T10:40:07Z</time>
      </trkpt>
      <trkpt lat="44.90392" lon="1.84125">
        <ele>165</ele>
        <time>2026-05-13T10:40:22Z</time>
      </trkpt>
      <trkpt lat="44.90386" lon="1.84125">
        <ele>166.45</ele>
        <time>2026-05-13T10:40:29Z</time>
      </trkpt>
      <trkpt lat="44.90375" lon="1.84114">
        <ele>167.89</ele>
        <time>2026-05-13T10:40:43Z</time>
      </trkpt>
      <trkpt lat="44.90364" lon="1.84109">
        <ele>170.77</ele>
        <time>2026-05-13T10:40:57Z</time>
      </trkpt>
      <trkpt lat="44.90347" lon="1.84112">
        <ele>171.73</ele>
        <time>2026-05-13T10:41:12Z</time>
      </trkpt>
      <trkpt lat="44.90332" lon="1.84118">
        <ele>173.66</ele>
        <time>2026-05-13T10:41:27Z</time>
      </trkpt>
      <trkpt lat="44.90318" lon="1.84123">
        <ele>175.1</ele>
        <time>2026-05-13T10:41:43Z</time>
      </trkpt>
      <trkpt lat="44.90303" lon="1.84129">
        <ele>177.98</ele>
        <time>2026-05-13T10:42:01Z</time>
      </trkpt>
      <trkpt lat="44.9029" lon="1.84144">
        <ele>179.42</ele>
        <time>2026-05-13T10:42:17Z</time>
      </trkpt>
      <trkpt lat="44.90285" lon="1.84162">
        <ele>181.35</ele>
        <time>2026-05-13T10:42:31Z</time>
      </trkpt>
      <trkpt lat="44.90284" lon="1.84172">
        <ele>181.83</ele>
        <time>2026-05-13T10:42:37Z</time>
      </trkpt>
      <trkpt lat="44.90284" lon="1.84174">
        <ele>181.83</ele>
        <time>2026-05-13T10:42:38Z</time>
      </trkpt>
      <trkpt lat="44.90289" lon="1.84199">
        <ele>183.27</ele>
        <time>2026-05-13T10:42:54Z</time>
      </trkpt>
      <trkpt lat="44.90296" lon="1.84219">
        <ele>184.23</ele>
        <time>2026-05-13T10:43:10Z</time>
      </trkpt>
      <trkpt lat="44.90315" lon="1.84237">
        <ele>184.23</ele>
        <time>2026-05-13T10:43:30Z</time>
      </trkpt>
      <trkpt lat="44.90335" lon="1.84252">
        <ele>184.71</ele>
        <time>2026-05-13T10:43:47Z</time>
      </trkpt>
      <trkpt lat="44.90348" lon="1.84258">
        <ele>182.79</ele>
        <time>2026-05-13T10:44:05Z</time>
      </trkpt>
      <trkpt lat="44.90346" lon="1.84255">
        <ele>184.71</ele>
        <time>2026-05-13T10:44:10Z</time>
      </trkpt>
      <trkpt lat="44.90338" lon="1.84249">
        <ele>186.63</ele>
        <time>2026-05-13T10:44:26Z</time>
      </trkpt>
      <trkpt lat="44.90325" lon="1.84253">
        <ele>189.52</ele>
        <time>2026-05-13T10:44:42Z</time>
      </trkpt>
      <trkpt lat="44.90312" lon="1.8426">
        <ele>192.4</ele>
        <time>2026-05-13T10:45:00Z</time>
      </trkpt>
      <trkpt lat="44.903" lon="1.84259">
        <ele>194.32</ele>
        <time>2026-05-13T10:45:17Z</time>
      </trkpt>
      <trkpt lat="44.90287" lon="1.84252">
        <ele>196.25</ele>
        <time>2026-05-13T10:45:33Z</time>
      </trkpt>
      <trkpt lat="44.90273" lon="1.84247">
        <ele>199.61</ele>
        <time>2026-05-13T10:45:49Z</time>
      </trkpt>
      <trkpt lat="44.90261" lon="1.84244">
        <ele>202.01</ele>
        <time>2026-05-13T10:46:08Z</time>
      </trkpt>
      <trkpt lat="44.90258" lon="1.84243">
        <ele>202.98</ele>
        <time>2026-05-13T10:46:12Z</time>
      </trkpt>
      <trkpt lat="44.90251" lon="1.84236">
        <ele>205.86</ele>
        <time>2026-05-13T10:46:27Z</time>
      </trkpt>
      <trkpt lat="44.9024" lon="1.84229">
        <ele>209.22</ele>
        <time>2026-05-13T10:46:43Z</time>
      </trkpt>
      <trkpt lat="44.90228" lon="1.84223">
        <ele>211.15</ele>
        <time>2026-05-13T10:46:57Z</time>
      </trkpt>
      <trkpt lat="44.90219" lon="1.84218">
        <ele>213.55</ele>
        <time>2026-05-13T10:47:10Z</time>
      </trkpt>
      <trkpt lat="44.90207" lon="1.84216">
        <ele>216.43</ele>
        <time>2026-05-13T10:47:25Z</time>
      </trkpt>
      <trkpt lat="44.90205" lon="1.84216">
        <ele>216.91</ele>
        <time>2026-05-13T10:47:50Z</time>
      </trkpt>
      <trkpt lat="44.90202" lon="1.84215">
        <ele>217.4</ele>
        <time>2026-05-13T10:48:23Z</time>
      </trkpt>
      <trkpt lat="44.90199" lon="1.84213">
        <ele>218.36</ele>
        <time>2026-05-13T10:48:50Z</time>
      </trkpt>
      <trkpt lat="44.90197" lon="1.84207">
        <ele>221.72</ele>
        <time>2026-05-13T10:49:06Z</time>
      </trkpt>
      <trkpt lat="44.90185" lon="1.84202">
        <ele>224.12</ele>
        <time>2026-05-13T10:49:22Z</time>
      </trkpt>
      <trkpt lat="44.90181" lon="1.84188">
        <ele>227.01</ele>
        <time>2026-05-13T10:49:37Z</time>
      </trkpt>
      <trkpt lat="44.90176" lon="1.84193">
        <ele>227.97</ele>
        <time>2026-05-13T10:49:56Z</time>
      </trkpt>
      <trkpt lat="44.90169" lon="1.84199">
        <ele>227.97</ele>
        <time>2026-05-13T10:50:16Z</time>
      </trkpt>
      <trkpt lat="44.90161" lon="1.84204">
        <ele>227.97</ele>
        <time>2026-05-13T10:50:50Z</time>
      </trkpt>
      <trkpt lat="44.90171" lon="1.84191">
        <ele>227.97</ele>
        <time>2026-05-13T10:51:10Z</time>
      </trkpt>
      <trkpt lat="44.90175" lon="1.84188">
        <ele>228.93</ele>
        <time>2026-05-13T10:51:26Z</time>
      </trkpt>
      <trkpt lat="44.90175" lon="1.8417">
        <ele>229.89</ele>
        <time>2026-05-13T10:51:41Z</time>
      </trkpt>
      <trkpt lat="44.90173" lon="1.84156">
        <ele>231.81</ele>
        <time>2026-05-13T10:51:53Z</time>
      </trkpt>
      <trkpt lat="44.90172" lon="1.84141">
        <ele>233.26</ele>
        <time>2026-05-13T10:52:08Z</time>
      </trkpt>
      <trkpt lat="44.90173" lon="1.84129">
        <ele>235.66</ele>
        <time>2026-05-13T10:52:21Z</time>
      </trkpt>
      <trkpt lat="44.90168" lon="1.84116">
        <ele>236.62</ele>
        <time>2026-05-13T10:52:38Z</time>
      </trkpt>
      <trkpt lat="44.90172" lon="1.84101">
        <ele>239.02</ele>
        <time>2026-05-13T10:52:55Z</time>
      </trkpt>
      <trkpt lat="44.90181" lon="1.8408">
        <ele>241.91</ele>
        <time>2026-05-13T10:53:12Z</time>
      </trkpt>
      <trkpt lat="44.90182" lon="1.84077">
        <ele>241.91</ele>
        <time>2026-05-13T10:53:14Z</time>
      </trkpt>
      <trkpt lat="44.9019" lon="1.84061">
        <ele>244.31</ele>
        <time>2026-05-13T10:53:30Z</time>
      </trkpt>
      <trkpt lat="44.90199" lon="1.84044">
        <ele>246.72</ele>
        <time>2026-05-13T10:53:45Z</time>
      </trkpt>
      <trkpt lat="44.90204" lon="1.84028">
        <ele>248.64</ele>
        <time>2026-05-13T10:53:57Z</time>
      </trkpt>
      <trkpt lat="44.90205" lon="1.84028">
        <ele>249.12</ele>
        <time>2026-05-13T10:53:59Z</time>
      </trkpt>
      <trkpt lat="44.90209" lon="1.8402">
        <ele>249.6</ele>
        <time>2026-05-13T10:54:06Z</time>
      </trkpt>
      <trkpt lat="44.90212" lon="1.83999">
        <ele>252.48</ele>
        <time>2026-05-13T10:54:22Z</time>
      </trkpt>
      <trkpt lat="44.9021" lon="1.83975">
        <ele>255.37</ele>
        <time>2026-05-13T10:54:36Z</time>
      </trkpt>
      <trkpt lat="44.90209" lon="1.83971">
        <ele>256.33</ele>
        <time>2026-05-13T10:54:39Z</time>
      </trkpt>
      <trkpt lat="44.90207" lon="1.83957">
        <ele>257.77</ele>
        <time>2026-05-13T10:54:53Z</time>
      </trkpt>
      <trkpt lat="44.902" lon="1.83943">
        <ele>259.21</ele>
        <time>2026-05-13T10:55:08Z</time>
      </trkpt>
      <trkpt lat="44.90184" lon="1.83947">
        <ele>262.1</ele>
        <time>2026-05-13T10:55:25Z</time>
      </trkpt>
      <trkpt lat="44.90179" lon="1.83945">
        <ele>263.06</ele>
        <time>2026-05-13T10:55:31Z</time>
      </trkpt>
      <trkpt lat="44.90177" lon="1.8394">
        <ele>264.02</ele>
        <time>2026-05-13T10:55:37Z</time>
      </trkpt>
      <trkpt lat="44.90174" lon="1.83934">
        <ele>264.98</ele>
        <time>2026-05-13T10:55:42Z</time>
      </trkpt>
      <trkpt lat="44.90168" lon="1.83929">
        <ele>264.98</ele>
        <time>2026-05-13T10:55:48Z</time>
      </trkpt>
      <trkpt lat="44.9016" lon="1.83918">
        <ele>265.94</ele>
        <time>2026-05-13T10:56:04Z</time>
      </trkpt>
      <trkpt lat="44.90153" lon="1.83914">
        <ele>266.9</ele>
        <time>2026-05-13T10:56:24Z</time>
      </trkpt>
      <trkpt lat="44.90138" lon="1.83911">
        <ele>266.9</ele>
        <time>2026-05-13T10:56:34Z</time>
      </trkpt>
      <trkpt lat="44.90127" lon="1.83921">
        <ele>266.42</ele>
        <time>2026-05-13T10:56:43Z</time>
      </trkpt>
      <trkpt lat="44.90122" lon="1.83925">
        <ele>264.98</ele>
        <time>2026-05-13T10:56:49Z</time>
      </trkpt>
      <trkpt lat="44.9012" lon="1.83926">
        <ele>266.42</ele>
        <time>2026-05-13T10:56:51Z</time>
      </trkpt>
      <trkpt lat="44.90112" lon="1.83927">
        <ele>264.98</ele>
        <time>2026-05-13T10:57:02Z</time>
      </trkpt>
      <trkpt lat="44.90111" lon="1.83932">
        <ele>264.5</ele>
        <time>2026-05-13T10:57:12Z</time>
      </trkpt>
      <trkpt lat="44.90109" lon="1.83932">
        <ele>265.94</ele>
        <time>2026-05-13T10:57:17Z</time>
      </trkpt>
      <trkpt lat="44.90106" lon="1.83932">
        <ele>264.02</ele>
        <time>2026-05-13T10:57:21Z</time>
      </trkpt>
      <trkpt lat="44.90102" lon="1.83923">
        <ele>264.98</ele>
        <time>2026-05-13T10:57:50Z</time>
      </trkpt>
      <trkpt lat="44.901" lon="1.83922">
        <ele>264.98</ele>
        <time>2026-05-13T10:57:52Z</time>
      </trkpt>
      <trkpt lat="44.90085" lon="1.83916">
        <ele>264.02</ele>
        <time>2026-05-13T10:58:05Z</time>
      </trkpt>
      <trkpt lat="44.90083" lon="1.83914">
        <ele>263.54</ele>
        <time>2026-05-13T10:58:28Z</time>
      </trkpt>
      <trkpt lat="44.90083" lon="1.83914">
        <ele>263.54</ele>
        <time>2026-05-13T10:58:35Z</time>
      </trkpt>
      <trkpt lat="44.90067" lon="1.83906">
        <ele>263.06</ele>
        <time>2026-05-13T10:58:47Z</time>
      </trkpt>
      <trkpt lat="44.90051" lon="1.83902">
        <ele>260.65</ele>
        <time>2026-05-13T10:58:59Z</time>
      </trkpt>
      <trkpt lat="44.90034" lon="1.83901">
        <ele>259.21</ele>
        <time>2026-05-13T10:59:12Z</time>
      </trkpt>
      <trkpt lat="44.90016" lon="1.83896">
        <ele>258.73</ele>
        <time>2026-05-13T10:59:25Z</time>
      </trkpt>
      <trkpt lat="44.90001" lon="1.83891">
        <ele>256.81</ele>
        <time>2026-05-13T10:59:38Z</time>
      </trkpt>
      <trkpt lat="44.89996" lon="1.83886">
        <ele>255.85</ele>
        <time>2026-05-13T10:59:51Z</time>
      </trkpt>
      <trkpt lat="44.89984" lon="1.83884">
        <ele>253.93</ele>
        <time>2026-05-13T11:00:00Z</time>
      </trkpt>
      <trkpt lat="44.89975" lon="1.83883">
        <ele>252.96</ele>
        <time>2026-05-13T11:00:15Z</time>
      </trkpt>
      <trkpt lat="44.89968" lon="1.8388">
        <ele>252</ele>
        <time>2026-05-13T11:00:31Z</time>
      </trkpt>
      <trkpt lat="44.89953" lon="1.83875">
        <ele>250.08</ele>
        <time>2026-05-13T11:00:43Z</time>
      </trkpt>
      <trkpt lat="44.89939" lon="1.83869">
        <ele>248.16</ele>
        <time>2026-05-13T11:00:54Z</time>
      </trkpt>
      <trkpt lat="44.89939" lon="1.83849">
        <ele>249.12</ele>
        <time>2026-05-13T11:01:07Z</time>
      </trkpt>
      <trkpt lat="44.89942" lon="1.83831">
        <ele>250.08</ele>
        <time>2026-05-13T11:01:18Z</time>
      </trkpt>
      <trkpt lat="44.8994" lon="1.83827">
        <ele>250.08</ele>
        <time>2026-05-13T11:01:20Z</time>
      </trkpt>
      <trkpt lat="44.89941" lon="1.83816">
        <ele>250.08</ele>
        <time>2026-05-13T11:01:27Z</time>
      </trkpt>
      <trkpt lat="44.89941" lon="1.83804">
        <ele>250.08</ele>
        <time>2026-05-13T11:01:34Z</time>
      </trkpt>
      <trkpt lat="44.89944" lon="1.83771">
        <ele>251.04</ele>
        <time>2026-05-13T11:01:53Z</time>
      </trkpt>
      <trkpt lat="44.89944" lon="1.83768">
        <ele>251.04</ele>
        <time>2026-05-13T11:01:55Z</time>
      </trkpt>
      <trkpt lat="44.8994" lon="1.8375">
        <ele>251.04</ele>
        <time>2026-05-13T11:02:06Z</time>
      </trkpt>
      <trkpt lat="44.89931" lon="1.83718">
        <ele>251.04</ele>
        <time>2026-05-13T11:02:24Z</time>
      </trkpt>
      <trkpt lat="44.8993" lon="1.83693">
        <ele>251.04</ele>
        <time>2026-05-13T11:02:37Z</time>
      </trkpt>
      <trkpt lat="44.89928" lon="1.83679">
        <ele>250.08</ele>
        <time>2026-05-13T11:02:45Z</time>
      </trkpt>
      <trkpt lat="44.89927" lon="1.83668">
        <ele>249.6</ele>
        <time>2026-05-13T11:02:50Z</time>
      </trkpt>
      <trkpt lat="44.89926" lon="1.83661">
        <ele>249.12</ele>
        <time>2026-05-13T11:02:54Z</time>
      </trkpt>
      <trkpt lat="44.89924" lon="1.83646">
        <ele>249.12</ele>
        <time>2026-05-13T11:03:01Z</time>
      </trkpt>
      <trkpt lat="44.89922" lon="1.83641">
        <ele>249.12</ele>
        <time>2026-05-13T11:03:05Z</time>
      </trkpt>
      <trkpt lat="44.8992" lon="1.83633">
        <ele>248.64</ele>
        <time>2026-05-13T11:03:09Z</time>
      </trkpt>
      <trkpt lat="44.89919" lon="1.83604">
        <ele>247.68</ele>
        <time>2026-05-13T11:03:24Z</time>
      </trkpt>
      <trkpt lat="44.89916" lon="1.8358">
        <ele>246.23</ele>
        <time>2026-05-13T11:03:37Z</time>
      </trkpt>
      <trkpt lat="44.89919" lon="1.83557">
        <ele>245.75</ele>
        <time>2026-05-13T11:03:49Z</time>
      </trkpt>
      <trkpt lat="44.8992" lon="1.83543">
        <ele>245.75</ele>
        <time>2026-05-13T11:03:57Z</time>
      </trkpt>
      <trkpt lat="44.89924" lon="1.8352">
        <ele>244.79</ele>
        <time>2026-05-13T11:04:10Z</time>
      </trkpt>
      <trkpt lat="44.89926" lon="1.83515">
        <ele>244.31</ele>
        <time>2026-05-13T11:04:26Z</time>
      </trkpt>
      <trkpt lat="44.89928" lon="1.8351">
        <ele>243.83</ele>
        <time>2026-05-13T11:04:30Z</time>
      </trkpt>
      <trkpt lat="44.89928" lon="1.83496">
        <ele>242.87</ele>
        <time>2026-05-13T11:04:39Z</time>
      </trkpt>
      <trkpt lat="44.8993" lon="1.83493">
        <ele>242.87</ele>
        <time>2026-05-13T11:04:41Z</time>
      </trkpt>
      <trkpt lat="44.89931" lon="1.83486">
        <ele>242.87</ele>
        <time>2026-05-13T11:04:45Z</time>
      </trkpt>
      <trkpt lat="44.8993" lon="1.83463">
        <ele>242.87</ele>
        <time>2026-05-13T11:04:58Z</time>
      </trkpt>
      <trkpt lat="44.8993" lon="1.83456">
        <ele>242.87</ele>
        <time>2026-05-13T11:05:02Z</time>
      </trkpt>
      <trkpt lat="44.89932" lon="1.83444">
        <ele>242.87</ele>
        <time>2026-05-13T11:05:07Z</time>
      </trkpt>
      <trkpt lat="44.89933" lon="1.8343">
        <ele>242.87</ele>
        <time>2026-05-13T11:05:16Z</time>
      </trkpt>
      <trkpt lat="44.89933" lon="1.83426">
        <ele>242.87</ele>
        <time>2026-05-13T11:05:18Z</time>
      </trkpt>
      <trkpt lat="44.89941" lon="1.83401">
        <ele>242.87</ele>
        <time>2026-05-13T11:05:32Z</time>
      </trkpt>
      <trkpt lat="44.89941" lon="1.83396">
        <ele>242.87</ele>
        <time>2026-05-13T11:05:35Z</time>
      </trkpt>
      <trkpt lat="44.89947" lon="1.8337">
        <ele>242.87</ele>
        <time>2026-05-13T11:05:48Z</time>
      </trkpt>
      <trkpt lat="44.89949" lon="1.83351">
        <ele>244.31</ele>
        <time>2026-05-13T11:05:59Z</time>
      </trkpt>
      <trkpt lat="44.89958" lon="1.8332">
        <ele>244.31</ele>
        <time>2026-05-13T11:06:14Z</time>
      </trkpt>
      <trkpt lat="44.8996" lon="1.83287">
        <ele>246.23</ele>
        <time>2026-05-13T11:06:32Z</time>
      </trkpt>
      <trkpt lat="44.8996" lon="1.83285">
        <ele>246.23</ele>
        <time>2026-05-13T11:06:33Z</time>
      </trkpt>
      <trkpt lat="44.8996" lon="1.83283">
        <ele>246.23</ele>
        <time>2026-05-13T11:06:34Z</time>
      </trkpt>
      <trkpt lat="44.89962" lon="1.83249">
        <ele>246.72</ele>
        <time>2026-05-13T11:06:54Z</time>
      </trkpt>
      <trkpt lat="44.89969" lon="1.83218">
        <ele>246.72</ele>
        <time>2026-05-13T11:07:11Z</time>
      </trkpt>
      <trkpt lat="44.89973" lon="1.83193">
        <ele>247.2</ele>
        <time>2026-05-13T11:07:25Z</time>
      </trkpt>
      <trkpt lat="44.89975" lon="1.83194">
        <ele>246.72</ele>
        <time>2026-05-13T11:07:41Z</time>
      </trkpt>
      <trkpt lat="44.89975" lon="1.83191">
        <ele>247.2</ele>
        <time>2026-05-13T11:07:51Z</time>
      </trkpt>
      <trkpt lat="44.89974" lon="1.83189">
        <ele>247.2</ele>
        <time>2026-05-13T11:07:52Z</time>
      </trkpt>
      <trkpt lat="44.89973" lon="1.83188">
        <ele>247.2</ele>
        <time>2026-05-13T11:07:53Z</time>
      </trkpt>
      <trkpt lat="44.89971" lon="1.83187">
        <ele>247.2</ele>
        <time>2026-05-13T11:07:54Z</time>
      </trkpt>
      <trkpt lat="44.8997" lon="1.83186">
        <ele>247.2</ele>
        <time>2026-05-13T11:07:55Z</time>
      </trkpt>
      <trkpt lat="44.89968" lon="1.83185">
        <ele>247.2</ele>
        <time>2026-05-13T11:07:56Z</time>
      </trkpt>
      <trkpt lat="44.89953" lon="1.83165">
        <ele>247.2</ele>
        <time>2026-05-13T11:08:12Z</time>
      </trkpt>
      <trkpt lat="44.89949" lon="1.83159">
        <ele>245.75</ele>
        <time>2026-05-13T11:08:15Z</time>
      </trkpt>
      <trkpt lat="44.8994" lon="1.83143">
        <ele>244.79</ele>
        <time>2026-05-13T11:08:26Z</time>
      </trkpt>
      <trkpt lat="44.89939" lon="1.83142">
        <ele>244.79</ele>
        <time>2026-05-13T11:08:27Z</time>
      </trkpt>
      <trkpt lat="44.89937" lon="1.83138">
        <ele>244.31</ele>
        <time>2026-05-13T11:08:30Z</time>
      </trkpt>
      <trkpt lat="44.89937" lon="1.83137">
        <ele>244.31</ele>
        <time>2026-05-13T11:08:31Z</time>
      </trkpt>
      <trkpt lat="44.89937" lon="1.83135">
        <ele>244.31</ele>
        <time>2026-05-13T11:08:32Z</time>
      </trkpt>
      <trkpt lat="44.89949" lon="1.83115">
        <ele>242.87</ele>
        <time>2026-05-13T11:08:46Z</time>
      </trkpt>
      <trkpt lat="44.89962" lon="1.83091">
        <ele>243.83</ele>
        <time>2026-05-13T11:09:06Z</time>
      </trkpt>
      <trkpt lat="44.89976" lon="1.83065">
        <ele>243.83</ele>
        <time>2026-05-13T11:09:21Z</time>
      </trkpt>
      <trkpt lat="44.89982" lon="1.83035">
        <ele>242.39</ele>
        <time>2026-05-13T11:09:37Z</time>
      </trkpt>
      <trkpt lat="44.89984" lon="1.83022">
        <ele>242.39</ele>
        <time>2026-05-13T11:09:43Z</time>
      </trkpt>
      <trkpt lat="44.89987" lon="1.83005">
        <ele>241.91</ele>
        <time>2026-05-13T11:09:53Z</time>
      </trkpt>
      <trkpt lat="44.8999" lon="1.82975">
        <ele>241.43</ele>
        <time>2026-05-13T11:10:08Z</time>
      </trkpt>
      <trkpt lat="44.8999" lon="1.82973">
        <ele>241.43</ele>
        <time>2026-05-13T11:10:09Z</time>
      </trkpt>
      <trkpt lat="44.89989" lon="1.8297">
        <ele>241.43</ele>
        <time>2026-05-13T11:10:10Z</time>
      </trkpt>
      <trkpt lat="44.89988" lon="1.82968">
        <ele>241.43</ele>
        <time>2026-05-13T11:10:11Z</time>
      </trkpt>
      <trkpt lat="44.89988" lon="1.82966">
        <ele>241.43</ele>
        <time>2026-05-13T11:10:12Z</time>
      </trkpt>
      <trkpt lat="44.89987" lon="1.82964">
        <ele>241.43</ele>
        <time>2026-05-13T11:10:13Z</time>
      </trkpt>
      <trkpt lat="44.89981" lon="1.82942">
        <ele>239.99</ele>
        <time>2026-05-13T11:10:26Z</time>
      </trkpt>
      <trkpt lat="44.8998" lon="1.82929">
        <ele>238.54</ele>
        <time>2026-05-13T11:10:42Z</time>
      </trkpt>
      <trkpt lat="44.89979" lon="1.82931">
        <ele>237.1</ele>
        <time>2026-05-13T11:10:53Z</time>
      </trkpt>
      <trkpt lat="44.89978" lon="1.82933">
        <ele>240.47</ele>
        <time>2026-05-13T11:11:00Z</time>
      </trkpt>
      <trkpt lat="44.89978" lon="1.82932">
        <ele>240.47</ele>
        <time>2026-05-13T11:11:01Z</time>
      </trkpt>
      <trkpt lat="44.89979" lon="1.82929">
        <ele>239.02</ele>
        <time>2026-05-13T11:11:03Z</time>
      </trkpt>
      <trkpt lat="44.89982" lon="1.82922">
        <ele>238.06</ele>
        <time>2026-05-13T11:11:20Z</time>
      </trkpt>
      <trkpt lat="44.89985" lon="1.829">
        <ele>236.14</ele>
        <time>2026-05-13T11:11:34Z</time>
      </trkpt>
      <trkpt lat="44.89985" lon="1.82898">
        <ele>235.66</ele>
        <time>2026-05-13T11:12:02Z</time>
      </trkpt>
      <trkpt lat="44.89988" lon="1.82896">
        <ele>235.18</ele>
        <time>2026-05-13T11:12:14Z</time>
      </trkpt>
      <trkpt lat="44.89994" lon="1.82878">
        <ele>231.81</ele>
        <time>2026-05-13T11:12:28Z</time>
      </trkpt>
      <trkpt lat="44.89995" lon="1.82865">
        <ele>229.89</ele>
        <time>2026-05-13T11:12:36Z</time>
      </trkpt>
      <trkpt lat="44.89993" lon="1.82854">
        <ele>227.49</ele>
        <time>2026-05-13T11:12:44Z</time>
      </trkpt>
      <trkpt lat="44.89993" lon="1.82849">
        <ele>226.53</ele>
        <time>2026-05-13T11:12:47Z</time>
      </trkpt>
      <trkpt lat="44.89996" lon="1.82831">
        <ele>223.16</ele>
        <time>2026-05-13T11:12:58Z</time>
      </trkpt>
      <trkpt lat="44.89995" lon="1.8282">
        <ele>221.24</ele>
        <time>2026-05-13T11:13:05Z</time>
      </trkpt>
      <trkpt lat="44.89992" lon="1.82797">
        <ele>217.88</ele>
        <time>2026-05-13T11:13:21Z</time>
      </trkpt>
      <trkpt lat="44.89984" lon="1.82772">
        <ele>214.99</ele>
        <time>2026-05-13T11:13:37Z</time>
      </trkpt>
      <trkpt lat="44.89981" lon="1.82769">
        <ele>214.51</ele>
        <time>2026-05-13T11:13:40Z</time>
      </trkpt>
      <trkpt lat="44.8998" lon="1.82768">
        <ele>214.51</ele>
        <time>2026-05-13T11:13:41Z</time>
      </trkpt>
      <trkpt lat="44.89973" lon="1.82759">
        <ele>211.15</ele>
        <time>2026-05-13T11:13:53Z</time>
      </trkpt>
      <trkpt lat="44.89972" lon="1.82759">
        <ele>212.59</ele>
        <time>2026-05-13T11:14:19Z</time>
      </trkpt>
      <trkpt lat="44.89974" lon="1.82758">
        <ele>208.74</ele>
        <time>2026-05-13T11:14:36Z</time>
      </trkpt>
      <trkpt lat="44.89974" lon="1.82758">
        <ele>210.19</ele>
        <time>2026-05-13T11:14:37Z</time>
      </trkpt>
      <trkpt lat="44.89974" lon="1.82758">
        <ele>195.77</ele>
        <time>2026-05-13T11:14:38Z</time>
      </trkpt>
      <trkpt lat="44.89974" lon="1.82758">
        <ele>204.42</ele>
        <time>2026-05-13T11:14:39Z</time>
      </trkpt>
      <trkpt lat="44.89974" lon="1.82757">
        <ele>211.15</ele>
        <time>2026-05-13T11:14:40Z</time>
      </trkpt>
      <trkpt lat="44.89975" lon="1.82756">
        <ele>212.11</ele>
        <time>2026-05-13T11:14:42Z</time>
      </trkpt>
      <trkpt lat="44.89978" lon="1.82755">
        <ele>205.38</ele>
        <time>2026-05-13T11:14:46Z</time>
      </trkpt>
      <trkpt lat="44.89978" lon="1.82754">
        <ele>205.38</ele>
        <time>2026-05-13T11:14:47Z</time>
      </trkpt>
      <trkpt lat="44.89978" lon="1.82754">
        <ele>211.15</ele>
        <time>2026-05-13T11:14:48Z</time>
      </trkpt>
      <trkpt lat="44.89979" lon="1.82753">
        <ele>212.11</ele>
        <time>2026-05-13T11:14:50Z</time>
      </trkpt>
      <trkpt lat="44.89979" lon="1.82752">
        <ele>220.28</ele>
        <time>2026-05-13T11:15:00Z</time>
      </trkpt>
      <trkpt lat="44.89977" lon="1.82757">
        <ele>223.64</ele>
        <time>2026-05-13T11:15:01Z</time>
      </trkpt>
      <trkpt lat="44.89976" lon="1.82758">
        <ele>215.47</ele>
        <time>2026-05-13T11:15:02Z</time>
      </trkpt>
      <trkpt lat="44.89977" lon="1.82754">
        <ele>212.11</ele>
        <time>2026-05-13T11:15:04Z</time>
      </trkpt>
      <trkpt lat="44.89967" lon="1.8275">
        <ele>209.7</ele>
        <time>2026-05-13T11:15:17Z</time>
      </trkpt>
      <trkpt lat="44.89958" lon="1.82754">
        <ele>208.26</ele>
        <time>2026-05-13T11:15:32Z</time>
      </trkpt>
      <trkpt lat="44.89951" lon="1.82753">
        <ele>206.82</ele>
        <time>2026-05-13T11:15:40Z</time>
      </trkpt>
      <trkpt lat="44.89949" lon="1.82739">
        <ele>206.82</ele>
        <time>2026-05-13T11:15:55Z</time>
      </trkpt>
      <trkpt lat="44.89951" lon="1.82739">
        <ele>206.82</ele>
        <time>2026-05-13T11:16:29Z</time>
      </trkpt>
      <trkpt lat="44.89936" lon="1.82733">
        <ele>205.86</ele>
        <time>2026-05-13T11:16:50Z</time>
      </trkpt>
      <trkpt lat="44.89933" lon="1.82732">
        <ele>205.86</ele>
        <time>2026-05-13T11:16:54Z</time>
      </trkpt>
      <trkpt lat="44.89932" lon="1.8273">
        <ele>205.86</ele>
        <time>2026-05-13T11:16:56Z</time>
      </trkpt>
      <trkpt lat="44.8993" lon="1.82729">
        <ele>205.86</ele>
        <time>2026-05-13T11:16:57Z</time>
      </trkpt>
      <trkpt lat="44.89919" lon="1.82722">
        <ele>203.94</ele>
        <time>2026-05-13T11:17:09Z</time>
      </trkpt>
      <trkpt lat="44.89916" lon="1.82716">
        <ele>203.46</ele>
        <time>2026-05-13T11:17:23Z</time>
      </trkpt>
      <trkpt lat="44.89916" lon="1.82715">
        <ele>203.46</ele>
        <time>2026-05-13T11:17:45Z</time>
      </trkpt>
      <trkpt lat="44.89914" lon="1.82715">
        <ele>203.46</ele>
        <time>2026-05-13T11:17:46Z</time>
      </trkpt>
      <trkpt lat="44.89912" lon="1.82715">
        <ele>203.46</ele>
        <time>2026-05-13T11:17:47Z</time>
      </trkpt>
      <trkpt lat="44.89897" lon="1.82709">
        <ele>202.49</ele>
        <time>2026-05-13T11:18:00Z</time>
      </trkpt>
      <trkpt lat="44.89889" lon="1.82704">
        <ele>201.05</ele>
        <time>2026-05-13T11:18:07Z</time>
      </trkpt>
      <trkpt lat="44.89888" lon="1.82703">
        <ele>201.05</ele>
        <time>2026-05-13T11:18:08Z</time>
      </trkpt>
      <trkpt lat="44.89887" lon="1.82703">
        <ele>201.05</ele>
        <time>2026-05-13T11:18:09Z</time>
      </trkpt>
      <trkpt lat="44.89886" lon="1.82702">
        <ele>201.05</ele>
        <time>2026-05-13T11:18:10Z</time>
      </trkpt>
      <trkpt lat="44.89884" lon="1.82701">
        <ele>201.05</ele>
        <time>2026-05-13T11:18:11Z</time>
      </trkpt>
      <trkpt lat="44.89882" lon="1.82701">
        <ele>201.05</ele>
        <time>2026-05-13T11:18:12Z</time>
      </trkpt>
      <trkpt lat="44.89881" lon="1.82701">
        <ele>201.05</ele>
        <time>2026-05-13T11:18:13Z</time>
      </trkpt>
      <trkpt lat="44.8988" lon="1.82701">
        <ele>201.05</ele>
        <time>2026-05-13T11:18:14Z</time>
      </trkpt>
      <trkpt lat="44.89879" lon="1.82703">
        <ele>200.57</ele>
        <time>2026-05-13T11:18:15Z</time>
      </trkpt>
      <trkpt lat="44.89879" lon="1.82706">
        <ele>200.09</ele>
        <time>2026-05-13T11:18:17Z</time>
      </trkpt>
      <trkpt lat="44.8988" lon="1.82709">
        <ele>199.61</ele>
        <time>2026-05-13T11:18:18Z</time>
      </trkpt>
      <trkpt lat="44.89881" lon="1.8271">
        <ele>199.13</ele>
        <time>2026-05-13T11:18:19Z</time>
      </trkpt>
      <trkpt lat="44.89882" lon="1.82712">
        <ele>199.61</ele>
        <time>2026-05-13T11:18:20Z</time>
      </trkpt>
      <trkpt lat="44.89884" lon="1.82715">
        <ele>198.65</ele>
        <time>2026-05-13T11:18:23Z</time>
      </trkpt>
      <trkpt lat="44.89885" lon="1.82716">
        <ele>198.65</ele>
        <time>2026-05-13T11:18:24Z</time>
      </trkpt>
      <trkpt lat="44.89887" lon="1.8272">
        <ele>200.09</ele>
        <time>2026-05-13T11:18:27Z</time>
      </trkpt>
      <trkpt lat="44.89888" lon="1.8272">
        <ele>200.09</ele>
        <time>2026-05-13T11:18:28Z</time>
      </trkpt>
      <trkpt lat="44.8989" lon="1.82722">
        <ele>198.65</ele>
        <time>2026-05-13T11:18:30Z</time>
      </trkpt>
      <trkpt lat="44.89891" lon="1.82723">
        <ele>198.65</ele>
        <time>2026-05-13T11:18:31Z</time>
      </trkpt>
      <trkpt lat="44.89897" lon="1.82728">
        <ele>198.17</ele>
        <time>2026-05-13T11:18:37Z</time>
      </trkpt>
      <trkpt lat="44.89903" lon="1.82747">
        <ele>196.73</ele>
        <time>2026-05-13T11:18:52Z</time>
      </trkpt>
      <trkpt lat="44.89898" lon="1.82767">
        <ele>194.8</ele>
        <time>2026-05-13T11:19:05Z</time>
      </trkpt>
      <trkpt lat="44.89882" lon="1.82781">
        <ele>194.32</ele>
        <time>2026-05-13T11:19:18Z</time>
      </trkpt>
      <trkpt lat="44.89883" lon="1.82781">
        <ele>192.88</ele>
        <time>2026-05-13T11:19:29Z</time>
      </trkpt>
      <trkpt lat="44.89887" lon="1.82779">
        <ele>194.32</ele>
        <time>2026-05-13T11:19:46Z</time>
      </trkpt>
      <trkpt lat="44.89886" lon="1.82779">
        <ele>194.32</ele>
        <time>2026-05-13T11:19:47Z</time>
      </trkpt>
      <trkpt lat="44.89884" lon="1.8278">
        <ele>194.32</ele>
        <time>2026-05-13T11:19:48Z</time>
      </trkpt>
      <trkpt lat="44.89882" lon="1.82781">
        <ele>194.32</ele>
        <time>2026-05-13T11:19:49Z</time>
      </trkpt>
      <trkpt lat="44.8988" lon="1.82782">
        <ele>194.32</ele>
        <time>2026-05-13T11:19:50Z</time>
      </trkpt>
      <trkpt lat="44.89878" lon="1.82783">
        <ele>194.32</ele>
        <time>2026-05-13T11:19:51Z</time>
      </trkpt>
      <trkpt lat="44.89877" lon="1.82784">
        <ele>194.32</ele>
        <time>2026-05-13T11:19:52Z</time>
      </trkpt>
      <trkpt lat="44.8987" lon="1.82794">
        <ele>192.4</ele>
        <time>2026-05-13T11:19:58Z</time>
      </trkpt>
      <trkpt lat="44.89853" lon="1.82811">
        <ele>190.48</ele>
        <time>2026-05-13T11:20:14Z</time>
      </trkpt>
      <trkpt lat="44.89831" lon="1.82825">
        <ele>187.59</ele>
        <time>2026-05-13T11:20:31Z</time>
      </trkpt>
      <trkpt lat="44.89808" lon="1.82834">
        <ele>184.23</ele>
        <time>2026-05-13T11:20:48Z</time>
      </trkpt>
      <trkpt lat="44.89792" lon="1.82843">
        <ele>182.79</ele>
        <time>2026-05-13T11:21:02Z</time>
      </trkpt>
      <trkpt lat="44.8977" lon="1.8285">
        <ele>180.38</ele>
        <time>2026-05-13T11:21:19Z</time>
      </trkpt>
      <trkpt lat="44.89749" lon="1.82851">
        <ele>178.94</ele>
        <time>2026-05-13T11:21:35Z</time>
      </trkpt>
      <trkpt lat="44.89748" lon="1.82851">
        <ele>178.94</ele>
        <time>2026-05-13T11:21:36Z</time>
      </trkpt>
      <trkpt lat="44.89746" lon="1.82851">
        <ele>178.94</ele>
        <time>2026-05-13T11:21:37Z</time>
      </trkpt>
      <trkpt lat="44.89744" lon="1.82851">
        <ele>178.94</ele>
        <time>2026-05-13T11:21:38Z</time>
      </trkpt>
      <trkpt lat="44.89743" lon="1.8285">
        <ele>178.94</ele>
        <time>2026-05-13T11:21:39Z</time>
      </trkpt>
      <trkpt lat="44.89741" lon="1.82851">
        <ele>178.94</ele>
        <time>2026-05-13T11:21:40Z</time>
      </trkpt>
      <trkpt lat="44.89739" lon="1.82851">
        <ele>177.98</ele>
        <time>2026-05-13T11:21:41Z</time>
      </trkpt>
      <trkpt lat="44.89738" lon="1.82851">
        <ele>177.98</ele>
        <time>2026-05-13T11:21:42Z</time>
      </trkpt>
      <trkpt lat="44.89719" lon="1.82851">
        <ele>177.5</ele>
        <time>2026-05-13T11:21:57Z</time>
      </trkpt>
      <trkpt lat="44.89699" lon="1.82848">
        <ele>177.02</ele>
        <time>2026-05-13T11:22:13Z</time>
      </trkpt>
      <trkpt lat="44.89685" lon="1.82835">
        <ele>176.54</ele>
        <time>2026-05-13T11:22:26Z</time>
      </trkpt>
      <trkpt lat="44.8967" lon="1.82821">
        <ele>175.1</ele>
        <time>2026-05-13T11:22:41Z</time>
      </trkpt>
      <trkpt lat="44.89659" lon="1.82812">
        <ele>174.62</ele>
        <time>2026-05-13T11:22:51Z</time>
      </trkpt>
      <trkpt lat="44.89658" lon="1.82813">
        <ele>174.62</ele>
        <time>2026-05-13T11:22:52Z</time>
      </trkpt>
      <trkpt lat="44.89657" lon="1.82815">
        <ele>174.62</ele>
        <time>2026-05-13T11:22:53Z</time>
      </trkpt>
      <trkpt lat="44.89657" lon="1.82816">
        <ele>174.62</ele>
        <time>2026-05-13T11:22:54Z</time>
      </trkpt>
      <trkpt lat="44.89656" lon="1.82818">
        <ele>174.62</ele>
        <time>2026-05-13T11:22:55Z</time>
      </trkpt>
      <trkpt lat="44.89655" lon="1.82819">
        <ele>174.62</ele>
        <time>2026-05-13T11:22:56Z</time>
      </trkpt>
      <trkpt lat="44.89654" lon="1.82821">
        <ele>174.62</ele>
        <time>2026-05-13T11:22:57Z</time>
      </trkpt>
      <trkpt lat="44.89638" lon="1.82834">
        <ele>173.66</ele>
        <time>2026-05-13T11:23:10Z</time>
      </trkpt>
      <trkpt lat="44.89619" lon="1.82852">
        <ele>172.69</ele>
        <time>2026-05-13T11:23:28Z</time>
      </trkpt>
      <trkpt lat="44.896" lon="1.82868">
        <ele>171.73</ele>
        <time>2026-05-13T11:23:44Z</time>
      </trkpt>
      <trkpt lat="44.89599" lon="1.82869">
        <ele>171.73</ele>
        <time>2026-05-13T11:23:45Z</time>
      </trkpt>
      <trkpt lat="44.89597" lon="1.8287">
        <ele>171.73</ele>
        <time>2026-05-13T11:23:46Z</time>
      </trkpt>
      <trkpt lat="44.89584" lon="1.82883">
        <ele>171.25</ele>
        <time>2026-05-13T11:24:00Z</time>
      </trkpt>
      <trkpt lat="44.8958" lon="1.82889">
        <ele>170.77</ele>
        <time>2026-05-13T11:24:13Z</time>
      </trkpt>
      <trkpt lat="44.89578" lon="1.82889">
        <ele>170.77</ele>
        <time>2026-05-13T11:24:21Z</time>
      </trkpt>
      <trkpt lat="44.89577" lon="1.8289">
        <ele>170.77</ele>
        <time>2026-05-13T11:24:22Z</time>
      </trkpt>
      <trkpt lat="44.89559" lon="1.82902">
        <ele>169.81</ele>
        <time>2026-05-13T11:24:36Z</time>
      </trkpt>
      <trkpt lat="44.89547" lon="1.82909">
        <ele>169.81</ele>
        <time>2026-05-13T11:24:46Z</time>
      </trkpt>
      <trkpt lat="44.89523" lon="1.82919">
        <ele>169.33</ele>
        <time>2026-05-13T11:25:04Z</time>
      </trkpt>
      <trkpt lat="44.89496" lon="1.82926">
        <ele>168.85</ele>
        <time>2026-05-13T11:25:21Z</time>
      </trkpt>
      <trkpt lat="44.89474" lon="1.82938">
        <ele>168.85</ele>
        <time>2026-05-13T11:25:38Z</time>
      </trkpt>
      <trkpt lat="44.89452" lon="1.8295">
        <ele>167.89</ele>
        <time>2026-05-13T11:25:57Z</time>
      </trkpt>
      <trkpt lat="44.89422" lon="1.82961">
        <ele>167.41</ele>
        <time>2026-05-13T11:26:15Z</time>
      </trkpt>
      <trkpt lat="44.89403" lon="1.82971">
        <ele>166.93</ele>
        <time>2026-05-13T11:26:30Z</time>
      </trkpt>
      <trkpt lat="44.89382" lon="1.8298">
        <ele>166.45</ele>
        <time>2026-05-13T11:26:46Z</time>
      </trkpt>
      <trkpt lat="44.89359" lon="1.8298">
        <ele>166.45</ele>
        <time>2026-05-13T11:27:03Z</time>
      </trkpt>
      <trkpt lat="44.89341" lon="1.82976">
        <ele>165.96</ele>
        <time>2026-05-13T11:27:19Z</time>
      </trkpt>
      <trkpt lat="44.89323" lon="1.82965">
        <ele>165.48</ele>
        <time>2026-05-13T11:27:36Z</time>
      </trkpt>
      <trkpt lat="44.89321" lon="1.82965">
        <ele>165.48</ele>
        <time>2026-05-13T11:27:37Z</time>
      </trkpt>
      <trkpt lat="44.8932" lon="1.82965">
        <ele>165.48</ele>
        <time>2026-05-13T11:27:38Z</time>
      </trkpt>
      <trkpt lat="44.89318" lon="1.82965">
        <ele>165.48</ele>
        <time>2026-05-13T11:27:39Z</time>
      </trkpt>
      <trkpt lat="44.89317" lon="1.82965">
        <ele>165.48</ele>
        <time>2026-05-13T11:27:40Z</time>
      </trkpt>
      <trkpt lat="44.89316" lon="1.82965">
        <ele>165.48</ele>
        <time>2026-05-13T11:27:41Z</time>
      </trkpt>
      <trkpt lat="44.89293" lon="1.82964">
        <ele>165.48</ele>
        <time>2026-05-13T11:27:58Z</time>
      </trkpt>
      <trkpt lat="44.89289" lon="1.82964">
        <ele>166.93</ele>
        <time>2026-05-13T11:28:02Z</time>
      </trkpt>
      <trkpt lat="44.8927" lon="1.82963">
        <ele>167.89</ele>
        <time>2026-05-13T11:28:17Z</time>
      </trkpt>
      <trkpt lat="44.89269" lon="1.82963">
        <ele>167.89</ele>
        <time>2026-05-13T11:28:18Z</time>
      </trkpt>
      <trkpt lat="44.89248" lon="1.82961">
        <ele>170.77</ele>
        <time>2026-05-13T11:28:36Z</time>
      </trkpt>
      <trkpt lat="44.8924" lon="1.82964">
        <ele>172.69</ele>
        <time>2026-05-13T11:28:50Z</time>
      </trkpt>
      <trkpt lat="44.89226" lon="1.82971">
        <ele>174.14</ele>
        <time>2026-05-13T11:29:00Z</time>
      </trkpt>
      <trkpt lat="44.89224" lon="1.82972">
        <ele>174.62</ele>
        <time>2026-05-13T11:29:01Z</time>
      </trkpt>
      <trkpt lat="44.89222" lon="1.82973">
        <ele>174.62</ele>
        <time>2026-05-13T11:29:02Z</time>
      </trkpt>
      <trkpt lat="44.89202" lon="1.82991">
        <ele>176.06</ele>
        <time>2026-05-13T11:29:19Z</time>
      </trkpt>
      <trkpt lat="44.892" lon="1.82995">
        <ele>176.54</ele>
        <time>2026-05-13T11:29:22Z</time>
      </trkpt>
      <trkpt lat="44.89187" lon="1.83026">
        <ele>178.94</ele>
        <time>2026-05-13T11:29:42Z</time>
      </trkpt>
      <trkpt lat="44.89174" lon="1.83031">
        <ele>179.42</ele>
        <time>2026-05-13T11:29:57Z</time>
      </trkpt>
      <trkpt lat="44.89168" lon="1.83021">
        <ele>177.98</ele>
        <time>2026-05-13T11:30:16Z</time>
      </trkpt>
      <trkpt lat="44.89166" lon="1.83017">
        <ele>177.5</ele>
        <time>2026-05-13T11:30:19Z</time>
      </trkpt>
      <trkpt lat="44.89152" lon="1.82999">
        <ele>174.62</ele>
        <time>2026-05-13T11:30:35Z</time>
      </trkpt>
      <trkpt lat="44.89152" lon="1.82998">
        <ele>175.58</ele>
        <time>2026-05-13T11:30:41Z</time>
      </trkpt>
      <trkpt lat="44.89154" lon="1.82999">
        <ele>174.62</ele>
        <time>2026-05-13T11:30:51Z</time>
      </trkpt>
      <trkpt lat="44.89145" lon="1.82989">
        <ele>174.62</ele>
        <time>2026-05-13T11:31:07Z</time>
      </trkpt>
      <trkpt lat="44.89135" lon="1.82983">
        <ele>173.17</ele>
        <time>2026-05-13T11:31:19Z</time>
      </trkpt>
      <trkpt lat="44.89127" lon="1.82982">
        <ele>172.69</ele>
        <time>2026-05-13T11:32:06Z</time>
      </trkpt>
      <trkpt lat="44.89113" lon="1.82966">
        <ele>170.29</ele>
        <time>2026-05-13T11:32:22Z</time>
      </trkpt>
      <trkpt lat="44.89113" lon="1.82965">
        <ele>170.29</ele>
        <time>2026-05-13T11:32:23Z</time>
      </trkpt>
      <trkpt lat="44.89112" lon="1.82963">
        <ele>170.29</ele>
        <time>2026-05-13T11:32:24Z</time>
      </trkpt>
      <trkpt lat="44.891" lon="1.82941">
        <ele>167.41</ele>
        <time>2026-05-13T11:32:40Z</time>
      </trkpt>
      <trkpt lat="44.89088" lon="1.82922">
        <ele>165</ele>
        <time>2026-05-13T11:32:53Z</time>
      </trkpt>
      <trkpt lat="44.89083" lon="1.82912">
        <ele>163.56</ele>
        <time>2026-05-13T11:33:01Z</time>
      </trkpt>
      <trkpt lat="44.89083" lon="1.8291">
        <ele>163.08</ele>
        <time>2026-05-13T11:33:02Z</time>
      </trkpt>
      <trkpt lat="44.89082" lon="1.82907">
        <ele>163.08</ele>
        <time>2026-05-13T11:33:03Z</time>
      </trkpt>
      <trkpt lat="44.89074" lon="1.82883">
        <ele>161.16</ele>
        <time>2026-05-13T11:33:17Z</time>
      </trkpt>
      <trkpt lat="44.89063" lon="1.82855">
        <ele>158.75</ele>
        <time>2026-05-13T11:33:33Z</time>
      </trkpt>
      <trkpt lat="44.89051" lon="1.82829">
        <ele>157.31</ele>
        <time>2026-05-13T11:33:49Z</time>
      </trkpt>
      <trkpt lat="44.89038" lon="1.82806">
        <ele>156.35</ele>
        <time>2026-05-13T11:34:04Z</time>
      </trkpt>
      <trkpt lat="44.89024" lon="1.82784">
        <ele>154.91</ele>
        <time>2026-05-13T11:34:19Z</time>
      </trkpt>
      <trkpt lat="44.89004" lon="1.82757">
        <ele>152.51</ele>
        <time>2026-05-13T11:34:40Z</time>
      </trkpt>
      <trkpt lat="44.88987" lon="1.82729">
        <ele>151.06</ele>
        <time>2026-05-13T11:34:59Z</time>
      </trkpt>
      <trkpt lat="44.88974" lon="1.82706">
        <ele>149.62</ele>
        <time>2026-05-13T11:35:14Z</time>
      </trkpt>
      <trkpt lat="44.88961" lon="1.82681">
        <ele>148.18</ele>
        <time>2026-05-13T11:35:30Z</time>
      </trkpt>
      <trkpt lat="44.88944" lon="1.82655">
        <ele>147.22</ele>
        <time>2026-05-13T11:35:48Z</time>
      </trkpt>
      <trkpt lat="44.88934" lon="1.82646">
        <ele>146.74</ele>
        <time>2026-05-13T11:35:56Z</time>
      </trkpt>
      <trkpt lat="44.88912" lon="1.82637">
        <ele>145.3</ele>
        <time>2026-05-13T11:36:14Z</time>
      </trkpt>
      <trkpt lat="44.88886" lon="1.8263">
        <ele>143.85</ele>
        <time>2026-05-13T11:36:33Z</time>
      </trkpt>
      <trkpt lat="44.88893" lon="1.82634">
        <ele>143.85</ele>
        <time>2026-05-13T11:36:48Z</time>
      </trkpt>
      <trkpt lat="44.88892" lon="1.82635">
        <ele>143.37</ele>
        <time>2026-05-13T11:37:07Z</time>
      </trkpt>
      <trkpt lat="44.88892" lon="1.82634">
        <ele>142.41</ele>
        <time>2026-05-13T11:37:14Z</time>
      </trkpt>
      <trkpt lat="44.88891" lon="1.82634">
        <ele>144.34</ele>
        <time>2026-05-13T11:37:16Z</time>
      </trkpt>
      <trkpt lat="44.88886" lon="1.82631">
        <ele>143.37</ele>
        <time>2026-05-13T11:37:21Z</time>
      </trkpt>
      <trkpt lat="44.88883" lon="1.8263">
        <ele>143.37</ele>
        <time>2026-05-13T11:37:23Z</time>
      </trkpt>
      <trkpt lat="44.88882" lon="1.8263">
        <ele>143.37</ele>
        <time>2026-05-13T11:37:24Z</time>
      </trkpt>
      <trkpt lat="44.88855" lon="1.82623">
        <ele>142.41</ele>
        <time>2026-05-13T11:37:42Z</time>
      </trkpt>
      <trkpt lat="44.88844" lon="1.82619">
        <ele>141.93</ele>
        <time>2026-05-13T11:37:58Z</time>
      </trkpt>
      <trkpt lat="44.88821" lon="1.82614">
        <ele>141.45</ele>
        <time>2026-05-13T11:38:16Z</time>
      </trkpt>
      <trkpt lat="44.88792" lon="1.82604">
        <ele>140.97</ele>
        <time>2026-05-13T11:38:36Z</time>
      </trkpt>
      <trkpt lat="44.88786" lon="1.82593">
        <ele>140.97</ele>
        <time>2026-05-13T11:38:44Z</time>
      </trkpt>
      <trkpt lat="44.88777" lon="1.82565">
        <ele>140.01</ele>
        <time>2026-05-13T11:39:02Z</time>
      </trkpt>
      <trkpt lat="44.88754" lon="1.82551">
        <ele>139.53</ele>
        <time>2026-05-13T11:39:20Z</time>
      </trkpt>
      <trkpt lat="44.88723" lon="1.82536">
        <ele>138.57</ele>
        <time>2026-05-13T11:39:40Z</time>
      </trkpt>
      <trkpt lat="44.88697" lon="1.82528">
        <ele>138.09</ele>
        <time>2026-05-13T11:40:00Z</time>
      </trkpt>
      <trkpt lat="44.8867" lon="1.82517">
        <ele>137.61</ele>
        <time>2026-05-13T11:40:19Z</time>
      </trkpt>
      <trkpt lat="44.8865" lon="1.82502">
        <ele>137.13</ele>
        <time>2026-05-13T11:40:37Z</time>
      </trkpt>
      <trkpt lat="44.8863" lon="1.82483">
        <ele>137.13</ele>
        <time>2026-05-13T11:40:57Z</time>
      </trkpt>
      <trkpt lat="44.88608" lon="1.82468">
        <ele>136.64</ele>
        <time>2026-05-13T11:41:13Z</time>
      </trkpt>
      <trkpt lat="44.88588" lon="1.82457">
        <ele>136.64</ele>
        <time>2026-05-13T11:41:30Z</time>
      </trkpt>
      <trkpt lat="44.88567" lon="1.82444">
        <ele>136.64</ele>
        <time>2026-05-13T11:41:47Z</time>
      </trkpt>
      <trkpt lat="44.88546" lon="1.82431">
        <ele>135.68</ele>
        <time>2026-05-13T11:42:07Z</time>
      </trkpt>
      <trkpt lat="44.88544" lon="1.8243">
        <ele>135.68</ele>
        <time>2026-05-13T11:42:09Z</time>
      </trkpt>
      <trkpt lat="44.88543" lon="1.82429">
        <ele>135.68</ele>
        <time>2026-05-13T11:42:10Z</time>
      </trkpt>
      <trkpt lat="44.88519" lon="1.82418">
        <ele>135.2</ele>
        <time>2026-05-13T11:42:29Z</time>
      </trkpt>
      <trkpt lat="44.88489" lon="1.82397">
        <ele>135.2</ele>
        <time>2026-05-13T11:42:52Z</time>
      </trkpt>
      <trkpt lat="44.88464" lon="1.82379">
        <ele>135.2</ele>
        <time>2026-05-13T11:43:12Z</time>
      </trkpt>
      <trkpt lat="44.88441" lon="1.82359">
        <ele>135.2</ele>
        <time>2026-05-13T11:43:32Z</time>
      </trkpt>
      <trkpt lat="44.88422" lon="1.82339">
        <ele>135.2</ele>
        <time>2026-05-13T11:43:51Z</time>
      </trkpt>
      <trkpt lat="44.88401" lon="1.8231">
        <ele>135.2</ele>
        <time>2026-05-13T11:44:12Z</time>
      </trkpt>
      <trkpt lat="44.88381" lon="1.82283">
        <ele>135.2</ele>
        <time>2026-05-13T11:44:33Z</time>
      </trkpt>
      <trkpt lat="44.88361" lon="1.82256">
        <ele>135.2</ele>
        <time>2026-05-13T11:44:53Z</time>
      </trkpt>
      <trkpt lat="44.88344" lon="1.82231">
        <ele>134.72</ele>
        <time>2026-05-13T11:45:12Z</time>
      </trkpt>
      <trkpt lat="44.88322" lon="1.82204">
        <ele>134.24</ele>
        <time>2026-05-13T11:45:33Z</time>
      </trkpt>
      <trkpt lat="44.88318" lon="1.82201">
        <ele>134.24</ele>
        <time>2026-05-13T11:45:49Z</time>
      </trkpt>
      <trkpt lat="44.88314" lon="1.82193">
        <ele>134.24</ele>
        <time>2026-05-13T11:46:22Z</time>
      </trkpt>
      <trkpt lat="44.88299" lon="1.82169">
        <ele>135.68</ele>
        <time>2026-05-13T11:46:40Z</time>
      </trkpt>
      <trkpt lat="44.88294" lon="1.8216">
        <ele>134.24</ele>
        <time>2026-05-13T11:46:46Z</time>
      </trkpt>
      <trkpt lat="44.88272" lon="1.8216">
        <ele>134.24</ele>
        <time>2026-05-13T11:47:01Z</time>
      </trkpt>
      <trkpt lat="44.88251" lon="1.82188">
        <ele>134.24</ele>
        <time>2026-05-13T11:47:21Z</time>
      </trkpt>
      <trkpt lat="44.88237" lon="1.82215">
        <ele>134.24</ele>
        <time>2026-05-13T11:47:41Z</time>
      </trkpt>
      <trkpt lat="44.88233" lon="1.82242">
        <ele>134.24</ele>
        <time>2026-05-13T11:47:58Z</time>
      </trkpt>
      <trkpt lat="44.88225" lon="1.82276">
        <ele>134.24</ele>
        <time>2026-05-13T11:48:15Z</time>
      </trkpt>
      <trkpt lat="44.88222" lon="1.82283">
        <ele>135.68</ele>
        <time>2026-05-13T11:48:20Z</time>
      </trkpt>
      <trkpt lat="44.88212" lon="1.82309">
        <ele>135.68</ele>
        <time>2026-05-13T11:48:36Z</time>
      </trkpt>
      <trkpt lat="44.88211" lon="1.82311">
        <ele>135.68</ele>
        <time>2026-05-13T11:48:37Z</time>
      </trkpt>
      <trkpt lat="44.88212" lon="1.82314">
        <ele>135.68</ele>
        <time>2026-05-13T11:48:38Z</time>
      </trkpt>
      <trkpt lat="44.88212" lon="1.82317">
        <ele>136.16</ele>
        <time>2026-05-13T11:48:39Z</time>
      </trkpt>
      <trkpt lat="44.88199" lon="1.82349">
        <ele>136.16</ele>
        <time>2026-05-13T11:48:59Z</time>
      </trkpt>
      <trkpt lat="44.88193" lon="1.82358">
        <ele>136.16</ele>
        <time>2026-05-13T11:49:07Z</time>
      </trkpt>
      <trkpt lat="44.88193" lon="1.8236">
        <ele>136.16</ele>
        <time>2026-05-13T11:49:08Z</time>
      </trkpt>
      <trkpt lat="44.88183" lon="1.824">
        <ele>136.16</ele>
        <time>2026-05-13T11:49:30Z</time>
      </trkpt>
      <trkpt lat="44.88172" lon="1.82432">
        <ele>136.16</ele>
        <time>2026-05-13T11:49:50Z</time>
      </trkpt>
      <trkpt lat="44.88156" lon="1.82456">
        <ele>136.16</ele>
        <time>2026-05-13T11:50:07Z</time>
      </trkpt>
      <trkpt lat="44.88146" lon="1.82485">
        <ele>136.16</ele>
        <time>2026-05-13T11:50:24Z</time>
      </trkpt>
      <trkpt lat="44.88144" lon="1.82502">
        <ele>136.16</ele>
        <time>2026-05-13T11:50:34Z</time>
      </trkpt>
      <trkpt lat="44.88145" lon="1.82537">
        <ele>136.16</ele>
        <time>2026-05-13T11:50:52Z</time>
      </trkpt>
      <trkpt lat="44.88151" lon="1.82573">
        <ele>136.16</ele>
        <time>2026-05-13T11:51:10Z</time>
      </trkpt>
      <trkpt lat="44.88159" lon="1.82607">
        <ele>136.64</ele>
        <time>2026-05-13T11:51:27Z</time>
      </trkpt>
      <trkpt lat="44.88156" lon="1.82631">
        <ele>136.64</ele>
        <time>2026-05-13T11:51:39Z</time>
      </trkpt>
      <trkpt lat="44.88155" lon="1.82666">
        <ele>136.64</ele>
        <time>2026-05-13T11:51:56Z</time>
      </trkpt>
      <trkpt lat="44.88163" lon="1.82705">
        <ele>137.13</ele>
        <time>2026-05-13T11:52:16Z</time>
      </trkpt>
      <trkpt lat="44.88163" lon="1.82722">
        <ele>137.61</ele>
        <time>2026-05-13T11:52:27Z</time>
      </trkpt>
      <trkpt lat="44.88165" lon="1.82724">
        <ele>137.61</ele>
        <time>2026-05-13T11:52:28Z</time>
      </trkpt>
      <trkpt lat="44.88166" lon="1.82726">
        <ele>137.61</ele>
        <time>2026-05-13T11:52:29Z</time>
      </trkpt>
      <trkpt lat="44.88168" lon="1.82728">
        <ele>137.61</ele>
        <time>2026-05-13T11:52:30Z</time>
      </trkpt>
      <trkpt lat="44.8817" lon="1.8273">
        <ele>137.61</ele>
        <time>2026-05-13T11:52:31Z</time>
      </trkpt>
      <trkpt lat="44.88171" lon="1.82732">
        <ele>137.61</ele>
        <time>2026-05-13T11:52:32Z</time>
      </trkpt>
      <trkpt lat="44.88192" lon="1.8276">
        <ele>137.61</ele>
        <time>2026-05-13T11:52:50Z</time>
      </trkpt>
      <trkpt lat="44.88199" lon="1.82793">
        <ele>137.61</ele>
        <time>2026-05-13T11:53:08Z</time>
      </trkpt>
      <trkpt lat="44.88208" lon="1.8282">
        <ele>138.09</ele>
        <time>2026-05-13T11:53:26Z</time>
      </trkpt>
      <trkpt lat="44.88211" lon="1.82848">
        <ele>138.57</ele>
        <time>2026-05-13T11:53:43Z</time>
      </trkpt>
      <trkpt lat="44.88211" lon="1.82873">
        <ele>138.57</ele>
        <time>2026-05-13T11:53:55Z</time>
      </trkpt>
      <trkpt lat="44.88211" lon="1.82878">
        <ele>138.57</ele>
        <time>2026-05-13T11:53:57Z</time>
      </trkpt>
      <trkpt lat="44.88217" lon="1.82899">
        <ele>138.57</ele>
        <time>2026-05-13T11:54:11Z</time>
      </trkpt>
      <trkpt lat="44.88217" lon="1.82902">
        <ele>138.57</ele>
        <time>2026-05-13T11:54:12Z</time>
      </trkpt>
      <trkpt lat="44.88218" lon="1.82904">
        <ele>138.57</ele>
        <time>2026-05-13T11:54:13Z</time>
      </trkpt>
      <trkpt lat="44.88225" lon="1.82928">
        <ele>137.61</ele>
        <time>2026-05-13T11:54:28Z</time>
      </trkpt>
      <trkpt lat="44.88226" lon="1.82944">
        <ele>137.61</ele>
        <time>2026-05-13T11:54:37Z</time>
      </trkpt>
      <trkpt lat="44.88226" lon="1.82947">
        <ele>137.61</ele>
        <time>2026-05-13T11:54:38Z</time>
      </trkpt>
      <trkpt lat="44.88221" lon="1.82977">
        <ele>137.61</ele>
        <time>2026-05-13T11:54:55Z</time>
      </trkpt>
      <trkpt lat="44.88216" lon="1.8301">
        <ele>137.61</ele>
        <time>2026-05-13T11:55:12Z</time>
      </trkpt>
      <trkpt lat="44.88211" lon="1.83043">
        <ele>139.05</ele>
        <time>2026-05-13T11:55:28Z</time>
      </trkpt>
      <trkpt lat="44.88205" lon="1.83067">
        <ele>139.05</ele>
        <time>2026-05-13T11:55:43Z</time>
      </trkpt>
      <trkpt lat="44.88196" lon="1.83098">
        <ele>139.05</ele>
        <time>2026-05-13T11:56:01Z</time>
      </trkpt>
      <trkpt lat="44.88189" lon="1.83133">
        <ele>139.05</ele>
        <time>2026-05-13T11:56:19Z</time>
      </trkpt>
      <trkpt lat="44.88185" lon="1.83148">
        <ele>139.53</ele>
        <time>2026-05-13T11:56:36Z</time>
      </trkpt>
      <trkpt lat="44.88179" lon="1.83145">
        <ele>140.01</ele>
        <time>2026-05-13T11:56:42Z</time>
      </trkpt>
      <trkpt lat="44.88178" lon="1.83144">
        <ele>140.01</ele>
        <time>2026-05-13T11:56:43Z</time>
      </trkpt>
      <trkpt lat="44.88164" lon="1.83137">
        <ele>140.49</ele>
        <time>2026-05-13T11:56:57Z</time>
      </trkpt>
      <trkpt lat="44.88155" lon="1.83133">
        <ele>138.57</ele>
        <time>2026-05-13T11:57:05Z</time>
      </trkpt>
      <trkpt lat="44.88134" lon="1.83119">
        <ele>138.09</ele>
        <time>2026-05-13T11:57:22Z</time>
      </trkpt>
      <trkpt lat="44.8811" lon="1.83107">
        <ele>138.09</ele>
        <time>2026-05-13T11:57:42Z</time>
      </trkpt>
      <trkpt lat="44.88092" lon="1.83096">
        <ele>138.09</ele>
        <time>2026-05-13T11:57:57Z</time>
      </trkpt>
      <trkpt lat="44.8807" lon="1.83082">
        <ele>138.09</ele>
        <time>2026-05-13T11:58:13Z</time>
      </trkpt>
      <trkpt lat="44.88057" lon="1.83072">
        <ele>137.61</ele>
        <time>2026-05-13T11:58:29Z</time>
      </trkpt>
      <trkpt lat="44.88051" lon="1.83078">
        <ele>137.61</ele>
        <time>2026-05-13T11:59:05Z</time>
      </trkpt>
      <trkpt lat="44.88029" lon="1.83073">
        <ele>137.13</ele>
        <time>2026-05-13T11:59:22Z</time>
      </trkpt>
      <trkpt lat="44.88005" lon="1.83072">
        <ele>137.13</ele>
        <time>2026-05-13T11:59:39Z</time>
      </trkpt>
      <trkpt lat="44.87984" lon="1.83063">
        <ele>138.09</ele>
        <time>2026-05-13T11:59:57Z</time>
      </trkpt>
      <trkpt lat="44.87983" lon="1.83063">
        <ele>138.09</ele>
        <time>2026-05-13T11:59:58Z</time>
      </trkpt>
      <trkpt lat="44.8796" lon="1.83064">
        <ele>138.09</ele>
        <time>2026-05-13T12:00:14Z</time>
      </trkpt>
      <trkpt lat="44.87933" lon="1.83061">
        <ele>137.13</ele>
        <time>2026-05-13T12:00:33Z</time>
      </trkpt>
      <trkpt lat="44.87908" lon="1.83054">
        <ele>137.13</ele>
        <time>2026-05-13T12:00:52Z</time>
      </trkpt>
      <trkpt lat="44.87885" lon="1.83043">
        <ele>137.13</ele>
        <time>2026-05-13T12:01:10Z</time>
      </trkpt>
      <trkpt lat="44.87863" lon="1.83031">
        <ele>137.13</ele>
        <time>2026-05-13T12:01:28Z</time>
      </trkpt>
      <trkpt lat="44.87849" lon="1.83024">
        <ele>138.57</ele>
        <time>2026-05-13T12:01:44Z</time>
      </trkpt>
      <trkpt lat="44.87832" lon="1.83021">
        <ele>137.13</ele>
        <time>2026-05-13T12:02:00Z</time>
      </trkpt>
      <trkpt lat="44.87817" lon="1.83023">
        <ele>137.13</ele>
        <time>2026-05-13T12:02:10Z</time>
      </trkpt>
      <trkpt lat="44.87801" lon="1.83023">
        <ele>137.13</ele>
        <time>2026-05-13T12:02:26Z</time>
      </trkpt>
      <trkpt lat="44.87777" lon="1.83028">
        <ele>137.13</ele>
        <time>2026-05-13T12:02:40Z</time>
      </trkpt>
      <trkpt lat="44.87773" lon="1.83031">
        <ele>137.13</ele>
        <time>2026-05-13T12:02:42Z</time>
      </trkpt>
      <trkpt lat="44.87752" lon="1.83061">
        <ele>136.64</ele>
        <time>2026-05-13T12:03:00Z</time>
      </trkpt>
      <trkpt lat="44.87739" lon="1.83088">
        <ele>136.64</ele>
        <time>2026-05-13T12:03:18Z</time>
      </trkpt>
      <trkpt lat="44.8773" lon="1.8311">
        <ele>136.64</ele>
        <time>2026-05-13T12:03:31Z</time>
      </trkpt>
      <trkpt lat="44.87719" lon="1.8314">
        <ele>136.64</ele>
        <time>2026-05-13T12:03:49Z</time>
      </trkpt>
      <trkpt lat="44.87709" lon="1.83167">
        <ele>138.09</ele>
        <time>2026-05-13T12:04:05Z</time>
      </trkpt>
      <trkpt lat="44.87698" lon="1.83196">
        <ele>137.61</ele>
        <time>2026-05-13T12:04:22Z</time>
      </trkpt>
      <trkpt lat="44.87685" lon="1.83227">
        <ele>137.61</ele>
        <time>2026-05-13T12:04:41Z</time>
      </trkpt>
      <trkpt lat="44.87673" lon="1.8326">
        <ele>137.61</ele>
        <time>2026-05-13T12:05:00Z</time>
      </trkpt>
      <trkpt lat="44.87659" lon="1.83289">
        <ele>138.09</ele>
        <time>2026-05-13T12:05:19Z</time>
      </trkpt>
      <trkpt lat="44.87656" lon="1.83292">
        <ele>138.09</ele>
        <time>2026-05-13T12:05:23Z</time>
      </trkpt>
      <trkpt lat="44.87655" lon="1.83294">
        <ele>138.09</ele>
        <time>2026-05-13T12:05:24Z</time>
      </trkpt>
      <trkpt lat="44.87638" lon="1.83315">
        <ele>138.57</ele>
        <time>2026-05-13T12:05:40Z</time>
      </trkpt>
      <trkpt lat="44.87619" lon="1.83335">
        <ele>138.57</ele>
        <time>2026-05-13T12:05:59Z</time>
      </trkpt>
      <trkpt lat="44.87602" lon="1.83346">
        <ele>138.57</ele>
        <time>2026-05-13T12:06:13Z</time>
      </trkpt>
      <trkpt lat="44.87586" lon="1.83358">
        <ele>138.57</ele>
        <time>2026-05-13T12:06:27Z</time>
      </trkpt>
      <trkpt lat="44.87565" lon="1.83369">
        <ele>138.57</ele>
        <time>2026-05-13T12:06:43Z</time>
      </trkpt>
      <trkpt lat="44.87545" lon="1.83378">
        <ele>139.05</ele>
        <time>2026-05-13T12:07:00Z</time>
      </trkpt>
      <trkpt lat="44.87521" lon="1.83389">
        <ele>139.05</ele>
        <time>2026-05-13T12:07:18Z</time>
      </trkpt>
      <trkpt lat="44.87494" lon="1.83395">
        <ele>139.53</ele>
        <time>2026-05-13T12:07:38Z</time>
      </trkpt>
      <trkpt lat="44.87485" lon="1.83398">
        <ele>140.01</ele>
        <time>2026-05-13T12:07:52Z</time>
      </trkpt>
      <trkpt lat="44.87484" lon="1.83398">
        <ele>140.01</ele>
        <time>2026-05-13T12:07:53Z</time>
      </trkpt>
      <trkpt lat="44.87483" lon="1.83399">
        <ele>140.01</ele>
        <time>2026-05-13T12:07:54Z</time>
      </trkpt>
      <trkpt lat="44.87462" lon="1.83403">
        <ele>140.01</ele>
        <time>2026-05-13T12:08:16Z</time>
      </trkpt>
      <trkpt lat="44.87461" lon="1.83401">
        <ele>140.01</ele>
        <time>2026-05-13T12:08:21Z</time>
      </trkpt>
      <trkpt lat="44.87457" lon="1.83402">
        <ele>140.01</ele>
        <time>2026-05-13T12:08:25Z</time>
      </trkpt>
      <trkpt lat="44.87435" lon="1.83407">
        <ele>140.49</ele>
        <time>2026-05-13T12:08:43Z</time>
      </trkpt>
      <trkpt lat="44.87412" lon="1.83405">
        <ele>140.49</ele>
        <time>2026-05-13T12:09:01Z</time>
      </trkpt>
      <trkpt lat="44.87391" lon="1.83402">
        <ele>140.97</ele>
        <time>2026-05-13T12:09:22Z</time>
      </trkpt>
      <trkpt lat="44.87385" lon="1.83405">
        <ele>141.45</ele>
        <time>2026-05-13T12:09:38Z</time>
      </trkpt>
      <trkpt lat="44.87384" lon="1.83405">
        <ele>141.45</ele>
        <time>2026-05-13T12:09:39Z</time>
      </trkpt>
      <trkpt lat="44.87382" lon="1.83405">
        <ele>141.45</ele>
        <time>2026-05-13T12:09:40Z</time>
      </trkpt>
      <trkpt lat="44.87355" lon="1.83406">
        <ele>141.45</ele>
        <time>2026-05-13T12:10:02Z</time>
      </trkpt>
      <trkpt lat="44.87327" lon="1.83406">
        <ele>141.93</ele>
        <time>2026-05-13T12:10:23Z</time>
      </trkpt>
      <trkpt lat="44.87304" lon="1.83403">
        <ele>142.89</ele>
        <time>2026-05-13T12:10:40Z</time>
      </trkpt>
      <trkpt lat="44.87284" lon="1.834">
        <ele>143.37</ele>
        <time>2026-05-13T12:10:57Z</time>
      </trkpt>
      <trkpt lat="44.87266" lon="1.83391">
        <ele>144.82</ele>
        <time>2026-05-13T12:11:12Z</time>
      </trkpt>
      <trkpt lat="44.87261" lon="1.83394">
        <ele>144.82</ele>
        <time>2026-05-13T12:11:17Z</time>
      </trkpt>
      <trkpt lat="44.87259" lon="1.83395">
        <ele>144.82</ele>
        <time>2026-05-13T12:11:18Z</time>
      </trkpt>
      <trkpt lat="44.87257" lon="1.83395">
        <ele>144.82</ele>
        <time>2026-05-13T12:11:19Z</time>
      </trkpt>
      <trkpt lat="44.87256" lon="1.83396">
        <ele>144.82</ele>
        <time>2026-05-13T12:11:20Z</time>
      </trkpt>
      <trkpt lat="44.87255" lon="1.83397">
        <ele>144.82</ele>
        <time>2026-05-13T12:11:21Z</time>
      </trkpt>
      <trkpt lat="44.87242" lon="1.8342">
        <ele>144.34</ele>
        <time>2026-05-13T12:11:35Z</time>
      </trkpt>
      <trkpt lat="44.8723" lon="1.83437">
        <ele>144.82</ele>
        <time>2026-05-13T12:11:47Z</time>
      </trkpt>
      <trkpt lat="44.87228" lon="1.83437">
        <ele>144.82</ele>
        <time>2026-05-13T12:11:48Z</time>
      </trkpt>
      <trkpt lat="44.87208" lon="1.83432">
        <ele>144.82</ele>
        <time>2026-05-13T12:12:05Z</time>
      </trkpt>
      <trkpt lat="44.87189" lon="1.83431">
        <ele>143.37</ele>
        <time>2026-05-13T12:12:20Z</time>
      </trkpt>
      <trkpt lat="44.87173" lon="1.83447">
        <ele>143.37</ele>
        <time>2026-05-13T12:12:35Z</time>
      </trkpt>
      <trkpt lat="44.87157" lon="1.83465">
        <ele>142.89</ele>
        <time>2026-05-13T12:12:52Z</time>
      </trkpt>
      <trkpt lat="44.87134" lon="1.83456">
        <ele>144.34</ele>
        <time>2026-05-13T12:13:09Z</time>
      </trkpt>
      <trkpt lat="44.87133" lon="1.83455">
        <ele>144.34</ele>
        <time>2026-05-13T12:13:10Z</time>
      </trkpt>
      <trkpt lat="44.87132" lon="1.83454">
        <ele>142.89</ele>
        <time>2026-05-13T12:13:12Z</time>
      </trkpt>
      <trkpt lat="44.87109" lon="1.8344">
        <ele>142.89</ele>
        <time>2026-05-13T12:13:31Z</time>
      </trkpt>
      <trkpt lat="44.87089" lon="1.8343">
        <ele>144.34</ele>
        <time>2026-05-13T12:13:47Z</time>
      </trkpt>
      <trkpt lat="44.87069" lon="1.83423">
        <ele>144.34</ele>
        <time>2026-05-13T12:14:04Z</time>
      </trkpt>
      <trkpt lat="44.87048" lon="1.83417">
        <ele>144.34</ele>
        <time>2026-05-13T12:14:21Z</time>
      </trkpt>
      <trkpt lat="44.87031" lon="1.83411">
        <ele>145.3</ele>
        <time>2026-05-13T12:14:37Z</time>
      </trkpt>
      <trkpt lat="44.87026" lon="1.83409">
        <ele>145.3</ele>
        <time>2026-05-13T12:14:42Z</time>
      </trkpt>
      <trkpt lat="44.87025" lon="1.83409">
        <ele>145.3</ele>
        <time>2026-05-13T12:14:43Z</time>
      </trkpt>
      <trkpt lat="44.87024" lon="1.83408">
        <ele>145.3</ele>
        <time>2026-05-13T12:14:44Z</time>
      </trkpt>
      <trkpt lat="44.8701" lon="1.83403">
        <ele>145.3</ele>
        <time>2026-05-13T12:14:55Z</time>
      </trkpt>
      <trkpt lat="44.87007" lon="1.83402">
        <ele>145.3</ele>
        <time>2026-05-13T12:14:56Z</time>
      </trkpt>
      <trkpt lat="44.86984" lon="1.8339">
        <ele>145.3</ele>
        <time>2026-05-13T12:15:11Z</time>
      </trkpt>
      <trkpt lat="44.86966" lon="1.83377">
        <ele>145.78</ele>
        <time>2026-05-13T12:15:27Z</time>
      </trkpt>
      <trkpt lat="44.86953" lon="1.83366">
        <ele>145.78</ele>
        <time>2026-05-13T12:15:37Z</time>
      </trkpt>
      <trkpt lat="44.86952" lon="1.83365">
        <ele>145.78</ele>
        <time>2026-05-13T12:15:38Z</time>
      </trkpt>
      <trkpt lat="44.86951" lon="1.83364">
        <ele>145.78</ele>
        <time>2026-05-13T12:15:39Z</time>
      </trkpt>
      <trkpt lat="44.86936" lon="1.83351">
        <ele>145.78</ele>
        <time>2026-05-13T12:15:53Z</time>
      </trkpt>
      <trkpt lat="44.8692" lon="1.83338">
        <ele>145.3</ele>
        <time>2026-05-13T12:16:07Z</time>
      </trkpt>
      <trkpt lat="44.86905" lon="1.83323">
        <ele>145.78</ele>
        <time>2026-05-13T12:16:22Z</time>
      </trkpt>
      <trkpt lat="44.86891" lon="1.83304">
        <ele>146.26</ele>
        <time>2026-05-13T12:16:38Z</time>
      </trkpt>
      <trkpt lat="44.86873" lon="1.83284">
        <ele>146.74</ele>
        <time>2026-05-13T12:16:53Z</time>
      </trkpt>
      <trkpt lat="44.8686" lon="1.83264">
        <ele>146.74</ele>
        <time>2026-05-13T12:17:08Z</time>
      </trkpt>
      <trkpt lat="44.86852" lon="1.83247">
        <ele>146.74</ele>
        <time>2026-05-13T12:17:21Z</time>
      </trkpt>
      <trkpt lat="44.86838" lon="1.83229">
        <ele>147.22</ele>
        <time>2026-05-13T12:17:36Z</time>
      </trkpt>
      <trkpt lat="44.86821" lon="1.83216">
        <ele>147.22</ele>
        <time>2026-05-13T12:17:52Z</time>
      </trkpt>
      <trkpt lat="44.8682" lon="1.83215">
        <ele>147.22</ele>
        <time>2026-05-13T12:17:53Z</time>
      </trkpt>
      <trkpt lat="44.86815" lon="1.83214">
        <ele>147.22</ele>
        <time>2026-05-13T12:17:56Z</time>
      </trkpt>
      <trkpt lat="44.86812" lon="1.83213">
        <ele>149.14</ele>
        <time>2026-05-13T12:17:58Z</time>
      </trkpt>
      <trkpt lat="44.86798" lon="1.83193">
        <ele>149.14</ele>
        <time>2026-05-13T12:18:15Z</time>
      </trkpt>
      <trkpt lat="44.86777" lon="1.83164">
        <ele>149.14</ele>
        <time>2026-05-13T12:18:32Z</time>
      </trkpt>
      <trkpt lat="44.86768" lon="1.83155">
        <ele>149.14</ele>
        <time>2026-05-13T12:18:41Z</time>
      </trkpt>
      <trkpt lat="44.86764" lon="1.8315">
        <ele>149.14</ele>
        <time>2026-05-13T12:18:45Z</time>
      </trkpt>
      <trkpt lat="44.86763" lon="1.83149">
        <ele>149.14</ele>
        <time>2026-05-13T12:18:46Z</time>
      </trkpt>
      <trkpt lat="44.86764" lon="1.83145">
        <ele>149.14</ele>
        <time>2026-05-13T12:19:05Z</time>
      </trkpt>
      <trkpt lat="44.86757" lon="1.8314">
        <ele>149.14</ele>
        <time>2026-05-13T12:19:21Z</time>
      </trkpt>
      <trkpt lat="44.86745" lon="1.83127">
        <ele>149.62</ele>
        <time>2026-05-13T12:19:34Z</time>
      </trkpt>
      <trkpt lat="44.86729" lon="1.83111">
        <ele>149.62</ele>
        <time>2026-05-13T12:19:50Z</time>
      </trkpt>
      <trkpt lat="44.86709" lon="1.83095">
        <ele>149.62</ele>
        <time>2026-05-13T12:20:07Z</time>
      </trkpt>
      <trkpt lat="44.867" lon="1.83095">
        <ele>149.62</ele>
        <time>2026-05-13T12:20:14Z</time>
      </trkpt>
      <trkpt lat="44.86698" lon="1.83095">
        <ele>149.62</ele>
        <time>2026-05-13T12:20:16Z</time>
      </trkpt>
      <trkpt lat="44.86694" lon="1.83094">
        <ele>149.62</ele>
        <time>2026-05-13T12:20:19Z</time>
      </trkpt>
      <trkpt lat="44.86692" lon="1.83094">
        <ele>149.62</ele>
        <time>2026-05-13T12:20:20Z</time>
      </trkpt>
      <trkpt lat="44.8669" lon="1.83094">
        <ele>149.62</ele>
        <time>2026-05-13T12:20:21Z</time>
      </trkpt>
      <trkpt lat="44.86677" lon="1.83092">
        <ele>150.1</ele>
        <time>2026-05-13T12:20:34Z</time>
      </trkpt>
      <trkpt lat="44.86661" lon="1.83077">
        <ele>150.58</ele>
        <time>2026-05-13T12:20:49Z</time>
      </trkpt>
      <trkpt lat="44.86646" lon="1.83062">
        <ele>150.1</ele>
        <time>2026-05-13T12:21:03Z</time>
      </trkpt>
      <trkpt lat="44.86626" lon="1.83048">
        <ele>150.1</ele>
        <time>2026-05-13T12:21:18Z</time>
      </trkpt>
      <trkpt lat="44.86608" lon="1.83029">
        <ele>150.1</ele>
        <time>2026-05-13T12:21:33Z</time>
      </trkpt>
      <trkpt lat="44.8659" lon="1.83011">
        <ele>150.58</ele>
        <time>2026-05-13T12:21:49Z</time>
      </trkpt>
      <trkpt lat="44.86589" lon="1.83007">
        <ele>150.58</ele>
        <time>2026-05-13T12:21:52Z</time>
      </trkpt>
      <trkpt lat="44.86589" lon="1.83007">
        <ele>150.58</ele>
        <time>2026-05-13T12:22:08Z</time>
      </trkpt>
      <trkpt lat="44.8659" lon="1.83008">
        <ele>150.58</ele>
        <time>2026-05-13T12:22:26Z</time>
      </trkpt>
      <trkpt lat="44.86572" lon="1.83003">
        <ele>150.58</ele>
        <time>2026-05-13T12:22:40Z</time>
      </trkpt>
      <trkpt lat="44.86561" lon="1.82997">
        <ele>151.06</ele>
        <time>2026-05-13T12:22:49Z</time>
      </trkpt>
      <trkpt lat="44.86553" lon="1.82987">
        <ele>150.58</ele>
        <time>2026-05-13T12:22:58Z</time>
      </trkpt>
      <trkpt lat="44.86543" lon="1.82956">
        <ele>151.06</ele>
        <time>2026-05-13T12:23:16Z</time>
      </trkpt>
      <trkpt lat="44.86529" lon="1.82933">
        <ele>151.54</ele>
        <time>2026-05-13T12:23:32Z</time>
      </trkpt>
      <trkpt lat="44.86518" lon="1.82902">
        <ele>151.54</ele>
        <time>2026-05-13T12:23:50Z</time>
      </trkpt>
      <trkpt lat="44.86506" lon="1.82881">
        <ele>152.51</ele>
        <time>2026-05-13T12:24:05Z</time>
      </trkpt>
      <trkpt lat="44.86488" lon="1.8286">
        <ele>152.99</ele>
        <time>2026-05-13T12:24:22Z</time>
      </trkpt>
      <trkpt lat="44.8647" lon="1.82845">
        <ele>152.99</ele>
        <time>2026-05-13T12:24:37Z</time>
      </trkpt>
      <trkpt lat="44.86452" lon="1.8283">
        <ele>153.47</ele>
        <time>2026-05-13T12:24:52Z</time>
      </trkpt>
      <trkpt lat="44.86439" lon="1.82812">
        <ele>153.47</ele>
        <time>2026-05-13T12:25:07Z</time>
      </trkpt>
      <trkpt lat="44.86425" lon="1.82793">
        <ele>153.47</ele>
        <time>2026-05-13T12:25:22Z</time>
      </trkpt>
      <trkpt lat="44.86403" lon="1.82781">
        <ele>153.47</ele>
        <time>2026-05-13T12:25:39Z</time>
      </trkpt>
      <trkpt lat="44.86379" lon="1.82776">
        <ele>153.95</ele>
        <time>2026-05-13T12:25:57Z</time>
      </trkpt>
      <trkpt lat="44.86373" lon="1.82774">
        <ele>154.43</ele>
        <time>2026-05-13T12:26:03Z</time>
      </trkpt>
      <trkpt lat="44.86371" lon="1.82774">
        <ele>154.43</ele>
        <time>2026-05-13T12:26:05Z</time>
      </trkpt>
      <trkpt lat="44.86363" lon="1.8277">
        <ele>154.43</ele>
        <time>2026-05-13T12:26:12Z</time>
      </trkpt>
      <trkpt lat="44.86362" lon="1.82769">
        <ele>154.43</ele>
        <time>2026-05-13T12:26:13Z</time>
      </trkpt>
      <trkpt lat="44.86354" lon="1.82763">
        <ele>154.91</ele>
        <time>2026-05-13T12:26:19Z</time>
      </trkpt>
      <trkpt lat="44.86353" lon="1.82762">
        <ele>154.91</ele>
        <time>2026-05-13T12:26:20Z</time>
      </trkpt>
      <trkpt lat="44.86352" lon="1.82761">
        <ele>154.91</ele>
        <time>2026-05-13T12:26:21Z</time>
      </trkpt>
      <trkpt lat="44.86335" lon="1.82742">
        <ele>154.43</ele>
        <time>2026-05-13T12:26:37Z</time>
      </trkpt>
      <trkpt lat="44.86317" lon="1.82721">
        <ele>154.43</ele>
        <time>2026-05-13T12:26:54Z</time>
      </trkpt>
      <trkpt lat="44.86299" lon="1.82705">
        <ele>154.91</ele>
        <time>2026-05-13T12:27:11Z</time>
      </trkpt>
      <trkpt lat="44.86298" lon="1.82704">
        <ele>154.91</ele>
        <time>2026-05-13T12:27:12Z</time>
      </trkpt>
      <trkpt lat="44.86285" lon="1.82695">
        <ele>154.91</ele>
        <time>2026-05-13T12:27:25Z</time>
      </trkpt>
      <trkpt lat="44.86281" lon="1.82692">
        <ele>154.91</ele>
        <time>2026-05-13T12:27:27Z</time>
      </trkpt>
      <trkpt lat="44.86279" lon="1.82691">
        <ele>154.91</ele>
        <time>2026-05-13T12:27:28Z</time>
      </trkpt>
      <trkpt lat="44.86269" lon="1.82684">
        <ele>155.39</ele>
        <time>2026-05-13T12:27:37Z</time>
      </trkpt>
      <trkpt lat="44.86267" lon="1.82683">
        <ele>155.39</ele>
        <time>2026-05-13T12:27:38Z</time>
      </trkpt>
      <trkpt lat="44.86247" lon="1.82676">
        <ele>155.87</ele>
        <time>2026-05-13T12:27:54Z</time>
      </trkpt>
      <trkpt lat="44.86238" lon="1.82671">
        <ele>155.87</ele>
        <time>2026-05-13T12:28:01Z</time>
      </trkpt>
      <trkpt lat="44.86237" lon="1.82669">
        <ele>155.87</ele>
        <time>2026-05-13T12:28:02Z</time>
      </trkpt>
      <trkpt lat="44.86221" lon="1.82653">
        <ele>155.87</ele>
        <time>2026-05-13T12:28:17Z</time>
      </trkpt>
      <trkpt lat="44.86214" lon="1.82647">
        <ele>156.35</ele>
        <time>2026-05-13T12:28:23Z</time>
      </trkpt>
      <trkpt lat="44.86206" lon="1.82641">
        <ele>156.35</ele>
        <time>2026-05-13T12:28:31Z</time>
      </trkpt>
      <trkpt lat="44.86205" lon="1.8264">
        <ele>156.83</ele>
        <time>2026-05-13T12:28:32Z</time>
      </trkpt>
      <trkpt lat="44.86203" lon="1.82639">
        <ele>156.83</ele>
        <time>2026-05-13T12:28:33Z</time>
      </trkpt>
      <trkpt lat="44.86186" lon="1.82626">
        <ele>156.35</ele>
        <time>2026-05-13T12:28:49Z</time>
      </trkpt>
      <trkpt lat="44.86169" lon="1.82609">
        <ele>156.83</ele>
        <time>2026-05-13T12:29:04Z</time>
      </trkpt>
      <trkpt lat="44.8616" lon="1.82595">
        <ele>156.83</ele>
        <time>2026-05-13T12:29:15Z</time>
      </trkpt>
      <trkpt lat="44.8616" lon="1.82593">
        <ele>157.31</ele>
        <time>2026-05-13T12:29:16Z</time>
      </trkpt>
      <trkpt lat="44.86159" lon="1.82591">
        <ele>157.31</ele>
        <time>2026-05-13T12:29:17Z</time>
      </trkpt>
      <trkpt lat="44.86158" lon="1.82589">
        <ele>157.31</ele>
        <time>2026-05-13T12:29:18Z</time>
      </trkpt>
      <trkpt lat="44.86157" lon="1.82588">
        <ele>157.31</ele>
        <time>2026-05-13T12:29:19Z</time>
      </trkpt>
      <trkpt lat="44.86139" lon="1.82569">
        <ele>157.79</ele>
        <time>2026-05-13T12:29:35Z</time>
      </trkpt>
      <trkpt lat="44.86124" lon="1.82552">
        <ele>157.79</ele>
        <time>2026-05-13T12:29:50Z</time>
      </trkpt>
      <trkpt lat="44.86108" lon="1.82534">
        <ele>157.79</ele>
        <time>2026-05-13T12:30:06Z</time>
      </trkpt>
      <trkpt lat="44.86095" lon="1.82513">
        <ele>158.27</ele>
        <time>2026-05-13T12:30:19Z</time>
      </trkpt>
      <trkpt lat="44.8608" lon="1.82491">
        <ele>157.79</ele>
        <time>2026-05-13T12:30:35Z</time>
      </trkpt>
      <trkpt lat="44.86066" lon="1.82474">
        <ele>158.75</ele>
        <time>2026-05-13T12:30:49Z</time>
      </trkpt>
      <trkpt lat="44.86056" lon="1.82471">
        <ele>158.75</ele>
        <time>2026-05-13T12:31:02Z</time>
      </trkpt>
      <trkpt lat="44.86055" lon="1.82469">
        <ele>158.75</ele>
        <time>2026-05-13T12:31:03Z</time>
      </trkpt>
      <trkpt lat="44.8605" lon="1.82459">
        <ele>158.75</ele>
        <time>2026-05-13T12:31:11Z</time>
      </trkpt>
      <trkpt lat="44.86049" lon="1.82457">
        <ele>158.75</ele>
        <time>2026-05-13T12:31:12Z</time>
      </trkpt>
      <trkpt lat="44.86048" lon="1.82455">
        <ele>158.75</ele>
        <time>2026-05-13T12:31:13Z</time>
      </trkpt>
      <trkpt lat="44.8604" lon="1.82437">
        <ele>158.75</ele>
        <time>2026-05-13T12:31:27Z</time>
      </trkpt>
      <trkpt lat="44.86038" lon="1.82432">
        <ele>158.75</ele>
        <time>2026-05-13T12:31:44Z</time>
      </trkpt>
      <trkpt lat="44.86036" lon="1.82431">
        <ele>158.27</ele>
        <time>2026-05-13T12:31:49Z</time>
      </trkpt>
      <trkpt lat="44.86035" lon="1.82431">
        <ele>158.27</ele>
        <time>2026-05-13T12:31:50Z</time>
      </trkpt>
      <trkpt lat="44.86033" lon="1.8243">
        <ele>158.27</ele>
        <time>2026-05-13T12:31:51Z</time>
      </trkpt>
      <trkpt lat="44.86024" lon="1.82423">
        <ele>158.75</ele>
        <time>2026-05-13T12:32:06Z</time>
      </trkpt>
      <trkpt lat="44.86028" lon="1.82428">
        <ele>158.75</ele>
        <time>2026-05-13T12:32:33Z</time>
      </trkpt>
      <trkpt lat="44.86027" lon="1.82429">
        <ele>158.75</ele>
        <time>2026-05-13T12:32:44Z</time>
      </trkpt>
      <trkpt lat="44.86026" lon="1.82427">
        <ele>158.75</ele>
        <time>2026-05-13T12:32:45Z</time>
      </trkpt>
      <trkpt lat="44.86024" lon="1.82426">
        <ele>158.75</ele>
        <time>2026-05-13T12:32:46Z</time>
      </trkpt>
      <trkpt lat="44.86007" lon="1.8241">
        <ele>159.24</ele>
        <time>2026-05-13T12:33:03Z</time>
      </trkpt>
      <trkpt lat="44.86006" lon="1.82409">
        <ele>159.24</ele>
        <time>2026-05-13T12:33:04Z</time>
      </trkpt>
      <trkpt lat="44.86" lon="1.82402">
        <ele>159.24</ele>
        <time>2026-05-13T12:33:14Z</time>
      </trkpt>
      <trkpt lat="44.85999" lon="1.82401">
        <ele>159.24</ele>
        <time>2026-05-13T12:33:15Z</time>
      </trkpt>
      <trkpt lat="44.85987" lon="1.82391">
        <ele>159.72</ele>
        <time>2026-05-13T12:33:27Z</time>
      </trkpt>
      <trkpt lat="44.85976" lon="1.82365">
        <ele>160.2</ele>
        <time>2026-05-13T12:33:43Z</time>
      </trkpt>
      <trkpt lat="44.85967" lon="1.8234">
        <ele>160.68</ele>
        <time>2026-05-13T12:34:00Z</time>
      </trkpt>
      <trkpt lat="44.85954" lon="1.82322">
        <ele>160.68</ele>
        <time>2026-05-13T12:34:15Z</time>
      </trkpt>
      <trkpt lat="44.85933" lon="1.82309">
        <ele>161.16</ele>
        <time>2026-05-13T12:34:33Z</time>
      </trkpt>
      <trkpt lat="44.85912" lon="1.82302">
        <ele>161.64</ele>
        <time>2026-05-13T12:34:50Z</time>
      </trkpt>
      <trkpt lat="44.85902" lon="1.82296">
        <ele>161.16</ele>
        <time>2026-05-13T12:34:57Z</time>
      </trkpt>
      <trkpt lat="44.85889" lon="1.82271">
        <ele>162.12</ele>
        <time>2026-05-13T12:35:15Z</time>
      </trkpt>
      <trkpt lat="44.8588" lon="1.82256">
        <ele>162.6</ele>
        <time>2026-05-13T12:35:25Z</time>
      </trkpt>
      <trkpt lat="44.85859" lon="1.82242">
        <ele>162.12</ele>
        <time>2026-05-13T12:35:42Z</time>
      </trkpt>
      <trkpt lat="44.85838" lon="1.82242">
        <ele>163.08</ele>
        <time>2026-05-13T12:35:58Z</time>
      </trkpt>
      <trkpt lat="44.85825" lon="1.82243">
        <ele>162.6</ele>
        <time>2026-05-13T12:36:08Z</time>
      </trkpt>
      <trkpt lat="44.85802" lon="1.82241">
        <ele>163.08</ele>
        <time>2026-05-13T12:36:25Z</time>
      </trkpt>
      <trkpt lat="44.85786" lon="1.82239">
        <ele>163.56</ele>
        <time>2026-05-13T12:36:38Z</time>
      </trkpt>
      <trkpt lat="44.85785" lon="1.82239">
        <ele>163.56</ele>
        <time>2026-05-13T12:36:39Z</time>
      </trkpt>
      <trkpt lat="44.85764" lon="1.82229">
        <ele>164.52</ele>
        <time>2026-05-13T12:36:55Z</time>
      </trkpt>
      <trkpt lat="44.85753" lon="1.82213">
        <ele>165.96</ele>
        <time>2026-05-13T12:37:10Z</time>
      </trkpt>
      <trkpt lat="44.85745" lon="1.82193">
        <ele>167.89</ele>
        <time>2026-05-13T12:37:24Z</time>
      </trkpt>
      <trkpt lat="44.85748" lon="1.82173">
        <ele>169.81</ele>
        <time>2026-05-13T12:37:39Z</time>
      </trkpt>
      <trkpt lat="44.85754" lon="1.82151">
        <ele>171.25</ele>
        <time>2026-05-13T12:37:53Z</time>
      </trkpt>
      <trkpt lat="44.85755" lon="1.82148">
        <ele>171.73</ele>
        <time>2026-05-13T12:37:56Z</time>
      </trkpt>
      <trkpt lat="44.85756" lon="1.82146">
        <ele>171.73</ele>
        <time>2026-05-13T12:37:57Z</time>
      </trkpt>
      <trkpt lat="44.85759" lon="1.82135">
        <ele>172.21</ele>
        <time>2026-05-13T12:38:05Z</time>
      </trkpt>
      <trkpt lat="44.85759" lon="1.82133">
        <ele>172.21</ele>
        <time>2026-05-13T12:38:06Z</time>
      </trkpt>
      <trkpt lat="44.85763" lon="1.82114">
        <ele>175.58</ele>
        <time>2026-05-13T12:38:20Z</time>
      </trkpt>
      <trkpt lat="44.85765" lon="1.82107">
        <ele>175.58</ele>
        <time>2026-05-13T12:38:32Z</time>
      </trkpt>
      <trkpt lat="44.85762" lon="1.82103">
        <ele>175.58</ele>
        <time>2026-05-13T12:38:50Z</time>
      </trkpt>
      <trkpt lat="44.85758" lon="1.82103">
        <ele>175.58</ele>
        <time>2026-05-13T12:39:05Z</time>
      </trkpt>
      <trkpt lat="44.85755" lon="1.82104">
        <ele>175.58</ele>
        <time>2026-05-13T12:39:30Z</time>
      </trkpt>
      <trkpt lat="44.85753" lon="1.82105">
        <ele>175.58</ele>
        <time>2026-05-13T12:39:45Z</time>
      </trkpt>
      <trkpt lat="44.8575" lon="1.82104">
        <ele>175.58</ele>
        <time>2026-05-13T12:39:48Z</time>
      </trkpt>
      <trkpt lat="44.85749" lon="1.82104">
        <ele>175.58</ele>
        <time>2026-05-13T12:39:49Z</time>
      </trkpt>
      <trkpt lat="44.85747" lon="1.82104">
        <ele>174.14</ele>
        <time>2026-05-13T12:39:50Z</time>
      </trkpt>
      <trkpt lat="44.85746" lon="1.82103">
        <ele>174.14</ele>
        <time>2026-05-13T12:39:51Z</time>
      </trkpt>
      <trkpt lat="44.85745" lon="1.82103">
        <ele>174.14</ele>
        <time>2026-05-13T12:39:52Z</time>
      </trkpt>
      <trkpt lat="44.85743" lon="1.82102">
        <ele>174.14</ele>
        <time>2026-05-13T12:39:53Z</time>
      </trkpt>
      <trkpt lat="44.85742" lon="1.82102">
        <ele>174.14</ele>
        <time>2026-05-13T12:39:54Z</time>
      </trkpt>
      <trkpt lat="44.85741" lon="1.82101">
        <ele>174.14</ele>
        <time>2026-05-13T12:39:55Z</time>
      </trkpt>
      <trkpt lat="44.85739" lon="1.82101">
        <ele>174.14</ele>
        <time>2026-05-13T12:39:56Z</time>
      </trkpt>
      <trkpt lat="44.85738" lon="1.821">
        <ele>174.14</ele>
        <time>2026-05-13T12:39:57Z</time>
      </trkpt>
      <trkpt lat="44.85727" lon="1.82097">
        <ele>173.17</ele>
        <time>2026-05-13T12:40:12Z</time>
      </trkpt>
      <trkpt lat="44.85727" lon="1.82096">
        <ele>173.17</ele>
        <time>2026-05-13T12:40:13Z</time>
      </trkpt>
      <trkpt lat="44.85725" lon="1.82095">
        <ele>173.17</ele>
        <time>2026-05-13T12:40:14Z</time>
      </trkpt>
      <trkpt lat="44.85709" lon="1.82092">
        <ele>171.73</ele>
        <time>2026-05-13T12:40:26Z</time>
      </trkpt>
      <trkpt lat="44.85689" lon="1.82089">
        <ele>170.77</ele>
        <time>2026-05-13T12:40:41Z</time>
      </trkpt>
      <trkpt lat="44.85664" lon="1.82092">
        <ele>169.33</ele>
        <time>2026-05-13T12:40:59Z</time>
      </trkpt>
      <trkpt lat="44.85639" lon="1.82094">
        <ele>168.85</ele>
        <time>2026-05-13T12:41:17Z</time>
      </trkpt>
      <trkpt lat="44.85621" lon="1.82089">
        <ele>168.85</ele>
        <time>2026-05-13T12:41:32Z</time>
      </trkpt>
      <trkpt lat="44.85606" lon="1.82087">
        <ele>168.37</ele>
        <time>2026-05-13T12:41:43Z</time>
      </trkpt>
      <trkpt lat="44.85604" lon="1.82087">
        <ele>168.37</ele>
        <time>2026-05-13T12:41:44Z</time>
      </trkpt>
      <trkpt lat="44.85603" lon="1.82087">
        <ele>168.37</ele>
        <time>2026-05-13T12:41:45Z</time>
      </trkpt>
      <trkpt lat="44.85601" lon="1.82086">
        <ele>168.37</ele>
        <time>2026-05-13T12:41:46Z</time>
      </trkpt>
      <trkpt lat="44.85599" lon="1.82085">
        <ele>168.37</ele>
        <time>2026-05-13T12:41:47Z</time>
      </trkpt>
      <trkpt lat="44.85588" lon="1.82083">
        <ele>168.37</ele>
        <time>2026-05-13T12:41:58Z</time>
      </trkpt>
      <trkpt lat="44.85576" lon="1.82084">
        <ele>168.37</ele>
        <time>2026-05-13T12:42:08Z</time>
      </trkpt>
      <trkpt lat="44.85554" lon="1.82086">
        <ele>168.37</ele>
        <time>2026-05-13T12:42:23Z</time>
      </trkpt>
      <trkpt lat="44.85535" lon="1.82091">
        <ele>169.33</ele>
        <time>2026-05-13T12:42:38Z</time>
      </trkpt>
      <trkpt lat="44.85534" lon="1.8209">
        <ele>169.33</ele>
        <time>2026-05-13T12:42:39Z</time>
      </trkpt>
      <trkpt lat="44.85533" lon="1.8209">
        <ele>169.33</ele>
        <time>2026-05-13T12:42:40Z</time>
      </trkpt>
      <trkpt lat="44.85524" lon="1.82087">
        <ele>169.81</ele>
        <time>2026-05-13T12:42:49Z</time>
      </trkpt>
      <trkpt lat="44.85522" lon="1.82087">
        <ele>170.29</ele>
        <time>2026-05-13T12:42:50Z</time>
      </trkpt>
      <trkpt lat="44.85505" lon="1.82086">
        <ele>170.77</ele>
        <time>2026-05-13T12:43:04Z</time>
      </trkpt>
      <trkpt lat="44.85502" lon="1.82088">
        <ele>171.25</ele>
        <time>2026-05-13T12:43:27Z</time>
      </trkpt>
      <trkpt lat="44.85497" lon="1.8209">
        <ele>171.25</ele>
        <time>2026-05-13T12:43:31Z</time>
      </trkpt>
      <trkpt lat="44.85496" lon="1.82091">
        <ele>171.25</ele>
        <time>2026-05-13T12:43:32Z</time>
      </trkpt>
      <trkpt lat="44.85495" lon="1.82093">
        <ele>171.25</ele>
        <time>2026-05-13T12:43:33Z</time>
      </trkpt>
      <trkpt lat="44.85494" lon="1.82094">
        <ele>171.25</ele>
        <time>2026-05-13T12:43:34Z</time>
      </trkpt>
      <trkpt lat="44.85493" lon="1.82095">
        <ele>171.25</ele>
        <time>2026-05-13T12:43:35Z</time>
      </trkpt>
      <trkpt lat="44.85492" lon="1.82096">
        <ele>171.73</ele>
        <time>2026-05-13T12:43:36Z</time>
      </trkpt>
      <trkpt lat="44.8548" lon="1.82106">
        <ele>172.69</ele>
        <time>2026-05-13T12:43:49Z</time>
      </trkpt>
      <trkpt lat="44.85468" lon="1.82116">
        <ele>174.14</ele>
        <time>2026-05-13T12:44:02Z</time>
      </trkpt>
      <trkpt lat="44.85454" lon="1.82119">
        <ele>177.02</ele>
        <time>2026-05-13T12:44:16Z</time>
      </trkpt>
      <trkpt lat="44.85453" lon="1.82113">
        <ele>177.98</ele>
        <time>2026-05-13T12:44:31Z</time>
      </trkpt>
      <trkpt lat="44.85451" lon="1.82118">
        <ele>177.98</ele>
        <time>2026-05-13T12:44:52Z</time>
      </trkpt>
      <trkpt lat="44.85448" lon="1.82118">
        <ele>177.98</ele>
        <time>2026-05-13T12:45:21Z</time>
      </trkpt>
      <trkpt lat="44.8545" lon="1.82119">
        <ele>178.46</ele>
        <time>2026-05-13T12:45:42Z</time>
      </trkpt>
      <trkpt lat="44.85447" lon="1.82114">
        <ele>178.94</ele>
        <time>2026-05-13T12:45:48Z</time>
      </trkpt>
      <trkpt lat="44.85442" lon="1.8211">
        <ele>179.42</ele>
        <time>2026-05-13T12:45:53Z</time>
      </trkpt>
      <trkpt lat="44.85442" lon="1.82109">
        <ele>179.42</ele>
        <time>2026-05-13T12:45:54Z</time>
      </trkpt>
      <trkpt lat="44.85439" lon="1.82103">
        <ele>179.9</ele>
        <time>2026-05-13T12:45:59Z</time>
      </trkpt>
      <trkpt lat="44.85438" lon="1.82102">
        <ele>180.38</ele>
        <time>2026-05-13T12:46:00Z</time>
      </trkpt>
      <trkpt lat="44.85428" lon="1.8209">
        <ele>181.35</ele>
        <time>2026-05-13T12:46:12Z</time>
      </trkpt>
      <trkpt lat="44.85427" lon="1.82087">
        <ele>181.83</ele>
        <time>2026-05-13T12:46:14Z</time>
      </trkpt>
      <trkpt lat="44.85412" lon="1.82073">
        <ele>183.27</ele>
        <time>2026-05-13T12:46:31Z</time>
      </trkpt>
      <trkpt lat="44.85409" lon="1.82071">
        <ele>183.75</ele>
        <time>2026-05-13T12:46:34Z</time>
      </trkpt>
      <trkpt lat="44.85409" lon="1.82069">
        <ele>183.75</ele>
        <time>2026-05-13T12:46:35Z</time>
      </trkpt>
      <trkpt lat="44.85405" lon="1.82068">
        <ele>184.23</ele>
        <time>2026-05-13T12:46:38Z</time>
      </trkpt>
      <trkpt lat="44.85389" lon="1.82069">
        <ele>185.19</ele>
        <time>2026-05-13T12:46:49Z</time>
      </trkpt>
      <trkpt lat="44.85388" lon="1.8207">
        <ele>185.19</ele>
        <time>2026-05-13T12:46:50Z</time>
      </trkpt>
      <trkpt lat="44.85386" lon="1.82071">
        <ele>185.19</ele>
        <time>2026-05-13T12:46:51Z</time>
      </trkpt>
      <trkpt lat="44.85385" lon="1.82072">
        <ele>185.19</ele>
        <time>2026-05-13T12:46:52Z</time>
      </trkpt>
      <trkpt lat="44.85371" lon="1.82083">
        <ele>186.63</ele>
        <time>2026-05-13T12:47:08Z</time>
      </trkpt>
      <trkpt lat="44.85365" lon="1.82079">
        <ele>187.11</ele>
        <time>2026-05-13T12:47:13Z</time>
      </trkpt>
      <trkpt lat="44.85358" lon="1.82071">
        <ele>187.11</ele>
        <time>2026-05-13T12:47:25Z</time>
      </trkpt>
      <trkpt lat="44.85354" lon="1.82063">
        <ele>187.11</ele>
        <time>2026-05-13T12:47:38Z</time>
      </trkpt>
      <trkpt lat="44.85358" lon="1.82074">
        <ele>187.11</ele>
        <time>2026-05-13T12:47:51Z</time>
      </trkpt>
      <trkpt lat="44.85359" lon="1.82079">
        <ele>187.59</ele>
        <time>2026-05-13T12:48:11Z</time>
      </trkpt>
      <trkpt lat="44.85357" lon="1.82072">
        <ele>187.59</ele>
        <time>2026-05-13T12:48:29Z</time>
      </trkpt>
      <trkpt lat="44.85359" lon="1.82066">
        <ele>187.59</ele>
        <time>2026-05-13T12:48:44Z</time>
      </trkpt>
      <trkpt lat="44.85359" lon="1.82066">
        <ele>186.15</ele>
        <time>2026-05-13T12:49:20Z</time>
      </trkpt>
      <trkpt lat="44.8536" lon="1.82068">
        <ele>187.59</ele>
        <time>2026-05-13T12:49:33Z</time>
      </trkpt>
      <trkpt lat="44.85358" lon="1.82068">
        <ele>186.15</ele>
        <time>2026-05-13T12:49:47Z</time>
      </trkpt>
      <trkpt lat="44.85356" lon="1.82065">
        <ele>185.67</ele>
        <time>2026-05-13T12:50:25Z</time>
      </trkpt>
      <trkpt lat="44.85357" lon="1.82064">
        <ele>185.67</ele>
        <time>2026-05-13T12:51:07Z</time>
      </trkpt>
      <trkpt lat="44.85357" lon="1.82067">
        <ele>185.19</ele>
        <time>2026-05-13T12:51:46Z</time>
      </trkpt>
      <trkpt lat="44.85356" lon="1.82068">
        <ele>186.63</ele>
        <time>2026-05-13T12:51:51Z</time>
      </trkpt>
      <trkpt lat="44.85362" lon="1.8207">
        <ele>185.67</ele>
        <time>2026-05-13T12:52:18Z</time>
      </trkpt>
      <trkpt lat="44.85354" lon="1.82077">
        <ele>185.19</ele>
        <time>2026-05-13T12:52:53Z</time>
      </trkpt>
      <trkpt lat="44.85348" lon="1.82081">
        <ele>185.19</ele>
        <time>2026-05-13T12:53:26Z</time>
      </trkpt>
      <trkpt lat="44.85349" lon="1.82083">
        <ele>185.19</ele>
        <time>2026-05-13T12:54:04Z</time>
      </trkpt>
      <trkpt lat="44.85356" lon="1.82069">
        <ele>185.19</ele>
        <time>2026-05-13T12:54:39Z</time>
      </trkpt>
      <trkpt lat="44.85355" lon="1.82067">
        <ele>186.15</ele>
        <time>2026-05-13T12:55:09Z</time>
      </trkpt>
      <trkpt lat="44.85358" lon="1.82066">
        <ele>184.71</ele>
        <time>2026-05-13T12:55:42Z</time>
      </trkpt>
      <trkpt lat="44.85358" lon="1.82066">
        <ele>186.15</ele>
        <time>2026-05-13T12:56:21Z</time>
      </trkpt>
      <trkpt lat="44.85358" lon="1.82065">
        <ele>186.15</ele>
        <time>2026-05-13T12:56:48Z</time>
      </trkpt>
      <trkpt lat="44.85358" lon="1.82065">
        <ele>180.38</ele>
        <time>2026-05-13T12:56:50Z</time>
      </trkpt>
      <trkpt lat="44.85358" lon="1.82065">
        <ele>182.31</ele>
        <time>2026-05-13T12:56:51Z</time>
      </trkpt>
      <trkpt lat="44.85357" lon="1.82066">
        <ele>185.19</ele>
        <time>2026-05-13T12:56:54Z</time>
      </trkpt>
      <trkpt lat="44.85358" lon="1.82066">
        <ele>183.75</ele>
        <time>2026-05-13T12:57:06Z</time>
      </trkpt>
      <trkpt lat="44.85358" lon="1.82066">
        <ele>185.19</ele>
        <time>2026-05-13T12:57:08Z</time>
      </trkpt>
      <trkpt lat="44.85358" lon="1.82066">
        <ele>189.04</ele>
        <time>2026-05-13T12:57:09Z</time>
      </trkpt>
      <trkpt lat="44.85358" lon="1.82066">
        <ele>189.04</ele>
        <time>2026-05-13T12:57:10Z</time>
      </trkpt>
      <trkpt lat="44.85358" lon="1.82066">
        <ele>185.67</ele>
        <time>2026-05-13T12:57:12Z</time>
      </trkpt>
      <trkpt lat="44.85358" lon="1.82065">
        <ele>186.15</ele>
        <time>2026-05-13T12:57:18Z</time>
      </trkpt>
      <trkpt lat="44.85359" lon="1.82065">
        <ele>185.19</ele>
        <time>2026-05-13T12:57:22Z</time>
      </trkpt>
      <trkpt lat="44.85358" lon="1.82066">
        <ele>185.19</ele>
        <time>2026-05-13T12:57:58Z</time>
      </trkpt>
      <trkpt lat="44.85356" lon="1.82067">
        <ele>184.71</ele>
        <time>2026-05-13T12:58:38Z</time>
      </trkpt>
      <trkpt lat="44.85357" lon="1.82064">
        <ele>183.75</ele>
        <time>2026-05-13T12:59:05Z</time>
      </trkpt>
      <trkpt lat="44.85358" lon="1.82066">
        <ele>187.11</ele>
        <time>2026-05-13T12:59:07Z</time>
      </trkpt>
      <trkpt lat="44.85362" lon="1.82068">
        <ele>186.15</ele>
        <time>2026-05-13T12:59:21Z</time>
      </trkpt>
      <trkpt lat="44.85368" lon="1.82062">
        <ele>186.15</ele>
        <time>2026-05-13T13:00:01Z</time>
      </trkpt>
      <trkpt lat="44.85363" lon="1.82063">
        <ele>185.19</ele>
        <time>2026-05-13T13:00:34Z</time>
      </trkpt>
      <trkpt lat="44.85361" lon="1.82071">
        <ele>184.71</ele>
        <time>2026-05-13T13:01:07Z</time>
      </trkpt>
      <trkpt lat="44.85365" lon="1.82063">
        <ele>184.71</ele>
        <time>2026-05-13T13:01:43Z</time>
      </trkpt>
      <trkpt lat="44.85366" lon="1.82076">
        <ele>186.15</ele>
        <time>2026-05-13T13:02:22Z</time>
      </trkpt>
      <trkpt lat="44.85356" lon="1.82075">
        <ele>186.63</ele>
        <time>2026-05-13T13:02:50Z</time>
      </trkpt>
      <trkpt lat="44.85351" lon="1.82079">
        <ele>188.08</ele>
        <time>2026-05-13T13:02:56Z</time>
      </trkpt>
      <trkpt lat="44.85349" lon="1.8208">
        <ele>186.63</ele>
        <time>2026-05-13T13:02:59Z</time>
      </trkpt>
      <trkpt lat="44.85343" lon="1.82084">
        <ele>186.63</ele>
        <time>2026-05-13T13:03:06Z</time>
      </trkpt>
      <trkpt lat="44.85356" lon="1.82075">
        <ele>187.11</ele>
        <time>2026-05-13T13:03:27Z</time>
      </trkpt>
      <trkpt lat="44.85359" lon="1.82081">
        <ele>187.11</ele>
        <time>2026-05-13T13:03:44Z</time>
      </trkpt>
      <trkpt lat="44.8536" lon="1.82078">
        <ele>187.11</ele>
        <time>2026-05-13T13:04:10Z</time>
      </trkpt>
      <trkpt lat="44.8536" lon="1.82075">
        <ele>187.11</ele>
        <time>2026-05-13T13:04:12Z</time>
      </trkpt>
      <trkpt lat="44.85357" lon="1.82068">
        <ele>187.11</ele>
        <time>2026-05-13T13:04:17Z</time>
      </trkpt>
      <trkpt lat="44.85347" lon="1.82056">
        <ele>185.67</ele>
        <time>2026-05-13T13:04:27Z</time>
      </trkpt>
      <trkpt lat="44.8534" lon="1.8204">
        <ele>185.19</ele>
        <time>2026-05-13T13:04:41Z</time>
      </trkpt>
      <trkpt lat="44.85336" lon="1.82041">
        <ele>186.15</ele>
        <time>2026-05-13T13:04:50Z</time>
      </trkpt>
      <trkpt lat="44.85335" lon="1.8204">
        <ele>186.15</ele>
        <time>2026-05-13T13:05:13Z</time>
      </trkpt>
      <trkpt lat="44.85334" lon="1.8204">
        <ele>186.15</ele>
        <time>2026-05-13T13:05:27Z</time>
      </trkpt>
      <trkpt lat="44.85334" lon="1.8204">
        <ele>186.63</ele>
        <time>2026-05-13T13:05:32Z</time>
      </trkpt>
      <trkpt lat="44.85335" lon="1.82041">
        <ele>185.19</ele>
        <time>2026-05-13T13:05:38Z</time>
      </trkpt>
      <trkpt lat="44.85335" lon="1.82041">
        <ele>186.63</ele>
        <time>2026-05-13T13:05:41Z</time>
      </trkpt>
      <trkpt lat="44.85344" lon="1.82037">
        <ele>185.19</ele>
        <time>2026-05-13T13:05:52Z</time>
      </trkpt>
      <trkpt lat="44.85348" lon="1.82023">
        <ele>184.23</ele>
        <time>2026-05-13T13:06:13Z</time>
      </trkpt>
      <trkpt lat="44.8534" lon="1.82021">
        <ele>183.75</ele>
        <time>2026-05-13T13:06:38Z</time>
      </trkpt>
      <trkpt lat="44.85342" lon="1.8201">
        <ele>185.67</ele>
        <time>2026-05-13T13:07:06Z</time>
      </trkpt>
      <trkpt lat="44.85344" lon="1.82021">
        <ele>186.15</ele>
        <time>2026-05-13T13:07:34Z</time>
      </trkpt>
      <trkpt lat="44.8534" lon="1.82032">
        <ele>186.15</ele>
        <time>2026-05-13T13:07:57Z</time>
      </trkpt>
      <trkpt lat="44.85344" lon="1.82033">
        <ele>184.71</ele>
        <time>2026-05-13T13:08:03Z</time>
      </trkpt>
      <trkpt lat="44.85347" lon="1.8203">
        <ele>184.23</ele>
        <time>2026-05-13T13:08:39Z</time>
      </trkpt>
      <trkpt lat="44.85341" lon="1.82033">
        <ele>185.67</ele>
        <time>2026-05-13T13:09:00Z</time>
      </trkpt>
      <trkpt lat="44.85341" lon="1.82033">
        <ele>184.71</ele>
        <time>2026-05-13T13:09:15Z</time>
      </trkpt>
      <trkpt lat="44.85338" lon="1.8204">
        <ele>184.71</ele>
        <time>2026-05-13T13:09:41Z</time>
      </trkpt>
      <trkpt lat="44.85336" lon="1.82035">
        <ele>184.23</ele>
        <time>2026-05-13T13:10:02Z</time>
      </trkpt>
      <trkpt lat="44.85337" lon="1.82032">
        <ele>185.67</ele>
        <time>2026-05-13T13:10:24Z</time>
      </trkpt>
      <trkpt lat="44.85338" lon="1.82033">
        <ele>187.11</ele>
        <time>2026-05-13T13:10:30Z</time>
      </trkpt>
      <trkpt lat="44.85338" lon="1.82032">
        <ele>187.11</ele>
        <time>2026-05-13T13:10:31Z</time>
      </trkpt>
      <trkpt lat="44.85335" lon="1.82032">
        <ele>187.11</ele>
        <time>2026-05-13T13:10:43Z</time>
      </trkpt>
      <trkpt lat="44.85335" lon="1.82032">
        <ele>185.67</ele>
        <time>2026-05-13T13:10:46Z</time>
      </trkpt>
      <trkpt lat="44.85335" lon="1.82031">
        <ele>185.67</ele>
        <time>2026-05-13T13:10:48Z</time>
      </trkpt>
      <trkpt lat="44.85336" lon="1.82021">
        <ele>185.67</ele>
        <time>2026-05-13T13:10:55Z</time>
      </trkpt>
      <trkpt lat="44.85332" lon="1.82014">
        <ele>184.23</ele>
        <time>2026-05-13T13:11:16Z</time>
      </trkpt>
      <trkpt lat="44.85332" lon="1.82014">
        <ele>184.71</ele>
        <time>2026-05-13T13:11:22Z</time>
      </trkpt>
      <trkpt lat="44.85331" lon="1.82013">
        <ele>184.71</ele>
        <time>2026-05-13T13:11:35Z</time>
      </trkpt>
      <trkpt lat="44.85331" lon="1.82013">
        <ele>186.15</ele>
        <time>2026-05-13T13:11:37Z</time>
      </trkpt>
      <trkpt lat="44.85332" lon="1.82014">
        <ele>186.15</ele>
        <time>2026-05-13T13:11:46Z</time>
      </trkpt>
      <trkpt lat="44.8533" lon="1.82011">
        <ele>186.15</ele>
        <time>2026-05-13T13:11:49Z</time>
      </trkpt>
      <trkpt lat="44.85311" lon="1.81998">
        <ele>185.67</ele>
        <time>2026-05-13T13:12:07Z</time>
      </trkpt>
      <trkpt lat="44.8529" lon="1.81984">
        <ele>184.71</ele>
        <time>2026-05-13T13:12:24Z</time>
      </trkpt>
      <trkpt lat="44.85278" lon="1.81967">
        <ele>184.23</ele>
        <time>2026-05-13T13:12:38Z</time>
      </trkpt>
      <trkpt lat="44.85273" lon="1.81959">
        <ele>184.23</ele>
        <time>2026-05-13T13:12:43Z</time>
      </trkpt>
      <trkpt lat="44.85266" lon="1.81942">
        <ele>183.27</ele>
        <time>2026-05-13T13:12:54Z</time>
      </trkpt>
      <trkpt lat="44.85252" lon="1.81925">
        <ele>183.27</ele>
        <time>2026-05-13T13:13:10Z</time>
      </trkpt>
      <trkpt lat="44.85233" lon="1.81909">
        <ele>183.27</ele>
        <time>2026-05-13T13:13:25Z</time>
      </trkpt>
      <trkpt lat="44.8523" lon="1.81907">
        <ele>184.71</ele>
        <time>2026-05-13T13:13:27Z</time>
      </trkpt>
      <trkpt lat="44.85215" lon="1.81895">
        <ele>185.67</ele>
        <time>2026-05-13T13:13:41Z</time>
      </trkpt>
      <trkpt lat="44.85212" lon="1.81892">
        <ele>186.15</ele>
        <time>2026-05-13T13:13:45Z</time>
      </trkpt>
      <trkpt lat="44.85209" lon="1.8189">
        <ele>187.11</ele>
        <time>2026-05-13T13:13:57Z</time>
      </trkpt>
      <trkpt lat="44.85209" lon="1.81889">
        <ele>187.11</ele>
        <time>2026-05-13T13:13:58Z</time>
      </trkpt>
      <trkpt lat="44.85209" lon="1.81881">
        <ele>185.67</ele>
        <time>2026-05-13T13:14:03Z</time>
      </trkpt>
      <trkpt lat="44.8521" lon="1.8188">
        <ele>185.67</ele>
        <time>2026-05-13T13:14:04Z</time>
      </trkpt>
      <trkpt lat="44.8521" lon="1.81874">
        <ele>184.71</ele>
        <time>2026-05-13T13:14:08Z</time>
      </trkpt>
      <trkpt lat="44.85211" lon="1.81848">
        <ele>182.31</ele>
        <time>2026-05-13T13:14:23Z</time>
      </trkpt>
      <trkpt lat="44.85204" lon="1.81819">
        <ele>180.38</ele>
        <time>2026-05-13T13:14:39Z</time>
      </trkpt>
      <trkpt lat="44.85195" lon="1.81795">
        <ele>178.94</ele>
        <time>2026-05-13T13:14:53Z</time>
      </trkpt>
      <trkpt lat="44.85192" lon="1.81775">
        <ele>177.98</ele>
        <time>2026-05-13T13:15:07Z</time>
      </trkpt>
      <trkpt lat="44.85187" lon="1.81758">
        <ele>179.42</ele>
        <time>2026-05-13T13:15:22Z</time>
      </trkpt>
      <trkpt lat="44.85186" lon="1.81756">
        <ele>179.42</ele>
        <time>2026-05-13T13:15:24Z</time>
      </trkpt>
      <trkpt lat="44.85181" lon="1.8175">
        <ele>179.9</ele>
        <time>2026-05-13T13:15:30Z</time>
      </trkpt>
      <trkpt lat="44.85168" lon="1.81735">
        <ele>182.31</ele>
        <time>2026-05-13T13:15:44Z</time>
      </trkpt>
      <trkpt lat="44.85164" lon="1.81732">
        <ele>182.31</ele>
        <time>2026-05-13T13:15:48Z</time>
      </trkpt>
      <trkpt lat="44.85151" lon="1.81724">
        <ele>184.23</ele>
        <time>2026-05-13T13:16:02Z</time>
      </trkpt>
      <trkpt lat="44.85136" lon="1.81721">
        <ele>186.15</ele>
        <time>2026-05-13T13:16:15Z</time>
      </trkpt>
      <trkpt lat="44.85124" lon="1.81718">
        <ele>188.08</ele>
        <time>2026-05-13T13:16:27Z</time>
      </trkpt>
      <trkpt lat="44.85122" lon="1.81719">
        <ele>188.56</ele>
        <time>2026-05-13T13:16:29Z</time>
      </trkpt>
      <trkpt lat="44.85107" lon="1.81715">
        <ele>190</ele>
        <time>2026-05-13T13:16:43Z</time>
      </trkpt>
      <trkpt lat="44.85097" lon="1.81715">
        <ele>191.44</ele>
        <time>2026-05-13T13:16:52Z</time>
      </trkpt>
      <trkpt lat="44.8509" lon="1.81716">
        <ele>191.92</ele>
        <time>2026-05-13T13:16:59Z</time>
      </trkpt>
      <trkpt lat="44.85083" lon="1.81715">
        <ele>193.84</ele>
        <time>2026-05-13T13:17:05Z</time>
      </trkpt>
      <trkpt lat="44.85078" lon="1.81714">
        <ele>193.84</ele>
        <time>2026-05-13T13:17:09Z</time>
      </trkpt>
      <trkpt lat="44.85075" lon="1.81712">
        <ele>193.36</ele>
        <time>2026-05-13T13:17:12Z</time>
      </trkpt>
      <trkpt lat="44.85067" lon="1.81709">
        <ele>194.32</ele>
        <time>2026-05-13T13:17:20Z</time>
      </trkpt>
      <trkpt lat="44.85063" lon="1.81702">
        <ele>193.36</ele>
        <time>2026-05-13T13:17:27Z</time>
      </trkpt>
      <trkpt lat="44.85062" lon="1.817">
        <ele>192.4</ele>
        <time>2026-05-13T13:17:29Z</time>
      </trkpt>
      <trkpt lat="44.85061" lon="1.81698">
        <ele>192.4</ele>
        <time>2026-05-13T13:17:31Z</time>
      </trkpt>
      <trkpt lat="44.85058" lon="1.81693">
        <ele>192.4</ele>
        <time>2026-05-13T13:17:35Z</time>
      </trkpt>
      <trkpt lat="44.85048" lon="1.8167">
        <ele>190</ele>
        <time>2026-05-13T13:17:51Z</time>
      </trkpt>
      <trkpt lat="44.85044" lon="1.81659">
        <ele>190</ele>
        <time>2026-05-13T13:17:57Z</time>
      </trkpt>
      <trkpt lat="44.85041" lon="1.81655">
        <ele>189.04</ele>
        <time>2026-05-13T13:18:01Z</time>
      </trkpt>
      <trkpt lat="44.85024" lon="1.81643">
        <ele>190</ele>
        <time>2026-05-13T13:18:16Z</time>
      </trkpt>
      <trkpt lat="44.85015" lon="1.8164">
        <ele>190</ele>
        <time>2026-05-13T13:18:23Z</time>
      </trkpt>
      <trkpt lat="44.84999" lon="1.81619">
        <ele>190.48</ele>
        <time>2026-05-13T13:18:39Z</time>
      </trkpt>
      <trkpt lat="44.84987" lon="1.81614">
        <ele>190.48</ele>
        <time>2026-05-13T13:18:50Z</time>
      </trkpt>
      <trkpt lat="44.84981" lon="1.81612">
        <ele>190.48</ele>
        <time>2026-05-13T13:18:54Z</time>
      </trkpt>
      <trkpt lat="44.84967" lon="1.81604">
        <ele>191.44</ele>
        <time>2026-05-13T13:19:07Z</time>
      </trkpt>
      <trkpt lat="44.8496" lon="1.81601">
        <ele>191.92</ele>
        <time>2026-05-13T13:19:12Z</time>
      </trkpt>
      <trkpt lat="44.84957" lon="1.816">
        <ele>191.92</ele>
        <time>2026-05-13T13:19:15Z</time>
      </trkpt>
      <trkpt lat="44.84949" lon="1.81597">
        <ele>192.4</ele>
        <time>2026-05-13T13:19:23Z</time>
      </trkpt>
      <trkpt lat="44.84938" lon="1.81588">
        <ele>193.36</ele>
        <time>2026-05-13T13:19:32Z</time>
      </trkpt>
      <trkpt lat="44.84933" lon="1.81584">
        <ele>193.36</ele>
        <time>2026-05-13T13:19:36Z</time>
      </trkpt>
      <trkpt lat="44.84929" lon="1.81582">
        <ele>193.36</ele>
        <time>2026-05-13T13:19:39Z</time>
      </trkpt>
      <trkpt lat="44.84915" lon="1.81573">
        <ele>194.32</ele>
        <time>2026-05-13T13:19:52Z</time>
      </trkpt>
      <trkpt lat="44.84903" lon="1.81559">
        <ele>194.8</ele>
        <time>2026-05-13T13:20:05Z</time>
      </trkpt>
      <trkpt lat="44.84901" lon="1.81556">
        <ele>194.8</ele>
        <time>2026-05-13T13:20:08Z</time>
      </trkpt>
      <trkpt lat="44.8489" lon="1.81538">
        <ele>194.8</ele>
        <time>2026-05-13T13:20:22Z</time>
      </trkpt>
      <trkpt lat="44.84886" lon="1.81534">
        <ele>194.8</ele>
        <time>2026-05-13T13:20:27Z</time>
      </trkpt>
      <trkpt lat="44.84873" lon="1.81515">
        <ele>195.28</ele>
        <time>2026-05-13T13:20:41Z</time>
      </trkpt>
      <trkpt lat="44.84866" lon="1.81501">
        <ele>196.73</ele>
        <time>2026-05-13T13:20:52Z</time>
      </trkpt>
      <trkpt lat="44.84853" lon="1.81481">
        <ele>198.17</ele>
        <time>2026-05-13T13:21:08Z</time>
      </trkpt>
      <trkpt lat="44.84846" lon="1.81475">
        <ele>199.13</ele>
        <time>2026-05-13T13:21:16Z</time>
      </trkpt>
      <trkpt lat="44.84844" lon="1.81473">
        <ele>199.61</ele>
        <time>2026-05-13T13:21:18Z</time>
      </trkpt>
      <trkpt lat="44.8484" lon="1.81464">
        <ele>200.09</ele>
        <time>2026-05-13T13:21:24Z</time>
      </trkpt>
      <trkpt lat="44.84834" lon="1.81455">
        <ele>201.05</ele>
        <time>2026-05-13T13:21:31Z</time>
      </trkpt>
      <trkpt lat="44.84833" lon="1.81452">
        <ele>201.05</ele>
        <time>2026-05-13T13:21:33Z</time>
      </trkpt>
      <trkpt lat="44.84824" lon="1.81431">
        <ele>202.01</ele>
        <time>2026-05-13T13:21:47Z</time>
      </trkpt>
      <trkpt lat="44.8482" lon="1.81414">
        <ele>202.49</ele>
        <time>2026-05-13T13:21:58Z</time>
      </trkpt>
      <trkpt lat="44.84808" lon="1.81392">
        <ele>203.94</ele>
        <time>2026-05-13T13:22:15Z</time>
      </trkpt>
      <trkpt lat="44.84795" lon="1.81375">
        <ele>204.42</ele>
        <time>2026-05-13T13:22:30Z</time>
      </trkpt>
      <trkpt lat="44.84785" lon="1.81358">
        <ele>204.42</ele>
        <time>2026-05-13T13:22:43Z</time>
      </trkpt>
      <trkpt lat="44.84772" lon="1.81342">
        <ele>205.38</ele>
        <time>2026-05-13T13:23:01Z</time>
      </trkpt>
      <trkpt lat="44.8476" lon="1.81342">
        <ele>205.38</ele>
        <time>2026-05-13T13:23:22Z</time>
      </trkpt>
      <trkpt lat="44.84764" lon="1.81336">
        <ele>206.34</ele>
        <time>2026-05-13T13:23:42Z</time>
      </trkpt>
      <trkpt lat="44.84758" lon="1.81321">
        <ele>208.26</ele>
        <time>2026-05-13T13:23:57Z</time>
      </trkpt>
      <trkpt lat="44.84743" lon="1.81307">
        <ele>208.26</ele>
        <time>2026-05-13T13:24:11Z</time>
      </trkpt>
      <trkpt lat="44.84742" lon="1.81305">
        <ele>208.26</ele>
        <time>2026-05-13T13:24:12Z</time>
      </trkpt>
      <trkpt lat="44.84735" lon="1.81298">
        <ele>206.82</ele>
        <time>2026-05-13T13:24:19Z</time>
      </trkpt>
      <trkpt lat="44.84735" lon="1.81294">
        <ele>207.3</ele>
        <time>2026-05-13T13:24:25Z</time>
      </trkpt>
      <trkpt lat="44.84735" lon="1.81281">
        <ele>207.78</ele>
        <time>2026-05-13T13:24:42Z</time>
      </trkpt>
      <trkpt lat="44.84738" lon="1.81281">
        <ele>208.26</ele>
        <time>2026-05-13T13:25:01Z</time>
      </trkpt>
      <trkpt lat="44.84733" lon="1.81268">
        <ele>210.67</ele>
        <time>2026-05-13T13:25:17Z</time>
      </trkpt>
      <trkpt lat="44.84728" lon="1.81269">
        <ele>213.07</ele>
        <time>2026-05-13T13:25:33Z</time>
      </trkpt>
      <trkpt lat="44.84734" lon="1.81276">
        <ele>214.51</ele>
        <time>2026-05-13T13:25:46Z</time>
      </trkpt>
      <trkpt lat="44.84741" lon="1.81277">
        <ele>217.4</ele>
        <time>2026-05-13T13:25:59Z</time>
      </trkpt>
      <trkpt lat="44.84747" lon="1.81274">
        <ele>217.88</ele>
        <time>2026-05-13T13:26:18Z</time>
      </trkpt>
      <trkpt lat="44.84749" lon="1.81281">
        <ele>218.84</ele>
        <time>2026-05-13T13:26:28Z</time>
      </trkpt>
      <trkpt lat="44.84758" lon="1.81285">
        <ele>221.24</ele>
        <time>2026-05-13T13:26:40Z</time>
      </trkpt>
      <trkpt lat="44.84765" lon="1.81287">
        <ele>223.64</ele>
        <time>2026-05-13T13:26:50Z</time>
      </trkpt>
      <trkpt lat="44.84773" lon="1.81287">
        <ele>225.57</ele>
        <time>2026-05-13T13:27:02Z</time>
      </trkpt>
      <trkpt lat="44.84781" lon="1.81289">
        <ele>227.97</ele>
        <time>2026-05-13T13:27:14Z</time>
      </trkpt>
      <trkpt lat="44.84788" lon="1.81295">
        <ele>229.41</ele>
        <time>2026-05-13T13:27:24Z</time>
      </trkpt>
      <trkpt lat="44.84796" lon="1.81302">
        <ele>230.37</ele>
        <time>2026-05-13T13:27:34Z</time>
      </trkpt>
      <trkpt lat="44.84805" lon="1.81307">
        <ele>232.3</ele>
        <time>2026-05-13T13:27:47Z</time>
      </trkpt>
      <trkpt lat="44.84812" lon="1.81313">
        <ele>234.22</ele>
        <time>2026-05-13T13:28:00Z</time>
      </trkpt>
      <trkpt lat="44.84819" lon="1.81318">
        <ele>236.62</ele>
        <time>2026-05-13T13:28:11Z</time>
      </trkpt>
      <trkpt lat="44.84829" lon="1.81322">
        <ele>238.06</ele>
        <time>2026-05-13T13:28:23Z</time>
      </trkpt>
      <trkpt lat="44.84839" lon="1.81326">
        <ele>240.95</ele>
        <time>2026-05-13T13:28:35Z</time>
      </trkpt>
      <trkpt lat="44.84845" lon="1.81331">
        <ele>242.39</ele>
        <time>2026-05-13T13:28:47Z</time>
      </trkpt>
      <trkpt lat="44.84852" lon="1.81335">
        <ele>244.79</ele>
        <time>2026-05-13T13:28:57Z</time>
      </trkpt>
      <trkpt lat="44.84862" lon="1.81339">
        <ele>246.23</ele>
        <time>2026-05-13T13:29:10Z</time>
      </trkpt>
      <trkpt lat="44.8487" lon="1.81342">
        <ele>248.64</ele>
        <time>2026-05-13T13:29:22Z</time>
      </trkpt>
      <trkpt lat="44.84874" lon="1.81343">
        <ele>249.6</ele>
        <time>2026-05-13T13:29:28Z</time>
      </trkpt>
      <trkpt lat="44.84878" lon="1.81347">
        <ele>250.56</ele>
        <time>2026-05-13T13:29:33Z</time>
      </trkpt>
      <trkpt lat="44.84881" lon="1.81349">
        <ele>250.56</ele>
        <time>2026-05-13T13:29:36Z</time>
      </trkpt>
      <trkpt lat="44.84883" lon="1.81349">
        <ele>251.04</ele>
        <time>2026-05-13T13:29:38Z</time>
      </trkpt>
      <trkpt lat="44.84889" lon="1.81353">
        <ele>252</ele>
        <time>2026-05-13T13:29:51Z</time>
      </trkpt>
      <trkpt lat="44.84891" lon="1.81367">
        <ele>252</ele>
        <time>2026-05-13T13:30:11Z</time>
      </trkpt>
      <trkpt lat="44.84895" lon="1.81368">
        <ele>252.48</ele>
        <time>2026-05-13T13:30:16Z</time>
      </trkpt>
      <trkpt lat="44.84904" lon="1.81369">
        <ele>254.41</ele>
        <time>2026-05-13T13:30:28Z</time>
      </trkpt>
      <trkpt lat="44.84909" lon="1.81366">
        <ele>255.37</ele>
        <time>2026-05-13T13:30:39Z</time>
      </trkpt>
      <trkpt lat="44.84912" lon="1.81368">
        <ele>255.85</ele>
        <time>2026-05-13T13:30:44Z</time>
      </trkpt>
      <trkpt lat="44.84921" lon="1.8137">
        <ele>257.77</ele>
        <time>2026-05-13T13:30:55Z</time>
      </trkpt>
      <trkpt lat="44.84929" lon="1.81376">
        <ele>259.69</ele>
        <time>2026-05-13T13:31:06Z</time>
      </trkpt>
      <trkpt lat="44.84935" lon="1.81381">
        <ele>262.1</ele>
        <time>2026-05-13T13:31:17Z</time>
      </trkpt>
      <trkpt lat="44.84939" lon="1.81382">
        <ele>263.06</ele>
        <time>2026-05-13T13:31:23Z</time>
      </trkpt>
      <trkpt lat="44.84947" lon="1.81388">
        <ele>264.98</ele>
        <time>2026-05-13T13:31:34Z</time>
      </trkpt>
      <trkpt lat="44.84954" lon="1.81386">
        <ele>266.9</ele>
        <time>2026-05-13T13:31:44Z</time>
      </trkpt>
      <trkpt lat="44.8496" lon="1.81384">
        <ele>268.83</ele>
        <time>2026-05-13T13:31:56Z</time>
      </trkpt>
      <trkpt lat="44.84962" lon="1.81386">
        <ele>269.31</ele>
        <time>2026-05-13T13:32:00Z</time>
      </trkpt>
      <trkpt lat="44.84968" lon="1.81385">
        <ele>271.71</ele>
        <time>2026-05-13T13:32:13Z</time>
      </trkpt>
      <trkpt lat="44.84971" lon="1.81384">
        <ele>273.15</ele>
        <time>2026-05-13T13:32:25Z</time>
      </trkpt>
      <trkpt lat="44.84971" lon="1.81384">
        <ele>274.59</ele>
        <time>2026-05-13T13:32:33Z</time>
      </trkpt>
      <trkpt lat="44.84974" lon="1.81389">
        <ele>276.52</ele>
        <time>2026-05-13T13:32:43Z</time>
      </trkpt>
      <trkpt lat="44.84973" lon="1.81392">
        <ele>276.52</ele>
        <time>2026-05-13T13:33:08Z</time>
      </trkpt>
      <trkpt lat="44.84977" lon="1.81395">
        <ele>277</ele>
        <time>2026-05-13T13:33:36Z</time>
      </trkpt>
      <trkpt lat="44.84977" lon="1.81394">
        <ele>277</ele>
        <time>2026-05-13T13:33:37Z</time>
      </trkpt>
      <trkpt lat="44.84983" lon="1.81393">
        <ele>278.92</ele>
        <time>2026-05-13T13:33:47Z</time>
      </trkpt>
      <trkpt lat="44.84983" lon="1.81393">
        <ele>278.92</ele>
        <time>2026-05-13T13:33:48Z</time>
      </trkpt>
      <trkpt lat="44.84989" lon="1.81394">
        <ele>280.84</ele>
        <time>2026-05-13T13:33:58Z</time>
      </trkpt>
      <trkpt lat="44.84992" lon="1.81393">
        <ele>282.77</ele>
        <time>2026-05-13T13:34:04Z</time>
      </trkpt>
      <trkpt lat="44.84995" lon="1.81392">
        <ele>282.77</ele>
        <time>2026-05-13T13:34:22Z</time>
      </trkpt>
      <trkpt lat="44.84999" lon="1.81395">
        <ele>283.25</ele>
        <time>2026-05-13T13:34:38Z</time>
      </trkpt>
      <trkpt lat="44.85003" lon="1.81399">
        <ele>284.69</ele>
        <time>2026-05-13T13:34:50Z</time>
      </trkpt>
      <trkpt lat="44.85009" lon="1.81399">
        <ele>285.65</ele>
        <time>2026-05-13T13:35:07Z</time>
      </trkpt>
      <trkpt lat="44.85012" lon="1.81398">
        <ele>287.09</ele>
        <time>2026-05-13T13:35:12Z</time>
      </trkpt>
      <trkpt lat="44.85018" lon="1.81397">
        <ele>289.01</ele>
        <time>2026-05-13T13:35:22Z</time>
      </trkpt>
      <trkpt lat="44.85021" lon="1.81399">
        <ele>290.94</ele>
        <time>2026-05-13T13:35:34Z</time>
      </trkpt>
      <trkpt lat="44.85021" lon="1.81396">
        <ele>292.86</ele>
        <time>2026-05-13T13:35:48Z</time>
      </trkpt>
      <trkpt lat="44.85018" lon="1.81388">
        <ele>295.26</ele>
        <time>2026-05-13T13:36:01Z</time>
      </trkpt>
      <trkpt lat="44.85016" lon="1.81381">
        <ele>296.22</ele>
        <time>2026-05-13T13:36:12Z</time>
      </trkpt>
      <trkpt lat="44.85016" lon="1.81379">
        <ele>296.7</ele>
        <time>2026-05-13T13:36:14Z</time>
      </trkpt>
      <trkpt lat="44.85014" lon="1.81372">
        <ele>298.15</ele>
        <time>2026-05-13T13:36:25Z</time>
      </trkpt>
      <trkpt lat="44.85011" lon="1.81365">
        <ele>300.07</ele>
        <time>2026-05-13T13:36:36Z</time>
      </trkpt>
      <trkpt lat="44.85013" lon="1.81364">
        <ele>301.03</ele>
        <time>2026-05-13T13:36:47Z</time>
      </trkpt>
      <trkpt lat="44.85015" lon="1.81365">
        <ele>302.47</ele>
        <time>2026-05-13T13:36:58Z</time>
      </trkpt>
      <trkpt lat="44.85013" lon="1.81361">
        <ele>304.39</ele>
        <time>2026-05-13T13:37:06Z</time>
      </trkpt>
      <trkpt lat="44.85011" lon="1.81349">
        <ele>305.84</ele>
        <time>2026-05-13T13:37:18Z</time>
      </trkpt>
      <trkpt lat="44.85011" lon="1.81346">
        <ele>306.32</ele>
        <time>2026-05-13T13:37:22Z</time>
      </trkpt>
      <trkpt lat="44.8501" lon="1.81341">
        <ele>308.24</ele>
        <time>2026-05-13T13:37:32Z</time>
      </trkpt>
      <trkpt lat="44.8501" lon="1.81341">
        <ele>309.68</ele>
        <time>2026-05-13T13:37:37Z</time>
      </trkpt>
      <trkpt lat="44.85009" lon="1.8134">
        <ele>309.68</ele>
        <time>2026-05-13T13:37:52Z</time>
      </trkpt>
      <trkpt lat="44.8501" lon="1.81336">
        <ele>311.12</ele>
        <time>2026-05-13T13:38:01Z</time>
      </trkpt>
      <trkpt lat="44.85009" lon="1.81333">
        <ele>311.12</ele>
        <time>2026-05-13T13:38:04Z</time>
      </trkpt>
      <trkpt lat="44.85007" lon="1.81326">
        <ele>313.53</ele>
        <time>2026-05-13T13:38:16Z</time>
      </trkpt>
      <trkpt lat="44.85006" lon="1.81319">
        <ele>314.97</ele>
        <time>2026-05-13T13:38:26Z</time>
      </trkpt>
      <trkpt lat="44.85004" lon="1.8131">
        <ele>316.41</ele>
        <time>2026-05-13T13:38:35Z</time>
      </trkpt>
      <trkpt lat="44.85001" lon="1.81303">
        <ele>317.37</ele>
        <time>2026-05-13T13:38:43Z</time>
      </trkpt>
      <trkpt lat="44.85001" lon="1.81297">
        <ele>318.81</ele>
        <time>2026-05-13T13:38:53Z</time>
      </trkpt>
      <trkpt lat="44.85001" lon="1.81297">
        <ele>320.26</ele>
        <time>2026-05-13T13:38:56Z</time>
      </trkpt>
      <trkpt lat="44.84998" lon="1.81289">
        <ele>321.22</ele>
        <time>2026-05-13T13:39:08Z</time>
      </trkpt>
      <trkpt lat="44.84998" lon="1.81281">
        <ele>323.62</ele>
        <time>2026-05-13T13:39:21Z</time>
      </trkpt>
      <trkpt lat="44.85" lon="1.81281">
        <ele>324.58</ele>
        <time>2026-05-13T13:39:36Z</time>
      </trkpt>
      <trkpt lat="44.84998" lon="1.81283">
        <ele>325.06</ele>
        <time>2026-05-13T13:39:57Z</time>
      </trkpt>
      <trkpt lat="44.84997" lon="1.81281">
        <ele>325.06</ele>
        <time>2026-05-13T13:40:18Z</time>
      </trkpt>
      <trkpt lat="44.84991" lon="1.81283">
        <ele>323.62</ele>
        <time>2026-05-13T13:40:45Z</time>
      </trkpt>
      <trkpt lat="44.84987" lon="1.81285">
        <ele>322.66</ele>
        <time>2026-05-13T13:40:48Z</time>
      </trkpt>
      <trkpt lat="44.84977" lon="1.81285">
        <ele>322.18</ele>
        <time>2026-05-13T13:41:06Z</time>
      </trkpt>
      <trkpt lat="44.84975" lon="1.81253">
        <ele>324.1</ele>
        <time>2026-05-13T13:41:21Z</time>
      </trkpt>
      <trkpt lat="44.84974" lon="1.81246">
        <ele>325.54</ele>
        <time>2026-05-13T13:41:27Z</time>
      </trkpt>
      <trkpt lat="44.84969" lon="1.81232">
        <ele>327.47</ele>
        <time>2026-05-13T13:41:41Z</time>
      </trkpt>
      <trkpt lat="44.84954" lon="1.81219">
        <ele>328.43</ele>
        <time>2026-05-13T13:41:58Z</time>
      </trkpt>
      <trkpt lat="44.84945" lon="1.81209">
        <ele>329.87</ele>
        <time>2026-05-13T13:42:13Z</time>
      </trkpt>
      <trkpt lat="44.84933" lon="1.81203">
        <ele>331.79</ele>
        <time>2026-05-13T13:42:30Z</time>
      </trkpt>
      <trkpt lat="44.84923" lon="1.81199">
        <ele>332.27</ele>
        <time>2026-05-13T13:42:46Z</time>
      </trkpt>
      <trkpt lat="44.84918" lon="1.81194">
        <ele>332.27</ele>
        <time>2026-05-13T13:43:05Z</time>
      </trkpt>
      <trkpt lat="44.84917" lon="1.81191">
        <ele>330.83</ele>
        <time>2026-05-13T13:43:08Z</time>
      </trkpt>
      <trkpt lat="44.84915" lon="1.81187">
        <ele>330.35</ele>
        <time>2026-05-13T13:43:11Z</time>
      </trkpt>
      <trkpt lat="44.84901" lon="1.81175">
        <ele>329.87</ele>
        <time>2026-05-13T13:43:26Z</time>
      </trkpt>
      <trkpt lat="44.84897" lon="1.81177">
        <ele>329.87</ele>
        <time>2026-05-13T13:43:29Z</time>
      </trkpt>
      <trkpt lat="44.84894" lon="1.81174">
        <ele>329.39</ele>
        <time>2026-05-13T13:43:33Z</time>
      </trkpt>
      <trkpt lat="44.84891" lon="1.8117">
        <ele>327.95</ele>
        <time>2026-05-13T13:43:37Z</time>
      </trkpt>
      <trkpt lat="44.84875" lon="1.81152">
        <ele>326.99</ele>
        <time>2026-05-13T13:43:56Z</time>
      </trkpt>
      <trkpt lat="44.84871" lon="1.81152">
        <ele>326.99</ele>
        <time>2026-05-13T13:43:59Z</time>
      </trkpt>
      <trkpt lat="44.84862" lon="1.81159">
        <ele>326.99</ele>
        <time>2026-05-13T13:44:08Z</time>
      </trkpt>
      <trkpt lat="44.84864" lon="1.8114">
        <ele>326.5</ele>
        <time>2026-05-13T13:44:22Z</time>
      </trkpt>
      <trkpt lat="44.84863" lon="1.81133">
        <ele>328.91</ele>
        <time>2026-05-13T13:44:42Z</time>
      </trkpt>
      <trkpt lat="44.84862" lon="1.81135">
        <ele>332.27</ele>
        <time>2026-05-13T13:44:57Z</time>
      </trkpt>
      <trkpt lat="44.84858" lon="1.81136">
        <ele>333.23</ele>
        <time>2026-05-13T13:45:21Z</time>
      </trkpt>
      <trkpt lat="44.84859" lon="1.81138">
        <ele>334.68</ele>
        <time>2026-05-13T13:45:30Z</time>
      </trkpt>
      <trkpt lat="44.84861" lon="1.81141">
        <ele>337.56</ele>
        <time>2026-05-13T13:45:38Z</time>
      </trkpt>
      <trkpt lat="44.84862" lon="1.8114">
        <ele>333.71</ele>
        <time>2026-05-13T13:45:40Z</time>
      </trkpt>
      <trkpt lat="44.84863" lon="1.81139">
        <ele>336.6</ele>
        <time>2026-05-13T13:45:42Z</time>
      </trkpt>
      <trkpt lat="44.84866" lon="1.8113">
        <ele>339</ele>
        <time>2026-05-13T13:46:00Z</time>
      </trkpt>
      <trkpt lat="44.84854" lon="1.81121">
        <ele>339.96</ele>
        <time>2026-05-13T13:46:15Z</time>
      </trkpt>
      <trkpt lat="44.84852" lon="1.81119">
        <ele>343.33</ele>
        <time>2026-05-13T13:46:26Z</time>
      </trkpt>
      <trkpt lat="44.84849" lon="1.81108">
        <ele>347.17</ele>
        <time>2026-05-13T13:46:40Z</time>
      </trkpt>
      <trkpt lat="44.84849" lon="1.81104">
        <ele>347.65</ele>
        <time>2026-05-13T13:46:53Z</time>
      </trkpt>
      <trkpt lat="44.84842" lon="1.81101">
        <ele>348.13</ele>
        <time>2026-05-13T13:47:05Z</time>
      </trkpt>
      <trkpt lat="44.84839" lon="1.81098">
        <ele>348.62</ele>
        <time>2026-05-13T13:47:12Z</time>
      </trkpt>
      <trkpt lat="44.84836" lon="1.81091">
        <ele>349.58</ele>
        <time>2026-05-13T13:47:20Z</time>
      </trkpt>
      <trkpt lat="44.84836" lon="1.81079">
        <ele>351.02</ele>
        <time>2026-05-13T13:47:31Z</time>
      </trkpt>
      <trkpt lat="44.84826" lon="1.81065">
        <ele>351.98</ele>
        <time>2026-05-13T13:47:46Z</time>
      </trkpt>
      <trkpt lat="44.84824" lon="1.81062">
        <ele>351.98</ele>
        <time>2026-05-13T13:47:49Z</time>
      </trkpt>
      <trkpt lat="44.84814" lon="1.81049">
        <ele>353.42</ele>
        <time>2026-05-13T13:48:03Z</time>
      </trkpt>
      <trkpt lat="44.84794" lon="1.81036">
        <ele>354.38</ele>
        <time>2026-05-13T13:48:23Z</time>
      </trkpt>
      <trkpt lat="44.84781" lon="1.81018">
        <ele>355.34</ele>
        <time>2026-05-13T13:48:38Z</time>
      </trkpt>
      <trkpt lat="44.84768" lon="1.81006">
        <ele>356.31</ele>
        <time>2026-05-13T13:48:52Z</time>
      </trkpt>
      <trkpt lat="44.84765" lon="1.81003">
        <ele>356.31</ele>
        <time>2026-05-13T13:48:55Z</time>
      </trkpt>
      <trkpt lat="44.84761" lon="1.80996">
        <ele>356.79</ele>
        <time>2026-05-13T13:49:01Z</time>
      </trkpt>
      <trkpt lat="44.84756" lon="1.80978">
        <ele>357.75</ele>
        <time>2026-05-13T13:49:15Z</time>
      </trkpt>
      <trkpt lat="44.84755" lon="1.80978">
        <ele>358.23</ele>
        <time>2026-05-13T13:49:46Z</time>
      </trkpt>
      <trkpt lat="44.84751" lon="1.80976">
        <ele>358.23</ele>
        <time>2026-05-13T13:50:17Z</time>
      </trkpt>
      <trkpt lat="44.8475" lon="1.80975">
        <ele>358.71</ele>
        <time>2026-05-13T13:50:49Z</time>
      </trkpt>
      <trkpt lat="44.8475" lon="1.80976">
        <ele>358.71</ele>
        <time>2026-05-13T13:51:20Z</time>
      </trkpt>
      <trkpt lat="44.84751" lon="1.80977">
        <ele>357.27</ele>
        <time>2026-05-13T13:51:27Z</time>
      </trkpt>
      <trkpt lat="44.84751" lon="1.80978">
        <ele>358.71</ele>
        <time>2026-05-13T13:51:40Z</time>
      </trkpt>
      <trkpt lat="44.84746" lon="1.80973">
        <ele>358.71</ele>
        <time>2026-05-13T13:51:52Z</time>
      </trkpt>
      <trkpt lat="44.84731" lon="1.80962">
        <ele>358.71</ele>
        <time>2026-05-13T13:52:06Z</time>
      </trkpt>
      <trkpt lat="44.84719" lon="1.80953">
        <ele>359.19</ele>
        <time>2026-05-13T13:52:18Z</time>
      </trkpt>
      <trkpt lat="44.84713" lon="1.80953">
        <ele>357.75</ele>
        <time>2026-05-13T13:52:23Z</time>
      </trkpt>
      <trkpt lat="44.84692" lon="1.80948">
        <ele>356.79</ele>
        <time>2026-05-13T13:52:38Z</time>
      </trkpt>
      <trkpt lat="44.84674" lon="1.80942">
        <ele>355.83</ele>
        <time>2026-05-13T13:52:54Z</time>
      </trkpt>
      <trkpt lat="44.84652" lon="1.80939">
        <ele>354.86</ele>
        <time>2026-05-13T13:53:11Z</time>
      </trkpt>
      <trkpt lat="44.84625" lon="1.80933">
        <ele>352.46</ele>
        <time>2026-05-13T13:53:31Z</time>
      </trkpt>
      <trkpt lat="44.84606" lon="1.80929">
        <ele>350.54</ele>
        <time>2026-05-13T13:53:46Z</time>
      </trkpt>
      <trkpt lat="44.84591" lon="1.80919">
        <ele>347.65</ele>
        <time>2026-05-13T13:54:01Z</time>
      </trkpt>
      <trkpt lat="44.84569" lon="1.80916">
        <ele>346.69</ele>
        <time>2026-05-13T13:54:16Z</time>
      </trkpt>
      <trkpt lat="44.84564" lon="1.80916">
        <ele>346.21</ele>
        <time>2026-05-13T13:54:19Z</time>
      </trkpt>
      <trkpt lat="44.84558" lon="1.80918">
        <ele>345.25</ele>
        <time>2026-05-13T13:54:24Z</time>
      </trkpt>
      <trkpt lat="44.84545" lon="1.80928">
        <ele>346.69</ele>
        <time>2026-05-13T13:54:36Z</time>
      </trkpt>
      <trkpt lat="44.84543" lon="1.80938">
        <ele>346.69</ele>
        <time>2026-05-13T13:54:47Z</time>
      </trkpt>
      <trkpt lat="44.84544" lon="1.8094">
        <ele>346.69</ele>
        <time>2026-05-13T13:55:19Z</time>
      </trkpt>
      <trkpt lat="44.84546" lon="1.80938">
        <ele>346.69</ele>
        <time>2026-05-13T13:55:36Z</time>
      </trkpt>
      <trkpt lat="44.84548" lon="1.80931">
        <ele>347.17</ele>
        <time>2026-05-13T13:55:41Z</time>
      </trkpt>
      <trkpt lat="44.84546" lon="1.8092">
        <ele>348.13</ele>
        <time>2026-05-13T13:55:48Z</time>
      </trkpt>
      <trkpt lat="44.84536" lon="1.80909">
        <ele>348.62</ele>
        <time>2026-05-13T13:55:58Z</time>
      </trkpt>
      <trkpt lat="44.84529" lon="1.80904">
        <ele>348.62</ele>
        <time>2026-05-13T13:56:03Z</time>
      </trkpt>
      <trkpt lat="44.84527" lon="1.80902">
        <ele>348.62</ele>
        <time>2026-05-13T13:56:05Z</time>
      </trkpt>
      <trkpt lat="44.84519" lon="1.80881">
        <ele>350.06</ele>
        <time>2026-05-13T13:56:21Z</time>
      </trkpt>
      <trkpt lat="44.84517" lon="1.80877">
        <ele>350.06</ele>
        <time>2026-05-13T13:56:25Z</time>
      </trkpt>
      <trkpt lat="44.84515" lon="1.80865">
        <ele>351.02</ele>
        <time>2026-05-13T13:56:33Z</time>
      </trkpt>
      <trkpt lat="44.84514" lon="1.80861">
        <ele>351.5</ele>
        <time>2026-05-13T13:56:40Z</time>
      </trkpt>
      <trkpt lat="44.84518" lon="1.80858">
        <ele>351.5</ele>
        <time>2026-05-13T13:56:45Z</time>
      </trkpt>
      <trkpt lat="44.8452" lon="1.80851">
        <ele>351.5</ele>
        <time>2026-05-13T13:56:49Z</time>
      </trkpt>
      <trkpt lat="44.84521" lon="1.80845">
        <ele>351.98</ele>
        <time>2026-05-13T13:56:53Z</time>
      </trkpt>
      <trkpt lat="44.84529" lon="1.80826">
        <ele>353.42</ele>
        <time>2026-05-13T13:57:06Z</time>
      </trkpt>
      <trkpt lat="44.84529" lon="1.80823">
        <ele>353.42</ele>
        <time>2026-05-13T13:57:09Z</time>
      </trkpt>
      <trkpt lat="44.84535" lon="1.80797">
        <ele>353.9</ele>
        <time>2026-05-13T13:57:26Z</time>
      </trkpt>
      <trkpt lat="44.84541" lon="1.8077">
        <ele>354.38</ele>
        <time>2026-05-13T13:57:41Z</time>
      </trkpt>
      <trkpt lat="44.84543" lon="1.80759">
        <ele>354.86</ele>
        <time>2026-05-13T13:57:49Z</time>
      </trkpt>
      <trkpt lat="44.84546" lon="1.80745">
        <ele>355.34</ele>
        <time>2026-05-13T13:57:57Z</time>
      </trkpt>
      <trkpt lat="44.84549" lon="1.8073">
        <ele>355.83</ele>
        <time>2026-05-13T13:58:06Z</time>
      </trkpt>
      <trkpt lat="44.84547" lon="1.80708">
        <ele>356.31</ele>
        <time>2026-05-13T13:58:19Z</time>
      </trkpt>
      <trkpt lat="44.84542" lon="1.80686">
        <ele>356.79</ele>
        <time>2026-05-13T13:58:31Z</time>
      </trkpt>
      <trkpt lat="44.84543" lon="1.80664">
        <ele>357.27</ele>
        <time>2026-05-13T13:58:43Z</time>
      </trkpt>
      <trkpt lat="44.84544" lon="1.8066">
        <ele>357.27</ele>
        <time>2026-05-13T13:58:46Z</time>
      </trkpt>
      <trkpt lat="44.84548" lon="1.80637">
        <ele>357.27</ele>
        <time>2026-05-13T13:58:59Z</time>
      </trkpt>
      <trkpt lat="44.8455" lon="1.80617">
        <ele>357.27</ele>
        <time>2026-05-13T13:59:11Z</time>
      </trkpt>
      <trkpt lat="44.8455" lon="1.80611">
        <ele>357.75</ele>
        <time>2026-05-13T13:59:15Z</time>
      </trkpt>
      <trkpt lat="44.84552" lon="1.80601">
        <ele>357.27</ele>
        <time>2026-05-13T13:59:20Z</time>
      </trkpt>
      <trkpt lat="44.84554" lon="1.80592">
        <ele>358.23</ele>
        <time>2026-05-13T13:59:26Z</time>
      </trkpt>
      <trkpt lat="44.84555" lon="1.80585">
        <ele>358.23</ele>
        <time>2026-05-13T13:59:30Z</time>
      </trkpt>
      <trkpt lat="44.84559" lon="1.80559">
        <ele>358.71</ele>
        <time>2026-05-13T13:59:44Z</time>
      </trkpt>
      <trkpt lat="44.84562" lon="1.80544">
        <ele>359.19</ele>
        <time>2026-05-13T13:59:56Z</time>
      </trkpt>
      <trkpt lat="44.84562" lon="1.80544">
        <ele>359.19</ele>
        <time>2026-05-13T13:59:57Z</time>
      </trkpt>
      <trkpt lat="44.84579" lon="1.8054">
        <ele>359.19</ele>
        <time>2026-05-13T14:00:11Z</time>
      </trkpt>
      <trkpt lat="44.84593" lon="1.80538">
        <ele>359.67</ele>
        <time>2026-05-13T14:00:23Z</time>
      </trkpt>
      <trkpt lat="44.84598" lon="1.80538">
        <ele>360.15</ele>
        <time>2026-05-13T14:00:27Z</time>
      </trkpt>
      <trkpt lat="44.84618" lon="1.80537">
        <ele>360.15</ele>
        <time>2026-05-13T14:00:41Z</time>
      </trkpt>
      <trkpt lat="44.84633" lon="1.80537">
        <ele>360.63</ele>
        <time>2026-05-13T14:00:53Z</time>
      </trkpt>
      <trkpt lat="44.84646" lon="1.80536">
        <ele>362.07</ele>
        <time>2026-05-13T14:01:05Z</time>
      </trkpt>
      <trkpt lat="44.84648" lon="1.80535">
        <ele>362.07</ele>
        <time>2026-05-13T14:01:07Z</time>
      </trkpt>
      <trkpt lat="44.84649" lon="1.80535">
        <ele>362.07</ele>
        <time>2026-05-13T14:01:08Z</time>
      </trkpt>
      <trkpt lat="44.8465" lon="1.80534">
        <ele>362.07</ele>
        <time>2026-05-13T14:01:09Z</time>
      </trkpt>
      <trkpt lat="44.84652" lon="1.80534">
        <ele>362.07</ele>
        <time>2026-05-13T14:01:10Z</time>
      </trkpt>
      <trkpt lat="44.84653" lon="1.80533">
        <ele>362.07</ele>
        <time>2026-05-13T14:01:11Z</time>
      </trkpt>
      <trkpt lat="44.84658" lon="1.80531">
        <ele>363.04</ele>
        <time>2026-05-13T14:01:16Z</time>
      </trkpt>
      <trkpt lat="44.84659" lon="1.8053">
        <ele>363.04</ele>
        <time>2026-05-13T14:01:17Z</time>
      </trkpt>
      <trkpt lat="44.8466" lon="1.80529">
        <ele>363.04</ele>
        <time>2026-05-13T14:01:18Z</time>
      </trkpt>
      <trkpt lat="44.84662" lon="1.80528">
        <ele>363.04</ele>
        <time>2026-05-13T14:01:19Z</time>
      </trkpt>
      <trkpt lat="44.84663" lon="1.80527">
        <ele>363.04</ele>
        <time>2026-05-13T14:01:20Z</time>
      </trkpt>
      <trkpt lat="44.84665" lon="1.80526">
        <ele>363.04</ele>
        <time>2026-05-13T14:01:21Z</time>
      </trkpt>
      <trkpt lat="44.84677" lon="1.80521">
        <ele>364</ele>
        <time>2026-05-13T14:01:33Z</time>
      </trkpt>
      <trkpt lat="44.84687" lon="1.80517">
        <ele>364.96</ele>
        <time>2026-05-13T14:01:42Z</time>
      </trkpt>
      <trkpt lat="44.84688" lon="1.80517">
        <ele>364.96</ele>
        <time>2026-05-13T14:01:43Z</time>
      </trkpt>
      <trkpt lat="44.84689" lon="1.80516">
        <ele>365.44</ele>
        <time>2026-05-13T14:01:44Z</time>
      </trkpt>
      <trkpt lat="44.84691" lon="1.80516">
        <ele>365.44</ele>
        <time>2026-05-13T14:01:45Z</time>
      </trkpt>
      <trkpt lat="44.84697" lon="1.80514">
        <ele>365.44</ele>
        <time>2026-05-13T14:01:52Z</time>
      </trkpt>
      <trkpt lat="44.84703" lon="1.80512">
        <ele>365.92</ele>
        <time>2026-05-13T14:01:59Z</time>
      </trkpt>
      <trkpt lat="44.84705" lon="1.80511">
        <ele>366.4</ele>
        <time>2026-05-13T14:02:00Z</time>
      </trkpt>
      <trkpt lat="44.84707" lon="1.8051">
        <ele>366.4</ele>
        <time>2026-05-13T14:02:03Z</time>
      </trkpt>
      <trkpt lat="44.8471" lon="1.80509">
        <ele>366.4</ele>
        <time>2026-05-13T14:02:05Z</time>
      </trkpt>
      <trkpt lat="44.84711" lon="1.80509">
        <ele>366.4</ele>
        <time>2026-05-13T14:02:16Z</time>
      </trkpt>
      <trkpt lat="44.84713" lon="1.80507">
        <ele>366.88</ele>
        <time>2026-05-13T14:02:37Z</time>
      </trkpt>
      <trkpt lat="44.84715" lon="1.80506">
        <ele>366.88</ele>
        <time>2026-05-13T14:02:39Z</time>
      </trkpt>
      <trkpt lat="44.84716" lon="1.80505">
        <ele>366.88</ele>
        <time>2026-05-13T14:02:40Z</time>
      </trkpt>
      <trkpt lat="44.84731" lon="1.805">
        <ele>366.88</ele>
        <time>2026-05-13T14:02:53Z</time>
      </trkpt>
      <trkpt lat="44.84744" lon="1.80498">
        <ele>367.36</ele>
        <time>2026-05-13T14:03:05Z</time>
      </trkpt>
      <trkpt lat="44.84745" lon="1.80498">
        <ele>367.36</ele>
        <time>2026-05-13T14:03:06Z</time>
      </trkpt>
      <trkpt lat="44.84747" lon="1.80498">
        <ele>368.32</ele>
        <time>2026-05-13T14:03:07Z</time>
      </trkpt>
      <trkpt lat="44.84748" lon="1.80498">
        <ele>368.32</ele>
        <time>2026-05-13T14:03:08Z</time>
      </trkpt>
      <trkpt lat="44.8475" lon="1.80499">
        <ele>368.32</ele>
        <time>2026-05-13T14:03:09Z</time>
      </trkpt>
      <trkpt lat="44.84751" lon="1.80499">
        <ele>368.32</ele>
        <time>2026-05-13T14:03:10Z</time>
      </trkpt>
      <trkpt lat="44.84766" lon="1.80496">
        <ele>368.32</ele>
        <time>2026-05-13T14:03:23Z</time>
      </trkpt>
      <trkpt lat="44.84785" lon="1.80497">
        <ele>369.76</ele>
        <time>2026-05-13T14:03:38Z</time>
      </trkpt>
      <trkpt lat="44.848" lon="1.8049">
        <ele>370.73</ele>
        <time>2026-05-13T14:03:50Z</time>
      </trkpt>
      <trkpt lat="44.84818" lon="1.80487">
        <ele>370.73</ele>
        <time>2026-05-13T14:04:02Z</time>
      </trkpt>
      <trkpt lat="44.84831" lon="1.8048">
        <ele>370.73</ele>
        <time>2026-05-13T14:04:13Z</time>
      </trkpt>
      <trkpt lat="44.84832" lon="1.80479">
        <ele>370.73</ele>
        <time>2026-05-13T14:04:14Z</time>
      </trkpt>
      <trkpt lat="44.84849" lon="1.80473">
        <ele>371.69</ele>
        <time>2026-05-13T14:04:27Z</time>
      </trkpt>
      <trkpt lat="44.84865" lon="1.80468">
        <ele>371.69</ele>
        <time>2026-05-13T14:04:40Z</time>
      </trkpt>
      <trkpt lat="44.84878" lon="1.80466">
        <ele>372.17</ele>
        <time>2026-05-13T14:04:50Z</time>
      </trkpt>
      <trkpt lat="44.84879" lon="1.80465">
        <ele>372.17</ele>
        <time>2026-05-13T14:04:51Z</time>
      </trkpt>
      <trkpt lat="44.8488" lon="1.80465">
        <ele>372.17</ele>
        <time>2026-05-13T14:04:52Z</time>
      </trkpt>
      <trkpt lat="44.84882" lon="1.80465">
        <ele>372.65</ele>
        <time>2026-05-13T14:04:53Z</time>
      </trkpt>
      <trkpt lat="44.84884" lon="1.80465">
        <ele>372.65</ele>
        <time>2026-05-13T14:04:54Z</time>
      </trkpt>
      <trkpt lat="44.84899" lon="1.80458">
        <ele>372.65</ele>
        <time>2026-05-13T14:05:06Z</time>
      </trkpt>
      <trkpt lat="44.84916" lon="1.80451">
        <ele>373.61</ele>
        <time>2026-05-13T14:05:19Z</time>
      </trkpt>
      <trkpt lat="44.84932" lon="1.80449">
        <ele>374.09</ele>
        <time>2026-05-13T14:05:32Z</time>
      </trkpt>
      <trkpt lat="44.84946" lon="1.8045">
        <ele>374.57</ele>
        <time>2026-05-13T14:05:44Z</time>
      </trkpt>
      <trkpt lat="44.84948" lon="1.8045">
        <ele>374.57</ele>
        <time>2026-05-13T14:05:46Z</time>
      </trkpt>
      <trkpt lat="44.84949" lon="1.80451">
        <ele>374.57</ele>
        <time>2026-05-13T14:05:47Z</time>
      </trkpt>
      <trkpt lat="44.8495" lon="1.80451">
        <ele>374.57</ele>
        <time>2026-05-13T14:05:48Z</time>
      </trkpt>
      <trkpt lat="44.84952" lon="1.80452">
        <ele>374.57</ele>
        <time>2026-05-13T14:05:49Z</time>
      </trkpt>
      <trkpt lat="44.84953" lon="1.80452">
        <ele>374.57</ele>
        <time>2026-05-13T14:05:50Z</time>
      </trkpt>
      <trkpt lat="44.84955" lon="1.80453">
        <ele>374.57</ele>
        <time>2026-05-13T14:05:51Z</time>
      </trkpt>
      <trkpt lat="44.84956" lon="1.80453">
        <ele>371.21</ele>
        <time>2026-05-13T14:05:53Z</time>
      </trkpt>
      <trkpt lat="44.84959" lon="1.80452">
        <ele>376.97</ele>
        <time>2026-05-13T14:05:55Z</time>
      </trkpt>
      <trkpt lat="44.8496" lon="1.80452">
        <ele>375.05</ele>
        <time>2026-05-13T14:05:56Z</time>
      </trkpt>
      <trkpt lat="44.84974" lon="1.80457">
        <ele>375.05</ele>
        <time>2026-05-13T14:06:08Z</time>
      </trkpt>
      <trkpt lat="44.84986" lon="1.80462">
        <ele>376.01</ele>
        <time>2026-05-13T14:06:23Z</time>
      </trkpt>
      <trkpt lat="44.84993" lon="1.80466">
        <ele>375.53</ele>
        <time>2026-05-13T14:06:36Z</time>
      </trkpt>
      <trkpt lat="44.84995" lon="1.80467">
        <ele>375.53</ele>
        <time>2026-05-13T14:06:49Z</time>
      </trkpt>
      <trkpt lat="44.85006" lon="1.80467">
        <ele>375.53</ele>
        <time>2026-05-13T14:07:02Z</time>
      </trkpt>
      <trkpt lat="44.85032" lon="1.80473">
        <ele>375.53</ele>
        <time>2026-05-13T14:07:21Z</time>
      </trkpt>
      <trkpt lat="44.85047" lon="1.80476">
        <ele>375.53</ele>
        <time>2026-05-13T14:07:34Z</time>
      </trkpt>
      <trkpt lat="44.8505" lon="1.80477">
        <ele>375.53</ele>
        <time>2026-05-13T14:07:40Z</time>
      </trkpt>
      <trkpt lat="44.85052" lon="1.80478">
        <ele>375.05</ele>
        <time>2026-05-13T14:07:42Z</time>
      </trkpt>
      <trkpt lat="44.85073" lon="1.80479">
        <ele>374.09</ele>
        <time>2026-05-13T14:07:56Z</time>
      </trkpt>
      <trkpt lat="44.85075" lon="1.80479">
        <ele>374.09</ele>
        <time>2026-05-13T14:07:58Z</time>
      </trkpt>
      <trkpt lat="44.85076" lon="1.80479">
        <ele>374.09</ele>
        <time>2026-05-13T14:07:59Z</time>
      </trkpt>
      <trkpt lat="44.85078" lon="1.80479">
        <ele>373.61</ele>
        <time>2026-05-13T14:08:00Z</time>
      </trkpt>
      <trkpt lat="44.85079" lon="1.80479">
        <ele>373.61</ele>
        <time>2026-05-13T14:08:01Z</time>
      </trkpt>
      <trkpt lat="44.8508" lon="1.80479">
        <ele>373.61</ele>
        <time>2026-05-13T14:08:02Z</time>
      </trkpt>
      <trkpt lat="44.85081" lon="1.80479">
        <ele>373.61</ele>
        <time>2026-05-13T14:08:03Z</time>
      </trkpt>
      <trkpt lat="44.85083" lon="1.8048">
        <ele>373.13</ele>
        <time>2026-05-13T14:08:04Z</time>
      </trkpt>
      <trkpt lat="44.85091" lon="1.80479">
        <ele>373.13</ele>
        <time>2026-05-13T14:08:11Z</time>
      </trkpt>
      <trkpt lat="44.8511" lon="1.80479">
        <ele>373.13</ele>
        <time>2026-05-13T14:08:25Z</time>
      </trkpt>
      <trkpt lat="44.85129" lon="1.80481">
        <ele>373.13</ele>
        <time>2026-05-13T14:08:39Z</time>
      </trkpt>
      <trkpt lat="44.85146" lon="1.80484">
        <ele>372.65</ele>
        <time>2026-05-13T14:08:53Z</time>
      </trkpt>
      <trkpt lat="44.85165" lon="1.80491">
        <ele>371.69</ele>
        <time>2026-05-13T14:09:09Z</time>
      </trkpt>
      <trkpt lat="44.85176" lon="1.80496">
        <ele>371.69</ele>
        <time>2026-05-13T14:09:19Z</time>
      </trkpt>
      <trkpt lat="44.85177" lon="1.80497">
        <ele>371.69</ele>
        <time>2026-05-13T14:09:20Z</time>
      </trkpt>
      <trkpt lat="44.85198" lon="1.80506">
        <ele>371.69</ele>
        <time>2026-05-13T14:09:35Z</time>
      </trkpt>
      <trkpt lat="44.85216" lon="1.80513">
        <ele>371.69</ele>
        <time>2026-05-13T14:09:49Z</time>
      </trkpt>
      <trkpt lat="44.85219" lon="1.80513">
        <ele>371.69</ele>
        <time>2026-05-13T14:09:52Z</time>
      </trkpt>
      <trkpt lat="44.85221" lon="1.80513">
        <ele>371.69</ele>
        <time>2026-05-13T14:09:53Z</time>
      </trkpt>
      <trkpt lat="44.85242" lon="1.80519">
        <ele>371.21</ele>
        <time>2026-05-13T14:10:07Z</time>
      </trkpt>
      <trkpt lat="44.85246" lon="1.80519">
        <ele>370.73</ele>
        <time>2026-05-13T14:10:11Z</time>
      </trkpt>
      <trkpt lat="44.85248" lon="1.8052">
        <ele>370.73</ele>
        <time>2026-05-13T14:10:12Z</time>
      </trkpt>
      <trkpt lat="44.85254" lon="1.80522">
        <ele>370.24</ele>
        <time>2026-05-13T14:10:18Z</time>
      </trkpt>
      <trkpt lat="44.85256" lon="1.80522">
        <ele>370.24</ele>
        <time>2026-05-13T14:10:19Z</time>
      </trkpt>
      <trkpt lat="44.85281" lon="1.80529">
        <ele>370.24</ele>
        <time>2026-05-13T14:10:36Z</time>
      </trkpt>
      <trkpt lat="44.853" lon="1.80538">
        <ele>370.24</ele>
        <time>2026-05-13T14:10:50Z</time>
      </trkpt>
      <trkpt lat="44.85306" lon="1.80541">
        <ele>370.24</ele>
        <time>2026-05-13T14:10:55Z</time>
      </trkpt>
      <trkpt lat="44.85307" lon="1.80542">
        <ele>370.24</ele>
        <time>2026-05-13T14:10:56Z</time>
      </trkpt>
      <trkpt lat="44.85308" lon="1.80543">
        <ele>370.24</ele>
        <time>2026-05-13T14:10:57Z</time>
      </trkpt>
      <trkpt lat="44.8532" lon="1.80557">
        <ele>368.32</ele>
        <time>2026-05-13T14:11:09Z</time>
      </trkpt>
      <trkpt lat="44.85332" lon="1.80576">
        <ele>366.4</ele>
        <time>2026-05-13T14:11:25Z</time>
      </trkpt>
      <trkpt lat="44.85338" lon="1.80585">
        <ele>365.92</ele>
        <time>2026-05-13T14:11:42Z</time>
      </trkpt>
      <trkpt lat="44.85342" lon="1.80589">
        <ele>365.92</ele>
        <time>2026-05-13T14:11:46Z</time>
      </trkpt>
      <trkpt lat="44.85346" lon="1.80594">
        <ele>365.44</ele>
        <time>2026-05-13T14:11:51Z</time>
      </trkpt>
      <trkpt lat="44.8535" lon="1.80597">
        <ele>364.96</ele>
        <time>2026-05-13T14:11:54Z</time>
      </trkpt>
      <trkpt lat="44.85363" lon="1.80611">
        <ele>363.52</ele>
        <time>2026-05-13T14:12:06Z</time>
      </trkpt>
      <trkpt lat="44.85364" lon="1.80613">
        <ele>363.52</ele>
        <time>2026-05-13T14:12:07Z</time>
      </trkpt>
      <trkpt lat="44.85366" lon="1.80616">
        <ele>363.52</ele>
        <time>2026-05-13T14:12:09Z</time>
      </trkpt>
      <trkpt lat="44.85383" lon="1.80635">
        <ele>363.04</ele>
        <time>2026-05-13T14:12:25Z</time>
      </trkpt>
      <trkpt lat="44.85403" lon="1.80653">
        <ele>362.55</ele>
        <time>2026-05-13T14:12:43Z</time>
      </trkpt>
      <trkpt lat="44.85421" lon="1.80662">
        <ele>362.07</ele>
        <time>2026-05-13T14:12:56Z</time>
      </trkpt>
      <trkpt lat="44.85436" lon="1.80668">
        <ele>361.11</ele>
        <time>2026-05-13T14:13:08Z</time>
      </trkpt>
      <trkpt lat="44.85437" lon="1.80669">
        <ele>361.11</ele>
        <time>2026-05-13T14:13:09Z</time>
      </trkpt>
      <trkpt lat="44.85439" lon="1.80671">
        <ele>360.63</ele>
        <time>2026-05-13T14:13:10Z</time>
      </trkpt>
      <trkpt lat="44.85452" lon="1.80682">
        <ele>360.63</ele>
        <time>2026-05-13T14:13:21Z</time>
      </trkpt>
      <trkpt lat="44.85454" lon="1.80683">
        <ele>360.63</ele>
        <time>2026-05-13T14:13:22Z</time>
      </trkpt>
      <trkpt lat="44.85455" lon="1.80685">
        <ele>360.63</ele>
        <time>2026-05-13T14:13:23Z</time>
      </trkpt>
      <trkpt lat="44.8547" lon="1.80695">
        <ele>360.15</ele>
        <time>2026-05-13T14:13:36Z</time>
      </trkpt>
      <trkpt lat="44.85472" lon="1.80697">
        <ele>360.15</ele>
        <time>2026-05-13T14:13:37Z</time>
      </trkpt>
      <trkpt lat="44.85489" lon="1.80714">
        <ele>360.15</ele>
        <time>2026-05-13T14:13:52Z</time>
      </trkpt>
      <trkpt lat="44.85495" lon="1.80722">
        <ele>361.59</ele>
        <time>2026-05-13T14:13:59Z</time>
      </trkpt>
      <trkpt lat="44.85512" lon="1.80741">
        <ele>362.07</ele>
        <time>2026-05-13T14:14:14Z</time>
      </trkpt>
      <trkpt lat="44.8552" lon="1.80749">
        <ele>362.55</ele>
        <time>2026-05-13T14:14:23Z</time>
      </trkpt>
      <trkpt lat="44.85521" lon="1.80751">
        <ele>362.55</ele>
        <time>2026-05-13T14:14:24Z</time>
      </trkpt>
      <trkpt lat="44.85529" lon="1.8076">
        <ele>363.04</ele>
        <time>2026-05-13T14:14:32Z</time>
      </trkpt>
      <trkpt lat="44.85531" lon="1.80761">
        <ele>363.04</ele>
        <time>2026-05-13T14:14:33Z</time>
      </trkpt>
      <trkpt lat="44.85532" lon="1.80762">
        <ele>363.04</ele>
        <time>2026-05-13T14:14:34Z</time>
      </trkpt>
      <trkpt lat="44.85534" lon="1.80763">
        <ele>363.04</ele>
        <time>2026-05-13T14:14:35Z</time>
      </trkpt>
      <trkpt lat="44.85535" lon="1.80764">
        <ele>363.04</ele>
        <time>2026-05-13T14:14:36Z</time>
      </trkpt>
      <trkpt lat="44.85536" lon="1.80765">
        <ele>363.04</ele>
        <time>2026-05-13T14:14:37Z</time>
      </trkpt>
      <trkpt lat="44.85549" lon="1.8077">
        <ele>361.59</ele>
        <time>2026-05-13T14:14:48Z</time>
      </trkpt>
      <trkpt lat="44.85565" lon="1.80775">
        <ele>360.15</ele>
        <time>2026-05-13T14:15:01Z</time>
      </trkpt>
      <trkpt lat="44.85575" lon="1.80776">
        <ele>358.71</ele>
        <time>2026-05-13T14:15:09Z</time>
      </trkpt>
      <trkpt lat="44.85579" lon="1.80776">
        <ele>358.23</ele>
        <time>2026-05-13T14:15:12Z</time>
      </trkpt>
      <trkpt lat="44.85593" lon="1.80779">
        <ele>356.31</ele>
        <time>2026-05-13T14:15:27Z</time>
      </trkpt>
      <trkpt lat="44.85605" lon="1.80786">
        <ele>353.9</ele>
        <time>2026-05-13T14:15:40Z</time>
      </trkpt>
      <trkpt lat="44.85617" lon="1.80798">
        <ele>352.94</ele>
        <time>2026-05-13T14:15:56Z</time>
      </trkpt>
      <trkpt lat="44.85632" lon="1.80808">
        <ele>351.5</ele>
        <time>2026-05-13T14:16:15Z</time>
      </trkpt>
      <trkpt lat="44.85633" lon="1.80809">
        <ele>351.02</ele>
        <time>2026-05-13T14:16:16Z</time>
      </trkpt>
      <trkpt lat="44.85636" lon="1.80812">
        <ele>351.02</ele>
        <time>2026-05-13T14:16:19Z</time>
      </trkpt>
      <trkpt lat="44.85638" lon="1.80813">
        <ele>350.54</ele>
        <time>2026-05-13T14:16:20Z</time>
      </trkpt>
      <trkpt lat="44.85641" lon="1.80817">
        <ele>350.06</ele>
        <time>2026-05-13T14:16:24Z</time>
      </trkpt>
      <trkpt lat="44.85642" lon="1.80818">
        <ele>350.06</ele>
        <time>2026-05-13T14:16:25Z</time>
      </trkpt>
      <trkpt lat="44.85643" lon="1.8082">
        <ele>350.06</ele>
        <time>2026-05-13T14:16:26Z</time>
      </trkpt>
      <trkpt lat="44.85644" lon="1.80821">
        <ele>350.06</ele>
        <time>2026-05-13T14:16:27Z</time>
      </trkpt>
      <trkpt lat="44.85654" lon="1.80837">
        <ele>347.17</ele>
        <time>2026-05-13T14:16:41Z</time>
      </trkpt>
      <trkpt lat="44.85662" lon="1.80857">
        <ele>345.25</ele>
        <time>2026-05-13T14:16:57Z</time>
      </trkpt>
      <trkpt lat="44.85672" lon="1.80873">
        <ele>343.81</ele>
        <time>2026-05-13T14:17:08Z</time>
      </trkpt>
      <trkpt lat="44.85684" lon="1.80889">
        <ele>342.85</ele>
        <time>2026-05-13T14:17:19Z</time>
      </trkpt>
      <trkpt lat="44.8569" lon="1.8089">
        <ele>341.89</ele>
        <time>2026-05-13T14:17:25Z</time>
      </trkpt>
      <trkpt lat="44.85691" lon="1.8089">
        <ele>341.89</ele>
        <time>2026-05-13T14:17:26Z</time>
      </trkpt>
      <trkpt lat="44.85695" lon="1.8089">
        <ele>341.89</ele>
        <time>2026-05-13T14:17:28Z</time>
      </trkpt>
      <trkpt lat="44.85706" lon="1.8089">
        <ele>341.89</ele>
        <time>2026-05-13T14:17:34Z</time>
      </trkpt>
      <trkpt lat="44.85707" lon="1.8089">
        <ele>341.89</ele>
        <time>2026-05-13T14:17:35Z</time>
      </trkpt>
      <trkpt lat="44.85727" lon="1.8089">
        <ele>340.92</ele>
        <time>2026-05-13T14:17:51Z</time>
      </trkpt>
      <trkpt lat="44.85728" lon="1.80892">
        <ele>339.96</ele>
        <time>2026-05-13T14:18:09Z</time>
      </trkpt>
      <trkpt lat="44.85728" lon="1.80893">
        <ele>340.92</ele>
        <time>2026-05-13T14:18:11Z</time>
      </trkpt>
      <trkpt lat="44.85727" lon="1.80894">
        <ele>342.85</ele>
        <time>2026-05-13T14:18:14Z</time>
      </trkpt>
      <trkpt lat="44.85731" lon="1.80897">
        <ele>341.41</ele>
        <time>2026-05-13T14:18:21Z</time>
      </trkpt>
      <trkpt lat="44.85732" lon="1.80898">
        <ele>341.41</ele>
        <time>2026-05-13T14:18:22Z</time>
      </trkpt>
      <trkpt lat="44.85736" lon="1.80908">
        <ele>340.92</ele>
        <time>2026-05-13T14:18:31Z</time>
      </trkpt>
      <trkpt lat="44.85741" lon="1.80923">
        <ele>339.96</ele>
        <time>2026-05-13T14:18:41Z</time>
      </trkpt>
      <trkpt lat="44.85742" lon="1.80925">
        <ele>339.48</ele>
        <time>2026-05-13T14:18:42Z</time>
      </trkpt>
      <trkpt lat="44.85743" lon="1.80928">
        <ele>339.48</ele>
        <time>2026-05-13T14:18:44Z</time>
      </trkpt>
      <trkpt lat="44.85747" lon="1.80945">
        <ele>337.56</ele>
        <time>2026-05-13T14:18:56Z</time>
      </trkpt>
      <trkpt lat="44.85751" lon="1.80959">
        <ele>336.12</ele>
        <time>2026-05-13T14:19:10Z</time>
      </trkpt>
      <trkpt lat="44.85761" lon="1.80973">
        <ele>335.16</ele>
        <time>2026-05-13T14:19:18Z</time>
      </trkpt>
      <trkpt lat="44.85762" lon="1.80975">
        <ele>335.16</ele>
        <time>2026-05-13T14:19:19Z</time>
      </trkpt>
      <trkpt lat="44.85767" lon="1.80982">
        <ele>334.68</ele>
        <time>2026-05-13T14:19:23Z</time>
      </trkpt>
      <trkpt lat="44.85768" lon="1.80983">
        <ele>334.68</ele>
        <time>2026-05-13T14:19:24Z</time>
      </trkpt>
      <trkpt lat="44.85779" lon="1.80996">
        <ele>332.75</ele>
        <time>2026-05-13T14:19:39Z</time>
      </trkpt>
      <trkpt lat="44.85791" lon="1.81013">
        <ele>331.79</ele>
        <time>2026-05-13T14:19:55Z</time>
      </trkpt>
      <trkpt lat="44.85813" lon="1.81036">
        <ele>331.79</ele>
        <time>2026-05-13T14:20:11Z</time>
      </trkpt>
      <trkpt lat="44.85831" lon="1.81057">
        <ele>330.83</ele>
        <time>2026-05-13T14:20:27Z</time>
      </trkpt>
      <trkpt lat="44.85837" lon="1.81063">
        <ele>330.35</ele>
        <time>2026-05-13T14:20:33Z</time>
      </trkpt>
      <trkpt lat="44.85839" lon="1.81064">
        <ele>329.87</ele>
        <time>2026-05-13T14:20:34Z</time>
      </trkpt>
      <trkpt lat="44.85859" lon="1.81078">
        <ele>329.87</ele>
        <time>2026-05-13T14:20:48Z</time>
      </trkpt>
      <trkpt lat="44.85875" lon="1.81096">
        <ele>328.91</ele>
        <time>2026-05-13T14:21:03Z</time>
      </trkpt>
      <trkpt lat="44.85892" lon="1.81113">
        <ele>326.99</ele>
        <time>2026-05-13T14:21:18Z</time>
      </trkpt>
      <trkpt lat="44.85911" lon="1.81123">
        <ele>326.02</ele>
        <time>2026-05-13T14:21:32Z</time>
      </trkpt>
      <trkpt lat="44.85929" lon="1.81127">
        <ele>324.58</ele>
        <time>2026-05-13T14:21:48Z</time>
      </trkpt>
      <trkpt lat="44.85947" lon="1.81132">
        <ele>323.14</ele>
        <time>2026-05-13T14:22:00Z</time>
      </trkpt>
      <trkpt lat="44.85952" lon="1.81133">
        <ele>322.18</ele>
        <time>2026-05-13T14:22:03Z</time>
      </trkpt>
      <trkpt lat="44.85972" lon="1.81137">
        <ele>320.26</ele>
        <time>2026-05-13T14:22:17Z</time>
      </trkpt>
      <trkpt lat="44.85975" lon="1.81137">
        <ele>320.26</ele>
        <time>2026-05-13T14:22:19Z</time>
      </trkpt>
      <trkpt lat="44.85977" lon="1.81137">
        <ele>319.78</ele>
        <time>2026-05-13T14:22:20Z</time>
      </trkpt>
      <trkpt lat="44.86" lon="1.81141">
        <ele>317.85</ele>
        <time>2026-05-13T14:22:37Z</time>
      </trkpt>
      <trkpt lat="44.86002" lon="1.81142">
        <ele>317.37</ele>
        <time>2026-05-13T14:22:38Z</time>
      </trkpt>
      <trkpt lat="44.86018" lon="1.81151">
        <ele>315.45</ele>
        <time>2026-05-13T14:22:52Z</time>
      </trkpt>
      <trkpt lat="44.86039" lon="1.81164">
        <ele>313.53</ele>
        <time>2026-05-13T14:23:09Z</time>
      </trkpt>
      <trkpt lat="44.86056" lon="1.81175">
        <ele>310.16</ele>
        <time>2026-05-13T14:23:25Z</time>
      </trkpt>
      <trkpt lat="44.8607" lon="1.81182">
        <ele>308.24</ele>
        <time>2026-05-13T14:23:39Z</time>
      </trkpt>
      <trkpt lat="44.86071" lon="1.81182">
        <ele>307.76</ele>
        <time>2026-05-13T14:23:40Z</time>
      </trkpt>
      <trkpt lat="44.86072" lon="1.81183">
        <ele>307.76</ele>
        <time>2026-05-13T14:23:41Z</time>
      </trkpt>
      <trkpt lat="44.86098" lon="1.81192">
        <ele>305.36</ele>
        <time>2026-05-13T14:23:57Z</time>
      </trkpt>
      <trkpt lat="44.86102" lon="1.81194">
        <ele>304.88</ele>
        <time>2026-05-13T14:23:59Z</time>
      </trkpt>
      <trkpt lat="44.86105" lon="1.81195">
        <ele>304.88</ele>
        <time>2026-05-13T14:24:00Z</time>
      </trkpt>
      <trkpt lat="44.86128" lon="1.81206">
        <ele>303.43</ele>
        <time>2026-05-13T14:24:16Z</time>
      </trkpt>
      <trkpt lat="44.8615" lon="1.81216">
        <ele>301.51</ele>
        <time>2026-05-13T14:24:33Z</time>
      </trkpt>
      <trkpt lat="44.86176" lon="1.81225">
        <ele>299.59</ele>
        <time>2026-05-13T14:24:49Z</time>
      </trkpt>
      <trkpt lat="44.86192" lon="1.81229">
        <ele>298.63</ele>
        <time>2026-05-13T14:25:01Z</time>
      </trkpt>
      <trkpt lat="44.86194" lon="1.81229">
        <ele>298.15</ele>
        <time>2026-05-13T14:25:02Z</time>
      </trkpt>
      <trkpt lat="44.86195" lon="1.81229">
        <ele>298.15</ele>
        <time>2026-05-13T14:25:03Z</time>
      </trkpt>
      <trkpt lat="44.86209" lon="1.81235">
        <ele>297.18</ele>
        <time>2026-05-13T14:25:14Z</time>
      </trkpt>
      <trkpt lat="44.8621" lon="1.81236">
        <ele>297.18</ele>
        <time>2026-05-13T14:25:15Z</time>
      </trkpt>
      <trkpt lat="44.86216" lon="1.81238">
        <ele>297.18</ele>
        <time>2026-05-13T14:25:20Z</time>
      </trkpt>
      <trkpt lat="44.86217" lon="1.81239">
        <ele>297.18</ele>
        <time>2026-05-13T14:25:21Z</time>
      </trkpt>
      <trkpt lat="44.86235" lon="1.81245">
        <ele>296.22</ele>
        <time>2026-05-13T14:25:36Z</time>
      </trkpt>
      <trkpt lat="44.86256" lon="1.81249">
        <ele>295.26</ele>
        <time>2026-05-13T14:25:50Z</time>
      </trkpt>
      <trkpt lat="44.86272" lon="1.81251">
        <ele>294.3</ele>
        <time>2026-05-13T14:26:00Z</time>
      </trkpt>
      <trkpt lat="44.86273" lon="1.81252">
        <ele>294.3</ele>
        <time>2026-05-13T14:26:01Z</time>
      </trkpt>
      <trkpt lat="44.86275" lon="1.81253">
        <ele>293.34</ele>
        <time>2026-05-13T14:26:02Z</time>
      </trkpt>
      <trkpt lat="44.86292" lon="1.81259">
        <ele>292.38</ele>
        <time>2026-05-13T14:26:16Z</time>
      </trkpt>
      <trkpt lat="44.86294" lon="1.81258">
        <ele>292.38</ele>
        <time>2026-05-13T14:26:17Z</time>
      </trkpt>
      <trkpt lat="44.86309" lon="1.81255">
        <ele>291.42</ele>
        <time>2026-05-13T14:26:29Z</time>
      </trkpt>
      <trkpt lat="44.86318" lon="1.81257">
        <ele>291.42</ele>
        <time>2026-05-13T14:26:36Z</time>
      </trkpt>
      <trkpt lat="44.86321" lon="1.81259">
        <ele>290.46</ele>
        <time>2026-05-13T14:26:43Z</time>
      </trkpt>
      <trkpt lat="44.86322" lon="1.81264">
        <ele>290.46</ele>
        <time>2026-05-13T14:27:17Z</time>
      </trkpt>
      <trkpt lat="44.86336" lon="1.81264">
        <ele>289.49</ele>
        <time>2026-05-13T14:27:29Z</time>
      </trkpt>
      <trkpt lat="44.86338" lon="1.81261">
        <ele>289.01</ele>
        <time>2026-05-13T14:27:31Z</time>
      </trkpt>
      <trkpt lat="44.86339" lon="1.81259">
        <ele>289.01</ele>
        <time>2026-05-13T14:27:32Z</time>
      </trkpt>
      <trkpt lat="44.86342" lon="1.81256">
        <ele>290.46</ele>
        <time>2026-05-13T14:27:36Z</time>
      </trkpt>
      <trkpt lat="44.86345" lon="1.81252">
        <ele>290.94</ele>
        <time>2026-05-13T14:27:39Z</time>
      </trkpt>
      <trkpt lat="44.86346" lon="1.81251">
        <ele>290.94</ele>
        <time>2026-05-13T14:27:40Z</time>
      </trkpt>
      <trkpt lat="44.86347" lon="1.8125">
        <ele>290.94</ele>
        <time>2026-05-13T14:27:41Z</time>
      </trkpt>
      <trkpt lat="44.8636" lon="1.8124">
        <ele>292.86</ele>
        <time>2026-05-13T14:27:55Z</time>
      </trkpt>
      <trkpt lat="44.86375" lon="1.81228">
        <ele>294.3</ele>
        <time>2026-05-13T14:28:08Z</time>
      </trkpt>
      <trkpt lat="44.86391" lon="1.81213">
        <ele>294.78</ele>
        <time>2026-05-13T14:28:23Z</time>
      </trkpt>
      <trkpt lat="44.86407" lon="1.81198">
        <ele>296.22</ele>
        <time>2026-05-13T14:28:38Z</time>
      </trkpt>
      <trkpt lat="44.86424" lon="1.81184">
        <ele>297.18</ele>
        <time>2026-05-13T14:28:52Z</time>
      </trkpt>
      <trkpt lat="44.86441" lon="1.81173">
        <ele>298.15</ele>
        <time>2026-05-13T14:29:06Z</time>
      </trkpt>
      <trkpt lat="44.86457" lon="1.8116">
        <ele>298.15</ele>
        <time>2026-05-13T14:29:21Z</time>
      </trkpt>
      <trkpt lat="44.86473" lon="1.81144">
        <ele>298.15</ele>
        <time>2026-05-13T14:29:35Z</time>
      </trkpt>
      <trkpt lat="44.86492" lon="1.81127">
        <ele>299.11</ele>
        <time>2026-05-13T14:29:51Z</time>
      </trkpt>
      <trkpt lat="44.86503" lon="1.81118">
        <ele>299.11</ele>
        <time>2026-05-13T14:30:03Z</time>
      </trkpt>
      <trkpt lat="44.86522" lon="1.81101">
        <ele>299.11</ele>
        <time>2026-05-13T14:30:17Z</time>
      </trkpt>
      <trkpt lat="44.86525" lon="1.81096">
        <ele>299.11</ele>
        <time>2026-05-13T14:30:22Z</time>
      </trkpt>
      <trkpt lat="44.86526" lon="1.81095">
        <ele>299.11</ele>
        <time>2026-05-13T14:30:23Z</time>
      </trkpt>
      <trkpt lat="44.86544" lon="1.81078">
        <ele>300.07</ele>
        <time>2026-05-13T14:30:38Z</time>
      </trkpt>
      <trkpt lat="44.86559" lon="1.81064">
        <ele>298.63</ele>
        <time>2026-05-13T14:30:51Z</time>
      </trkpt>
      <trkpt lat="44.86565" lon="1.81056">
        <ele>298.15</ele>
        <time>2026-05-13T14:30:58Z</time>
      </trkpt>
      <trkpt lat="44.86566" lon="1.81055">
        <ele>298.15</ele>
        <time>2026-05-13T14:30:59Z</time>
      </trkpt>
      <trkpt lat="44.86567" lon="1.81054">
        <ele>298.15</ele>
        <time>2026-05-13T14:31:00Z</time>
      </trkpt>
      <trkpt lat="44.86568" lon="1.81053">
        <ele>298.15</ele>
        <time>2026-05-13T14:31:01Z</time>
      </trkpt>
      <trkpt lat="44.8657" lon="1.81051">
        <ele>298.15</ele>
        <time>2026-05-13T14:31:02Z</time>
      </trkpt>
      <trkpt lat="44.86572" lon="1.81047">
        <ele>298.15</ele>
        <time>2026-05-13T14:31:06Z</time>
      </trkpt>
      <trkpt lat="44.86574" lon="1.81045">
        <ele>298.15</ele>
        <time>2026-05-13T14:31:08Z</time>
      </trkpt>
      <trkpt lat="44.86588" lon="1.81031">
        <ele>297.67</ele>
        <time>2026-05-13T14:31:21Z</time>
      </trkpt>
      <trkpt lat="44.86604" lon="1.81018">
        <ele>297.18</ele>
        <time>2026-05-13T14:31:35Z</time>
      </trkpt>
      <trkpt lat="44.86617" lon="1.81003">
        <ele>299.11</ele>
        <time>2026-05-13T14:31:49Z</time>
      </trkpt>
      <trkpt lat="44.86618" lon="1.81001">
        <ele>300.07</ele>
        <time>2026-05-13T14:31:51Z</time>
      </trkpt>
      <trkpt lat="44.86619" lon="1.80999">
        <ele>300.07</ele>
        <time>2026-05-13T14:31:52Z</time>
      </trkpt>
      <trkpt lat="44.86621" lon="1.80998">
        <ele>300.07</ele>
        <time>2026-05-13T14:31:53Z</time>
      </trkpt>
      <trkpt lat="44.86622" lon="1.80997">
        <ele>300.07</ele>
        <time>2026-05-13T14:31:54Z</time>
      </trkpt>
      <trkpt lat="44.86624" lon="1.80996">
        <ele>300.07</ele>
        <time>2026-05-13T14:31:55Z</time>
      </trkpt>
      <trkpt lat="44.86643" lon="1.80981">
        <ele>301.03</ele>
        <time>2026-05-13T14:32:10Z</time>
      </trkpt>
      <trkpt lat="44.86654" lon="1.80967">
        <ele>301.99</ele>
        <time>2026-05-13T14:32:23Z</time>
      </trkpt>
      <trkpt lat="44.86655" lon="1.80965">
        <ele>301.99</ele>
        <time>2026-05-13T14:32:24Z</time>
      </trkpt>
      <trkpt lat="44.86656" lon="1.80963">
        <ele>301.99</ele>
        <time>2026-05-13T14:32:25Z</time>
      </trkpt>
      <trkpt lat="44.86669" lon="1.80952">
        <ele>303.91</ele>
        <time>2026-05-13T14:32:39Z</time>
      </trkpt>
      <trkpt lat="44.86672" lon="1.8095">
        <ele>304.39</ele>
        <time>2026-05-13T14:32:42Z</time>
      </trkpt>
      <trkpt lat="44.86673" lon="1.80949">
        <ele>304.39</ele>
        <time>2026-05-13T14:32:43Z</time>
      </trkpt>
      <trkpt lat="44.86686" lon="1.80937">
        <ele>305.84</ele>
        <time>2026-05-13T14:32:56Z</time>
      </trkpt>
      <trkpt lat="44.86697" lon="1.80927">
        <ele>307.28</ele>
        <time>2026-05-13T14:33:09Z</time>
      </trkpt>
      <trkpt lat="44.86699" lon="1.80925">
        <ele>308.24</ele>
        <time>2026-05-13T14:33:11Z</time>
      </trkpt>
      <trkpt lat="44.86714" lon="1.80915">
        <ele>310.16</ele>
        <time>2026-05-13T14:33:26Z</time>
      </trkpt>
      <trkpt lat="44.86715" lon="1.80915">
        <ele>310.16</ele>
        <time>2026-05-13T14:33:27Z</time>
      </trkpt>
      <trkpt lat="44.86731" lon="1.80907">
        <ele>311.6</ele>
        <time>2026-05-13T14:33:40Z</time>
      </trkpt>
      <trkpt lat="44.86742" lon="1.80899">
        <ele>313.05</ele>
        <time>2026-05-13T14:33:53Z</time>
      </trkpt>
      <trkpt lat="44.86759" lon="1.80891">
        <ele>314.49</ele>
        <time>2026-05-13T14:34:07Z</time>
      </trkpt>
      <trkpt lat="44.86768" lon="1.80883">
        <ele>315.45</ele>
        <time>2026-05-13T14:34:16Z</time>
      </trkpt>
      <trkpt lat="44.8677" lon="1.80882">
        <ele>315.45</ele>
        <time>2026-05-13T14:34:17Z</time>
      </trkpt>
      <trkpt lat="44.86771" lon="1.80881">
        <ele>315.45</ele>
        <time>2026-05-13T14:34:18Z</time>
      </trkpt>
      <trkpt lat="44.86787" lon="1.8087">
        <ele>317.85</ele>
        <time>2026-05-13T14:34:35Z</time>
      </trkpt>
      <trkpt lat="44.86802" lon="1.80861">
        <ele>320.26</ele>
        <time>2026-05-13T14:34:50Z</time>
      </trkpt>
      <trkpt lat="44.8682" lon="1.8086">
        <ele>321.7</ele>
        <time>2026-05-13T14:35:05Z</time>
      </trkpt>
      <trkpt lat="44.86839" lon="1.80858">
        <ele>322.18</ele>
        <time>2026-05-13T14:35:19Z</time>
      </trkpt>
      <trkpt lat="44.8686" lon="1.80847">
        <ele>324.1</ele>
        <time>2026-05-13T14:35:36Z</time>
      </trkpt>
      <trkpt lat="44.86873" lon="1.80837">
        <ele>325.54</ele>
        <time>2026-05-13T14:35:49Z</time>
      </trkpt>
      <trkpt lat="44.86877" lon="1.80836">
        <ele>325.54</ele>
        <time>2026-05-13T14:35:59Z</time>
      </trkpt>
      <trkpt lat="44.86878" lon="1.80835">
        <ele>325.54</ele>
        <time>2026-05-13T14:36:00Z</time>
      </trkpt>
      <trkpt lat="44.86887" lon="1.80828">
        <ele>327.47</ele>
        <time>2026-05-13T14:36:09Z</time>
      </trkpt>
      <trkpt lat="44.8689" lon="1.8083">
        <ele>327.47</ele>
        <time>2026-05-13T14:36:24Z</time>
      </trkpt>
      <trkpt lat="44.86892" lon="1.80826">
        <ele>327.95</ele>
        <time>2026-05-13T14:36:43Z</time>
      </trkpt>
      <trkpt lat="44.86894" lon="1.80825">
        <ele>327.95</ele>
        <time>2026-05-13T14:36:44Z</time>
      </trkpt>
      <trkpt lat="44.86895" lon="1.80823">
        <ele>327.95</ele>
        <time>2026-05-13T14:36:45Z</time>
      </trkpt>
      <trkpt lat="44.86896" lon="1.80822">
        <ele>327.95</ele>
        <time>2026-05-13T14:36:46Z</time>
      </trkpt>
      <trkpt lat="44.86907" lon="1.8081">
        <ele>329.87</ele>
        <time>2026-05-13T14:36:59Z</time>
      </trkpt>
      <trkpt lat="44.86909" lon="1.80808">
        <ele>329.87</ele>
        <time>2026-05-13T14:37:01Z</time>
      </trkpt>
      <trkpt lat="44.86911" lon="1.80806">
        <ele>329.87</ele>
        <time>2026-05-13T14:37:03Z</time>
      </trkpt>
      <trkpt lat="44.86927" lon="1.80791">
        <ele>331.79</ele>
        <time>2026-05-13T14:37:19Z</time>
      </trkpt>
      <trkpt lat="44.86942" lon="1.80779">
        <ele>333.23</ele>
        <time>2026-05-13T14:37:33Z</time>
      </trkpt>
      <trkpt lat="44.86956" lon="1.80764">
        <ele>333.71</ele>
        <time>2026-05-13T14:37:46Z</time>
      </trkpt>
      <trkpt lat="44.86965" lon="1.80747">
        <ele>334.68</ele>
        <time>2026-05-13T14:37:59Z</time>
      </trkpt>
      <trkpt lat="44.86975" lon="1.80729">
        <ele>335.64</ele>
        <time>2026-05-13T14:38:12Z</time>
      </trkpt>
      <trkpt lat="44.86976" lon="1.80727">
        <ele>335.64</ele>
        <time>2026-05-13T14:38:13Z</time>
      </trkpt>
      <trkpt lat="44.86977" lon="1.80726">
        <ele>335.64</ele>
        <time>2026-05-13T14:38:14Z</time>
      </trkpt>
      <trkpt lat="44.86978" lon="1.80724">
        <ele>335.64</ele>
        <time>2026-05-13T14:38:15Z</time>
      </trkpt>
      <trkpt lat="44.86979" lon="1.80722">
        <ele>335.64</ele>
        <time>2026-05-13T14:38:16Z</time>
      </trkpt>
      <trkpt lat="44.86979" lon="1.8072">
        <ele>335.64</ele>
        <time>2026-05-13T14:38:17Z</time>
      </trkpt>
      <trkpt lat="44.8698" lon="1.80718">
        <ele>335.64</ele>
        <time>2026-05-13T14:38:18Z</time>
      </trkpt>
      <trkpt lat="44.86985" lon="1.80709">
        <ele>336.12</ele>
        <time>2026-05-13T14:38:25Z</time>
      </trkpt>
      <trkpt lat="44.86986" lon="1.80707">
        <ele>336.12</ele>
        <time>2026-05-13T14:38:26Z</time>
      </trkpt>
      <trkpt lat="44.86988" lon="1.80706">
        <ele>336.12</ele>
        <time>2026-05-13T14:38:27Z</time>
      </trkpt>
      <trkpt lat="44.8699" lon="1.80704">
        <ele>336.12</ele>
        <time>2026-05-13T14:38:28Z</time>
      </trkpt>
      <trkpt lat="44.86991" lon="1.80702">
        <ele>336.12</ele>
        <time>2026-05-13T14:38:29Z</time>
      </trkpt>
      <trkpt lat="44.86993" lon="1.80701">
        <ele>336.12</ele>
        <time>2026-05-13T14:38:30Z</time>
      </trkpt>
      <trkpt lat="44.86997" lon="1.80696">
        <ele>336.12</ele>
        <time>2026-05-13T14:38:35Z</time>
      </trkpt>
      <trkpt lat="44.86998" lon="1.80694">
        <ele>336.12</ele>
        <time>2026-05-13T14:38:36Z</time>
      </trkpt>
      <trkpt lat="44.86999" lon="1.80693">
        <ele>336.12</ele>
        <time>2026-05-13T14:38:37Z</time>
      </trkpt>
      <trkpt lat="44.87014" lon="1.80678">
        <ele>336.12</ele>
        <time>2026-05-13T14:38:51Z</time>
      </trkpt>
      <trkpt lat="44.87033" lon="1.80663">
        <ele>334.2</ele>
        <time>2026-05-13T14:39:06Z</time>
      </trkpt>
      <trkpt lat="44.87051" lon="1.80651">
        <ele>332.75</ele>
        <time>2026-05-13T14:39:20Z</time>
      </trkpt>
      <trkpt lat="44.87066" lon="1.80638">
        <ele>332.27</ele>
        <time>2026-05-13T14:39:34Z</time>
      </trkpt>
      <trkpt lat="44.87082" lon="1.80616">
        <ele>332.27</ele>
        <time>2026-05-13T14:39:49Z</time>
      </trkpt>
      <trkpt lat="44.87086" lon="1.80612">
        <ele>333.71</ele>
        <time>2026-05-13T14:39:53Z</time>
      </trkpt>
      <trkpt lat="44.87087" lon="1.8061">
        <ele>333.71</ele>
        <time>2026-05-13T14:39:54Z</time>
      </trkpt>
      <trkpt lat="44.87088" lon="1.80609">
        <ele>333.71</ele>
        <time>2026-05-13T14:39:55Z</time>
      </trkpt>
      <trkpt lat="44.8709" lon="1.80607">
        <ele>333.71</ele>
        <time>2026-05-13T14:39:56Z</time>
      </trkpt>
      <trkpt lat="44.8709" lon="1.80605">
        <ele>333.71</ele>
        <time>2026-05-13T14:39:57Z</time>
      </trkpt>
      <trkpt lat="44.87103" lon="1.80591">
        <ele>333.71</ele>
        <time>2026-05-13T14:40:10Z</time>
      </trkpt>
      <trkpt lat="44.87118" lon="1.80573">
        <ele>333.71</ele>
        <time>2026-05-13T14:40:24Z</time>
      </trkpt>
      <trkpt lat="44.8713" lon="1.8056">
        <ele>332.75</ele>
        <time>2026-05-13T14:40:36Z</time>
      </trkpt>
      <trkpt lat="44.87144" lon="1.80556">
        <ele>331.79</ele>
        <time>2026-05-13T14:40:48Z</time>
      </trkpt>
      <trkpt lat="44.87144" lon="1.80556">
        <ele>331.79</ele>
        <time>2026-05-13T14:41:08Z</time>
      </trkpt>
      <trkpt lat="44.87159" lon="1.80553">
        <ele>331.79</ele>
        <time>2026-05-13T14:41:26Z</time>
      </trkpt>
      <trkpt lat="44.87169" lon="1.80542">
        <ele>332.75</ele>
        <time>2026-05-13T14:41:38Z</time>
      </trkpt>
      <trkpt lat="44.87169" lon="1.8054">
        <ele>332.75</ele>
        <time>2026-05-13T14:41:39Z</time>
      </trkpt>
      <trkpt lat="44.8717" lon="1.80537">
        <ele>332.75</ele>
        <time>2026-05-13T14:41:40Z</time>
      </trkpt>
      <trkpt lat="44.87174" lon="1.80522">
        <ele>333.71</ele>
        <time>2026-05-13T14:41:49Z</time>
      </trkpt>
      <trkpt lat="44.87175" lon="1.8052">
        <ele>333.71</ele>
        <time>2026-05-13T14:41:50Z</time>
      </trkpt>
      <trkpt lat="44.87175" lon="1.80518">
        <ele>332.27</ele>
        <time>2026-05-13T14:41:51Z</time>
      </trkpt>
      <trkpt lat="44.87176" lon="1.80516">
        <ele>332.27</ele>
        <time>2026-05-13T14:41:52Z</time>
      </trkpt>
      <trkpt lat="44.87177" lon="1.80505">
        <ele>331.79</ele>
        <time>2026-05-13T14:41:59Z</time>
      </trkpt>
      <trkpt lat="44.87175" lon="1.80496">
        <ele>331.79</ele>
        <time>2026-05-13T14:42:10Z</time>
      </trkpt>
      <trkpt lat="44.87172" lon="1.80491">
        <ele>330.35</ele>
        <time>2026-05-13T14:42:32Z</time>
      </trkpt>
      <trkpt lat="44.87172" lon="1.80487">
        <ele>331.31</ele>
        <time>2026-05-13T14:42:36Z</time>
      </trkpt>
      <trkpt lat="44.87168" lon="1.80477">
        <ele>329.87</ele>
        <time>2026-05-13T14:42:42Z</time>
      </trkpt>
      <trkpt lat="44.87157" lon="1.80448">
        <ele>329.39</ele>
        <time>2026-05-13T14:42:58Z</time>
      </trkpt>
      <trkpt lat="44.87143" lon="1.80433">
        <ele>328.43</ele>
        <time>2026-05-13T14:43:11Z</time>
      </trkpt>
      <trkpt lat="44.8714" lon="1.80432">
        <ele>328.43</ele>
        <time>2026-05-13T14:43:13Z</time>
      </trkpt>
      <trkpt lat="44.87133" lon="1.8043">
        <ele>327.95</ele>
        <time>2026-05-13T14:43:27Z</time>
      </trkpt>
      <trkpt lat="44.87134" lon="1.80425">
        <ele>327.95</ele>
        <time>2026-05-13T14:43:50Z</time>
      </trkpt>
      <trkpt lat="44.87135" lon="1.80422">
        <ele>327.95</ele>
        <time>2026-05-13T14:44:02Z</time>
      </trkpt>
      <trkpt lat="44.87137" lon="1.80418">
        <ele>327.47</ele>
        <time>2026-05-13T14:44:05Z</time>
      </trkpt>
      <trkpt lat="44.87148" lon="1.80409">
        <ele>326.99</ele>
        <time>2026-05-13T14:44:18Z</time>
      </trkpt>
      <trkpt lat="44.87147" lon="1.80408">
        <ele>326.99</ele>
        <time>2026-05-13T14:44:19Z</time>
      </trkpt>
      <trkpt lat="44.87146" lon="1.80406">
        <ele>326.99</ele>
        <time>2026-05-13T14:44:21Z</time>
      </trkpt>
      <trkpt lat="44.87135" lon="1.80392">
        <ele>326.99</ele>
        <time>2026-05-13T14:44:35Z</time>
      </trkpt>
      <trkpt lat="44.87118" lon="1.80366">
        <ele>326.5</ele>
        <time>2026-05-13T14:44:50Z</time>
      </trkpt>
      <trkpt lat="44.87107" lon="1.80351">
        <ele>326.5</ele>
        <time>2026-05-13T14:45:01Z</time>
      </trkpt>
      <trkpt lat="44.87106" lon="1.8035">
        <ele>326.5</ele>
        <time>2026-05-13T14:45:02Z</time>
      </trkpt>
      <trkpt lat="44.87105" lon="1.80349">
        <ele>326.5</ele>
        <time>2026-05-13T14:45:03Z</time>
      </trkpt>
      <trkpt lat="44.87103" lon="1.80347">
        <ele>326.02</ele>
        <time>2026-05-13T14:45:18Z</time>
      </trkpt>
      <trkpt lat="44.8709" lon="1.80328">
        <ele>326.02</ele>
        <time>2026-05-13T14:45:33Z</time>
      </trkpt>
      <trkpt lat="44.8708" lon="1.80317">
        <ele>327.95</ele>
        <time>2026-05-13T14:45:46Z</time>
      </trkpt>
      <trkpt lat="44.87065" lon="1.80296">
        <ele>329.87</ele>
        <time>2026-05-13T14:46:01Z</time>
      </trkpt>
      <trkpt lat="44.87046" lon="1.80281">
        <ele>331.79</ele>
        <time>2026-05-13T14:46:17Z</time>
      </trkpt>
      <trkpt lat="44.87029" lon="1.8027">
        <ele>333.71</ele>
        <time>2026-05-13T14:46:33Z</time>
      </trkpt>
      <trkpt lat="44.87027" lon="1.80267">
        <ele>333.71</ele>
        <time>2026-05-13T14:46:36Z</time>
      </trkpt>
      <trkpt lat="44.87023" lon="1.80262">
        <ele>335.16</ele>
        <time>2026-05-13T14:46:40Z</time>
      </trkpt>
      <trkpt lat="44.87008" lon="1.80243">
        <ele>336.12</ele>
        <time>2026-05-13T14:46:55Z</time>
      </trkpt>
      <trkpt lat="44.86994" lon="1.80218">
        <ele>337.56</ele>
        <time>2026-05-13T14:47:11Z</time>
      </trkpt>
      <trkpt lat="44.86994" lon="1.80215">
        <ele>337.56</ele>
        <time>2026-05-13T14:47:13Z</time>
      </trkpt>
      <trkpt lat="44.86997" lon="1.80194">
        <ele>339</ele>
        <time>2026-05-13T14:47:28Z</time>
      </trkpt>
      <trkpt lat="44.87" lon="1.80177">
        <ele>339.48</ele>
        <time>2026-05-13T14:47:36Z</time>
      </trkpt>
      <trkpt lat="44.87002" lon="1.80163">
        <ele>339.48</ele>
        <time>2026-05-13T14:47:45Z</time>
      </trkpt>
      <trkpt lat="44.87002" lon="1.80161">
        <ele>339.96</ele>
        <time>2026-05-13T14:47:46Z</time>
      </trkpt>
      <trkpt lat="44.87002" lon="1.80158">
        <ele>339.96</ele>
        <time>2026-05-13T14:47:47Z</time>
      </trkpt>
      <trkpt lat="44.87001" lon="1.80124">
        <ele>341.89</ele>
        <time>2026-05-13T14:48:01Z</time>
      </trkpt>
      <trkpt lat="44.87" lon="1.80115">
        <ele>340.44</ele>
        <time>2026-05-13T14:48:09Z</time>
      </trkpt>
      <trkpt lat="44.86998" lon="1.80091">
        <ele>341.89</ele>
        <time>2026-05-13T14:48:22Z</time>
      </trkpt>
      <trkpt lat="44.86995" lon="1.80091">
        <ele>340.44</ele>
        <time>2026-05-13T14:48:34Z</time>
      </trkpt>
      <trkpt lat="44.86994" lon="1.80089">
        <ele>339.96</ele>
        <time>2026-05-13T14:48:36Z</time>
      </trkpt>
      <trkpt lat="44.86987" lon="1.80084">
        <ele>340.44</ele>
        <time>2026-05-13T14:48:51Z</time>
      </trkpt>
      <trkpt lat="44.86985" lon="1.80083">
        <ele>340.44</ele>
        <time>2026-05-13T14:49:13Z</time>
      </trkpt>
      <trkpt lat="44.86984" lon="1.80083">
        <ele>340.92</ele>
        <time>2026-05-13T14:49:31Z</time>
      </trkpt>
    </trkseg>
  </trk>
</gpx>